<?xml version="1.0" encoding="UTF-8" standalone="no" ?>
<gpx xmlns="http://www.topografix.com/GPX/1/1" xmlns:xsi="http://www.w3.org/2001/XMLSchema-instance" xsi:schemaLocation="http://www.topografix.com/GPX/1/1 http://www.topografix.com/GPX/1/1/gpx.xsd" version="1.1" creator="VisuGPX - https://www.visugpx.com">
  <metadata>
    <name>2016-01-28 Walk from St-Appolinaire</name>
    <desc><![CDATA[2016-01-28 Walk from St-Appolinaire]]></desc>
  </metadata>
  <wpt lat="45.97632" lon="4.42403">
    <ele>764.3</ele>
    <name><![CDATA[2016-01-28 09:14 (Start)]]></name>
  </wpt>
  <wpt lat="45.97624" lon="4.42405">
    <ele>744.9</ele>
    <name><![CDATA[2016-01-28 09:14 (End)]]></name>
    <desc><![CDATA[Created by Google My Tracks on Android  Name: 2016-01-28 09:14 Activity type: walking Description: - Total distance: 24.53 km (15.2 mi) Total time: 6:23:02 Moving time: 5:38:50 Average speed: 3.84 km/h (2.4 mi/h) Average moving speed: 4.34 km/h (2.7 mi/h) Max speed: 5.30 km/h (3.3 mi/h) Average pace: 15:37 min/km (25:08 min/mi) Average moving pace: 13:49 min/km (22:14 min/mi) Fastest pace: 11:20 min/km (18:14 min/mi) Max elevation: 882 m (2893 ft) Min elevation: 487 m (1598 ft) Elevation gain: 1599 m (5247 ft) Max grade: 28 % Min grade: -26 % Recorded: 28/01/2016 09:14]]></desc>
  </wpt>
  <trk>
    <name><![CDATA[2016-01-28 09:14]]></name>
    <trkseg>
      <trkpt lat="45.97632" lon="4.42403">
        <ele>764.285644531</ele>
        <time>2016-01-28T08:14:45.404Z</time>
      </trkpt>
      <trkpt lat="45.97632" lon="4.42403">
        <ele>764.285644531</ele>
        <time>2016-01-28T08:14:54.672Z</time>
      </trkpt>
      <trkpt lat="45.97632" lon="4.42404">
        <ele>751.696044922</ele>
        <time>2016-01-28T08:17:35.186Z</time>
      </trkpt>
      <trkpt lat="45.97646" lon="4.42409">
        <ele>751.701599121</ele>
        <time>2016-01-28T08:17:36.165Z</time>
      </trkpt>
      <trkpt lat="45.97646" lon="4.42409">
        <ele>750.809875488</ele>
        <time>2016-01-28T08:17:44.154Z</time>
      </trkpt>
      <trkpt lat="45.97658" lon="4.42406">
        <ele>750.707458496</ele>
        <time>2016-01-28T08:17:45.175Z</time>
      </trkpt>
      <trkpt lat="45.97664" lon="4.424">
        <ele>750.039855957</ele>
        <time>2016-01-28T08:17:51.208Z</time>
      </trkpt>
      <trkpt lat="45.97665" lon="4.42399">
        <ele>749.912658691</ele>
        <time>2016-01-28T08:17:52.164Z</time>
      </trkpt>
      <trkpt lat="45.97671" lon="4.42391">
        <ele>749.124450684</ele>
        <time>2016-01-28T08:17:58.205Z</time>
      </trkpt>
      <trkpt lat="45.97672" lon="4.42389">
        <ele>748.97052002</ele>
        <time>2016-01-28T08:17:59.168Z</time>
      </trkpt>
      <trkpt lat="45.97678" lon="4.42381">
        <ele>748.425354004</ele>
        <time>2016-01-28T08:18:05.18Z</time>
      </trkpt>
      <trkpt lat="45.97679" lon="4.42379">
        <ele>748.324768066</ele>
        <time>2016-01-28T08:18:06.161Z</time>
      </trkpt>
      <trkpt lat="45.97685" lon="4.42369">
        <ele>747.821716309</ele>
        <time>2016-01-28T08:18:11.176Z</time>
      </trkpt>
      <trkpt lat="45.97686" lon="4.42367">
        <ele>747.766967773</ele>
        <time>2016-01-28T08:18:12.155Z</time>
      </trkpt>
      <trkpt lat="45.9769" lon="4.42357">
        <ele>747.68170166</ele>
        <time>2016-01-28T08:18:18.191Z</time>
      </trkpt>
      <trkpt lat="45.97691" lon="4.42356">
        <ele>747.679321289</ele>
        <time>2016-01-28T08:18:19.167Z</time>
      </trkpt>
      <trkpt lat="45.97696" lon="4.42346">
        <ele>747.766052246</ele>
        <time>2016-01-28T08:18:25.19Z</time>
      </trkpt>
      <trkpt lat="45.97696" lon="4.42344">
        <ele>747.785888672</ele>
        <time>2016-01-28T08:18:26.155Z</time>
      </trkpt>
      <trkpt lat="45.97703" lon="4.42336">
        <ele>747.141052246</ele>
        <time>2016-01-28T08:18:33.347Z</time>
      </trkpt>
      <trkpt lat="45.97704" lon="4.42336">
        <ele>747.085754395</ele>
        <time>2016-01-28T08:18:34.161Z</time>
      </trkpt>
      <trkpt lat="45.97709" lon="4.42325">
        <ele>748.635681152</ele>
        <time>2016-01-28T08:18:43.204Z</time>
      </trkpt>
      <trkpt lat="45.9771" lon="4.42322">
        <ele>748.733276367</ele>
        <time>2016-01-28T08:18:44.169Z</time>
      </trkpt>
      <trkpt lat="45.97716" lon="4.42314">
        <ele>748.32800293</ele>
        <time>2016-01-28T08:18:49.195Z</time>
      </trkpt>
      <trkpt lat="45.97718" lon="4.42312">
        <ele>748.203186035</ele>
        <time>2016-01-28T08:18:50.169Z</time>
      </trkpt>
      <trkpt lat="45.97723" lon="4.42302">
        <ele>747.590270996</ele>
        <time>2016-01-28T08:18:57.177Z</time>
      </trkpt>
      <trkpt lat="45.97723" lon="4.42301">
        <ele>747.553344727</ele>
        <time>2016-01-28T08:18:58.149Z</time>
      </trkpt>
      <trkpt lat="45.97723" lon="4.42288">
        <ele>748.630554199</ele>
        <time>2016-01-28T08:19:09.159Z</time>
      </trkpt>
      <trkpt lat="45.97722" lon="4.42286">
        <ele>748.794555664</ele>
        <time>2016-01-28T08:19:10.141Z</time>
      </trkpt>
      <trkpt lat="45.97718" lon="4.42276">
        <ele>749.149414062</ele>
        <time>2016-01-28T08:19:14.154Z</time>
      </trkpt>
      <trkpt lat="45.97718" lon="4.42274">
        <ele>749.18145752</ele>
        <time>2016-01-28T08:19:15.149Z</time>
      </trkpt>
      <trkpt lat="45.97714" lon="4.42262">
        <ele>748.998779297</ele>
        <time>2016-01-28T08:19:21.182Z</time>
      </trkpt>
      <trkpt lat="45.97713" lon="4.4226">
        <ele>748.92010498</ele>
        <time>2016-01-28T08:19:22.198Z</time>
      </trkpt>
      <trkpt lat="45.97709" lon="4.42249">
        <ele>748.484802246</ele>
        <time>2016-01-28T08:19:29.156Z</time>
      </trkpt>
      <trkpt lat="45.97709" lon="4.42247">
        <ele>748.438659668</ele>
        <time>2016-01-28T08:19:30.142Z</time>
      </trkpt>
      <trkpt lat="45.97706" lon="4.42235">
        <ele>748.266174316</ele>
        <time>2016-01-28T08:19:37.179Z</time>
      </trkpt>
      <trkpt lat="45.97705" lon="4.42234">
        <ele>748.308837891</ele>
        <time>2016-01-28T08:19:38.141Z</time>
      </trkpt>
      <trkpt lat="45.977" lon="4.42225">
        <ele>748.427368164</ele>
        <time>2016-01-28T08:19:44.172Z</time>
      </trkpt>
      <trkpt lat="45.97699" lon="4.42223">
        <ele>748.429138184</ele>
        <time>2016-01-28T08:19:45.141Z</time>
      </trkpt>
      <trkpt lat="45.97696" lon="4.42211">
        <ele>748.805175781</ele>
        <time>2016-01-28T08:19:53.178Z</time>
      </trkpt>
      <trkpt lat="45.97695" lon="4.42209">
        <ele>748.861755371</ele>
        <time>2016-01-28T08:19:54.138Z</time>
      </trkpt>
      <trkpt lat="45.9769" lon="4.42199">
        <ele>749.342224121</ele>
        <time>2016-01-28T08:20:01.159Z</time>
      </trkpt>
      <trkpt lat="45.97689" lon="4.42198">
        <ele>749.432067871</ele>
        <time>2016-01-28T08:20:02.142Z</time>
      </trkpt>
      <trkpt lat="45.97685" lon="4.42188">
        <ele>750.13293457</ele>
        <time>2016-01-28T08:20:08.166Z</time>
      </trkpt>
      <trkpt lat="45.97684" lon="4.42187">
        <ele>750.212036133</ele>
        <time>2016-01-28T08:20:09.149Z</time>
      </trkpt>
      <trkpt lat="45.97679" lon="4.42176">
        <ele>750.379943848</ele>
        <time>2016-01-28T08:20:14.178Z</time>
      </trkpt>
      <trkpt lat="45.97679" lon="4.42174">
        <ele>750.367004395</ele>
        <time>2016-01-28T08:20:15.152Z</time>
      </trkpt>
      <trkpt lat="45.97675" lon="4.42163">
        <ele>750.417480469</ele>
        <time>2016-01-28T08:20:22.158Z</time>
      </trkpt>
      <trkpt lat="45.97675" lon="4.42161">
        <ele>750.442138672</ele>
        <time>2016-01-28T08:20:23.143Z</time>
      </trkpt>
      <trkpt lat="45.97673" lon="4.42149">
        <ele>750.577026367</ele>
        <time>2016-01-28T08:20:29.257Z</time>
      </trkpt>
      <trkpt lat="45.97673" lon="4.42147">
        <ele>750.584960938</ele>
        <time>2016-01-28T08:20:30.156Z</time>
      </trkpt>
      <trkpt lat="45.97671" lon="4.42136">
        <ele>750.70135498</ele>
        <time>2016-01-28T08:20:36.164Z</time>
      </trkpt>
      <trkpt lat="45.97671" lon="4.42133">
        <ele>750.724975586</ele>
        <time>2016-01-28T08:20:37.144Z</time>
      </trkpt>
      <trkpt lat="45.9767" lon="4.42122">
        <ele>750.895812988</ele>
        <time>2016-01-28T08:20:43.175Z</time>
      </trkpt>
      <trkpt lat="45.9767" lon="4.4212">
        <ele>750.915283203</ele>
        <time>2016-01-28T08:20:44.144Z</time>
      </trkpt>
      <trkpt lat="45.97672" lon="4.42108">
        <ele>750.893005371</ele>
        <time>2016-01-28T08:20:51.169Z</time>
      </trkpt>
      <trkpt lat="45.97672" lon="4.42107">
        <ele>750.90032959</ele>
        <time>2016-01-28T08:20:52.144Z</time>
      </trkpt>
      <trkpt lat="45.97671" lon="4.42097">
        <ele>750.952941895</ele>
        <time>2016-01-28T08:20:57.231Z</time>
      </trkpt>
      <trkpt lat="45.97672" lon="4.42093">
        <ele>750.952331543</ele>
        <time>2016-01-28T08:20:58.156Z</time>
      </trkpt>
      <trkpt lat="45.97672" lon="4.42081">
        <ele>750.903381348</ele>
        <time>2016-01-28T08:21:05.174Z</time>
      </trkpt>
      <trkpt lat="45.97672" lon="4.4208">
        <ele>750.965270996</ele>
        <time>2016-01-28T08:21:06.145Z</time>
      </trkpt>
      <trkpt lat="45.97671" lon="4.42067">
        <ele>751.349609375</ele>
        <time>2016-01-28T08:21:14.165Z</time>
      </trkpt>
      <trkpt lat="45.97671" lon="4.42066">
        <ele>751.422973633</ele>
        <time>2016-01-28T08:21:15.145Z</time>
      </trkpt>
      <trkpt lat="45.97672" lon="4.42056">
        <ele>751.955627441</ele>
        <time>2016-01-28T08:21:21.182Z</time>
      </trkpt>
      <trkpt lat="45.97672" lon="4.42053">
        <ele>751.99005127</ele>
        <time>2016-01-28T08:21:22.146Z</time>
      </trkpt>
      <trkpt lat="45.97673" lon="4.4204">
        <ele>752.481018066</ele>
        <time>2016-01-28T08:21:29.179Z</time>
      </trkpt>
      <trkpt lat="45.97673" lon="4.42038">
        <ele>752.547485352</ele>
        <time>2016-01-28T08:21:30.136Z</time>
      </trkpt>
      <trkpt lat="45.97673" lon="4.42026">
        <ele>753.056091309</ele>
        <time>2016-01-28T08:21:37.178Z</time>
      </trkpt>
      <trkpt lat="45.97673" lon="4.42025">
        <ele>753.138061523</ele>
        <time>2016-01-28T08:21:38.158Z</time>
      </trkpt>
      <trkpt lat="45.97674" lon="4.42013">
        <ele>753.62286377</ele>
        <time>2016-01-28T08:21:44.171Z</time>
      </trkpt>
      <trkpt lat="45.97674" lon="4.42011">
        <ele>753.698364258</ele>
        <time>2016-01-28T08:21:45.145Z</time>
      </trkpt>
      <trkpt lat="45.97675" lon="4.42">
        <ele>754.212463379</ele>
        <time>2016-01-28T08:21:51.165Z</time>
      </trkpt>
      <trkpt lat="45.97675" lon="4.41998">
        <ele>754.310180664</ele>
        <time>2016-01-28T08:21:52.149Z</time>
      </trkpt>
      <trkpt lat="45.97677" lon="4.41986">
        <ele>755.05255127</ele>
        <time>2016-01-28T08:21:59.183Z</time>
      </trkpt>
      <trkpt lat="45.97678" lon="4.41984">
        <ele>755.141723633</ele>
        <time>2016-01-28T08:22:00.153Z</time>
      </trkpt>
      <trkpt lat="45.9768" lon="4.41972">
        <ele>756.388671875</ele>
        <time>2016-01-28T08:22:07.17Z</time>
      </trkpt>
      <trkpt lat="45.97681" lon="4.4197">
        <ele>756.576599121</ele>
        <time>2016-01-28T08:22:08.148Z</time>
      </trkpt>
      <trkpt lat="45.97682" lon="4.41958">
        <ele>757.539916992</ele>
        <time>2016-01-28T08:22:14.169Z</time>
      </trkpt>
      <trkpt lat="45.97682" lon="4.41957">
        <ele>757.680114746</ele>
        <time>2016-01-28T08:22:15.161Z</time>
      </trkpt>
      <trkpt lat="45.97683" lon="4.41945">
        <ele>758.445373535</ele>
        <time>2016-01-28T08:22:21.19Z</time>
      </trkpt>
      <trkpt lat="45.97683" lon="4.41943">
        <ele>758.572021484</ele>
        <time>2016-01-28T08:22:22.16Z</time>
      </trkpt>
      <trkpt lat="45.97686" lon="4.41932">
        <ele>759.010681152</ele>
        <time>2016-01-28T08:22:28.191Z</time>
      </trkpt>
      <trkpt lat="45.97686" lon="4.4193">
        <ele>759.076477051</ele>
        <time>2016-01-28T08:22:29.175Z</time>
      </trkpt>
      <trkpt lat="45.97687" lon="4.41919">
        <ele>759.456420898</ele>
        <time>2016-01-28T08:22:35.185Z</time>
      </trkpt>
      <trkpt lat="45.97688" lon="4.41916">
        <ele>759.497253418</ele>
        <time>2016-01-28T08:22:36.162Z</time>
      </trkpt>
      <trkpt lat="45.9769" lon="4.41904">
        <ele>759.911987305</ele>
        <time>2016-01-28T08:22:42.191Z</time>
      </trkpt>
      <trkpt lat="45.9769" lon="4.41903">
        <ele>760.00402832</ele>
        <time>2016-01-28T08:22:43.162Z</time>
      </trkpt>
      <trkpt lat="45.97691" lon="4.41892">
        <ele>760.840881348</ele>
        <time>2016-01-28T08:22:51.18Z</time>
      </trkpt>
      <trkpt lat="45.97691" lon="4.41889">
        <ele>761.00402832</ele>
        <time>2016-01-28T08:22:52.163Z</time>
      </trkpt>
      <trkpt lat="45.97692" lon="4.41879">
        <ele>761.536193848</ele>
        <time>2016-01-28T08:22:57.182Z</time>
      </trkpt>
      <trkpt lat="45.97693" lon="4.41876">
        <ele>761.641723633</ele>
        <time>2016-01-28T08:22:58.169Z</time>
      </trkpt>
      <trkpt lat="45.97695" lon="4.41864">
        <ele>762.289978027</ele>
        <time>2016-01-28T08:23:04.189Z</time>
      </trkpt>
      <trkpt lat="45.97696" lon="4.41863">
        <ele>762.410339355</ele>
        <time>2016-01-28T08:23:05.165Z</time>
      </trkpt>
      <trkpt lat="45.97699" lon="4.41851">
        <ele>763.111022949</ele>
        <time>2016-01-28T08:23:12.203Z</time>
      </trkpt>
      <trkpt lat="45.97699" lon="4.41849">
        <ele>763.146484375</ele>
        <time>2016-01-28T08:23:13.155Z</time>
      </trkpt>
      <trkpt lat="45.97701" lon="4.41836">
        <ele>763.425842285</ele>
        <time>2016-01-28T08:23:20.193Z</time>
      </trkpt>
      <trkpt lat="45.97701" lon="4.41834">
        <ele>763.485107422</ele>
        <time>2016-01-28T08:23:21.152Z</time>
      </trkpt>
      <trkpt lat="45.97705" lon="4.41824">
        <ele>763.789794922</ele>
        <time>2016-01-28T08:23:27.191Z</time>
      </trkpt>
      <trkpt lat="45.97705" lon="4.41823">
        <ele>763.836669922</ele>
        <time>2016-01-28T08:23:28.156Z</time>
      </trkpt>
      <trkpt lat="45.97711" lon="4.41813">
        <ele>764.108093262</ele>
        <time>2016-01-28T08:23:34.192Z</time>
      </trkpt>
      <trkpt lat="45.97711" lon="4.41812">
        <ele>764.190368652</ele>
        <time>2016-01-28T08:23:35.166Z</time>
      </trkpt>
      <trkpt lat="45.97716" lon="4.41801">
        <ele>764.602478027</ele>
        <time>2016-01-28T08:23:41.192Z</time>
      </trkpt>
      <trkpt lat="45.97716" lon="4.418">
        <ele>764.686096191</ele>
        <time>2016-01-28T08:23:42.16Z</time>
      </trkpt>
      <trkpt lat="45.9772" lon="4.4179">
        <ele>765.034301758</ele>
        <time>2016-01-28T08:23:48.21Z</time>
      </trkpt>
      <trkpt lat="45.97721" lon="4.41788">
        <ele>765.102478027</ele>
        <time>2016-01-28T08:23:49.171Z</time>
      </trkpt>
      <trkpt lat="45.97725" lon="4.41777">
        <ele>765.418273926</ele>
        <time>2016-01-28T08:23:56.198Z</time>
      </trkpt>
      <trkpt lat="45.97726" lon="4.41775">
        <ele>765.423828125</ele>
        <time>2016-01-28T08:23:57.167Z</time>
      </trkpt>
      <trkpt lat="45.97729" lon="4.41764">
        <ele>765.91607666</ele>
        <time>2016-01-28T08:24:04.198Z</time>
      </trkpt>
      <trkpt lat="45.9773" lon="4.41763">
        <ele>766.020812988</ele>
        <time>2016-01-28T08:24:05.169Z</time>
      </trkpt>
      <trkpt lat="45.97731" lon="4.41751">
        <ele>766.882263184</ele>
        <time>2016-01-28T08:24:29.156Z</time>
      </trkpt>
      <trkpt lat="45.97732" lon="4.41749">
        <ele>766.959472656</ele>
        <time>2016-01-28T08:24:30.141Z</time>
      </trkpt>
      <trkpt lat="45.97733" lon="4.41737">
        <ele>768.039978027</ele>
        <time>2016-01-28T08:24:39.16Z</time>
      </trkpt>
      <trkpt lat="45.97734" lon="4.41736">
        <ele>768.304870605</ele>
        <time>2016-01-28T08:24:40.135Z</time>
      </trkpt>
      <trkpt lat="45.97733" lon="4.41724">
        <ele>769.61126709</ele>
        <time>2016-01-28T08:24:48.156Z</time>
      </trkpt>
      <trkpt lat="45.97733" lon="4.41722">
        <ele>769.722045898</ele>
        <time>2016-01-28T08:24:49.142Z</time>
      </trkpt>
      <trkpt lat="45.97733" lon="4.41709">
        <ele>770.278625488</ele>
        <time>2016-01-28T08:24:55.188Z</time>
      </trkpt>
      <trkpt lat="45.97733" lon="4.41707">
        <ele>770.364868164</ele>
        <time>2016-01-28T08:24:56.142Z</time>
      </trkpt>
      <trkpt lat="45.97733" lon="4.41695">
        <ele>770.862060547</ele>
        <time>2016-01-28T08:25:03.186Z</time>
      </trkpt>
      <trkpt lat="45.97733" lon="4.41694">
        <ele>770.974243164</ele>
        <time>2016-01-28T08:25:04.152Z</time>
      </trkpt>
      <trkpt lat="45.9773" lon="4.41683">
        <ele>771.713989258</ele>
        <time>2016-01-28T08:25:11.165Z</time>
      </trkpt>
      <trkpt lat="45.9773" lon="4.41681">
        <ele>771.820983887</ele>
        <time>2016-01-28T08:25:12.142Z</time>
      </trkpt>
      <trkpt lat="45.97727" lon="4.41671">
        <ele>772.409118652</ele>
        <time>2016-01-28T08:25:18.161Z</time>
      </trkpt>
      <trkpt lat="45.97726" lon="4.4167">
        <ele>772.521606445</ele>
        <time>2016-01-28T08:25:19.143Z</time>
      </trkpt>
      <trkpt lat="45.97719" lon="4.41663">
        <ele>772.818847656</ele>
        <time>2016-01-28T08:25:25.168Z</time>
      </trkpt>
      <trkpt lat="45.97718" lon="4.41662">
        <ele>772.858642578</ele>
        <time>2016-01-28T08:25:26.142Z</time>
      </trkpt>
      <trkpt lat="45.9771" lon="4.41658">
        <ele>773.055541992</ele>
        <time>2016-01-28T08:25:32.158Z</time>
      </trkpt>
      <trkpt lat="45.97708" lon="4.41658">
        <ele>773.103820801</ele>
        <time>2016-01-28T08:25:33.144Z</time>
      </trkpt>
      <trkpt lat="45.977" lon="4.41658">
        <ele>773.969482422</ele>
        <time>2016-01-28T08:25:40.169Z</time>
      </trkpt>
      <trkpt lat="45.97699" lon="4.41659">
        <ele>774.117858887</ele>
        <time>2016-01-28T08:25:41.15Z</time>
      </trkpt>
      <trkpt lat="45.97691" lon="4.41655">
        <ele>775.249084473</ele>
        <time>2016-01-28T08:25:47.178Z</time>
      </trkpt>
      <trkpt lat="45.97689" lon="4.41655">
        <ele>775.385986328</ele>
        <time>2016-01-28T08:25:48.152Z</time>
      </trkpt>
      <trkpt lat="45.97681" lon="4.4165">
        <ele>775.655883789</ele>
        <time>2016-01-28T08:25:54.176Z</time>
      </trkpt>
      <trkpt lat="45.9768" lon="4.4165">
        <ele>775.637145996</ele>
        <time>2016-01-28T08:25:55.143Z</time>
      </trkpt>
      <trkpt lat="45.97672" lon="4.41645">
        <ele>775.653930664</ele>
        <time>2016-01-28T08:26:01.277Z</time>
      </trkpt>
      <trkpt lat="45.97671" lon="4.41645">
        <ele>775.692626953</ele>
        <time>2016-01-28T08:26:02.143Z</time>
      </trkpt>
      <trkpt lat="45.97664" lon="4.4164">
        <ele>775.933105469</ele>
        <time>2016-01-28T08:26:08.161Z</time>
      </trkpt>
      <trkpt lat="45.97663" lon="4.41638">
        <ele>775.919616699</ele>
        <time>2016-01-28T08:26:09.144Z</time>
      </trkpt>
      <trkpt lat="45.97658" lon="4.41629">
        <ele>775.922851562</ele>
        <time>2016-01-28T08:26:15.161Z</time>
      </trkpt>
      <trkpt lat="45.97657" lon="4.41627">
        <ele>775.97454834</ele>
        <time>2016-01-28T08:26:16.143Z</time>
      </trkpt>
      <trkpt lat="45.97653" lon="4.41617">
        <ele>776.064575195</ele>
        <time>2016-01-28T08:26:21.185Z</time>
      </trkpt>
      <trkpt lat="45.97653" lon="4.41615">
        <ele>776.097961426</ele>
        <time>2016-01-28T08:26:22.153Z</time>
      </trkpt>
      <trkpt lat="45.97649" lon="4.41605">
        <ele>776.259216309</ele>
        <time>2016-01-28T08:26:28.173Z</time>
      </trkpt>
      <trkpt lat="45.97648" lon="4.41604">
        <ele>776.3046875</ele>
        <time>2016-01-28T08:26:29.142Z</time>
      </trkpt>
      <trkpt lat="45.97642" lon="4.41595">
        <ele>776.509460449</ele>
        <time>2016-01-28T08:26:35.177Z</time>
      </trkpt>
      <trkpt lat="45.97642" lon="4.41594">
        <ele>776.545654297</ele>
        <time>2016-01-28T08:26:36.154Z</time>
      </trkpt>
      <trkpt lat="45.97636" lon="4.41584">
        <ele>776.70300293</ele>
        <time>2016-01-28T08:26:42.179Z</time>
      </trkpt>
      <trkpt lat="45.97635" lon="4.41583">
        <ele>776.715820312</ele>
        <time>2016-01-28T08:26:43.166Z</time>
      </trkpt>
      <trkpt lat="45.97628" lon="4.41574">
        <ele>777.208862305</ele>
        <time>2016-01-28T08:26:49.189Z</time>
      </trkpt>
      <trkpt lat="45.97627" lon="4.41573">
        <ele>777.278564453</ele>
        <time>2016-01-28T08:26:50.154Z</time>
      </trkpt>
      <trkpt lat="45.97622" lon="4.41565">
        <ele>777.73059082</ele>
        <time>2016-01-28T08:26:57.164Z</time>
      </trkpt>
      <trkpt lat="45.97621" lon="4.41563">
        <ele>777.776855469</ele>
        <time>2016-01-28T08:26:58.154Z</time>
      </trkpt>
      <trkpt lat="45.97615" lon="4.41556">
        <ele>778.107971191</ele>
        <time>2016-01-28T08:27:03.183Z</time>
      </trkpt>
      <trkpt lat="45.97614" lon="4.41555">
        <ele>778.178222656</ele>
        <time>2016-01-28T08:27:04.156Z</time>
      </trkpt>
      <trkpt lat="45.97607" lon="4.41547">
        <ele>778.576721191</ele>
        <time>2016-01-28T08:27:10.191Z</time>
      </trkpt>
      <trkpt lat="45.97606" lon="4.41546">
        <ele>778.628967285</ele>
        <time>2016-01-28T08:27:11.199Z</time>
      </trkpt>
      <trkpt lat="45.97599" lon="4.41539">
        <ele>779.003845215</ele>
        <time>2016-01-28T08:27:17.182Z</time>
      </trkpt>
      <trkpt lat="45.97598" lon="4.41539">
        <ele>779.075073242</ele>
        <time>2016-01-28T08:27:18.159Z</time>
      </trkpt>
      <trkpt lat="45.97591" lon="4.41533">
        <ele>779.537963867</ele>
        <time>2016-01-28T08:27:24.167Z</time>
      </trkpt>
      <trkpt lat="45.97589" lon="4.41532">
        <ele>779.601989746</ele>
        <time>2016-01-28T08:27:25.154Z</time>
      </trkpt>
      <trkpt lat="45.97582" lon="4.41526">
        <ele>779.91619873</ele>
        <time>2016-01-28T08:27:31.187Z</time>
      </trkpt>
      <trkpt lat="45.97581" lon="4.41525">
        <ele>779.973205566</ele>
        <time>2016-01-28T08:27:32.159Z</time>
      </trkpt>
      <trkpt lat="45.97572" lon="4.41522">
        <ele>780.260620117</ele>
        <time>2016-01-28T08:27:38.182Z</time>
      </trkpt>
      <trkpt lat="45.97571" lon="4.41521">
        <ele>780.318786621</ele>
        <time>2016-01-28T08:27:39.162Z</time>
      </trkpt>
      <trkpt lat="45.97563" lon="4.4152">
        <ele>780.984680176</ele>
        <time>2016-01-28T08:27:45.184Z</time>
      </trkpt>
      <trkpt lat="45.97562" lon="4.4152">
        <ele>781.183532715</ele>
        <time>2016-01-28T08:27:46.147Z</time>
      </trkpt>
      <trkpt lat="45.97554" lon="4.4152">
        <ele>781.987976074</ele>
        <time>2016-01-28T08:27:55.193Z</time>
      </trkpt>
      <trkpt lat="45.97552" lon="4.41519">
        <ele>781.953491211</ele>
        <time>2016-01-28T08:27:56.159Z</time>
      </trkpt>
      <trkpt lat="45.97544" lon="4.41522">
        <ele>782.625610352</ele>
        <time>2016-01-28T08:28:03.19Z</time>
      </trkpt>
      <trkpt lat="45.97542" lon="4.41522">
        <ele>782.744262695</ele>
        <time>2016-01-28T08:28:04.156Z</time>
      </trkpt>
      <trkpt lat="45.97535" lon="4.41516">
        <ele>783.56439209</ele>
        <time>2016-01-28T08:28:10.188Z</time>
      </trkpt>
      <trkpt lat="45.97534" lon="4.41515">
        <ele>783.643798828</ele>
        <time>2016-01-28T08:28:11.169Z</time>
      </trkpt>
      <trkpt lat="45.97526" lon="4.41512">
        <ele>784.586975098</ele>
        <time>2016-01-28T08:28:18.19Z</time>
      </trkpt>
      <trkpt lat="45.97524" lon="4.41512">
        <ele>784.626342773</ele>
        <time>2016-01-28T08:28:19.155Z</time>
      </trkpt>
      <trkpt lat="45.97516" lon="4.4151">
        <ele>784.951965332</ele>
        <time>2016-01-28T08:28:24.207Z</time>
      </trkpt>
      <trkpt lat="45.97515" lon="4.4151">
        <ele>784.956115723</ele>
        <time>2016-01-28T08:28:25.162Z</time>
      </trkpt>
      <trkpt lat="45.97506" lon="4.41509">
        <ele>784.895996094</ele>
        <time>2016-01-28T08:28:31.162Z</time>
      </trkpt>
      <trkpt lat="45.97504" lon="4.41508">
        <ele>784.825622559</ele>
        <time>2016-01-28T08:28:32.163Z</time>
      </trkpt>
      <trkpt lat="45.97495" lon="4.41507">
        <ele>784.396179199</ele>
        <time>2016-01-28T08:28:37.317Z</time>
      </trkpt>
      <trkpt lat="45.97493" lon="4.41506">
        <ele>784.354614258</ele>
        <time>2016-01-28T08:28:38.164Z</time>
      </trkpt>
      <trkpt lat="45.97485" lon="4.4151">
        <ele>784.546691895</ele>
        <time>2016-01-28T08:28:47.187Z</time>
      </trkpt>
      <trkpt lat="45.97483" lon="4.4151">
        <ele>784.517333984</ele>
        <time>2016-01-28T08:28:48.165Z</time>
      </trkpt>
      <trkpt lat="45.97475" lon="4.41509">
        <ele>785.469299316</ele>
        <time>2016-01-28T08:28:53.224Z</time>
      </trkpt>
      <trkpt lat="45.97474" lon="4.41508">
        <ele>785.676086426</ele>
        <time>2016-01-28T08:28:54.166Z</time>
      </trkpt>
      <trkpt lat="45.97466" lon="4.41506">
        <ele>786.677307129</ele>
        <time>2016-01-28T08:29:01.198Z</time>
      </trkpt>
      <trkpt lat="45.97465" lon="4.41506">
        <ele>786.898864746</ele>
        <time>2016-01-28T08:29:02.17Z</time>
      </trkpt>
      <trkpt lat="45.97457" lon="4.41502">
        <ele>788.099487305</ele>
        <time>2016-01-28T08:29:08.19Z</time>
      </trkpt>
      <trkpt lat="45.97456" lon="4.41501">
        <ele>788.13079834</ele>
        <time>2016-01-28T08:29:09.163Z</time>
      </trkpt>
      <trkpt lat="45.97447" lon="4.41499">
        <ele>788.207397461</ele>
        <time>2016-01-28T08:29:16.211Z</time>
      </trkpt>
      <trkpt lat="45.97446" lon="4.41499">
        <ele>788.223571777</ele>
        <time>2016-01-28T08:29:17.167Z</time>
      </trkpt>
      <trkpt lat="45.97438" lon="4.415">
        <ele>788.755004883</ele>
        <time>2016-01-28T08:29:23.162Z</time>
      </trkpt>
      <trkpt lat="45.97436" lon="4.41499">
        <ele>788.859924316</ele>
        <time>2016-01-28T08:29:24.14Z</time>
      </trkpt>
      <trkpt lat="45.97428" lon="4.41497">
        <ele>789.378662109</ele>
        <time>2016-01-28T08:29:30.152Z</time>
      </trkpt>
      <trkpt lat="45.97427" lon="4.41497">
        <ele>789.539489746</ele>
        <time>2016-01-28T08:29:31.131Z</time>
      </trkpt>
      <trkpt lat="45.97419" lon="4.41496">
        <ele>790.000427246</ele>
        <time>2016-01-28T08:29:37.16Z</time>
      </trkpt>
      <trkpt lat="45.97418" lon="4.41496">
        <ele>789.948608398</ele>
        <time>2016-01-28T08:29:38.141Z</time>
      </trkpt>
      <trkpt lat="45.9741" lon="4.41488">
        <ele>789.560913086</ele>
        <time>2016-01-28T08:29:43.152Z</time>
      </trkpt>
      <trkpt lat="45.97409" lon="4.41486">
        <ele>789.521789551</ele>
        <time>2016-01-28T08:29:44.136Z</time>
      </trkpt>
      <trkpt lat="45.97404" lon="4.41478">
        <ele>789.41027832</ele>
        <time>2016-01-28T08:29:49.166Z</time>
      </trkpt>
      <trkpt lat="45.97403" lon="4.41477">
        <ele>789.415039062</ele>
        <time>2016-01-28T08:29:50.134Z</time>
      </trkpt>
      <trkpt lat="45.97395" lon="4.41471">
        <ele>789.373962402</ele>
        <time>2016-01-28T08:29:57.18Z</time>
      </trkpt>
      <trkpt lat="45.97395" lon="4.4147">
        <ele>789.39074707</ele>
        <time>2016-01-28T08:29:58.136Z</time>
      </trkpt>
      <trkpt lat="45.97389" lon="4.41461">
        <ele>789.912597656</ele>
        <time>2016-01-28T08:30:05.163Z</time>
      </trkpt>
      <trkpt lat="45.97387" lon="4.41459">
        <ele>789.81048584</ele>
        <time>2016-01-28T08:30:06.156Z</time>
      </trkpt>
      <trkpt lat="45.97381" lon="4.41452">
        <ele>789.372558594</ele>
        <time>2016-01-28T08:30:09.18Z</time>
      </trkpt>
      <trkpt lat="45.9738" lon="4.4145">
        <ele>789.263977051</ele>
        <time>2016-01-28T08:30:10.141Z</time>
      </trkpt>
      <trkpt lat="45.97374" lon="4.41442">
        <ele>788.486816406</ele>
        <time>2016-01-28T08:30:17.158Z</time>
      </trkpt>
      <trkpt lat="45.97373" lon="4.41441">
        <ele>788.338317871</ele>
        <time>2016-01-28T08:30:18.143Z</time>
      </trkpt>
      <trkpt lat="45.97367" lon="4.41436">
        <ele>787.954284668</ele>
        <time>2016-01-28T08:30:22.166Z</time>
      </trkpt>
      <trkpt lat="45.97365" lon="4.41434">
        <ele>787.826721191</ele>
        <time>2016-01-28T08:30:23.152Z</time>
      </trkpt>
      <trkpt lat="45.97357" lon="4.41431">
        <ele>786.489501953</ele>
        <time>2016-01-28T08:30:31.179Z</time>
      </trkpt>
      <trkpt lat="45.97355" lon="4.41431">
        <ele>786.37121582</ele>
        <time>2016-01-28T08:30:32.148Z</time>
      </trkpt>
      <trkpt lat="45.97347" lon="4.41427">
        <ele>786.760925293</ele>
        <time>2016-01-28T08:30:39.158Z</time>
      </trkpt>
      <trkpt lat="45.97346" lon="4.41426">
        <ele>786.925109863</ele>
        <time>2016-01-28T08:30:40.142Z</time>
      </trkpt>
      <trkpt lat="45.97338" lon="4.4142">
        <ele>786.20098877</ele>
        <time>2016-01-28T08:30:50.164Z</time>
      </trkpt>
      <trkpt lat="45.97337" lon="4.41419">
        <ele>786.096496582</ele>
        <time>2016-01-28T08:30:51.157Z</time>
      </trkpt>
      <trkpt lat="45.9733" lon="4.41414">
        <ele>785.854248047</ele>
        <time>2016-01-28T08:30:55.164Z</time>
      </trkpt>
      <trkpt lat="45.97328" lon="4.41413">
        <ele>785.830627441</ele>
        <time>2016-01-28T08:30:56.147Z</time>
      </trkpt>
      <trkpt lat="45.97321" lon="4.41409">
        <ele>784.561035156</ele>
        <time>2016-01-28T08:31:04.16Z</time>
      </trkpt>
      <trkpt lat="45.97319" lon="4.41407">
        <ele>784.543823242</ele>
        <time>2016-01-28T08:31:05.144Z</time>
      </trkpt>
      <trkpt lat="45.97312" lon="4.41404">
        <ele>783.949401855</ele>
        <time>2016-01-28T08:31:12.174Z</time>
      </trkpt>
      <trkpt lat="45.9731" lon="4.41404">
        <ele>784.00579834</ele>
        <time>2016-01-28T08:31:13.139Z</time>
      </trkpt>
      <trkpt lat="45.97303" lon="4.414">
        <ele>784.417175293</ele>
        <time>2016-01-28T08:31:17.18Z</time>
      </trkpt>
      <trkpt lat="45.97301" lon="4.41399">
        <ele>784.744995117</ele>
        <time>2016-01-28T08:31:18.143Z</time>
      </trkpt>
      <trkpt lat="45.97294" lon="4.41395">
        <ele>785.654418945</ele>
        <time>2016-01-28T08:31:22.177Z</time>
      </trkpt>
      <trkpt lat="45.97292" lon="4.41394">
        <ele>785.819641113</ele>
        <time>2016-01-28T08:31:23.136Z</time>
      </trkpt>
      <trkpt lat="45.97286" lon="4.41387">
        <ele>786.443054199</ele>
        <time>2016-01-28T08:31:26.171Z</time>
      </trkpt>
      <trkpt lat="45.97283" lon="4.41385">
        <ele>786.708679199</ele>
        <time>2016-01-28T08:31:27.149Z</time>
      </trkpt>
      <trkpt lat="45.97277" lon="4.41378">
        <ele>787.428894043</ele>
        <time>2016-01-28T08:31:32.161Z</time>
      </trkpt>
      <trkpt lat="45.97275" lon="4.41377">
        <ele>787.498291016</ele>
        <time>2016-01-28T08:31:33.151Z</time>
      </trkpt>
      <trkpt lat="45.97271" lon="4.41371">
        <ele>787.68182373</ele>
        <time>2016-01-28T08:31:38.182Z</time>
      </trkpt>
      <trkpt lat="45.97268" lon="4.41369">
        <ele>787.724121094</ele>
        <time>2016-01-28T08:31:39.153Z</time>
      </trkpt>
      <trkpt lat="45.97263" lon="4.41358">
        <ele>787.909484863</ele>
        <time>2016-01-28T08:31:44.166Z</time>
      </trkpt>
      <trkpt lat="45.97263" lon="4.41357">
        <ele>787.957946777</ele>
        <time>2016-01-28T08:31:45.144Z</time>
      </trkpt>
      <trkpt lat="45.97258" lon="4.41347">
        <ele>788.416931152</ele>
        <time>2016-01-28T08:31:50.203Z</time>
      </trkpt>
      <trkpt lat="45.97257" lon="4.41346">
        <ele>788.526611328</ele>
        <time>2016-01-28T08:31:51.147Z</time>
      </trkpt>
      <trkpt lat="45.97251" lon="4.41338">
        <ele>788.643371582</ele>
        <time>2016-01-28T08:31:58.185Z</time>
      </trkpt>
      <trkpt lat="45.9725" lon="4.41337">
        <ele>788.629516602</ele>
        <time>2016-01-28T08:31:59.146Z</time>
      </trkpt>
      <trkpt lat="45.97242" lon="4.41333">
        <ele>788.499084473</ele>
        <time>2016-01-28T08:32:05.169Z</time>
      </trkpt>
      <trkpt lat="45.9724" lon="4.41332">
        <ele>788.429016113</ele>
        <time>2016-01-28T08:32:06.147Z</time>
      </trkpt>
      <trkpt lat="45.97235" lon="4.41322">
        <ele>787.462463379</ele>
        <time>2016-01-28T08:32:27.155Z</time>
      </trkpt>
      <trkpt lat="45.97235" lon="4.41322">
        <ele>787.460388184</ele>
        <time>2016-01-28T08:32:28.157Z</time>
      </trkpt>
      <trkpt lat="45.97226" lon="4.41319">
        <ele>787.19140625</ele>
        <time>2016-01-28T08:33:04.169Z</time>
      </trkpt>
      <trkpt lat="45.97224" lon="4.41318">
        <ele>787.291381836</ele>
        <time>2016-01-28T08:33:05.156Z</time>
      </trkpt>
      <trkpt lat="45.97218" lon="4.4131">
        <ele>787.337890625</ele>
        <time>2016-01-28T08:33:11.172Z</time>
      </trkpt>
      <trkpt lat="45.97217" lon="4.41309">
        <ele>787.294433594</ele>
        <time>2016-01-28T08:33:12.152Z</time>
      </trkpt>
      <trkpt lat="45.97211" lon="4.41301">
        <ele>787.120178223</ele>
        <time>2016-01-28T08:33:16.189Z</time>
      </trkpt>
      <trkpt lat="45.97209" lon="4.41299">
        <ele>787.118286133</ele>
        <time>2016-01-28T08:33:17.151Z</time>
      </trkpt>
      <trkpt lat="45.97203" lon="4.4129">
        <ele>786.812866211</ele>
        <time>2016-01-28T08:33:24.149Z</time>
      </trkpt>
      <trkpt lat="45.97202" lon="4.41287">
        <ele>786.708679199</ele>
        <time>2016-01-28T08:33:25.152Z</time>
      </trkpt>
      <trkpt lat="45.97198" lon="4.41279">
        <ele>785.831665039</ele>
        <time>2016-01-28T08:33:32.191Z</time>
      </trkpt>
      <trkpt lat="45.97197" lon="4.41277">
        <ele>785.759643555</ele>
        <time>2016-01-28T08:33:33.153Z</time>
      </trkpt>
      <trkpt lat="45.97191" lon="4.41267">
        <ele>785.219909668</ele>
        <time>2016-01-28T08:33:39.195Z</time>
      </trkpt>
      <trkpt lat="45.9719" lon="4.41266">
        <ele>785.137084961</ele>
        <time>2016-01-28T08:33:40.153Z</time>
      </trkpt>
      <trkpt lat="45.97184" lon="4.41257">
        <ele>784.622558594</ele>
        <time>2016-01-28T08:33:46.194Z</time>
      </trkpt>
      <trkpt lat="45.97183" lon="4.41255">
        <ele>784.555053711</ele>
        <time>2016-01-28T08:33:47.154Z</time>
      </trkpt>
      <trkpt lat="45.9718" lon="4.41244">
        <ele>784.230407715</ele>
        <time>2016-01-28T08:33:51.193Z</time>
      </trkpt>
      <trkpt lat="45.97179" lon="4.41243">
        <ele>784.137451172</ele>
        <time>2016-01-28T08:33:52.157Z</time>
      </trkpt>
      <trkpt lat="45.97173" lon="4.41236">
        <ele>783.62121582</ele>
        <time>2016-01-28T08:33:58.183Z</time>
      </trkpt>
      <trkpt lat="45.97171" lon="4.41234">
        <ele>783.476196289</ele>
        <time>2016-01-28T08:33:59.159Z</time>
      </trkpt>
      <trkpt lat="45.97167" lon="4.41224">
        <ele>782.864318848</ele>
        <time>2016-01-28T08:34:06.193Z</time>
      </trkpt>
      <trkpt lat="45.97166" lon="4.41223">
        <ele>782.807800293</ele>
        <time>2016-01-28T08:34:07.163Z</time>
      </trkpt>
      <trkpt lat="45.97159" lon="4.41215">
        <ele>782.390258789</ele>
        <time>2016-01-28T08:34:12.183Z</time>
      </trkpt>
      <trkpt lat="45.97158" lon="4.41213">
        <ele>782.258300781</ele>
        <time>2016-01-28T08:34:13.168Z</time>
      </trkpt>
      <trkpt lat="45.97153" lon="4.41206">
        <ele>781.562927246</ele>
        <time>2016-01-28T08:34:18.182Z</time>
      </trkpt>
      <trkpt lat="45.97151" lon="4.41204">
        <ele>781.43762207</ele>
        <time>2016-01-28T08:34:19.141Z</time>
      </trkpt>
      <trkpt lat="45.97144" lon="4.41197">
        <ele>780.68951416</ele>
        <time>2016-01-28T08:34:26.186Z</time>
      </trkpt>
      <trkpt lat="45.97143" lon="4.41196">
        <ele>780.594848633</ele>
        <time>2016-01-28T08:34:27.166Z</time>
      </trkpt>
      <trkpt lat="45.97138" lon="4.41185">
        <ele>780.219116211</ele>
        <time>2016-01-28T08:34:34.196Z</time>
      </trkpt>
      <trkpt lat="45.97138" lon="4.41183">
        <ele>780.149597168</ele>
        <time>2016-01-28T08:34:35.159Z</time>
      </trkpt>
      <trkpt lat="45.9714" lon="4.41171">
        <ele>779.636657715</ele>
        <time>2016-01-28T08:34:44.155Z</time>
      </trkpt>
      <trkpt lat="45.9714" lon="4.4117">
        <ele>779.59588623</ele>
        <time>2016-01-28T08:34:45.144Z</time>
      </trkpt>
      <trkpt lat="45.97145" lon="4.4116">
        <ele>776.081420898</ele>
        <time>2016-01-28T08:36:29.164Z</time>
      </trkpt>
      <trkpt lat="45.97146" lon="4.41159">
        <ele>775.970947266</ele>
        <time>2016-01-28T08:36:30.169Z</time>
      </trkpt>
      <trkpt lat="45.97152" lon="4.41151">
        <ele>775.725341797</ele>
        <time>2016-01-28T08:36:37.167Z</time>
      </trkpt>
      <trkpt lat="45.97153" lon="4.4115">
        <ele>775.621887207</ele>
        <time>2016-01-28T08:36:38.154Z</time>
      </trkpt>
      <trkpt lat="45.9716" lon="4.41144">
        <ele>774.713012695</ele>
        <time>2016-01-28T08:36:45.162Z</time>
      </trkpt>
      <trkpt lat="45.97162" lon="4.41143">
        <ele>774.606994629</ele>
        <time>2016-01-28T08:36:46.143Z</time>
      </trkpt>
      <trkpt lat="45.9717" lon="4.41139">
        <ele>774.177490234</ele>
        <time>2016-01-28T08:36:53.177Z</time>
      </trkpt>
      <trkpt lat="45.97171" lon="4.41138">
        <ele>774.152832031</ele>
        <time>2016-01-28T08:36:54.166Z</time>
      </trkpt>
      <trkpt lat="45.97179" lon="4.41135">
        <ele>773.477722168</ele>
        <time>2016-01-28T08:37:01.163Z</time>
      </trkpt>
      <trkpt lat="45.9718" lon="4.41135">
        <ele>773.397460938</ele>
        <time>2016-01-28T08:37:02.145Z</time>
      </trkpt>
      <trkpt lat="45.97187" lon="4.41129">
        <ele>773.09552002</ele>
        <time>2016-01-28T08:37:07.197Z</time>
      </trkpt>
      <trkpt lat="45.97189" lon="4.41127">
        <ele>773.062133789</ele>
        <time>2016-01-28T08:37:08.143Z</time>
      </trkpt>
      <trkpt lat="45.97196" lon="4.4112">
        <ele>772.765380859</ele>
        <time>2016-01-28T08:37:14.168Z</time>
      </trkpt>
      <trkpt lat="45.97197" lon="4.41119">
        <ele>772.732727051</ele>
        <time>2016-01-28T08:37:15.145Z</time>
      </trkpt>
      <trkpt lat="45.97204" lon="4.41113">
        <ele>772.805908203</ele>
        <time>2016-01-28T08:37:22.177Z</time>
      </trkpt>
      <trkpt lat="45.97205" lon="4.41111">
        <ele>772.855163574</ele>
        <time>2016-01-28T08:37:23.145Z</time>
      </trkpt>
      <trkpt lat="45.97212" lon="4.41106">
        <ele>773.003479004</ele>
        <time>2016-01-28T08:37:29.169Z</time>
      </trkpt>
      <trkpt lat="45.97213" lon="4.41106">
        <ele>773.035705566</ele>
        <time>2016-01-28T08:37:30.147Z</time>
      </trkpt>
      <trkpt lat="45.97221" lon="4.41102">
        <ele>773.276916504</ele>
        <time>2016-01-28T08:37:38.175Z</time>
      </trkpt>
      <trkpt lat="45.97222" lon="4.41102">
        <ele>773.324890137</ele>
        <time>2016-01-28T08:37:39.147Z</time>
      </trkpt>
      <trkpt lat="45.97229" lon="4.41095">
        <ele>773.501037598</ele>
        <time>2016-01-28T08:37:45.283Z</time>
      </trkpt>
      <trkpt lat="45.9723" lon="4.41093">
        <ele>773.534973145</ele>
        <time>2016-01-28T08:37:46.144Z</time>
      </trkpt>
      <trkpt lat="45.97236" lon="4.41084">
        <ele>773.784545898</ele>
        <time>2016-01-28T08:37:52.175Z</time>
      </trkpt>
      <trkpt lat="45.97236" lon="4.41083">
        <ele>773.867736816</ele>
        <time>2016-01-28T08:37:53.152Z</time>
      </trkpt>
      <trkpt lat="45.97242" lon="4.41074">
        <ele>774.334838867</ele>
        <time>2016-01-28T08:37:59.188Z</time>
      </trkpt>
      <trkpt lat="45.97242" lon="4.41073">
        <ele>774.424194336</ele>
        <time>2016-01-28T08:38:00.303Z</time>
      </trkpt>
      <trkpt lat="45.9725" lon="4.41066">
        <ele>775.469299316</ele>
        <time>2016-01-28T08:38:07.2Z</time>
      </trkpt>
      <trkpt lat="45.97251" lon="4.41065">
        <ele>775.621276855</ele>
        <time>2016-01-28T08:38:08.154Z</time>
      </trkpt>
      <trkpt lat="45.97258" lon="4.41059">
        <ele>776.727111816</ele>
        <time>2016-01-28T08:38:16.229Z</time>
      </trkpt>
      <trkpt lat="45.97259" lon="4.41058">
        <ele>776.851074219</ele>
        <time>2016-01-28T08:38:17.16Z</time>
      </trkpt>
      <trkpt lat="45.97267" lon="4.41055">
        <ele>777.44519043</ele>
        <time>2016-01-28T08:38:22.185Z</time>
      </trkpt>
      <trkpt lat="45.97268" lon="4.41054">
        <ele>777.60168457</ele>
        <time>2016-01-28T08:38:23.152Z</time>
      </trkpt>
      <trkpt lat="45.97275" lon="4.41049">
        <ele>778.4453125</ele>
        <time>2016-01-28T08:38:29.183Z</time>
      </trkpt>
      <trkpt lat="45.97276" lon="4.41049">
        <ele>778.624450684</ele>
        <time>2016-01-28T08:38:30.159Z</time>
      </trkpt>
      <trkpt lat="45.97283" lon="4.41042">
        <ele>779.049804688</ele>
        <time>2016-01-28T08:38:35.19Z</time>
      </trkpt>
      <trkpt lat="45.97284" lon="4.41041">
        <ele>779.147644043</ele>
        <time>2016-01-28T08:38:36.149Z</time>
      </trkpt>
      <trkpt lat="45.9729" lon="4.41032">
        <ele>780.556884766</ele>
        <time>2016-01-28T08:38:45.199Z</time>
      </trkpt>
      <trkpt lat="45.97291" lon="4.41031">
        <ele>780.719665527</ele>
        <time>2016-01-28T08:38:46.154Z</time>
      </trkpt>
      <trkpt lat="45.97298" lon="4.41025">
        <ele>781.664550781</ele>
        <time>2016-01-28T08:38:51.168Z</time>
      </trkpt>
      <trkpt lat="45.97299" lon="4.41024">
        <ele>781.853881836</ele>
        <time>2016-01-28T08:38:52.155Z</time>
      </trkpt>
      <trkpt lat="45.97304" lon="4.41017">
        <ele>782.598571777</ele>
        <time>2016-01-28T08:39:00.197Z</time>
      </trkpt>
      <trkpt lat="45.97306" lon="4.41015">
        <ele>782.698913574</ele>
        <time>2016-01-28T08:39:01.161Z</time>
      </trkpt>
      <trkpt lat="45.9731" lon="4.41005">
        <ele>783.02935791</ele>
        <time>2016-01-28T08:39:07.181Z</time>
      </trkpt>
      <trkpt lat="45.97311" lon="4.41003">
        <ele>783.015869141</ele>
        <time>2016-01-28T08:39:08.156Z</time>
      </trkpt>
      <trkpt lat="45.97317" lon="4.40994">
        <ele>783.764770508</ele>
        <time>2016-01-28T08:39:14.213Z</time>
      </trkpt>
      <trkpt lat="45.97318" lon="4.40993">
        <ele>783.982849121</ele>
        <time>2016-01-28T08:39:15.164Z</time>
      </trkpt>
      <trkpt lat="45.97326" lon="4.40988">
        <ele>784.93939209</ele>
        <time>2016-01-28T08:39:21.201Z</time>
      </trkpt>
      <trkpt lat="45.97328" lon="4.40987">
        <ele>785.077758789</ele>
        <time>2016-01-28T08:39:22.164Z</time>
      </trkpt>
      <trkpt lat="45.97335" lon="4.40981">
        <ele>785.398681641</ele>
        <time>2016-01-28T08:39:29.199Z</time>
      </trkpt>
      <trkpt lat="45.97336" lon="4.40979">
        <ele>785.469238281</ele>
        <time>2016-01-28T08:39:30.157Z</time>
      </trkpt>
      <trkpt lat="45.97341" lon="4.4097">
        <ele>785.961547852</ele>
        <time>2016-01-28T08:39:35.191Z</time>
      </trkpt>
      <trkpt lat="45.97342" lon="4.40969">
        <ele>786.063354492</ele>
        <time>2016-01-28T08:39:36.174Z</time>
      </trkpt>
      <trkpt lat="45.97349" lon="4.40963">
        <ele>786.686767578</ele>
        <time>2016-01-28T08:39:42.184Z</time>
      </trkpt>
      <trkpt lat="45.9735" lon="4.40962">
        <ele>786.764831543</ele>
        <time>2016-01-28T08:39:43.166Z</time>
      </trkpt>
      <trkpt lat="45.97357" lon="4.40956">
        <ele>787.518005371</ele>
        <time>2016-01-28T08:39:50.199Z</time>
      </trkpt>
      <trkpt lat="45.97358" lon="4.40954">
        <ele>787.627502441</ele>
        <time>2016-01-28T08:39:51.166Z</time>
      </trkpt>
      <trkpt lat="45.97364" lon="4.40951">
        <ele>788.264831543</ele>
        <time>2016-01-28T08:39:57.168Z</time>
      </trkpt>
      <trkpt lat="45.97366" lon="4.40949">
        <ele>788.434997559</ele>
        <time>2016-01-28T08:39:58.141Z</time>
      </trkpt>
      <trkpt lat="45.97374" lon="4.40944">
        <ele>788.740844727</ele>
        <time>2016-01-28T08:40:03.18Z</time>
      </trkpt>
      <trkpt lat="45.97376" lon="4.40943">
        <ele>788.727355957</ele>
        <time>2016-01-28T08:40:04.166Z</time>
      </trkpt>
      <trkpt lat="45.97385" lon="4.40942">
        <ele>788.211914062</ele>
        <time>2016-01-28T08:40:14.169Z</time>
      </trkpt>
      <trkpt lat="45.97385" lon="4.40942">
        <ele>788.262023926</ele>
        <time>2016-01-28T08:40:15.14Z</time>
      </trkpt>
      <trkpt lat="45.97394" lon="4.40944">
        <ele>788.425415039</ele>
        <time>2016-01-28T08:40:22.17Z</time>
      </trkpt>
      <trkpt lat="45.97396" lon="4.40944">
        <ele>788.44519043</ele>
        <time>2016-01-28T08:40:23.14Z</time>
      </trkpt>
      <trkpt lat="45.97404" lon="4.40944">
        <ele>788.618103027</ele>
        <time>2016-01-28T08:40:30.159Z</time>
      </trkpt>
      <trkpt lat="45.97406" lon="4.40944">
        <ele>788.623962402</ele>
        <time>2016-01-28T08:40:31.141Z</time>
      </trkpt>
      <trkpt lat="45.97414" lon="4.40943">
        <ele>788.703430176</ele>
        <time>2016-01-28T08:40:40.163Z</time>
      </trkpt>
      <trkpt lat="45.97415" lon="4.40943">
        <ele>788.726196289</ele>
        <time>2016-01-28T08:40:41.146Z</time>
      </trkpt>
      <trkpt lat="45.97423" lon="4.40943">
        <ele>789.242858887</ele>
        <time>2016-01-28T08:40:48.164Z</time>
      </trkpt>
      <trkpt lat="45.97424" lon="4.40943">
        <ele>789.300170898</ele>
        <time>2016-01-28T08:40:49.147Z</time>
      </trkpt>
      <trkpt lat="45.97432" lon="4.40943">
        <ele>789.861877441</ele>
        <time>2016-01-28T08:40:57.184Z</time>
      </trkpt>
      <trkpt lat="45.97433" lon="4.40943">
        <ele>789.916381836</ele>
        <time>2016-01-28T08:40:58.153Z</time>
      </trkpt>
      <trkpt lat="45.97441" lon="4.40943">
        <ele>790.223327637</ele>
        <time>2016-01-28T08:41:04.165Z</time>
      </trkpt>
      <trkpt lat="45.97442" lon="4.40942">
        <ele>790.311462402</ele>
        <time>2016-01-28T08:41:05.146Z</time>
      </trkpt>
      <trkpt lat="45.97449" lon="4.4094">
        <ele>790.700317383</ele>
        <time>2016-01-28T08:41:12.182Z</time>
      </trkpt>
      <trkpt lat="45.97451" lon="4.4094">
        <ele>790.727478027</ele>
        <time>2016-01-28T08:41:13.141Z</time>
      </trkpt>
      <trkpt lat="45.97459" lon="4.40939">
        <ele>790.975463867</ele>
        <time>2016-01-28T08:41:20.162Z</time>
      </trkpt>
      <trkpt lat="45.9746" lon="4.40939">
        <ele>790.998046875</ele>
        <time>2016-01-28T08:41:21.142Z</time>
      </trkpt>
      <trkpt lat="45.97468" lon="4.40937">
        <ele>791.75402832</ele>
        <time>2016-01-28T08:41:29.174Z</time>
      </trkpt>
      <trkpt lat="45.97469" lon="4.40937">
        <ele>791.913391113</ele>
        <time>2016-01-28T08:41:30.142Z</time>
      </trkpt>
      <trkpt lat="45.97477" lon="4.40935">
        <ele>793.646911621</ele>
        <time>2016-01-28T08:41:38.158Z</time>
      </trkpt>
      <trkpt lat="45.97479" lon="4.40934">
        <ele>793.903686523</ele>
        <time>2016-01-28T08:41:39.159Z</time>
      </trkpt>
      <trkpt lat="45.97488" lon="4.40935">
        <ele>794.698425293</ele>
        <time>2016-01-28T08:41:45.16Z</time>
      </trkpt>
      <trkpt lat="45.97488" lon="4.40935">
        <ele>794.829040527</ele>
        <time>2016-01-28T08:41:46.144Z</time>
      </trkpt>
      <trkpt lat="45.97497" lon="4.40936">
        <ele>796.629150391</ele>
        <time>2016-01-28T08:41:56.178Z</time>
      </trkpt>
      <trkpt lat="45.97497" lon="4.40936">
        <ele>796.743164062</ele>
        <time>2016-01-28T08:41:57.143Z</time>
      </trkpt>
      <trkpt lat="45.97506" lon="4.40939">
        <ele>797.765380859</ele>
        <time>2016-01-28T08:42:05.167Z</time>
      </trkpt>
      <trkpt lat="45.97508" lon="4.4094">
        <ele>797.880004883</ele>
        <time>2016-01-28T08:42:06.153Z</time>
      </trkpt>
      <trkpt lat="45.97517" lon="4.40942">
        <ele>798.965576172</ele>
        <time>2016-01-28T08:42:13.166Z</time>
      </trkpt>
      <trkpt lat="45.97517" lon="4.40942">
        <ele>799.143371582</ele>
        <time>2016-01-28T08:42:14.143Z</time>
      </trkpt>
      <trkpt lat="45.97525" lon="4.40947">
        <ele>800.282470703</ele>
        <time>2016-01-28T08:42:21.176Z</time>
      </trkpt>
      <trkpt lat="45.97526" lon="4.40948">
        <ele>800.444213867</ele>
        <time>2016-01-28T08:42:22.146Z</time>
      </trkpt>
      <trkpt lat="45.97534" lon="4.40952">
        <ele>801.739685059</ele>
        <time>2016-01-28T08:42:32.168Z</time>
      </trkpt>
      <trkpt lat="45.97535" lon="4.40952">
        <ele>801.864685059</ele>
        <time>2016-01-28T08:42:33.152Z</time>
      </trkpt>
      <trkpt lat="45.97543" lon="4.40956">
        <ele>802.955505371</ele>
        <time>2016-01-28T08:42:43.187Z</time>
      </trkpt>
      <trkpt lat="45.97544" lon="4.40956">
        <ele>802.989562988</ele>
        <time>2016-01-28T08:42:44.151Z</time>
      </trkpt>
      <trkpt lat="45.97552" lon="4.4096">
        <ele>805.18371582</ele>
        <time>2016-01-28T08:42:54.172Z</time>
      </trkpt>
      <trkpt lat="45.97553" lon="4.4096">
        <ele>805.418395996</ele>
        <time>2016-01-28T08:42:55.151Z</time>
      </trkpt>
      <trkpt lat="45.97561" lon="4.40957">
        <ele>806.820007324</ele>
        <time>2016-01-28T08:43:03.207Z</time>
      </trkpt>
      <trkpt lat="45.97562" lon="4.40955">
        <ele>807.023742676</ele>
        <time>2016-01-28T08:43:04.156Z</time>
      </trkpt>
      <trkpt lat="45.97568" lon="4.40947">
        <ele>808.345031738</ele>
        <time>2016-01-28T08:43:10.188Z</time>
      </trkpt>
      <trkpt lat="45.97568" lon="4.40946">
        <ele>808.48651123</ele>
        <time>2016-01-28T08:43:11.159Z</time>
      </trkpt>
      <trkpt lat="45.97573" lon="4.40936">
        <ele>809.394836426</ele>
        <time>2016-01-28T08:43:18.185Z</time>
      </trkpt>
      <trkpt lat="45.97574" lon="4.40935">
        <ele>809.522766113</ele>
        <time>2016-01-28T08:43:19.158Z</time>
      </trkpt>
      <trkpt lat="45.97576" lon="4.40924">
        <ele>810.613952637</ele>
        <time>2016-01-28T08:43:26.19Z</time>
      </trkpt>
      <trkpt lat="45.97577" lon="4.40922">
        <ele>810.735107422</ele>
        <time>2016-01-28T08:43:27.156Z</time>
      </trkpt>
      <trkpt lat="45.97581" lon="4.40912">
        <ele>811.141906738</ele>
        <time>2016-01-28T08:43:33.189Z</time>
      </trkpt>
      <trkpt lat="45.97582" lon="4.4091">
        <ele>811.176513672</ele>
        <time>2016-01-28T08:43:34.161Z</time>
      </trkpt>
      <trkpt lat="45.97588" lon="4.40901">
        <ele>811.021179199</ele>
        <time>2016-01-28T08:43:42.186Z</time>
      </trkpt>
      <trkpt lat="45.97589" lon="4.40901">
        <ele>811.004699707</ele>
        <time>2016-01-28T08:43:43.162Z</time>
      </trkpt>
      <trkpt lat="45.97587" lon="4.40888">
        <ele>812.325744629</ele>
        <time>2016-01-28T08:44:17.196Z</time>
      </trkpt>
      <trkpt lat="45.97586" lon="4.40886">
        <ele>812.550842285</ele>
        <time>2016-01-28T08:44:18.161Z</time>
      </trkpt>
      <trkpt lat="45.97583" lon="4.40874">
        <ele>813.954650879</ele>
        <time>2016-01-28T08:44:25.191Z</time>
      </trkpt>
      <trkpt lat="45.97583" lon="4.40873">
        <ele>814.036621094</ele>
        <time>2016-01-28T08:44:26.166Z</time>
      </trkpt>
      <trkpt lat="45.97582" lon="4.40862">
        <ele>814.934753418</ele>
        <time>2016-01-28T08:44:34.194Z</time>
      </trkpt>
      <trkpt lat="45.97581" lon="4.4086">
        <ele>815.169372559</ele>
        <time>2016-01-28T08:44:35.165Z</time>
      </trkpt>
      <trkpt lat="45.97577" lon="4.4085">
        <ele>816.477844238</ele>
        <time>2016-01-28T08:44:40.189Z</time>
      </trkpt>
      <trkpt lat="45.97577" lon="4.40848">
        <ele>816.71661377</ele>
        <time>2016-01-28T08:44:41.178Z</time>
      </trkpt>
      <trkpt lat="45.97575" lon="4.40837">
        <ele>817.666015625</ele>
        <time>2016-01-28T08:44:46.185Z</time>
      </trkpt>
      <trkpt lat="45.97575" lon="4.40835">
        <ele>817.840209961</ele>
        <time>2016-01-28T08:44:47.166Z</time>
      </trkpt>
      <trkpt lat="45.97574" lon="4.40822">
        <ele>818.733215332</ele>
        <time>2016-01-28T08:44:54.311Z</time>
      </trkpt>
      <trkpt lat="45.97574" lon="4.40821">
        <ele>818.729431152</ele>
        <time>2016-01-28T08:44:55.158Z</time>
      </trkpt>
      <trkpt lat="45.97572" lon="4.4081">
        <ele>819.036865234</ele>
        <time>2016-01-28T08:45:02.192Z</time>
      </trkpt>
      <trkpt lat="45.97571" lon="4.40808">
        <ele>819.136169434</ele>
        <time>2016-01-28T08:45:03.185Z</time>
      </trkpt>
      <trkpt lat="45.97566" lon="4.40797">
        <ele>819.786987305</ele>
        <time>2016-01-28T08:45:10.156Z</time>
      </trkpt>
      <trkpt lat="45.97566" lon="4.40795">
        <ele>819.892089844</ele>
        <time>2016-01-28T08:45:11.139Z</time>
      </trkpt>
      <trkpt lat="45.97565" lon="4.40784">
        <ele>820.348693848</ele>
        <time>2016-01-28T08:45:16.151Z</time>
      </trkpt>
      <trkpt lat="45.97565" lon="4.40781">
        <ele>820.4453125</ele>
        <time>2016-01-28T08:45:17.135Z</time>
      </trkpt>
      <trkpt lat="45.97564" lon="4.4077">
        <ele>820.95690918</ele>
        <time>2016-01-28T08:45:23.159Z</time>
      </trkpt>
      <trkpt lat="45.97564" lon="4.40768">
        <ele>821.021911621</ele>
        <time>2016-01-28T08:45:24.142Z</time>
      </trkpt>
      <trkpt lat="45.97564" lon="4.40756">
        <ele>821.321411133</ele>
        <time>2016-01-28T08:45:30.15Z</time>
      </trkpt>
      <trkpt lat="45.97564" lon="4.40755">
        <ele>821.335266113</ele>
        <time>2016-01-28T08:45:31.137Z</time>
      </trkpt>
      <trkpt lat="45.97562" lon="4.40743">
        <ele>821.299743652</ele>
        <time>2016-01-28T08:45:38.168Z</time>
      </trkpt>
      <trkpt lat="45.97562" lon="4.40741">
        <ele>821.235107422</ele>
        <time>2016-01-28T08:45:39.136Z</time>
      </trkpt>
      <trkpt lat="45.97562" lon="4.4073">
        <ele>821.117553711</ele>
        <time>2016-01-28T08:45:44.164Z</time>
      </trkpt>
      <trkpt lat="45.97562" lon="4.40728">
        <ele>821.04864502</ele>
        <time>2016-01-28T08:45:45.142Z</time>
      </trkpt>
      <trkpt lat="45.97563" lon="4.40716">
        <ele>820.575927734</ele>
        <time>2016-01-28T08:45:51.168Z</time>
      </trkpt>
      <trkpt lat="45.97563" lon="4.40714">
        <ele>820.525939941</ele>
        <time>2016-01-28T08:45:52.139Z</time>
      </trkpt>
      <trkpt lat="45.97562" lon="4.40704">
        <ele>820.407043457</ele>
        <time>2016-01-28T08:45:57.166Z</time>
      </trkpt>
      <trkpt lat="45.97563" lon="4.40701">
        <ele>820.360107422</ele>
        <time>2016-01-28T08:45:58.148Z</time>
      </trkpt>
      <trkpt lat="45.97565" lon="4.40689">
        <ele>819.838195801</ele>
        <time>2016-01-28T08:46:09.159Z</time>
      </trkpt>
      <trkpt lat="45.97565" lon="4.40687">
        <ele>819.808227539</ele>
        <time>2016-01-28T08:46:10.139Z</time>
      </trkpt>
      <trkpt lat="45.97567" lon="4.40675">
        <ele>819.292114258</ele>
        <time>2016-01-28T08:46:18.278Z</time>
      </trkpt>
      <trkpt lat="45.97568" lon="4.40674">
        <ele>819.24407959</ele>
        <time>2016-01-28T08:46:19.148Z</time>
      </trkpt>
      <trkpt lat="45.97569" lon="4.40663">
        <ele>818.871154785</ele>
        <time>2016-01-28T08:46:26.178Z</time>
      </trkpt>
      <trkpt lat="45.9757" lon="4.40661">
        <ele>818.830871582</ele>
        <time>2016-01-28T08:46:27.149Z</time>
      </trkpt>
      <trkpt lat="45.97573" lon="4.4065">
        <ele>818.479370117</ele>
        <time>2016-01-28T08:46:34.158Z</time>
      </trkpt>
      <trkpt lat="45.97574" lon="4.40648">
        <ele>818.367248535</ele>
        <time>2016-01-28T08:46:35.149Z</time>
      </trkpt>
      <trkpt lat="45.97577" lon="4.40637">
        <ele>817.575256348</ele>
        <time>2016-01-28T08:46:42.196Z</time>
      </trkpt>
      <trkpt lat="45.97577" lon="4.40636">
        <ele>817.486877441</ele>
        <time>2016-01-28T08:46:43.145Z</time>
      </trkpt>
      <trkpt lat="45.97581" lon="4.40626">
        <ele>816.984741211</ele>
        <time>2016-01-28T08:46:51.185Z</time>
      </trkpt>
      <trkpt lat="45.97582" lon="4.40625">
        <ele>816.881530762</ele>
        <time>2016-01-28T08:46:52.142Z</time>
      </trkpt>
      <trkpt lat="45.97587" lon="4.40615">
        <ele>816.584411621</ele>
        <time>2016-01-28T08:47:00.173Z</time>
      </trkpt>
      <trkpt lat="45.97588" lon="4.40613">
        <ele>816.500183105</ele>
        <time>2016-01-28T08:47:01.141Z</time>
      </trkpt>
      <trkpt lat="45.97593" lon="4.40604">
        <ele>815.699951172</ele>
        <time>2016-01-28T08:47:09.173Z</time>
      </trkpt>
      <trkpt lat="45.97593" lon="4.40603">
        <ele>815.606994629</ele>
        <time>2016-01-28T08:47:10.163Z</time>
      </trkpt>
      <trkpt lat="45.97599" lon="4.40593">
        <ele>814.649169922</ele>
        <time>2016-01-28T08:47:19.161Z</time>
      </trkpt>
      <trkpt lat="45.976" lon="4.40593">
        <ele>814.51763916</ele>
        <time>2016-01-28T08:47:20.141Z</time>
      </trkpt>
      <trkpt lat="45.97603" lon="4.40584">
        <ele>812.05279541</ele>
        <time>2016-01-28T08:48:46.196Z</time>
      </trkpt>
      <trkpt lat="45.97605" lon="4.40581">
        <ele>811.93963623</ele>
        <time>2016-01-28T08:48:47.144Z</time>
      </trkpt>
      <trkpt lat="45.97612" lon="4.40572">
        <ele>811.359863281</ele>
        <time>2016-01-28T08:48:53.172Z</time>
      </trkpt>
      <trkpt lat="45.97613" lon="4.40571">
        <ele>811.213317871</ele>
        <time>2016-01-28T08:48:54.148Z</time>
      </trkpt>
      <trkpt lat="45.97618" lon="4.40561">
        <ele>810.184814453</ele>
        <time>2016-01-28T08:49:01.148Z</time>
      </trkpt>
      <trkpt lat="45.97618" lon="4.40559">
        <ele>809.996704102</ele>
        <time>2016-01-28T08:49:02.16Z</time>
      </trkpt>
      <trkpt lat="45.97623" lon="4.40548">
        <ele>809.315490723</ele>
        <time>2016-01-28T08:49:10.17Z</time>
      </trkpt>
      <trkpt lat="45.97624" lon="4.40547">
        <ele>809.232849121</ele>
        <time>2016-01-28T08:49:11.155Z</time>
      </trkpt>
      <trkpt lat="45.9763" lon="4.40539">
        <ele>808.433288574</ele>
        <time>2016-01-28T08:49:17.199Z</time>
      </trkpt>
      <trkpt lat="45.9763" lon="4.40537">
        <ele>808.323059082</ele>
        <time>2016-01-28T08:49:18.161Z</time>
      </trkpt>
      <trkpt lat="45.97636" lon="4.40527">
        <ele>807.434143066</ele>
        <time>2016-01-28T08:49:24.167Z</time>
      </trkpt>
      <trkpt lat="45.97636" lon="4.40526">
        <ele>807.330322266</ele>
        <time>2016-01-28T08:49:25.162Z</time>
      </trkpt>
      <trkpt lat="45.97641" lon="4.40517">
        <ele>806.803649902</ele>
        <time>2016-01-28T08:49:31.19Z</time>
      </trkpt>
      <trkpt lat="45.97642" lon="4.40516">
        <ele>806.719055176</ele>
        <time>2016-01-28T08:49:32.162Z</time>
      </trkpt>
      <trkpt lat="45.97647" lon="4.40507">
        <ele>806.087280273</ele>
        <time>2016-01-28T08:49:38.174Z</time>
      </trkpt>
      <trkpt lat="45.97648" lon="4.40506">
        <ele>805.972229004</ele>
        <time>2016-01-28T08:49:39.164Z</time>
      </trkpt>
      <trkpt lat="45.97653" lon="4.40497">
        <ele>805.559631348</ele>
        <time>2016-01-28T08:49:45.224Z</time>
      </trkpt>
      <trkpt lat="45.97654" lon="4.40495">
        <ele>805.430297852</ele>
        <time>2016-01-28T08:49:46.162Z</time>
      </trkpt>
      <trkpt lat="45.97658" lon="4.40485">
        <ele>804.648681641</ele>
        <time>2016-01-28T08:49:52.167Z</time>
      </trkpt>
      <trkpt lat="45.97659" lon="4.40484">
        <ele>804.528564453</ele>
        <time>2016-01-28T08:49:53.164Z</time>
      </trkpt>
      <trkpt lat="45.97663" lon="4.40475">
        <ele>804.156433105</ele>
        <time>2016-01-28T08:49:59.186Z</time>
      </trkpt>
      <trkpt lat="45.97664" lon="4.40473">
        <ele>804.054321289</ele>
        <time>2016-01-28T08:50:00.165Z</time>
      </trkpt>
      <trkpt lat="45.97669" lon="4.40463">
        <ele>803.672241211</ele>
        <time>2016-01-28T08:50:07.204Z</time>
      </trkpt>
      <trkpt lat="45.9767" lon="4.40461">
        <ele>803.552978516</ele>
        <time>2016-01-28T08:50:08.165Z</time>
      </trkpt>
      <trkpt lat="45.97676" lon="4.40452">
        <ele>802.732299805</ele>
        <time>2016-01-28T08:50:15.182Z</time>
      </trkpt>
      <trkpt lat="45.97677" lon="4.40451">
        <ele>802.627563477</ele>
        <time>2016-01-28T08:50:16.165Z</time>
      </trkpt>
      <trkpt lat="45.97684" lon="4.40443">
        <ele>802.232543945</ele>
        <time>2016-01-28T08:50:23.206Z</time>
      </trkpt>
      <trkpt lat="45.97684" lon="4.40442">
        <ele>802.180175781</ele>
        <time>2016-01-28T08:50:24.173Z</time>
      </trkpt>
      <trkpt lat="45.9769" lon="4.40433">
        <ele>801.273376465</ele>
        <time>2016-01-28T08:50:31.158Z</time>
      </trkpt>
      <trkpt lat="45.9769" lon="4.40432">
        <ele>801.165710449</ele>
        <time>2016-01-28T08:50:32.144Z</time>
      </trkpt>
      <trkpt lat="45.97696" lon="4.40422">
        <ele>800.709716797</ele>
        <time>2016-01-28T08:50:39.162Z</time>
      </trkpt>
      <trkpt lat="45.97697" lon="4.4042">
        <ele>800.693359375</ele>
        <time>2016-01-28T08:50:40.151Z</time>
      </trkpt>
      <trkpt lat="45.97702" lon="4.40412">
        <ele>800.436828613</ele>
        <time>2016-01-28T08:50:46.152Z</time>
      </trkpt>
      <trkpt lat="45.97703" lon="4.40411">
        <ele>800.386352539</ele>
        <time>2016-01-28T08:50:47.152Z</time>
      </trkpt>
      <trkpt lat="45.97709" lon="4.40402">
        <ele>799.977722168</ele>
        <time>2016-01-28T08:50:53.188Z</time>
      </trkpt>
      <trkpt lat="45.97709" lon="4.40401">
        <ele>799.895751953</ele>
        <time>2016-01-28T08:50:54.14Z</time>
      </trkpt>
      <trkpt lat="45.97715" lon="4.40391">
        <ele>799.405456543</ele>
        <time>2016-01-28T08:51:00.167Z</time>
      </trkpt>
      <trkpt lat="45.97715" lon="4.4039">
        <ele>799.347290039</ele>
        <time>2016-01-28T08:51:01.121Z</time>
      </trkpt>
      <trkpt lat="45.9772" lon="4.40381">
        <ele>799.044006348</ele>
        <time>2016-01-28T08:51:07.151Z</time>
      </trkpt>
      <trkpt lat="45.97721" lon="4.40379">
        <ele>798.961853027</ele>
        <time>2016-01-28T08:51:08.136Z</time>
      </trkpt>
      <trkpt lat="45.97726" lon="4.4037">
        <ele>798.582763672</ele>
        <time>2016-01-28T08:51:14.152Z</time>
      </trkpt>
      <trkpt lat="45.97727" lon="4.40369">
        <ele>798.549682617</ele>
        <time>2016-01-28T08:51:15.15Z</time>
      </trkpt>
      <trkpt lat="45.97731" lon="4.4036">
        <ele>798.528747559</ele>
        <time>2016-01-28T08:51:21.152Z</time>
      </trkpt>
      <trkpt lat="45.97732" lon="4.40358">
        <ele>798.531921387</ele>
        <time>2016-01-28T08:51:22.141Z</time>
      </trkpt>
      <trkpt lat="45.97737" lon="4.40349">
        <ele>798.75189209</ele>
        <time>2016-01-28T08:51:27.16Z</time>
      </trkpt>
      <trkpt lat="45.97738" lon="4.40348">
        <ele>798.760375977</ele>
        <time>2016-01-28T08:51:28.136Z</time>
      </trkpt>
      <trkpt lat="45.97745" lon="4.40341">
        <ele>798.788696289</ele>
        <time>2016-01-28T08:51:35.176Z</time>
      </trkpt>
      <trkpt lat="45.97746" lon="4.40338">
        <ele>798.769592285</ele>
        <time>2016-01-28T08:51:36.123Z</time>
      </trkpt>
      <trkpt lat="45.97751" lon="4.40329">
        <ele>799.026977539</ele>
        <time>2016-01-28T08:51:41.161Z</time>
      </trkpt>
      <trkpt lat="45.97752" lon="4.40327">
        <ele>799.066955566</ele>
        <time>2016-01-28T08:51:42.137Z</time>
      </trkpt>
      <trkpt lat="45.97758" lon="4.40318">
        <ele>798.879760742</ele>
        <time>2016-01-28T08:51:49.161Z</time>
      </trkpt>
      <trkpt lat="45.97758" lon="4.40316">
        <ele>798.861083984</ele>
        <time>2016-01-28T08:51:50.14Z</time>
      </trkpt>
      <trkpt lat="45.97761" lon="4.40306">
        <ele>798.855285645</ele>
        <time>2016-01-28T08:51:55.176Z</time>
      </trkpt>
      <trkpt lat="45.97762" lon="4.40303">
        <ele>798.859924316</ele>
        <time>2016-01-28T08:51:56.175Z</time>
      </trkpt>
      <trkpt lat="45.97768" lon="4.40293">
        <ele>798.51373291</ele>
        <time>2016-01-28T08:52:03.17Z</time>
      </trkpt>
      <trkpt lat="45.97769" lon="4.40292">
        <ele>798.414428711</ele>
        <time>2016-01-28T08:52:04.142Z</time>
      </trkpt>
      <trkpt lat="45.97774" lon="4.40282">
        <ele>797.615600586</ele>
        <time>2016-01-28T08:52:10.17Z</time>
      </trkpt>
      <trkpt lat="45.97775" lon="4.40281">
        <ele>797.48638916</ele>
        <time>2016-01-28T08:52:11.152Z</time>
      </trkpt>
      <trkpt lat="45.97781" lon="4.40272">
        <ele>796.624755859</ele>
        <time>2016-01-28T08:52:17.178Z</time>
      </trkpt>
      <trkpt lat="45.97782" lon="4.4027">
        <ele>796.490722656</ele>
        <time>2016-01-28T08:52:18.15Z</time>
      </trkpt>
      <trkpt lat="45.97788" lon="4.40261">
        <ele>795.741516113</ele>
        <time>2016-01-28T08:52:24.173Z</time>
      </trkpt>
      <trkpt lat="45.97788" lon="4.4026">
        <ele>795.61541748</ele>
        <time>2016-01-28T08:52:25.155Z</time>
      </trkpt>
      <trkpt lat="45.97794" lon="4.4025">
        <ele>794.878540039</ele>
        <time>2016-01-28T08:52:32.179Z</time>
      </trkpt>
      <trkpt lat="45.97795" lon="4.40249">
        <ele>794.766296387</ele>
        <time>2016-01-28T08:52:33.152Z</time>
      </trkpt>
      <trkpt lat="45.97802" lon="4.4024">
        <ele>793.904541016</ele>
        <time>2016-01-28T08:52:39.181Z</time>
      </trkpt>
      <trkpt lat="45.97803" lon="4.40239">
        <ele>793.746704102</ele>
        <time>2016-01-28T08:52:40.128Z</time>
      </trkpt>
      <trkpt lat="45.97809" lon="4.4023">
        <ele>793.112060547</ele>
        <time>2016-01-28T08:52:47.176Z</time>
      </trkpt>
      <trkpt lat="45.9781" lon="4.40229">
        <ele>793.015380859</ele>
        <time>2016-01-28T08:52:48.147Z</time>
      </trkpt>
      <trkpt lat="45.97816" lon="4.40221">
        <ele>792.383178711</ele>
        <time>2016-01-28T08:52:56.172Z</time>
      </trkpt>
      <trkpt lat="45.97817" lon="4.40219">
        <ele>792.321472168</ele>
        <time>2016-01-28T08:52:57.144Z</time>
      </trkpt>
      <trkpt lat="45.9782" lon="4.4021">
        <ele>791.740966797</ele>
        <time>2016-01-28T08:53:01.141Z</time>
      </trkpt>
      <trkpt lat="45.97822" lon="4.40207">
        <ele>791.647094727</ele>
        <time>2016-01-28T08:53:02.168Z</time>
      </trkpt>
      <trkpt lat="45.97826" lon="4.40197">
        <ele>790.695129395</ele>
        <time>2016-01-28T08:53:09.194Z</time>
      </trkpt>
      <trkpt lat="45.97827" lon="4.40195">
        <ele>790.575622559</ele>
        <time>2016-01-28T08:53:10.145Z</time>
      </trkpt>
      <trkpt lat="45.97829" lon="4.40183">
        <ele>790.024658203</ele>
        <time>2016-01-28T08:53:16.176Z</time>
      </trkpt>
      <trkpt lat="45.9783" lon="4.40181">
        <ele>789.975830078</ele>
        <time>2016-01-28T08:53:17.15Z</time>
      </trkpt>
      <trkpt lat="45.97833" lon="4.40169">
        <ele>789.805236816</ele>
        <time>2016-01-28T08:53:24.266Z</time>
      </trkpt>
      <trkpt lat="45.97834" lon="4.40167">
        <ele>789.776733398</ele>
        <time>2016-01-28T08:53:25.16Z</time>
      </trkpt>
      <trkpt lat="45.97839" lon="4.40158">
        <ele>789.445678711</ele>
        <time>2016-01-28T08:53:31.171Z</time>
      </trkpt>
      <trkpt lat="45.97839" lon="4.40157">
        <ele>789.419067383</ele>
        <time>2016-01-28T08:53:32.158Z</time>
      </trkpt>
      <trkpt lat="45.97845" lon="4.40148">
        <ele>789.341491699</ele>
        <time>2016-01-28T08:53:38.203Z</time>
      </trkpt>
      <trkpt lat="45.97846" lon="4.40146">
        <ele>789.316467285</ele>
        <time>2016-01-28T08:53:39.155Z</time>
      </trkpt>
      <trkpt lat="45.97851" lon="4.40137">
        <ele>789.090698242</ele>
        <time>2016-01-28T08:53:45.191Z</time>
      </trkpt>
      <trkpt lat="45.97852" lon="4.40135">
        <ele>789.076538086</ele>
        <time>2016-01-28T08:53:46.142Z</time>
      </trkpt>
      <trkpt lat="45.97857" lon="4.40125">
        <ele>788.818664551</ele>
        <time>2016-01-28T08:53:52.179Z</time>
      </trkpt>
      <trkpt lat="45.97858" lon="4.40123">
        <ele>788.785949707</ele>
        <time>2016-01-28T08:53:53.157Z</time>
      </trkpt>
      <trkpt lat="45.97862" lon="4.40112">
        <ele>788.595336914</ele>
        <time>2016-01-28T08:53:59.189Z</time>
      </trkpt>
      <trkpt lat="45.97863" lon="4.4011">
        <ele>788.49206543</ele>
        <time>2016-01-28T08:54:00.159Z</time>
      </trkpt>
      <trkpt lat="45.97867" lon="4.40102">
        <ele>788.163330078</ele>
        <time>2016-01-28T08:54:05.186Z</time>
      </trkpt>
      <trkpt lat="45.97868" lon="4.40099">
        <ele>788.041687012</ele>
        <time>2016-01-28T08:54:06.159Z</time>
      </trkpt>
      <trkpt lat="45.97869" lon="4.40088">
        <ele>787.675964355</ele>
        <time>2016-01-28T08:54:13.172Z</time>
      </trkpt>
      <trkpt lat="45.9787" lon="4.40085">
        <ele>787.587890625</ele>
        <time>2016-01-28T08:54:14.152Z</time>
      </trkpt>
      <trkpt lat="45.97872" lon="4.40073">
        <ele>787.261901855</ele>
        <time>2016-01-28T08:54:21.171Z</time>
      </trkpt>
      <trkpt lat="45.97872" lon="4.40071">
        <ele>787.311767578</ele>
        <time>2016-01-28T08:54:22.153Z</time>
      </trkpt>
      <trkpt lat="45.97872" lon="4.4006">
        <ele>787.688598633</ele>
        <time>2016-01-28T08:54:27.18Z</time>
      </trkpt>
      <trkpt lat="45.97872" lon="4.40057">
        <ele>787.605529785</ele>
        <time>2016-01-28T08:54:28.161Z</time>
      </trkpt>
      <trkpt lat="45.97868" lon="4.40046">
        <ele>785.56628418</ele>
        <time>2016-01-28T08:54:46.185Z</time>
      </trkpt>
      <trkpt lat="45.97867" lon="4.40046">
        <ele>785.357421875</ele>
        <time>2016-01-28T08:54:47.153Z</time>
      </trkpt>
      <trkpt lat="45.97859" lon="4.40043">
        <ele>783.744873047</ele>
        <time>2016-01-28T08:54:55.192Z</time>
      </trkpt>
      <trkpt lat="45.97858" lon="4.40042">
        <ele>783.553344727</ele>
        <time>2016-01-28T08:54:56.154Z</time>
      </trkpt>
      <trkpt lat="45.9785" lon="4.40039">
        <ele>782.789428711</ele>
        <time>2016-01-28T08:55:00.173Z</time>
      </trkpt>
      <trkpt lat="45.97847" lon="4.40038">
        <ele>782.664001465</ele>
        <time>2016-01-28T08:55:01.139Z</time>
      </trkpt>
      <trkpt lat="45.97841" lon="4.40035">
        <ele>782.234313965</ele>
        <time>2016-01-28T08:55:05.192Z</time>
      </trkpt>
      <trkpt lat="45.97838" lon="4.40034">
        <ele>782.249267578</ele>
        <time>2016-01-28T08:55:06.154Z</time>
      </trkpt>
      <trkpt lat="45.9783" lon="4.40029">
        <ele>782.278259277</ele>
        <time>2016-01-28T08:55:12.191Z</time>
      </trkpt>
      <trkpt lat="45.97829" lon="4.40029">
        <ele>782.324279785</ele>
        <time>2016-01-28T08:55:13.151Z</time>
      </trkpt>
      <trkpt lat="45.97821" lon="4.40025">
        <ele>782.469970703</ele>
        <time>2016-01-28T08:55:18.183Z</time>
      </trkpt>
      <trkpt lat="45.9782" lon="4.40024">
        <ele>782.495544434</ele>
        <time>2016-01-28T08:55:19.16Z</time>
      </trkpt>
      <trkpt lat="45.97811" lon="4.40021">
        <ele>783.670654297</ele>
        <time>2016-01-28T08:55:31.169Z</time>
      </trkpt>
      <trkpt lat="45.9781" lon="4.40021">
        <ele>783.745788574</ele>
        <time>2016-01-28T08:55:32.167Z</time>
      </trkpt>
      <trkpt lat="45.97801" lon="4.40018">
        <ele>784.008117676</ele>
        <time>2016-01-28T08:55:40.193Z</time>
      </trkpt>
      <trkpt lat="45.978" lon="4.40017">
        <ele>783.990844727</ele>
        <time>2016-01-28T08:55:41.138Z</time>
      </trkpt>
      <trkpt lat="45.97792" lon="4.40014">
        <ele>784.007263184</ele>
        <time>2016-01-28T08:55:44.202Z</time>
      </trkpt>
      <trkpt lat="45.97791" lon="4.40013">
        <ele>784.045593262</ele>
        <time>2016-01-28T08:55:45.145Z</time>
      </trkpt>
      <trkpt lat="45.97783" lon="4.4001">
        <ele>784.416503906</ele>
        <time>2016-01-28T08:55:50.16Z</time>
      </trkpt>
      <trkpt lat="45.97781" lon="4.40009">
        <ele>784.447570801</ele>
        <time>2016-01-28T08:55:51.146Z</time>
      </trkpt>
      <trkpt lat="45.97773" lon="4.40007">
        <ele>784.129333496</ele>
        <time>2016-01-28T08:55:56.154Z</time>
      </trkpt>
      <trkpt lat="45.97771" lon="4.40005">
        <ele>783.907470703</ele>
        <time>2016-01-28T08:55:57.149Z</time>
      </trkpt>
      <trkpt lat="45.97764" lon="4.4">
        <ele>783.229675293</ele>
        <time>2016-01-28T08:56:03.153Z</time>
      </trkpt>
      <trkpt lat="45.97762" lon="4.39999">
        <ele>783.31463623</ele>
        <time>2016-01-28T08:56:04.134Z</time>
      </trkpt>
      <trkpt lat="45.97754" lon="4.39996">
        <ele>783.533691406</ele>
        <time>2016-01-28T08:56:12.156Z</time>
      </trkpt>
      <trkpt lat="45.97752" lon="4.39995">
        <ele>783.55645752</ele>
        <time>2016-01-28T08:56:13.14Z</time>
      </trkpt>
      <trkpt lat="45.97744" lon="4.39991">
        <ele>783.743347168</ele>
        <time>2016-01-28T08:56:21.177Z</time>
      </trkpt>
      <trkpt lat="45.97742" lon="4.3999">
        <ele>783.845458984</ele>
        <time>2016-01-28T08:56:22.138Z</time>
      </trkpt>
      <trkpt lat="45.97736" lon="4.39986">
        <ele>784.184875488</ele>
        <time>2016-01-28T08:56:28.175Z</time>
      </trkpt>
      <trkpt lat="45.97734" lon="4.39984">
        <ele>784.075256348</ele>
        <time>2016-01-28T08:56:29.139Z</time>
      </trkpt>
      <trkpt lat="45.97726" lon="4.39978">
        <ele>785.242370605</ele>
        <time>2016-01-28T08:56:38.165Z</time>
      </trkpt>
      <trkpt lat="45.97725" lon="4.39976">
        <ele>785.411865234</ele>
        <time>2016-01-28T08:56:39.159Z</time>
      </trkpt>
      <trkpt lat="45.97718" lon="4.39971">
        <ele>786.557312012</ele>
        <time>2016-01-28T08:56:46.173Z</time>
      </trkpt>
      <trkpt lat="45.97716" lon="4.39971">
        <ele>786.722106934</ele>
        <time>2016-01-28T08:56:47.141Z</time>
      </trkpt>
      <trkpt lat="45.97708" lon="4.39966">
        <ele>787.490722656</ele>
        <time>2016-01-28T08:56:53.159Z</time>
      </trkpt>
      <trkpt lat="45.97707" lon="4.39965">
        <ele>787.600585938</ele>
        <time>2016-01-28T08:56:54.141Z</time>
      </trkpt>
      <trkpt lat="45.977" lon="4.39958">
        <ele>788.188354492</ele>
        <time>2016-01-28T08:57:00.26Z</time>
      </trkpt>
      <trkpt lat="45.97699" lon="4.39958">
        <ele>788.298156738</ele>
        <time>2016-01-28T08:57:01.141Z</time>
      </trkpt>
      <trkpt lat="45.97692" lon="4.3995">
        <ele>789.075500488</ele>
        <time>2016-01-28T08:57:06.164Z</time>
      </trkpt>
      <trkpt lat="45.97692" lon="4.39949">
        <ele>789.197509766</ele>
        <time>2016-01-28T08:57:07.159Z</time>
      </trkpt>
      <trkpt lat="45.97684" lon="4.39943">
        <ele>789.256408691</ele>
        <time>2016-01-28T08:57:13.156Z</time>
      </trkpt>
      <trkpt lat="45.97683" lon="4.39943">
        <ele>789.27520752</ele>
        <time>2016-01-28T08:57:14.147Z</time>
      </trkpt>
      <trkpt lat="45.97675" lon="4.39938">
        <ele>789.218261719</ele>
        <time>2016-01-28T08:57:20.158Z</time>
      </trkpt>
      <trkpt lat="45.97674" lon="4.39938">
        <ele>789.212097168</ele>
        <time>2016-01-28T08:57:21.143Z</time>
      </trkpt>
      <trkpt lat="45.97666" lon="4.39931">
        <ele>789.837219238</ele>
        <time>2016-01-28T08:57:28.169Z</time>
      </trkpt>
      <trkpt lat="45.97665" lon="4.3993">
        <ele>789.880981445</ele>
        <time>2016-01-28T08:57:29.143Z</time>
      </trkpt>
      <trkpt lat="45.97657" lon="4.39927">
        <ele>790.454772949</ele>
        <time>2016-01-28T08:57:35.166Z</time>
      </trkpt>
      <trkpt lat="45.97656" lon="4.39927">
        <ele>790.583129883</ele>
        <time>2016-01-28T08:57:36.142Z</time>
      </trkpt>
      <trkpt lat="45.97649" lon="4.39918">
        <ele>790.71307373</ele>
        <time>2016-01-28T08:57:45.158Z</time>
      </trkpt>
      <trkpt lat="45.97648" lon="4.39919">
        <ele>790.689453125</ele>
        <time>2016-01-28T08:57:46.145Z</time>
      </trkpt>
      <trkpt lat="45.97641" lon="4.39913">
        <ele>790.329467773</ele>
        <time>2016-01-28T08:57:54.159Z</time>
      </trkpt>
      <trkpt lat="45.9764" lon="4.39911">
        <ele>790.340515137</ele>
        <time>2016-01-28T08:57:55.144Z</time>
      </trkpt>
      <trkpt lat="45.97632" lon="4.39908">
        <ele>790.709716797</ele>
        <time>2016-01-28T08:57:58.166Z</time>
      </trkpt>
      <trkpt lat="45.9763" lon="4.39906">
        <ele>790.850402832</ele>
        <time>2016-01-28T08:57:59.145Z</time>
      </trkpt>
      <trkpt lat="45.97623" lon="4.39899">
        <ele>791.199035645</ele>
        <time>2016-01-28T08:58:07.178Z</time>
      </trkpt>
      <trkpt lat="45.97622" lon="4.39898">
        <ele>791.273620605</ele>
        <time>2016-01-28T08:58:08.146Z</time>
      </trkpt>
      <trkpt lat="45.97616" lon="4.39889">
        <ele>791.94519043</ele>
        <time>2016-01-28T08:58:16.184Z</time>
      </trkpt>
      <trkpt lat="45.97613" lon="4.39887">
        <ele>792.091247559</ele>
        <time>2016-01-28T08:58:17.141Z</time>
      </trkpt>
      <trkpt lat="45.97607" lon="4.39881">
        <ele>792.73815918</ele>
        <time>2016-01-28T08:58:23.178Z</time>
      </trkpt>
      <trkpt lat="45.97605" lon="4.39879">
        <ele>792.840148926</ele>
        <time>2016-01-28T08:58:24.139Z</time>
      </trkpt>
      <trkpt lat="45.97597" lon="4.39876">
        <ele>793.256958008</ele>
        <time>2016-01-28T08:58:29.174Z</time>
      </trkpt>
      <trkpt lat="45.97595" lon="4.39875">
        <ele>793.266479492</ele>
        <time>2016-01-28T08:58:30.146Z</time>
      </trkpt>
      <trkpt lat="45.97588" lon="4.3987">
        <ele>792.075134277</ele>
        <time>2016-01-28T08:58:36.191Z</time>
      </trkpt>
      <trkpt lat="45.97586" lon="4.39869">
        <ele>791.974487305</ele>
        <time>2016-01-28T08:58:37.15Z</time>
      </trkpt>
      <trkpt lat="45.97579" lon="4.39861">
        <ele>791.596618652</ele>
        <time>2016-01-28T08:58:44.197Z</time>
      </trkpt>
      <trkpt lat="45.97579" lon="4.39861">
        <ele>791.680053711</ele>
        <time>2016-01-28T08:58:45.15Z</time>
      </trkpt>
      <trkpt lat="45.97574" lon="4.3985">
        <ele>792.829101562</ele>
        <time>2016-01-28T08:58:55.185Z</time>
      </trkpt>
      <trkpt lat="45.97572" lon="4.39849">
        <ele>792.998168945</ele>
        <time>2016-01-28T08:58:56.152Z</time>
      </trkpt>
      <trkpt lat="45.97568" lon="4.39842">
        <ele>793.392333984</ele>
        <time>2016-01-28T08:58:58.166Z</time>
      </trkpt>
      <trkpt lat="45.97566" lon="4.39839">
        <ele>793.564086914</ele>
        <time>2016-01-28T08:58:59.147Z</time>
      </trkpt>
      <trkpt lat="45.9756" lon="4.3983">
        <ele>794.128662109</ele>
        <time>2016-01-28T08:59:04.186Z</time>
      </trkpt>
      <trkpt lat="45.97559" lon="4.39828">
        <ele>794.170776367</ele>
        <time>2016-01-28T08:59:05.158Z</time>
      </trkpt>
      <trkpt lat="45.97551" lon="4.39827">
        <ele>793.93157959</ele>
        <time>2016-01-28T08:59:12.237Z</time>
      </trkpt>
      <trkpt lat="45.9755" lon="4.39827">
        <ele>793.878356934</ele>
        <time>2016-01-28T08:59:13.151Z</time>
      </trkpt>
      <trkpt lat="45.97541" lon="4.39828">
        <ele>790.539550781</ele>
        <time>2016-01-28T08:59:22.191Z</time>
      </trkpt>
      <trkpt lat="45.9754" lon="4.39828">
        <ele>790.113891602</ele>
        <time>2016-01-28T08:59:23.16Z</time>
      </trkpt>
      <trkpt lat="45.97532" lon="4.39829">
        <ele>787.747497559</ele>
        <time>2016-01-28T08:59:29.194Z</time>
      </trkpt>
      <trkpt lat="45.97529" lon="4.39829">
        <ele>787.306640625</ele>
        <time>2016-01-28T08:59:30.159Z</time>
      </trkpt>
      <trkpt lat="45.97521" lon="4.39831">
        <ele>784.028442383</ele>
        <time>2016-01-28T08:59:37.193Z</time>
      </trkpt>
      <trkpt lat="45.9752" lon="4.39831">
        <ele>783.706115723</ele>
        <time>2016-01-28T08:59:38.135Z</time>
      </trkpt>
      <trkpt lat="45.97512" lon="4.39827">
        <ele>782.792297363</ele>
        <time>2016-01-28T08:59:43.183Z</time>
      </trkpt>
      <trkpt lat="45.97511" lon="4.39826">
        <ele>782.690979004</ele>
        <time>2016-01-28T08:59:44.161Z</time>
      </trkpt>
      <trkpt lat="45.97503" lon="4.39821">
        <ele>782.394165039</ele>
        <time>2016-01-28T08:59:47.18Z</time>
      </trkpt>
      <trkpt lat="45.97502" lon="4.3982">
        <ele>782.283325195</ele>
        <time>2016-01-28T08:59:48.164Z</time>
      </trkpt>
      <trkpt lat="45.97496" lon="4.39814">
        <ele>782.265075684</ele>
        <time>2016-01-28T08:59:52.183Z</time>
      </trkpt>
      <trkpt lat="45.97494" lon="4.39812">
        <ele>782.329101562</ele>
        <time>2016-01-28T08:59:53.154Z</time>
      </trkpt>
      <trkpt lat="45.97489" lon="4.39803">
        <ele>782.495178223</ele>
        <time>2016-01-28T08:59:59.266Z</time>
      </trkpt>
      <trkpt lat="45.97488" lon="4.39801">
        <ele>782.497131348</ele>
        <time>2016-01-28T09:00:00.161Z</time>
      </trkpt>
      <trkpt lat="45.97482" lon="4.39794">
        <ele>782.461120605</ele>
        <time>2016-01-28T09:00:04.184Z</time>
      </trkpt>
      <trkpt lat="45.97481" lon="4.39792">
        <ele>782.435119629</ele>
        <time>2016-01-28T09:00:05.161Z</time>
      </trkpt>
      <trkpt lat="45.97475" lon="4.39784">
        <ele>782.352600098</ele>
        <time>2016-01-28T09:00:11.187Z</time>
      </trkpt>
      <trkpt lat="45.97474" lon="4.39783">
        <ele>782.371643066</ele>
        <time>2016-01-28T09:00:12.164Z</time>
      </trkpt>
      <trkpt lat="45.97469" lon="4.39776">
        <ele>782.45526123</ele>
        <time>2016-01-28T09:00:18.203Z</time>
      </trkpt>
      <trkpt lat="45.97467" lon="4.39775">
        <ele>782.444213867</ele>
        <time>2016-01-28T09:00:19.164Z</time>
      </trkpt>
      <trkpt lat="45.9746" lon="4.39769">
        <ele>782.172302246</ele>
        <time>2016-01-28T09:00:24.193Z</time>
      </trkpt>
      <trkpt lat="45.97459" lon="4.39768">
        <ele>782.119018555</ele>
        <time>2016-01-28T09:00:25.168Z</time>
      </trkpt>
      <trkpt lat="45.97452" lon="4.39761">
        <ele>781.89263916</ele>
        <time>2016-01-28T09:00:30.185Z</time>
      </trkpt>
      <trkpt lat="45.97451" lon="4.3976">
        <ele>781.825195312</ele>
        <time>2016-01-28T09:00:31.151Z</time>
      </trkpt>
      <trkpt lat="45.97444" lon="4.39753">
        <ele>781.611022949</ele>
        <time>2016-01-28T09:00:37.182Z</time>
      </trkpt>
      <trkpt lat="45.97442" lon="4.39752">
        <ele>781.603271484</ele>
        <time>2016-01-28T09:00:38.165Z</time>
      </trkpt>
      <trkpt lat="45.97436" lon="4.39747">
        <ele>781.487609863</ele>
        <time>2016-01-28T09:00:43.186Z</time>
      </trkpt>
      <trkpt lat="45.97434" lon="4.39745">
        <ele>781.500061035</ele>
        <time>2016-01-28T09:00:44.164Z</time>
      </trkpt>
      <trkpt lat="45.97426" lon="4.39743">
        <ele>781.36730957</ele>
        <time>2016-01-28T09:00:49.206Z</time>
      </trkpt>
      <trkpt lat="45.97424" lon="4.39742">
        <ele>781.378540039</ele>
        <time>2016-01-28T09:00:50.165Z</time>
      </trkpt>
      <trkpt lat="45.97417" lon="4.39737">
        <ele>781.326904297</ele>
        <time>2016-01-28T09:00:55.198Z</time>
      </trkpt>
      <trkpt lat="45.97415" lon="4.39736">
        <ele>781.445983887</ele>
        <time>2016-01-28T09:00:56.166Z</time>
      </trkpt>
      <trkpt lat="45.97407" lon="4.39732">
        <ele>781.12878418</ele>
        <time>2016-01-28T09:01:04.165Z</time>
      </trkpt>
      <trkpt lat="45.97406" lon="4.39732">
        <ele>781.01776123</ele>
        <time>2016-01-28T09:01:05.134Z</time>
      </trkpt>
      <trkpt lat="45.97398" lon="4.3973">
        <ele>780.898193359</ele>
        <time>2016-01-28T09:01:10.165Z</time>
      </trkpt>
      <trkpt lat="45.97397" lon="4.3973">
        <ele>780.913879395</ele>
        <time>2016-01-28T09:01:11.132Z</time>
      </trkpt>
      <trkpt lat="45.97389" lon="4.39724">
        <ele>780.790527344</ele>
        <time>2016-01-28T09:01:19.165Z</time>
      </trkpt>
      <trkpt lat="45.97388" lon="4.39724">
        <ele>780.715881348</ele>
        <time>2016-01-28T09:01:20.134Z</time>
      </trkpt>
      <trkpt lat="45.97383" lon="4.3972">
        <ele>780.399658203</ele>
        <time>2016-01-28T09:01:24.155Z</time>
      </trkpt>
      <trkpt lat="45.9738" lon="4.39718">
        <ele>780.399414062</ele>
        <time>2016-01-28T09:01:25.134Z</time>
      </trkpt>
      <trkpt lat="45.97374" lon="4.39714">
        <ele>779.902526855</ele>
        <time>2016-01-28T09:01:31.168Z</time>
      </trkpt>
      <trkpt lat="45.97371" lon="4.39712">
        <ele>779.891845703</ele>
        <time>2016-01-28T09:01:32.135Z</time>
      </trkpt>
      <trkpt lat="45.97363" lon="4.39709">
        <ele>780.253540039</ele>
        <time>2016-01-28T09:01:38.174Z</time>
      </trkpt>
      <trkpt lat="45.97361" lon="4.39709">
        <ele>780.354736328</ele>
        <time>2016-01-28T09:01:39.134Z</time>
      </trkpt>
      <trkpt lat="45.97356" lon="4.397">
        <ele>780.289916992</ele>
        <time>2016-01-28T09:01:45.168Z</time>
      </trkpt>
      <trkpt lat="45.97355" lon="4.39698">
        <ele>780.249511719</ele>
        <time>2016-01-28T09:01:46.134Z</time>
      </trkpt>
      <trkpt lat="45.97348" lon="4.39692">
        <ele>780.057800293</ele>
        <time>2016-01-28T09:01:50.17Z</time>
      </trkpt>
      <trkpt lat="45.97346" lon="4.39691">
        <ele>780.008056641</ele>
        <time>2016-01-28T09:01:51.145Z</time>
      </trkpt>
      <trkpt lat="45.97339" lon="4.39685">
        <ele>779.951843262</ele>
        <time>2016-01-28T09:01:56.156Z</time>
      </trkpt>
      <trkpt lat="45.97338" lon="4.39684">
        <ele>779.917297363</ele>
        <time>2016-01-28T09:01:57.14Z</time>
      </trkpt>
      <trkpt lat="45.97332" lon="4.39677">
        <ele>779.757202148</ele>
        <time>2016-01-28T09:02:02.235Z</time>
      </trkpt>
      <trkpt lat="45.9733" lon="4.39677">
        <ele>779.74230957</ele>
        <time>2016-01-28T09:02:03.136Z</time>
      </trkpt>
      <trkpt lat="45.97323" lon="4.39671">
        <ele>779.596435547</ele>
        <time>2016-01-28T09:02:08.179Z</time>
      </trkpt>
      <trkpt lat="45.97321" lon="4.3967">
        <ele>779.591247559</ele>
        <time>2016-01-28T09:02:09.146Z</time>
      </trkpt>
      <trkpt lat="45.97314" lon="4.39667">
        <ele>779.489624023</ele>
        <time>2016-01-28T09:02:14.177Z</time>
      </trkpt>
      <trkpt lat="45.97312" lon="4.39666">
        <ele>779.426147461</ele>
        <time>2016-01-28T09:02:15.139Z</time>
      </trkpt>
      <trkpt lat="45.97303" lon="4.39662">
        <ele>779.148254395</ele>
        <time>2016-01-28T09:02:21.186Z</time>
      </trkpt>
      <trkpt lat="45.97302" lon="4.39662">
        <ele>779.095031738</ele>
        <time>2016-01-28T09:02:22.148Z</time>
      </trkpt>
      <trkpt lat="45.97295" lon="4.39658">
        <ele>778.823730469</ele>
        <time>2016-01-28T09:02:28.136Z</time>
      </trkpt>
      <trkpt lat="45.97293" lon="4.39657">
        <ele>778.759277344</ele>
        <time>2016-01-28T09:02:29.145Z</time>
      </trkpt>
      <trkpt lat="45.97287" lon="4.39651">
        <ele>778.415283203</ele>
        <time>2016-01-28T09:02:33.179Z</time>
      </trkpt>
      <trkpt lat="45.97285" lon="4.39649">
        <ele>778.352050781</ele>
        <time>2016-01-28T09:02:34.145Z</time>
      </trkpt>
      <trkpt lat="45.97279" lon="4.39642">
        <ele>777.962646484</ele>
        <time>2016-01-28T09:02:39.18Z</time>
      </trkpt>
      <trkpt lat="45.97278" lon="4.3964">
        <ele>777.901245117</ele>
        <time>2016-01-28T09:02:40.147Z</time>
      </trkpt>
      <trkpt lat="45.97273" lon="4.3963">
        <ele>777.670898438</ele>
        <time>2016-01-28T09:02:46.182Z</time>
      </trkpt>
      <trkpt lat="45.97272" lon="4.39628">
        <ele>777.683959961</ele>
        <time>2016-01-28T09:02:47.149Z</time>
      </trkpt>
      <trkpt lat="45.97267" lon="4.3962">
        <ele>777.555358887</ele>
        <time>2016-01-28T09:02:52.185Z</time>
      </trkpt>
      <trkpt lat="45.97266" lon="4.39618">
        <ele>777.5234375</ele>
        <time>2016-01-28T09:02:53.149Z</time>
      </trkpt>
      <trkpt lat="45.97259" lon="4.39614">
        <ele>777.223449707</ele>
        <time>2016-01-28T09:02:59.179Z</time>
      </trkpt>
      <trkpt lat="45.97258" lon="4.39613">
        <ele>777.181945801</ele>
        <time>2016-01-28T09:03:00.15Z</time>
      </trkpt>
      <trkpt lat="45.9725" lon="4.3961">
        <ele>777.036437988</ele>
        <time>2016-01-28T09:03:08.191Z</time>
      </trkpt>
      <trkpt lat="45.97249" lon="4.3961">
        <ele>777.045166016</ele>
        <time>2016-01-28T09:03:09.15Z</time>
      </trkpt>
      <trkpt lat="45.9724" lon="4.39607">
        <ele>776.905273438</ele>
        <time>2016-01-28T09:03:16.202Z</time>
      </trkpt>
      <trkpt lat="45.97239" lon="4.39607">
        <ele>776.912109375</ele>
        <time>2016-01-28T09:03:17.162Z</time>
      </trkpt>
      <trkpt lat="45.97231" lon="4.39607">
        <ele>776.864196777</ele>
        <time>2016-01-28T09:03:24.193Z</time>
      </trkpt>
      <trkpt lat="45.9723" lon="4.39608">
        <ele>776.853027344</ele>
        <time>2016-01-28T09:03:25.152Z</time>
      </trkpt>
      <trkpt lat="45.97221" lon="4.39608">
        <ele>776.809875488</ele>
        <time>2016-01-28T09:03:32.177Z</time>
      </trkpt>
      <trkpt lat="45.9722" lon="4.39609">
        <ele>776.782897949</ele>
        <time>2016-01-28T09:03:33.155Z</time>
      </trkpt>
      <trkpt lat="45.97212" lon="4.39612">
        <ele>776.559020996</ele>
        <time>2016-01-28T09:03:45.207Z</time>
      </trkpt>
      <trkpt lat="45.97212" lon="4.39613">
        <ele>776.598937988</ele>
        <time>2016-01-28T09:03:46.153Z</time>
      </trkpt>
      <trkpt lat="45.97203" lon="4.39616">
        <ele>778.468688965</ele>
        <time>2016-01-28T09:03:56.342Z</time>
      </trkpt>
      <trkpt lat="45.97202" lon="4.39616">
        <ele>778.828125</ele>
        <time>2016-01-28T09:03:57.153Z</time>
      </trkpt>
      <trkpt lat="45.97193" lon="4.39618">
        <ele>778.768371582</ele>
        <time>2016-01-28T09:04:04.179Z</time>
      </trkpt>
      <trkpt lat="45.97192" lon="4.39619">
        <ele>778.742431641</ele>
        <time>2016-01-28T09:04:05.164Z</time>
      </trkpt>
      <trkpt lat="45.97184" lon="4.39621">
        <ele>779.55267334</ele>
        <time>2016-01-28T09:04:13.196Z</time>
      </trkpt>
      <trkpt lat="45.97183" lon="4.39621">
        <ele>779.541625977</ele>
        <time>2016-01-28T09:04:14.188Z</time>
      </trkpt>
      <trkpt lat="45.97174" lon="4.3962">
        <ele>780.140563965</ele>
        <time>2016-01-28T09:04:22.186Z</time>
      </trkpt>
      <trkpt lat="45.97173" lon="4.3962">
        <ele>780.132751465</ele>
        <time>2016-01-28T09:04:23.161Z</time>
      </trkpt>
      <trkpt lat="45.97164" lon="4.3962">
        <ele>780.140563965</ele>
        <time>2016-01-28T09:04:28.15Z</time>
      </trkpt>
      <trkpt lat="45.97163" lon="4.3962">
        <ele>780.229370117</ele>
        <time>2016-01-28T09:04:29.158Z</time>
      </trkpt>
      <trkpt lat="45.97155" lon="4.39621">
        <ele>779.97845459</ele>
        <time>2016-01-28T09:04:34.18Z</time>
      </trkpt>
      <trkpt lat="45.97153" lon="4.39621">
        <ele>779.954528809</ele>
        <time>2016-01-28T09:04:35.158Z</time>
      </trkpt>
      <trkpt lat="45.97144" lon="4.39621">
        <ele>781.468383789</ele>
        <time>2016-01-28T09:04:46.191Z</time>
      </trkpt>
      <trkpt lat="45.97143" lon="4.39621">
        <ele>781.50567627</ele>
        <time>2016-01-28T09:04:47.158Z</time>
      </trkpt>
      <trkpt lat="45.97135" lon="4.39619">
        <ele>781.96496582</ele>
        <time>2016-01-28T09:04:51.206Z</time>
      </trkpt>
      <trkpt lat="45.97134" lon="4.39618">
        <ele>782.140869141</ele>
        <time>2016-01-28T09:04:52.158Z</time>
      </trkpt>
      <trkpt lat="45.97125" lon="4.39621">
        <ele>782.227050781</ele>
        <time>2016-01-28T09:04:59.3Z</time>
      </trkpt>
      <trkpt lat="45.97124" lon="4.39622">
        <ele>782.093200684</ele>
        <time>2016-01-28T09:05:00.179Z</time>
      </trkpt>
      <trkpt lat="45.97116" lon="4.39623">
        <ele>781.633850098</ele>
        <time>2016-01-28T09:05:07.195Z</time>
      </trkpt>
      <trkpt lat="45.97115" lon="4.39623">
        <ele>781.427185059</ele>
        <time>2016-01-28T09:05:08.159Z</time>
      </trkpt>
      <trkpt lat="45.97107" lon="4.3962">
        <ele>780.453857422</ele>
        <time>2016-01-28T09:05:21.184Z</time>
      </trkpt>
      <trkpt lat="45.97106" lon="4.39619">
        <ele>780.616882324</ele>
        <time>2016-01-28T09:05:22.156Z</time>
      </trkpt>
      <trkpt lat="45.97098" lon="4.39614">
        <ele>782.933898926</ele>
        <time>2016-01-28T09:05:31.201Z</time>
      </trkpt>
      <trkpt lat="45.97097" lon="4.39614">
        <ele>783.024597168</ele>
        <time>2016-01-28T09:05:32.163Z</time>
      </trkpt>
      <trkpt lat="45.97088" lon="4.39612">
        <ele>782.298095703</ele>
        <time>2016-01-28T09:05:44.19Z</time>
      </trkpt>
      <trkpt lat="45.97087" lon="4.39611">
        <ele>782.307250977</ele>
        <time>2016-01-28T09:05:45.164Z</time>
      </trkpt>
      <trkpt lat="45.97079" lon="4.3961">
        <ele>782.466796875</ele>
        <time>2016-01-28T09:05:51.186Z</time>
      </trkpt>
      <trkpt lat="45.97077" lon="4.39609">
        <ele>782.58782959</ele>
        <time>2016-01-28T09:05:52.168Z</time>
      </trkpt>
      <trkpt lat="45.97069" lon="4.3961">
        <ele>781.200195312</ele>
        <time>2016-01-28T09:05:58.172Z</time>
      </trkpt>
      <trkpt lat="45.97068" lon="4.39609">
        <ele>780.907714844</ele>
        <time>2016-01-28T09:05:59.161Z</time>
      </trkpt>
      <trkpt lat="45.9706" lon="4.39605">
        <ele>779.962463379</ele>
        <time>2016-01-28T09:06:02.315Z</time>
      </trkpt>
      <trkpt lat="45.97058" lon="4.39604">
        <ele>779.653442383</ele>
        <time>2016-01-28T09:06:03.162Z</time>
      </trkpt>
      <trkpt lat="45.9705" lon="4.39597">
        <ele>778.933288574</ele>
        <time>2016-01-28T09:06:08.19Z</time>
      </trkpt>
      <trkpt lat="45.97049" lon="4.39595">
        <ele>778.918457031</ele>
        <time>2016-01-28T09:06:09.161Z</time>
      </trkpt>
      <trkpt lat="45.97043" lon="4.39589">
        <ele>779.258789062</ele>
        <time>2016-01-28T09:06:14.178Z</time>
      </trkpt>
      <trkpt lat="45.9704" lon="4.39586">
        <ele>779.36920166</ele>
        <time>2016-01-28T09:06:15.138Z</time>
      </trkpt>
      <trkpt lat="45.97033" lon="4.39579">
        <ele>780.055480957</ele>
        <time>2016-01-28T09:06:21.167Z</time>
      </trkpt>
      <trkpt lat="45.97031" lon="4.39578">
        <ele>780.154541016</ele>
        <time>2016-01-28T09:06:22.138Z</time>
      </trkpt>
      <trkpt lat="45.97024" lon="4.39573">
        <ele>780.959472656</ele>
        <time>2016-01-28T09:06:26.165Z</time>
      </trkpt>
      <trkpt lat="45.97023" lon="4.39573">
        <ele>781.194702148</ele>
        <time>2016-01-28T09:06:27.139Z</time>
      </trkpt>
      <trkpt lat="45.97015" lon="4.39567">
        <ele>783.704711914</ele>
        <time>2016-01-28T09:06:36.17Z</time>
      </trkpt>
      <trkpt lat="45.97014" lon="4.39566">
        <ele>784.022033691</ele>
        <time>2016-01-28T09:06:37.129Z</time>
      </trkpt>
      <trkpt lat="45.97007" lon="4.39562">
        <ele>786.191467285</ele>
        <time>2016-01-28T09:06:44.174Z</time>
      </trkpt>
      <trkpt lat="45.97005" lon="4.39561">
        <ele>786.461975098</ele>
        <time>2016-01-28T09:06:45.143Z</time>
      </trkpt>
      <trkpt lat="45.96999" lon="4.39553">
        <ele>788.670959473</ele>
        <time>2016-01-28T09:06:51.168Z</time>
      </trkpt>
      <trkpt lat="45.96998" lon="4.39552">
        <ele>789.004638672</ele>
        <time>2016-01-28T09:06:52.14Z</time>
      </trkpt>
      <trkpt lat="45.96992" lon="4.39546">
        <ele>790.257202148</ele>
        <time>2016-01-28T09:06:57.174Z</time>
      </trkpt>
      <trkpt lat="45.9699" lon="4.39544">
        <ele>790.479125977</ele>
        <time>2016-01-28T09:06:58.145Z</time>
      </trkpt>
      <trkpt lat="45.96984" lon="4.39537">
        <ele>792.061462402</ele>
        <time>2016-01-28T09:07:05.168Z</time>
      </trkpt>
      <trkpt lat="45.96983" lon="4.39536">
        <ele>792.293762207</ele>
        <time>2016-01-28T09:07:06.143Z</time>
      </trkpt>
      <trkpt lat="45.96976" lon="4.39527">
        <ele>794.58001709</ele>
        <time>2016-01-28T09:07:15.174Z</time>
      </trkpt>
      <trkpt lat="45.96975" lon="4.39526">
        <ele>794.830932617</ele>
        <time>2016-01-28T09:07:16.144Z</time>
      </trkpt>
      <trkpt lat="45.96968" lon="4.39522">
        <ele>795.838928223</ele>
        <time>2016-01-28T09:07:21.17Z</time>
      </trkpt>
      <trkpt lat="45.96966" lon="4.39521">
        <ele>796.02331543</ele>
        <time>2016-01-28T09:07:22.149Z</time>
      </trkpt>
      <trkpt lat="45.96958" lon="4.39517">
        <ele>796.829589844</ele>
        <time>2016-01-28T09:07:27.178Z</time>
      </trkpt>
      <trkpt lat="45.96957" lon="4.39517">
        <ele>796.971496582</ele>
        <time>2016-01-28T09:07:28.144Z</time>
      </trkpt>
      <trkpt lat="45.9695" lon="4.39513">
        <ele>798.655639648</ele>
        <time>2016-01-28T09:07:37.171Z</time>
      </trkpt>
      <trkpt lat="45.96946" lon="4.39512">
        <ele>798.792541504</ele>
        <time>2016-01-28T09:07:38.145Z</time>
      </trkpt>
      <trkpt lat="45.9694" lon="4.39509">
        <ele>799.528564453</ele>
        <time>2016-01-28T09:07:43.188Z</time>
      </trkpt>
      <trkpt lat="45.96937" lon="4.39507">
        <ele>799.689575195</ele>
        <time>2016-01-28T09:07:44.159Z</time>
      </trkpt>
      <trkpt lat="45.9693" lon="4.39502">
        <ele>800.307861328</ele>
        <time>2016-01-28T09:07:51.171Z</time>
      </trkpt>
      <trkpt lat="45.96929" lon="4.39502">
        <ele>800.387512207</ele>
        <time>2016-01-28T09:07:52.135Z</time>
      </trkpt>
      <trkpt lat="45.96922" lon="4.395">
        <ele>800.870788574</ele>
        <time>2016-01-28T09:07:57.175Z</time>
      </trkpt>
      <trkpt lat="45.96919" lon="4.39499">
        <ele>800.904296875</ele>
        <time>2016-01-28T09:07:58.135Z</time>
      </trkpt>
      <trkpt lat="45.96911" lon="4.39496">
        <ele>801.047607422</ele>
        <time>2016-01-28T09:08:06.19Z</time>
      </trkpt>
      <trkpt lat="45.9691" lon="4.39495">
        <ele>801.160705566</ele>
        <time>2016-01-28T09:08:07.135Z</time>
      </trkpt>
      <trkpt lat="45.96902" lon="4.39494">
        <ele>801.879821777</ele>
        <time>2016-01-28T09:08:13.173Z</time>
      </trkpt>
      <trkpt lat="45.96901" lon="4.39494">
        <ele>801.980041504</ele>
        <time>2016-01-28T09:08:14.158Z</time>
      </trkpt>
      <trkpt lat="45.96892" lon="4.39491">
        <ele>802.76159668</ele>
        <time>2016-01-28T09:08:20.259Z</time>
      </trkpt>
      <trkpt lat="45.9689" lon="4.39491">
        <ele>802.924865723</ele>
        <time>2016-01-28T09:08:21.155Z</time>
      </trkpt>
      <trkpt lat="45.96882" lon="4.39489">
        <ele>803.724060059</ele>
        <time>2016-01-28T09:08:27.174Z</time>
      </trkpt>
      <trkpt lat="45.9688" lon="4.39488">
        <ele>803.86730957</ele>
        <time>2016-01-28T09:08:28.159Z</time>
      </trkpt>
      <trkpt lat="45.96872" lon="4.39484">
        <ele>804.98626709</ele>
        <time>2016-01-28T09:08:36.178Z</time>
      </trkpt>
      <trkpt lat="45.9687" lon="4.39484">
        <ele>805.031494141</ele>
        <time>2016-01-28T09:08:37.16Z</time>
      </trkpt>
      <trkpt lat="45.96863" lon="4.39479">
        <ele>805.960754395</ele>
        <time>2016-01-28T09:08:44.189Z</time>
      </trkpt>
      <trkpt lat="45.96862" lon="4.39478">
        <ele>806.050964355</ele>
        <time>2016-01-28T09:08:45.151Z</time>
      </trkpt>
      <trkpt lat="45.96855" lon="4.39471">
        <ele>806.982421875</ele>
        <time>2016-01-28T09:08:52.184Z</time>
      </trkpt>
      <trkpt lat="45.96854" lon="4.3947">
        <ele>807.157348633</ele>
        <time>2016-01-28T09:08:53.141Z</time>
      </trkpt>
      <trkpt lat="45.96847" lon="4.39464">
        <ele>807.796813965</ele>
        <time>2016-01-28T09:08:58.174Z</time>
      </trkpt>
      <trkpt lat="45.96845" lon="4.39463">
        <ele>807.888549805</ele>
        <time>2016-01-28T09:08:59.153Z</time>
      </trkpt>
      <trkpt lat="45.96841" lon="4.39456">
        <ele>808.54699707</ele>
        <time>2016-01-28T09:09:05.183Z</time>
      </trkpt>
      <trkpt lat="45.96839" lon="4.39454">
        <ele>808.684020996</ele>
        <time>2016-01-28T09:09:06.154Z</time>
      </trkpt>
      <trkpt lat="45.96833" lon="4.39446">
        <ele>809.35546875</ele>
        <time>2016-01-28T09:09:12.159Z</time>
      </trkpt>
      <trkpt lat="45.96831" lon="4.39445">
        <ele>809.46081543</ele>
        <time>2016-01-28T09:09:13.155Z</time>
      </trkpt>
      <trkpt lat="45.96823" lon="4.39439">
        <ele>809.84362793</ele>
        <time>2016-01-28T09:09:19.181Z</time>
      </trkpt>
      <trkpt lat="45.96821" lon="4.39438">
        <ele>809.850708008</ele>
        <time>2016-01-28T09:09:20.156Z</time>
      </trkpt>
      <trkpt lat="45.96815" lon="4.39431">
        <ele>809.789733887</ele>
        <time>2016-01-28T09:09:24.166Z</time>
      </trkpt>
      <trkpt lat="45.96814" lon="4.3943">
        <ele>809.745788574</ele>
        <time>2016-01-28T09:09:25.159Z</time>
      </trkpt>
      <trkpt lat="45.96808" lon="4.39421">
        <ele>809.777160645</ele>
        <time>2016-01-28T09:09:32.174Z</time>
      </trkpt>
      <trkpt lat="45.96806" lon="4.39419">
        <ele>809.816894531</ele>
        <time>2016-01-28T09:09:33.16Z</time>
      </trkpt>
      <trkpt lat="45.96799" lon="4.39411">
        <ele>809.989196777</ele>
        <time>2016-01-28T09:09:38.171Z</time>
      </trkpt>
      <trkpt lat="45.96798" lon="4.39409">
        <ele>810.062866211</ele>
        <time>2016-01-28T09:09:39.158Z</time>
      </trkpt>
      <trkpt lat="45.9679" lon="4.39405">
        <ele>810.652832031</ele>
        <time>2016-01-28T09:09:47.278Z</time>
      </trkpt>
      <trkpt lat="45.96789" lon="4.39403">
        <ele>810.756835938</ele>
        <time>2016-01-28T09:09:48.158Z</time>
      </trkpt>
      <trkpt lat="45.96784" lon="4.39394">
        <ele>811.507385254</ele>
        <time>2016-01-28T09:09:55.178Z</time>
      </trkpt>
      <trkpt lat="45.96783" lon="4.39393">
        <ele>811.612182617</ele>
        <time>2016-01-28T09:09:56.157Z</time>
      </trkpt>
      <trkpt lat="45.96776" lon="4.39385">
        <ele>812.436584473</ele>
        <time>2016-01-28T09:10:03.205Z</time>
      </trkpt>
      <trkpt lat="45.96776" lon="4.39384">
        <ele>812.622741699</ele>
        <time>2016-01-28T09:10:04.156Z</time>
      </trkpt>
      <trkpt lat="45.96771" lon="4.39375">
        <ele>813.565612793</ele>
        <time>2016-01-28T09:10:09.178Z</time>
      </trkpt>
      <trkpt lat="45.96771" lon="4.39373">
        <ele>813.720703125</ele>
        <time>2016-01-28T09:10:10.163Z</time>
      </trkpt>
      <trkpt lat="45.96766" lon="4.39364">
        <ele>814.247680664</ele>
        <time>2016-01-28T09:10:15.188Z</time>
      </trkpt>
      <trkpt lat="45.96765" lon="4.39362">
        <ele>814.354370117</ele>
        <time>2016-01-28T09:10:16.158Z</time>
      </trkpt>
      <trkpt lat="45.96759" lon="4.39353">
        <ele>815.645568848</ele>
        <time>2016-01-28T09:10:24.178Z</time>
      </trkpt>
      <trkpt lat="45.96758" lon="4.39352">
        <ele>815.756225586</ele>
        <time>2016-01-28T09:10:25.14Z</time>
      </trkpt>
      <trkpt lat="45.96753" lon="4.39342">
        <ele>816.823120117</ele>
        <time>2016-01-28T09:10:30.225Z</time>
      </trkpt>
      <trkpt lat="45.96752" lon="4.3934">
        <ele>817.046325684</ele>
        <time>2016-01-28T09:10:31.161Z</time>
      </trkpt>
      <trkpt lat="45.96747" lon="4.3933">
        <ele>817.940307617</ele>
        <time>2016-01-28T09:10:38.194Z</time>
      </trkpt>
      <trkpt lat="45.96746" lon="4.3933">
        <ele>818.016113281</ele>
        <time>2016-01-28T09:10:39.159Z</time>
      </trkpt>
      <trkpt lat="45.9674" lon="4.39321">
        <ele>818.610229492</ele>
        <time>2016-01-28T09:10:44.181Z</time>
      </trkpt>
      <trkpt lat="45.96739" lon="4.39318">
        <ele>818.782531738</ele>
        <time>2016-01-28T09:10:45.16Z</time>
      </trkpt>
      <trkpt lat="45.96735" lon="4.39307">
        <ele>819.471008301</ele>
        <time>2016-01-28T09:10:54.181Z</time>
      </trkpt>
      <trkpt lat="45.96734" lon="4.39304">
        <ele>819.480773926</ele>
        <time>2016-01-28T09:10:55.169Z</time>
      </trkpt>
      <trkpt lat="45.96729" lon="4.39294">
        <ele>819.302001953</ele>
        <time>2016-01-28T09:11:00.191Z</time>
      </trkpt>
      <trkpt lat="45.96729" lon="4.39293">
        <ele>819.226989746</ele>
        <time>2016-01-28T09:11:01.168Z</time>
      </trkpt>
      <trkpt lat="45.96724" lon="4.39283">
        <ele>819.000976562</ele>
        <time>2016-01-28T09:11:06.189Z</time>
      </trkpt>
      <trkpt lat="45.96723" lon="4.3928">
        <ele>818.955993652</ele>
        <time>2016-01-28T09:11:07.162Z</time>
      </trkpt>
      <trkpt lat="45.9672" lon="4.3927">
        <ele>818.965270996</ele>
        <time>2016-01-28T09:11:12.185Z</time>
      </trkpt>
      <trkpt lat="45.96719" lon="4.39268">
        <ele>818.977600098</ele>
        <time>2016-01-28T09:11:13.171Z</time>
      </trkpt>
      <trkpt lat="45.96714" lon="4.39257">
        <ele>818.590637207</ele>
        <time>2016-01-28T09:11:20.189Z</time>
      </trkpt>
      <trkpt lat="45.96713" lon="4.39255">
        <ele>818.580078125</ele>
        <time>2016-01-28T09:11:21.164Z</time>
      </trkpt>
      <trkpt lat="45.96709" lon="4.39244">
        <ele>818.470153809</ele>
        <time>2016-01-28T09:11:27.171Z</time>
      </trkpt>
      <trkpt lat="45.96708" lon="4.39242">
        <ele>818.483825684</ele>
        <time>2016-01-28T09:11:28.142Z</time>
      </trkpt>
      <trkpt lat="45.96705" lon="4.3923">
        <ele>818.176452637</ele>
        <time>2016-01-28T09:11:34.166Z</time>
      </trkpt>
      <trkpt lat="45.96704" lon="4.39229">
        <ele>818.130859375</ele>
        <time>2016-01-28T09:11:35.139Z</time>
      </trkpt>
      <trkpt lat="45.96699" lon="4.39219">
        <ele>817.512573242</ele>
        <time>2016-01-28T09:11:42.165Z</time>
      </trkpt>
      <trkpt lat="45.96698" lon="4.39218">
        <ele>817.382507324</ele>
        <time>2016-01-28T09:11:43.145Z</time>
      </trkpt>
      <trkpt lat="45.96695" lon="4.39208">
        <ele>816.817687988</ele>
        <time>2016-01-28T09:11:49.168Z</time>
      </trkpt>
      <trkpt lat="45.96694" lon="4.39205">
        <ele>816.752258301</ele>
        <time>2016-01-28T09:11:50.147Z</time>
      </trkpt>
      <trkpt lat="45.96691" lon="4.39193">
        <ele>816.558654785</ele>
        <time>2016-01-28T09:11:56.195Z</time>
      </trkpt>
      <trkpt lat="45.96691" lon="4.39191">
        <ele>816.532470703</ele>
        <time>2016-01-28T09:11:57.141Z</time>
      </trkpt>
      <trkpt lat="45.96688" lon="4.3918">
        <ele>816.431152344</ele>
        <time>2016-01-28T09:12:03.182Z</time>
      </trkpt>
      <trkpt lat="45.96687" lon="4.39179">
        <ele>816.391723633</ele>
        <time>2016-01-28T09:12:04.141Z</time>
      </trkpt>
      <trkpt lat="45.96684" lon="4.39169">
        <ele>816.194152832</ele>
        <time>2016-01-28T09:12:09.175Z</time>
      </trkpt>
      <trkpt lat="45.96683" lon="4.39167">
        <ele>816.182617188</ele>
        <time>2016-01-28T09:12:10.149Z</time>
      </trkpt>
      <trkpt lat="45.9668" lon="4.39156">
        <ele>815.911071777</ele>
        <time>2016-01-28T09:12:16.173Z</time>
      </trkpt>
      <trkpt lat="45.9668" lon="4.39154">
        <ele>815.86505127</ele>
        <time>2016-01-28T09:12:17.147Z</time>
      </trkpt>
      <trkpt lat="45.96676" lon="4.39144">
        <ele>815.75390625</ele>
        <time>2016-01-28T09:12:23.215Z</time>
      </trkpt>
      <trkpt lat="45.96675" lon="4.39142">
        <ele>815.75982666</ele>
        <time>2016-01-28T09:12:24.143Z</time>
      </trkpt>
      <trkpt lat="45.96673" lon="4.39131">
        <ele>815.630187988</ele>
        <time>2016-01-28T09:12:30.171Z</time>
      </trkpt>
      <trkpt lat="45.96673" lon="4.39129">
        <ele>815.603942871</ele>
        <time>2016-01-28T09:12:31.147Z</time>
      </trkpt>
      <trkpt lat="45.9667" lon="4.39117">
        <ele>815.337402344</ele>
        <time>2016-01-28T09:12:37.173Z</time>
      </trkpt>
      <trkpt lat="45.9667" lon="4.39115">
        <ele>815.303894043</ele>
        <time>2016-01-28T09:12:38.144Z</time>
      </trkpt>
      <trkpt lat="45.96667" lon="4.39104">
        <ele>815.137634277</ele>
        <time>2016-01-28T09:12:44.166Z</time>
      </trkpt>
      <trkpt lat="45.96667" lon="4.39102">
        <ele>815.09753418</ele>
        <time>2016-01-28T09:12:45.142Z</time>
      </trkpt>
      <trkpt lat="45.96665" lon="4.3909">
        <ele>814.773986816</ele>
        <time>2016-01-28T09:12:51.177Z</time>
      </trkpt>
      <trkpt lat="45.96664" lon="4.39088">
        <ele>814.730651855</ele>
        <time>2016-01-28T09:12:52.146Z</time>
      </trkpt>
      <trkpt lat="45.96661" lon="4.39077">
        <ele>814.422546387</ele>
        <time>2016-01-28T09:12:58.175Z</time>
      </trkpt>
      <trkpt lat="45.96661" lon="4.39075">
        <ele>814.379089355</ele>
        <time>2016-01-28T09:12:59.147Z</time>
      </trkpt>
      <trkpt lat="45.96656" lon="4.39065">
        <ele>814.001953125</ele>
        <time>2016-01-28T09:13:06.166Z</time>
      </trkpt>
      <trkpt lat="45.96655" lon="4.39064">
        <ele>813.931030273</ele>
        <time>2016-01-28T09:13:07.153Z</time>
      </trkpt>
      <trkpt lat="45.9665" lon="4.39053">
        <ele>813.880737305</ele>
        <time>2016-01-28T09:13:14.167Z</time>
      </trkpt>
      <trkpt lat="45.96649" lon="4.39052">
        <ele>813.853271484</ele>
        <time>2016-01-28T09:13:15.147Z</time>
      </trkpt>
      <trkpt lat="45.96645" lon="4.39042">
        <ele>813.415405273</ele>
        <time>2016-01-28T09:13:21.189Z</time>
      </trkpt>
      <trkpt lat="45.96645" lon="4.3904">
        <ele>813.337036133</ele>
        <time>2016-01-28T09:13:22.147Z</time>
      </trkpt>
      <trkpt lat="45.9664" lon="4.39029">
        <ele>812.891052246</ele>
        <time>2016-01-28T09:13:27.137Z</time>
      </trkpt>
      <trkpt lat="45.96639" lon="4.39028">
        <ele>812.78515625</ele>
        <time>2016-01-28T09:13:28.148Z</time>
      </trkpt>
      <trkpt lat="45.96634" lon="4.39018">
        <ele>812.28326416</ele>
        <time>2016-01-28T09:13:33.174Z</time>
      </trkpt>
      <trkpt lat="45.96634" lon="4.39016">
        <ele>812.188842773</ele>
        <time>2016-01-28T09:13:34.149Z</time>
      </trkpt>
      <trkpt lat="45.9663" lon="4.39005">
        <ele>811.985656738</ele>
        <time>2016-01-28T09:13:40.175Z</time>
      </trkpt>
      <trkpt lat="45.9663" lon="4.39004">
        <ele>811.938476562</ele>
        <time>2016-01-28T09:13:41.161Z</time>
      </trkpt>
      <trkpt lat="45.96625" lon="4.38993">
        <ele>811.775817871</ele>
        <time>2016-01-28T09:13:47.172Z</time>
      </trkpt>
      <trkpt lat="45.96625" lon="4.38992">
        <ele>811.779541016</ele>
        <time>2016-01-28T09:13:48.15Z</time>
      </trkpt>
      <trkpt lat="45.96622" lon="4.38982">
        <ele>811.45123291</ele>
        <time>2016-01-28T09:13:54.211Z</time>
      </trkpt>
      <trkpt lat="45.96621" lon="4.38979">
        <ele>811.350158691</ele>
        <time>2016-01-28T09:13:55.141Z</time>
      </trkpt>
      <trkpt lat="45.9662" lon="4.38968">
        <ele>810.728942871</ele>
        <time>2016-01-28T09:14:00.169Z</time>
      </trkpt>
      <trkpt lat="45.96619" lon="4.38966">
        <ele>810.620483398</ele>
        <time>2016-01-28T09:14:01.15Z</time>
      </trkpt>
      <trkpt lat="45.96615" lon="4.38956">
        <ele>810.131469727</ele>
        <time>2016-01-28T09:14:06.176Z</time>
      </trkpt>
      <trkpt lat="45.96615" lon="4.38955">
        <ele>810.068786621</ele>
        <time>2016-01-28T09:14:07.127Z</time>
      </trkpt>
      <trkpt lat="45.96611" lon="4.38946">
        <ele>809.686157227</ele>
        <time>2016-01-28T09:14:13.188Z</time>
      </trkpt>
      <trkpt lat="45.9661" lon="4.38943">
        <ele>809.680603027</ele>
        <time>2016-01-28T09:14:14.138Z</time>
      </trkpt>
      <trkpt lat="45.96606" lon="4.38932">
        <ele>809.642944336</ele>
        <time>2016-01-28T09:14:21.277Z</time>
      </trkpt>
      <trkpt lat="45.96605" lon="4.38931">
        <ele>809.616088867</ele>
        <time>2016-01-28T09:14:22.154Z</time>
      </trkpt>
      <trkpt lat="45.966" lon="4.38922">
        <ele>809.411071777</ele>
        <time>2016-01-28T09:14:28.174Z</time>
      </trkpt>
      <trkpt lat="45.96599" lon="4.3892">
        <ele>809.365600586</ele>
        <time>2016-01-28T09:14:29.153Z</time>
      </trkpt>
      <trkpt lat="45.96593" lon="4.38913">
        <ele>809.185791016</ele>
        <time>2016-01-28T09:14:36.177Z</time>
      </trkpt>
      <trkpt lat="45.96592" lon="4.38912">
        <ele>809.23828125</ele>
        <time>2016-01-28T09:14:37.153Z</time>
      </trkpt>
      <trkpt lat="45.96585" lon="4.38903">
        <ele>809.953430176</ele>
        <time>2016-01-28T09:14:44.18Z</time>
      </trkpt>
      <trkpt lat="45.96584" lon="4.38902">
        <ele>810.017211914</ele>
        <time>2016-01-28T09:14:45.158Z</time>
      </trkpt>
      <trkpt lat="45.96579" lon="4.38895">
        <ele>810.91583252</ele>
        <time>2016-01-28T09:14:52.18Z</time>
      </trkpt>
      <trkpt lat="45.96578" lon="4.38893">
        <ele>811.115356445</ele>
        <time>2016-01-28T09:14:53.159Z</time>
      </trkpt>
      <trkpt lat="45.96572" lon="4.38882">
        <ele>812.198547363</ele>
        <time>2016-01-28T09:14:59.3Z</time>
      </trkpt>
      <trkpt lat="45.96571" lon="4.38881">
        <ele>812.393615723</ele>
        <time>2016-01-28T09:15:00.158Z</time>
      </trkpt>
      <trkpt lat="45.96568" lon="4.3887">
        <ele>813.292175293</ele>
        <time>2016-01-28T09:15:06.182Z</time>
      </trkpt>
      <trkpt lat="45.96567" lon="4.38868">
        <ele>813.422729492</ele>
        <time>2016-01-28T09:15:07.144Z</time>
      </trkpt>
      <trkpt lat="45.96562" lon="4.38861">
        <ele>814.358703613</ele>
        <time>2016-01-28T09:15:13.184Z</time>
      </trkpt>
      <trkpt lat="45.9656" lon="4.3886">
        <ele>814.508666992</ele>
        <time>2016-01-28T09:15:14.158Z</time>
      </trkpt>
      <trkpt lat="45.96556" lon="4.3885">
        <ele>815.52911377</ele>
        <time>2016-01-28T09:15:19.181Z</time>
      </trkpt>
      <trkpt lat="45.96555" lon="4.38848">
        <ele>815.720947266</ele>
        <time>2016-01-28T09:15:20.158Z</time>
      </trkpt>
      <trkpt lat="45.96551" lon="4.38837">
        <ele>816.325744629</ele>
        <time>2016-01-28T09:15:27.19Z</time>
      </trkpt>
      <trkpt lat="45.96551" lon="4.38836">
        <ele>816.329101562</ele>
        <time>2016-01-28T09:15:28.159Z</time>
      </trkpt>
      <trkpt lat="45.96546" lon="4.38826">
        <ele>816.560546875</ele>
        <time>2016-01-28T09:15:35.18Z</time>
      </trkpt>
      <trkpt lat="45.96546" lon="4.38825">
        <ele>816.591796875</ele>
        <time>2016-01-28T09:15:36.158Z</time>
      </trkpt>
      <trkpt lat="45.96544" lon="4.38814">
        <ele>816.588012695</ele>
        <time>2016-01-28T09:15:42.183Z</time>
      </trkpt>
      <trkpt lat="45.96544" lon="4.38812">
        <ele>816.687561035</ele>
        <time>2016-01-28T09:15:43.16Z</time>
      </trkpt>
      <trkpt lat="45.96538" lon="4.38802">
        <ele>816.530456543</ele>
        <time>2016-01-28T09:15:50.19Z</time>
      </trkpt>
      <trkpt lat="45.96538" lon="4.38801">
        <ele>816.456420898</ele>
        <time>2016-01-28T09:15:51.169Z</time>
      </trkpt>
      <trkpt lat="45.96531" lon="4.38793">
        <ele>816.302978516</ele>
        <time>2016-01-28T09:15:56.186Z</time>
      </trkpt>
      <trkpt lat="45.9653" lon="4.38792">
        <ele>816.271850586</ele>
        <time>2016-01-28T09:15:57.178Z</time>
      </trkpt>
      <trkpt lat="45.96522" lon="4.38786">
        <ele>816.085266113</ele>
        <time>2016-01-28T09:16:04.192Z</time>
      </trkpt>
      <trkpt lat="45.96521" lon="4.38785">
        <ele>816.093078613</ele>
        <time>2016-01-28T09:16:05.16Z</time>
      </trkpt>
      <trkpt lat="45.96514" lon="4.38778">
        <ele>816.052978516</ele>
        <time>2016-01-28T09:16:11.19Z</time>
      </trkpt>
      <trkpt lat="45.96513" lon="4.38777">
        <ele>816.044006348</ele>
        <time>2016-01-28T09:16:12.162Z</time>
      </trkpt>
      <trkpt lat="45.96506" lon="4.38773">
        <ele>816.292175293</ele>
        <time>2016-01-28T09:16:19.188Z</time>
      </trkpt>
      <trkpt lat="45.96504" lon="4.38773">
        <ele>816.337768555</ele>
        <time>2016-01-28T09:16:20.149Z</time>
      </trkpt>
      <trkpt lat="45.96496" lon="4.38769">
        <ele>816.564941406</ele>
        <time>2016-01-28T09:16:28.289Z</time>
      </trkpt>
      <trkpt lat="45.96495" lon="4.38768">
        <ele>816.606506348</ele>
        <time>2016-01-28T09:16:29.16Z</time>
      </trkpt>
      <trkpt lat="45.96487" lon="4.38764">
        <ele>816.806762695</ele>
        <time>2016-01-28T09:16:37.191Z</time>
      </trkpt>
      <trkpt lat="45.96486" lon="4.38763">
        <ele>816.842407227</ele>
        <time>2016-01-28T09:16:38.164Z</time>
      </trkpt>
      <trkpt lat="45.96478" lon="4.38758">
        <ele>817.123901367</ele>
        <time>2016-01-28T09:16:45.162Z</time>
      </trkpt>
      <trkpt lat="45.96477" lon="4.38757">
        <ele>817.129699707</ele>
        <time>2016-01-28T09:16:46.134Z</time>
      </trkpt>
      <trkpt lat="45.96469" lon="4.38753">
        <ele>817.243041992</ele>
        <time>2016-01-28T09:16:53.161Z</time>
      </trkpt>
      <trkpt lat="45.96469" lon="4.38752">
        <ele>817.228942871</ele>
        <time>2016-01-28T09:16:54.138Z</time>
      </trkpt>
      <trkpt lat="45.96461" lon="4.38747">
        <ele>817.214599609</ele>
        <time>2016-01-28T09:17:00.162Z</time>
      </trkpt>
      <trkpt lat="45.9646" lon="4.38747">
        <ele>817.224365234</ele>
        <time>2016-01-28T09:17:01.119Z</time>
      </trkpt>
      <trkpt lat="45.96451" lon="4.38744">
        <ele>817.281494141</ele>
        <time>2016-01-28T09:17:08.174Z</time>
      </trkpt>
      <trkpt lat="45.9645" lon="4.38743">
        <ele>817.294921875</ele>
        <time>2016-01-28T09:17:09.129Z</time>
      </trkpt>
      <trkpt lat="45.96442" lon="4.38741">
        <ele>817.30657959</ele>
        <time>2016-01-28T09:17:15.162Z</time>
      </trkpt>
      <trkpt lat="45.96441" lon="4.3874">
        <ele>817.276855469</ele>
        <time>2016-01-28T09:17:16.142Z</time>
      </trkpt>
      <trkpt lat="45.96432" lon="4.38739">
        <ele>817.298278809</ele>
        <time>2016-01-28T09:17:23.163Z</time>
      </trkpt>
      <trkpt lat="45.96431" lon="4.38739">
        <ele>817.313354492</ele>
        <time>2016-01-28T09:17:24.141Z</time>
      </trkpt>
      <trkpt lat="45.96422" lon="4.3874">
        <ele>817.39666748</ele>
        <time>2016-01-28T09:17:31.152Z</time>
      </trkpt>
      <trkpt lat="45.96421" lon="4.3874">
        <ele>817.386474609</ele>
        <time>2016-01-28T09:17:32.133Z</time>
      </trkpt>
      <trkpt lat="45.96412" lon="4.3874">
        <ele>817.805114746</ele>
        <time>2016-01-28T09:17:39.159Z</time>
      </trkpt>
      <trkpt lat="45.96411" lon="4.38739">
        <ele>817.886047363</ele>
        <time>2016-01-28T09:17:40.135Z</time>
      </trkpt>
      <trkpt lat="45.96403" lon="4.38738">
        <ele>818.189819336</ele>
        <time>2016-01-28T09:17:45.17Z</time>
      </trkpt>
      <trkpt lat="45.96401" lon="4.38738">
        <ele>818.286254883</ele>
        <time>2016-01-28T09:17:46.158Z</time>
      </trkpt>
      <trkpt lat="45.96394" lon="4.38739">
        <ele>818.813171387</ele>
        <time>2016-01-28T09:17:52.17Z</time>
      </trkpt>
      <trkpt lat="45.96392" lon="4.3874">
        <ele>818.848999023</ele>
        <time>2016-01-28T09:17:53.145Z</time>
      </trkpt>
      <trkpt lat="45.96384" lon="4.3874">
        <ele>819.096740723</ele>
        <time>2016-01-28T09:18:01.157Z</time>
      </trkpt>
      <trkpt lat="45.96383" lon="4.38739">
        <ele>819.198791504</ele>
        <time>2016-01-28T09:18:02.135Z</time>
      </trkpt>
      <trkpt lat="45.96375" lon="4.38742">
        <ele>819.785766602</ele>
        <time>2016-01-28T09:18:08.179Z</time>
      </trkpt>
      <trkpt lat="45.96372" lon="4.38742">
        <ele>819.827514648</ele>
        <time>2016-01-28T09:18:09.145Z</time>
      </trkpt>
      <trkpt lat="45.96363" lon="4.38743">
        <ele>820.021728516</ele>
        <time>2016-01-28T09:18:16.168Z</time>
      </trkpt>
      <trkpt lat="45.96362" lon="4.38744">
        <ele>820.038024902</ele>
        <time>2016-01-28T09:18:17.141Z</time>
      </trkpt>
      <trkpt lat="45.96354" lon="4.38747">
        <ele>820.679199219</ele>
        <time>2016-01-28T09:18:24.161Z</time>
      </trkpt>
      <trkpt lat="45.96352" lon="4.38747">
        <ele>820.814819336</ele>
        <time>2016-01-28T09:18:25.125Z</time>
      </trkpt>
      <trkpt lat="45.96343" lon="4.38749">
        <ele>821.46673584</ele>
        <time>2016-01-28T09:18:32.177Z</time>
      </trkpt>
      <trkpt lat="45.96342" lon="4.38749">
        <ele>821.480407715</ele>
        <time>2016-01-28T09:18:33.139Z</time>
      </trkpt>
      <trkpt lat="45.96334" lon="4.3875">
        <ele>821.831420898</ele>
        <time>2016-01-28T09:18:39.162Z</time>
      </trkpt>
      <trkpt lat="45.96333" lon="4.3875">
        <ele>821.922790527</ele>
        <time>2016-01-28T09:18:40.155Z</time>
      </trkpt>
      <trkpt lat="45.96325" lon="4.38749">
        <ele>822.348815918</ele>
        <time>2016-01-28T09:18:45.182Z</time>
      </trkpt>
      <trkpt lat="45.96324" lon="4.38749">
        <ele>822.396057129</ele>
        <time>2016-01-28T09:18:46.141Z</time>
      </trkpt>
      <trkpt lat="45.96315" lon="4.38747">
        <ele>822.572387695</ele>
        <time>2016-01-28T09:18:53.18Z</time>
      </trkpt>
      <trkpt lat="45.96314" lon="4.38748">
        <ele>822.621704102</ele>
        <time>2016-01-28T09:18:54.135Z</time>
      </trkpt>
      <trkpt lat="45.96306" lon="4.38746">
        <ele>822.586547852</ele>
        <time>2016-01-28T09:18:59.184Z</time>
      </trkpt>
      <trkpt lat="45.96304" lon="4.38746">
        <ele>822.578552246</ele>
        <time>2016-01-28T09:19:00.148Z</time>
      </trkpt>
      <trkpt lat="45.96296" lon="4.38744">
        <ele>822.551147461</ele>
        <time>2016-01-28T09:19:06.2Z</time>
      </trkpt>
      <trkpt lat="45.96295" lon="4.38744">
        <ele>822.51550293</ele>
        <time>2016-01-28T09:19:07.149Z</time>
      </trkpt>
      <trkpt lat="45.96287" lon="4.38741">
        <ele>822.499755859</ele>
        <time>2016-01-28T09:19:13.184Z</time>
      </trkpt>
      <trkpt lat="45.96286" lon="4.38741">
        <ele>822.464904785</ele>
        <time>2016-01-28T09:19:14.153Z</time>
      </trkpt>
      <trkpt lat="45.96278" lon="4.38738">
        <ele>822.354431152</ele>
        <time>2016-01-28T09:19:20.193Z</time>
      </trkpt>
      <trkpt lat="45.96277" lon="4.38737">
        <ele>822.308227539</ele>
        <time>2016-01-28T09:19:21.159Z</time>
      </trkpt>
      <trkpt lat="45.96269" lon="4.38732">
        <ele>822.188659668</ele>
        <time>2016-01-28T09:19:28.179Z</time>
      </trkpt>
      <trkpt lat="45.96267" lon="4.38732">
        <ele>822.187988281</ele>
        <time>2016-01-28T09:19:29.153Z</time>
      </trkpt>
      <trkpt lat="45.9626" lon="4.38727">
        <ele>822.161560059</ele>
        <time>2016-01-28T09:19:35.174Z</time>
      </trkpt>
      <trkpt lat="45.96259" lon="4.38726">
        <ele>822.151916504</ele>
        <time>2016-01-28T09:19:36.153Z</time>
      </trkpt>
      <trkpt lat="45.96252" lon="4.38719">
        <ele>822.104553223</ele>
        <time>2016-01-28T09:19:42.196Z</time>
      </trkpt>
      <trkpt lat="45.96251" lon="4.38718">
        <ele>822.09954834</ele>
        <time>2016-01-28T09:19:43.157Z</time>
      </trkpt>
      <trkpt lat="45.96244" lon="4.38713">
        <ele>821.900634766</ele>
        <time>2016-01-28T09:19:48.18Z</time>
      </trkpt>
      <trkpt lat="45.96243" lon="4.38712">
        <ele>821.813232422</ele>
        <time>2016-01-28T09:19:49.144Z</time>
      </trkpt>
      <trkpt lat="45.96236" lon="4.38706">
        <ele>821.507019043</ele>
        <time>2016-01-28T09:19:55.178Z</time>
      </trkpt>
      <trkpt lat="45.96234" lon="4.38705">
        <ele>821.466491699</ele>
        <time>2016-01-28T09:19:56.158Z</time>
      </trkpt>
      <trkpt lat="45.96225" lon="4.38701">
        <ele>821.15423584</ele>
        <time>2016-01-28T09:20:03.177Z</time>
      </trkpt>
      <trkpt lat="45.96224" lon="4.387">
        <ele>821.130554199</ele>
        <time>2016-01-28T09:20:04.154Z</time>
      </trkpt>
      <trkpt lat="45.96216" lon="4.38696">
        <ele>821.223388672</ele>
        <time>2016-01-28T09:20:11.209Z</time>
      </trkpt>
      <trkpt lat="45.96214" lon="4.38695">
        <ele>821.225830078</ele>
        <time>2016-01-28T09:20:12.158Z</time>
      </trkpt>
      <trkpt lat="45.96206" lon="4.38692">
        <ele>821.219787598</ele>
        <time>2016-01-28T09:20:18.185Z</time>
      </trkpt>
      <trkpt lat="45.96205" lon="4.38691">
        <ele>821.202697754</ele>
        <time>2016-01-28T09:20:19.148Z</time>
      </trkpt>
      <trkpt lat="45.96198" lon="4.38688">
        <ele>821.077270508</ele>
        <time>2016-01-28T09:20:25.193Z</time>
      </trkpt>
      <trkpt lat="45.96196" lon="4.38688">
        <ele>821.047058105</ele>
        <time>2016-01-28T09:20:26.156Z</time>
      </trkpt>
      <trkpt lat="45.96188" lon="4.38685">
        <ele>820.694152832</ele>
        <time>2016-01-28T09:20:32.168Z</time>
      </trkpt>
      <trkpt lat="45.96186" lon="4.38685">
        <ele>820.614868164</ele>
        <time>2016-01-28T09:20:33.158Z</time>
      </trkpt>
      <trkpt lat="45.96178" lon="4.38683">
        <ele>820.183837891</ele>
        <time>2016-01-28T09:20:39.186Z</time>
      </trkpt>
      <trkpt lat="45.96177" lon="4.38683">
        <ele>820.211425781</ele>
        <time>2016-01-28T09:20:40.158Z</time>
      </trkpt>
      <trkpt lat="45.96169" lon="4.3868">
        <ele>819.959777832</ele>
        <time>2016-01-28T09:20:45.183Z</time>
      </trkpt>
      <trkpt lat="45.96168" lon="4.38679">
        <ele>819.898803711</ele>
        <time>2016-01-28T09:20:46.158Z</time>
      </trkpt>
      <trkpt lat="45.96159" lon="4.38677">
        <ele>819.434570312</ele>
        <time>2016-01-28T09:20:53.181Z</time>
      </trkpt>
      <trkpt lat="45.96158" lon="4.38677">
        <ele>819.369567871</ele>
        <time>2016-01-28T09:20:54.169Z</time>
      </trkpt>
      <trkpt lat="45.9615" lon="4.38677">
        <ele>819.32635498</ele>
        <time>2016-01-28T09:21:00.181Z</time>
      </trkpt>
      <trkpt lat="45.96149" lon="4.38676">
        <ele>819.358581543</ele>
        <time>2016-01-28T09:21:01.158Z</time>
      </trkpt>
      <trkpt lat="45.9614" lon="4.38673">
        <ele>819.472717285</ele>
        <time>2016-01-28T09:21:08.152Z</time>
      </trkpt>
      <trkpt lat="45.9614" lon="4.38672">
        <ele>819.448181152</ele>
        <time>2016-01-28T09:21:09.159Z</time>
      </trkpt>
      <trkpt lat="45.96132" lon="4.38667">
        <ele>819.228210449</ele>
        <time>2016-01-28T09:21:16.184Z</time>
      </trkpt>
      <trkpt lat="45.9613" lon="4.38666">
        <ele>819.202270508</ele>
        <time>2016-01-28T09:21:17.161Z</time>
      </trkpt>
      <trkpt lat="45.96123" lon="4.38661">
        <ele>819.062866211</ele>
        <time>2016-01-28T09:21:23.165Z</time>
      </trkpt>
      <trkpt lat="45.96121" lon="4.3866">
        <ele>819.043945312</ele>
        <time>2016-01-28T09:21:24.165Z</time>
      </trkpt>
      <trkpt lat="45.96113" lon="4.38654">
        <ele>818.856323242</ele>
        <time>2016-01-28T09:21:30.167Z</time>
      </trkpt>
      <trkpt lat="45.96112" lon="4.38653">
        <ele>818.796630859</ele>
        <time>2016-01-28T09:21:31.154Z</time>
      </trkpt>
      <trkpt lat="45.96104" lon="4.38649">
        <ele>818.443054199</ele>
        <time>2016-01-28T09:21:37.188Z</time>
      </trkpt>
      <trkpt lat="45.96103" lon="4.38648">
        <ele>818.393066406</ele>
        <time>2016-01-28T09:21:38.154Z</time>
      </trkpt>
      <trkpt lat="45.96095" lon="4.38643">
        <ele>818.237915039</ele>
        <time>2016-01-28T09:21:44.209Z</time>
      </trkpt>
      <trkpt lat="45.96094" lon="4.38642">
        <ele>818.230407715</ele>
        <time>2016-01-28T09:21:45.155Z</time>
      </trkpt>
      <trkpt lat="45.96085" lon="4.38638">
        <ele>818.415588379</ele>
        <time>2016-01-28T09:21:52.189Z</time>
      </trkpt>
      <trkpt lat="45.96084" lon="4.38638">
        <ele>818.397399902</ele>
        <time>2016-01-28T09:21:53.149Z</time>
      </trkpt>
      <trkpt lat="45.96076" lon="4.38634">
        <ele>818.334228516</ele>
        <time>2016-01-28T09:21:59.15Z</time>
      </trkpt>
      <trkpt lat="45.96075" lon="4.38634">
        <ele>818.32208252</ele>
        <time>2016-01-28T09:22:00.152Z</time>
      </trkpt>
      <trkpt lat="45.96067" lon="4.38632">
        <ele>818.284790039</ele>
        <time>2016-01-28T09:22:06.151Z</time>
      </trkpt>
      <trkpt lat="45.96065" lon="4.38631">
        <ele>818.368286133</ele>
        <time>2016-01-28T09:22:07.141Z</time>
      </trkpt>
      <trkpt lat="45.96057" lon="4.38629">
        <ele>819.004699707</ele>
        <time>2016-01-28T09:22:15.154Z</time>
      </trkpt>
      <trkpt lat="45.96055" lon="4.3863">
        <ele>819.064147949</ele>
        <time>2016-01-28T09:22:16.147Z</time>
      </trkpt>
      <trkpt lat="45.96047" lon="4.38635">
        <ele>820.253662109</ele>
        <time>2016-01-28T09:22:25.155Z</time>
      </trkpt>
      <trkpt lat="45.96046" lon="4.38634">
        <ele>820.31072998</ele>
        <time>2016-01-28T09:22:26.134Z</time>
      </trkpt>
      <trkpt lat="45.96037" lon="4.38635">
        <ele>820.139526367</ele>
        <time>2016-01-28T09:22:31.148Z</time>
      </trkpt>
      <trkpt lat="45.96036" lon="4.38635">
        <ele>820.167785645</ele>
        <time>2016-01-28T09:22:32.133Z</time>
      </trkpt>
      <trkpt lat="45.96027" lon="4.38635">
        <ele>820.927490234</ele>
        <time>2016-01-28T09:22:41.264Z</time>
      </trkpt>
      <trkpt lat="45.96026" lon="4.38635">
        <ele>821.077087402</ele>
        <time>2016-01-28T09:22:42.135Z</time>
      </trkpt>
      <trkpt lat="45.96018" lon="4.38632">
        <ele>822.582763672</ele>
        <time>2016-01-28T09:22:55.159Z</time>
      </trkpt>
      <trkpt lat="45.96016" lon="4.38632">
        <ele>822.61138916</ele>
        <time>2016-01-28T09:22:56.136Z</time>
      </trkpt>
      <trkpt lat="45.96008" lon="4.38631">
        <ele>822.249084473</ele>
        <time>2016-01-28T09:23:00.184Z</time>
      </trkpt>
      <trkpt lat="45.96006" lon="4.38632">
        <ele>822.208740234</ele>
        <time>2016-01-28T09:23:01.137Z</time>
      </trkpt>
      <trkpt lat="45.95997" lon="4.38633">
        <ele>821.736633301</ele>
        <time>2016-01-28T09:23:07.16Z</time>
      </trkpt>
      <trkpt lat="45.95997" lon="4.38634">
        <ele>821.683776855</ele>
        <time>2016-01-28T09:23:08.145Z</time>
      </trkpt>
      <trkpt lat="45.95989" lon="4.38633">
        <ele>821.801330566</ele>
        <time>2016-01-28T09:23:14.258Z</time>
      </trkpt>
      <trkpt lat="45.95988" lon="4.38632">
        <ele>821.839477539</ele>
        <time>2016-01-28T09:23:15.152Z</time>
      </trkpt>
      <trkpt lat="45.95979" lon="4.38632">
        <ele>822.14666748</ele>
        <time>2016-01-28T09:23:22.151Z</time>
      </trkpt>
      <trkpt lat="45.95977" lon="4.38632">
        <ele>822.249938965</ele>
        <time>2016-01-28T09:23:23.146Z</time>
      </trkpt>
      <trkpt lat="45.95969" lon="4.38633">
        <ele>822.759521484</ele>
        <time>2016-01-28T09:23:30.172Z</time>
      </trkpt>
      <trkpt lat="45.95967" lon="4.38633">
        <ele>822.839538574</ele>
        <time>2016-01-28T09:23:31.146Z</time>
      </trkpt>
      <trkpt lat="45.95961" lon="4.38635">
        <ele>823.047668457</ele>
        <time>2016-01-28T09:23:34.178Z</time>
      </trkpt>
      <trkpt lat="45.95957" lon="4.38636">
        <ele>823.047424316</ele>
        <time>2016-01-28T09:23:35.148Z</time>
      </trkpt>
      <trkpt lat="45.95949" lon="4.38636">
        <ele>822.785583496</ele>
        <time>2016-01-28T09:23:42.176Z</time>
      </trkpt>
      <trkpt lat="45.95948" lon="4.38636">
        <ele>822.697692871</ele>
        <time>2016-01-28T09:23:43.141Z</time>
      </trkpt>
      <trkpt lat="45.9594" lon="4.38639">
        <ele>822.295532227</ele>
        <time>2016-01-28T09:23:49.177Z</time>
      </trkpt>
      <trkpt lat="45.95938" lon="4.3864">
        <ele>822.290222168</ele>
        <time>2016-01-28T09:23:50.148Z</time>
      </trkpt>
      <trkpt lat="45.9593" lon="4.38642">
        <ele>822.388793945</ele>
        <time>2016-01-28T09:23:57.186Z</time>
      </trkpt>
      <trkpt lat="45.95929" lon="4.38642">
        <ele>822.374694824</ele>
        <time>2016-01-28T09:23:58.144Z</time>
      </trkpt>
      <trkpt lat="45.95922" lon="4.38647">
        <ele>822.429992676</ele>
        <time>2016-01-28T09:24:05.172Z</time>
      </trkpt>
      <trkpt lat="45.9592" lon="4.38648">
        <ele>822.396240234</ele>
        <time>2016-01-28T09:24:06.139Z</time>
      </trkpt>
      <trkpt lat="45.95913" lon="4.38654">
        <ele>821.898010254</ele>
        <time>2016-01-28T09:24:12.168Z</time>
      </trkpt>
      <trkpt lat="45.95912" lon="4.38655">
        <ele>821.865112305</ele>
        <time>2016-01-28T09:24:13.142Z</time>
      </trkpt>
      <trkpt lat="45.95905" lon="4.3866">
        <ele>821.939941406</ele>
        <time>2016-01-28T09:24:18.174Z</time>
      </trkpt>
      <trkpt lat="45.95903" lon="4.3866">
        <ele>821.942016602</ele>
        <time>2016-01-28T09:24:19.138Z</time>
      </trkpt>
      <trkpt lat="45.95894" lon="4.38664">
        <ele>822.058898926</ele>
        <time>2016-01-28T09:24:27.156Z</time>
      </trkpt>
      <trkpt lat="45.95893" lon="4.38664">
        <ele>822.055297852</ele>
        <time>2016-01-28T09:24:28.139Z</time>
      </trkpt>
      <trkpt lat="45.95886" lon="4.38668">
        <ele>822.535095215</ele>
        <time>2016-01-28T09:24:37.161Z</time>
      </trkpt>
      <trkpt lat="45.95884" lon="4.38669">
        <ele>822.572814941</ele>
        <time>2016-01-28T09:24:38.146Z</time>
      </trkpt>
      <trkpt lat="45.95877" lon="4.38676">
        <ele>822.569335938</ele>
        <time>2016-01-28T09:24:43.291Z</time>
      </trkpt>
      <trkpt lat="45.95876" lon="4.38677">
        <ele>822.58782959</ele>
        <time>2016-01-28T09:24:44.152Z</time>
      </trkpt>
      <trkpt lat="45.95868" lon="4.38683">
        <ele>822.546081543</ele>
        <time>2016-01-28T09:24:51.179Z</time>
      </trkpt>
      <trkpt lat="45.95867" lon="4.38683">
        <ele>822.589904785</ele>
        <time>2016-01-28T09:24:52.14Z</time>
      </trkpt>
      <trkpt lat="45.9586" lon="4.3869">
        <ele>823.384155273</ele>
        <time>2016-01-28T09:24:59.202Z</time>
      </trkpt>
      <trkpt lat="45.95859" lon="4.38691">
        <ele>823.532470703</ele>
        <time>2016-01-28T09:25:00.152Z</time>
      </trkpt>
      <trkpt lat="45.95852" lon="4.38694">
        <ele>823.922119141</ele>
        <time>2016-01-28T09:25:06.178Z</time>
      </trkpt>
      <trkpt lat="45.95847" lon="4.38695">
        <ele>823.956604004</ele>
        <time>2016-01-28T09:25:07.153Z</time>
      </trkpt>
      <trkpt lat="45.95839" lon="4.38699">
        <ele>824.228515625</ele>
        <time>2016-01-28T09:25:13.178Z</time>
      </trkpt>
      <trkpt lat="45.95838" lon="4.387">
        <ele>824.256652832</ele>
        <time>2016-01-28T09:25:14.16Z</time>
      </trkpt>
      <trkpt lat="45.95831" lon="4.38706">
        <ele>824.318603516</ele>
        <time>2016-01-28T09:25:21.162Z</time>
      </trkpt>
      <trkpt lat="45.9583" lon="4.38707">
        <ele>824.387145996</ele>
        <time>2016-01-28T09:25:22.145Z</time>
      </trkpt>
      <trkpt lat="45.95823" lon="4.38714">
        <ele>823.769897461</ele>
        <time>2016-01-28T09:25:28.193Z</time>
      </trkpt>
      <trkpt lat="45.95822" lon="4.38715">
        <ele>823.663818359</ele>
        <time>2016-01-28T09:25:29.147Z</time>
      </trkpt>
      <trkpt lat="45.95815" lon="4.38722">
        <ele>823.344726562</ele>
        <time>2016-01-28T09:25:36.183Z</time>
      </trkpt>
      <trkpt lat="45.95813" lon="4.38723">
        <ele>823.220275879</ele>
        <time>2016-01-28T09:25:37.158Z</time>
      </trkpt>
      <trkpt lat="45.95806" lon="4.38731">
        <ele>822.599243164</ele>
        <time>2016-01-28T09:25:44.179Z</time>
      </trkpt>
      <trkpt lat="45.95805" lon="4.38732">
        <ele>822.579467773</ele>
        <time>2016-01-28T09:25:45.168Z</time>
      </trkpt>
      <trkpt lat="45.95798" lon="4.3874">
        <ele>821.923156738</ele>
        <time>2016-01-28T09:25:51.183Z</time>
      </trkpt>
      <trkpt lat="45.95797" lon="4.38741">
        <ele>821.849853516</ele>
        <time>2016-01-28T09:25:52.155Z</time>
      </trkpt>
      <trkpt lat="45.95791" lon="4.38748">
        <ele>821.151367188</ele>
        <time>2016-01-28T09:25:57.18Z</time>
      </trkpt>
      <trkpt lat="45.9579" lon="4.38749">
        <ele>820.906982422</ele>
        <time>2016-01-28T09:25:58.156Z</time>
      </trkpt>
      <trkpt lat="45.95784" lon="4.38756">
        <ele>820.068786621</ele>
        <time>2016-01-28T09:26:02.191Z</time>
      </trkpt>
      <trkpt lat="45.95783" lon="4.38758">
        <ele>819.939453125</ele>
        <time>2016-01-28T09:26:03.149Z</time>
      </trkpt>
      <trkpt lat="45.95776" lon="4.38764">
        <ele>819.533813477</ele>
        <time>2016-01-28T09:26:10.191Z</time>
      </trkpt>
      <trkpt lat="45.95775" lon="4.38766">
        <ele>819.445861816</ele>
        <time>2016-01-28T09:26:11.158Z</time>
      </trkpt>
      <trkpt lat="45.95773" lon="4.38777">
        <ele>818.527282715</ele>
        <time>2016-01-28T09:26:17.196Z</time>
      </trkpt>
      <trkpt lat="45.95772" lon="4.38779">
        <ele>818.30871582</ele>
        <time>2016-01-28T09:26:18.158Z</time>
      </trkpt>
      <trkpt lat="45.95767" lon="4.38789">
        <ele>817.190490723</ele>
        <time>2016-01-28T09:26:25.18Z</time>
      </trkpt>
      <trkpt lat="45.95767" lon="4.38791">
        <ele>817.27734375</ele>
        <time>2016-01-28T09:26:26.16Z</time>
      </trkpt>
      <trkpt lat="45.9576" lon="4.38799">
        <ele>818.433410645</ele>
        <time>2016-01-28T09:26:34.187Z</time>
      </trkpt>
      <trkpt lat="45.95759" lon="4.388">
        <ele>818.595031738</ele>
        <time>2016-01-28T09:26:35.147Z</time>
      </trkpt>
      <trkpt lat="45.95753" lon="4.38806">
        <ele>819.508422852</ele>
        <time>2016-01-28T09:26:42.172Z</time>
      </trkpt>
      <trkpt lat="45.95751" lon="4.38807">
        <ele>819.647399902</ele>
        <time>2016-01-28T09:26:43.159Z</time>
      </trkpt>
      <trkpt lat="45.95743" lon="4.3881">
        <ele>820.057128906</ele>
        <time>2016-01-28T09:26:49.188Z</time>
      </trkpt>
      <trkpt lat="45.95742" lon="4.3881">
        <ele>820.093017578</ele>
        <time>2016-01-28T09:26:50.16Z</time>
      </trkpt>
      <trkpt lat="45.95734" lon="4.38812">
        <ele>820.088317871</ele>
        <time>2016-01-28T09:26:55.197Z</time>
      </trkpt>
      <trkpt lat="45.95732" lon="4.38812">
        <ele>820.127685547</ele>
        <time>2016-01-28T09:26:56.16Z</time>
      </trkpt>
      <trkpt lat="45.95724" lon="4.38814">
        <ele>820.611816406</ele>
        <time>2016-01-28T09:27:00.202Z</time>
      </trkpt>
      <trkpt lat="45.95723" lon="4.38813">
        <ele>820.741882324</ele>
        <time>2016-01-28T09:27:01.145Z</time>
      </trkpt>
      <trkpt lat="45.95715" lon="4.38815">
        <ele>820.826538086</ele>
        <time>2016-01-28T09:27:05.19Z</time>
      </trkpt>
      <trkpt lat="45.95713" lon="4.38816">
        <ele>820.684448242</ele>
        <time>2016-01-28T09:27:06.163Z</time>
      </trkpt>
      <trkpt lat="45.95706" lon="4.3882">
        <ele>821.164978027</ele>
        <time>2016-01-28T09:27:14.153Z</time>
      </trkpt>
      <trkpt lat="45.95705" lon="4.3882">
        <ele>821.283874512</ele>
        <time>2016-01-28T09:27:15.117Z</time>
      </trkpt>
      <trkpt lat="45.95696" lon="4.38825">
        <ele>822.056274414</ele>
        <time>2016-01-28T09:27:23.168Z</time>
      </trkpt>
      <trkpt lat="45.95695" lon="4.38826">
        <ele>822.227844238</ele>
        <time>2016-01-28T09:27:24.133Z</time>
      </trkpt>
      <trkpt lat="45.95687" lon="4.38829">
        <ele>822.880187988</ele>
        <time>2016-01-28T09:27:28.17Z</time>
      </trkpt>
      <trkpt lat="45.95685" lon="4.3883">
        <ele>822.988220215</ele>
        <time>2016-01-28T09:27:29.13Z</time>
      </trkpt>
      <trkpt lat="45.95677" lon="4.38832">
        <ele>823.577514648</ele>
        <time>2016-01-28T09:27:34.152Z</time>
      </trkpt>
      <trkpt lat="45.95676" lon="4.38833">
        <ele>823.727600098</ele>
        <time>2016-01-28T09:27:35.13Z</time>
      </trkpt>
      <trkpt lat="45.95669" lon="4.3884">
        <ele>824.210693359</ele>
        <time>2016-01-28T09:27:41.27Z</time>
      </trkpt>
      <trkpt lat="45.95668" lon="4.38841">
        <ele>824.173217773</ele>
        <time>2016-01-28T09:27:42.127Z</time>
      </trkpt>
      <trkpt lat="45.95662" lon="4.38847">
        <ele>823.961853027</ele>
        <time>2016-01-28T09:27:48.156Z</time>
      </trkpt>
      <trkpt lat="45.95661" lon="4.38849">
        <ele>823.909667969</ele>
        <time>2016-01-28T09:27:49.133Z</time>
      </trkpt>
      <trkpt lat="45.95654" lon="4.38857">
        <ele>823.580444336</ele>
        <time>2016-01-28T09:27:56.152Z</time>
      </trkpt>
      <trkpt lat="45.95653" lon="4.38859">
        <ele>823.624755859</ele>
        <time>2016-01-28T09:27:57.133Z</time>
      </trkpt>
      <trkpt lat="45.95648" lon="4.38867">
        <ele>824.16229248</ele>
        <time>2016-01-28T09:28:05.147Z</time>
      </trkpt>
      <trkpt lat="45.95647" lon="4.38869">
        <ele>824.189575195</ele>
        <time>2016-01-28T09:28:06.133Z</time>
      </trkpt>
      <trkpt lat="45.9564" lon="4.38876">
        <ele>824.237731934</ele>
        <time>2016-01-28T09:28:12.169Z</time>
      </trkpt>
      <trkpt lat="45.95638" lon="4.38877">
        <ele>824.250915527</ele>
        <time>2016-01-28T09:28:13.134Z</time>
      </trkpt>
      <trkpt lat="45.9563" lon="4.38884">
        <ele>824.69934082</ele>
        <time>2016-01-28T09:28:21.18Z</time>
      </trkpt>
      <trkpt lat="45.95629" lon="4.38884">
        <ele>824.894897461</ele>
        <time>2016-01-28T09:28:22.141Z</time>
      </trkpt>
      <trkpt lat="45.95621" lon="4.38888">
        <ele>825.765686035</ele>
        <time>2016-01-28T09:28:28.16Z</time>
      </trkpt>
      <trkpt lat="45.9562" lon="4.38889">
        <ele>825.882751465</ele>
        <time>2016-01-28T09:28:29.136Z</time>
      </trkpt>
      <trkpt lat="45.95613" lon="4.38893">
        <ele>826.198913574</ele>
        <time>2016-01-28T09:28:34.16Z</time>
      </trkpt>
      <trkpt lat="45.95611" lon="4.38894">
        <ele>826.237243652</ele>
        <time>2016-01-28T09:28:35.134Z</time>
      </trkpt>
      <trkpt lat="45.95605" lon="4.38899">
        <ele>826.628356934</ele>
        <time>2016-01-28T09:28:41.168Z</time>
      </trkpt>
      <trkpt lat="45.95603" lon="4.389">
        <ele>826.74420166</ele>
        <time>2016-01-28T09:28:42.146Z</time>
      </trkpt>
      <trkpt lat="45.95596" lon="4.38907">
        <ele>827.840759277</ele>
        <time>2016-01-28T09:28:51.169Z</time>
      </trkpt>
      <trkpt lat="45.95595" lon="4.38907">
        <ele>828.033325195</ele>
        <time>2016-01-28T09:28:52.146Z</time>
      </trkpt>
      <trkpt lat="45.95587" lon="4.38912">
        <ele>829.142028809</ele>
        <time>2016-01-28T09:28:59.18Z</time>
      </trkpt>
      <trkpt lat="45.95586" lon="4.38913">
        <ele>829.328796387</ele>
        <time>2016-01-28T09:29:00.133Z</time>
      </trkpt>
      <trkpt lat="45.95579" lon="4.38919">
        <ele>830.594238281</ele>
        <time>2016-01-28T09:29:08.175Z</time>
      </trkpt>
      <trkpt lat="45.95577" lon="4.38919">
        <ele>830.783996582</ele>
        <time>2016-01-28T09:29:09.14Z</time>
      </trkpt>
      <trkpt lat="45.95569" lon="4.38925">
        <ele>831.842102051</ele>
        <time>2016-01-28T09:29:16.174Z</time>
      </trkpt>
      <trkpt lat="45.95567" lon="4.38925">
        <ele>832.011352539</ele>
        <time>2016-01-28T09:29:17.148Z</time>
      </trkpt>
      <trkpt lat="45.95559" lon="4.38929">
        <ele>832.282104492</ele>
        <time>2016-01-28T09:29:21.162Z</time>
      </trkpt>
      <trkpt lat="45.95558" lon="4.3893">
        <ele>832.388549805</ele>
        <time>2016-01-28T09:29:22.141Z</time>
      </trkpt>
      <trkpt lat="45.95551" lon="4.38934">
        <ele>833.076721191</ele>
        <time>2016-01-28T09:29:27.184Z</time>
      </trkpt>
      <trkpt lat="45.95549" lon="4.38934">
        <ele>833.137939453</ele>
        <time>2016-01-28T09:29:28.138Z</time>
      </trkpt>
      <trkpt lat="45.95541" lon="4.38938">
        <ele>834.096435547</ele>
        <time>2016-01-28T09:29:39.174Z</time>
      </trkpt>
      <trkpt lat="45.9554" lon="4.38938">
        <ele>834.269958496</ele>
        <time>2016-01-28T09:29:40.138Z</time>
      </trkpt>
      <trkpt lat="45.95533" lon="4.38939">
        <ele>835.623535156</ele>
        <time>2016-01-28T09:29:48.151Z</time>
      </trkpt>
      <trkpt lat="45.9553" lon="4.38939">
        <ele>835.717712402</ele>
        <time>2016-01-28T09:29:49.139Z</time>
      </trkpt>
      <trkpt lat="45.95523" lon="4.38939">
        <ele>836.288513184</ele>
        <time>2016-01-28T09:29:53.168Z</time>
      </trkpt>
      <trkpt lat="45.95521" lon="4.38939">
        <ele>836.422058105</ele>
        <time>2016-01-28T09:29:54.151Z</time>
      </trkpt>
      <trkpt lat="45.95514" lon="4.38939">
        <ele>837.254821777</ele>
        <time>2016-01-28T09:30:02.179Z</time>
      </trkpt>
      <trkpt lat="45.95511" lon="4.38939">
        <ele>837.381408691</ele>
        <time>2016-01-28T09:30:03.14Z</time>
      </trkpt>
      <trkpt lat="45.95503" lon="4.38937">
        <ele>838.109863281</ele>
        <time>2016-01-28T09:30:12.15Z</time>
      </trkpt>
      <trkpt lat="45.95502" lon="4.38937">
        <ele>838.170654297</ele>
        <time>2016-01-28T09:30:13.156Z</time>
      </trkpt>
      <trkpt lat="45.95494" lon="4.38938">
        <ele>839.271179199</ele>
        <time>2016-01-28T09:30:21.186Z</time>
      </trkpt>
      <trkpt lat="45.95492" lon="4.38938">
        <ele>839.29309082</ele>
        <time>2016-01-28T09:30:22.159Z</time>
      </trkpt>
      <trkpt lat="45.95486" lon="4.38938">
        <ele>839.481750488</ele>
        <time>2016-01-28T09:30:26.224Z</time>
      </trkpt>
      <trkpt lat="45.95483" lon="4.38937">
        <ele>839.620849609</ele>
        <time>2016-01-28T09:30:27.155Z</time>
      </trkpt>
      <trkpt lat="45.95475" lon="4.38936">
        <ele>840.658325195</ele>
        <time>2016-01-28T09:30:35.182Z</time>
      </trkpt>
      <trkpt lat="45.95474" lon="4.38935">
        <ele>840.700927734</ele>
        <time>2016-01-28T09:30:36.153Z</time>
      </trkpt>
      <trkpt lat="45.95466" lon="4.38933">
        <ele>841.52545166</ele>
        <time>2016-01-28T09:30:45.181Z</time>
      </trkpt>
      <trkpt lat="45.95465" lon="4.38933">
        <ele>841.602905273</ele>
        <time>2016-01-28T09:30:46.149Z</time>
      </trkpt>
      <trkpt lat="45.95457" lon="4.38935">
        <ele>842.02331543</ele>
        <time>2016-01-28T09:30:56.183Z</time>
      </trkpt>
      <trkpt lat="45.95456" lon="4.38935">
        <ele>842.177246094</ele>
        <time>2016-01-28T09:30:57.155Z</time>
      </trkpt>
      <trkpt lat="45.95447" lon="4.38937">
        <ele>843.00390625</ele>
        <time>2016-01-28T09:31:05.165Z</time>
      </trkpt>
      <trkpt lat="45.95446" lon="4.38937">
        <ele>843.153015137</ele>
        <time>2016-01-28T09:31:06.146Z</time>
      </trkpt>
      <trkpt lat="45.95437" lon="4.38937">
        <ele>844.52746582</ele>
        <time>2016-01-28T09:31:13.29Z</time>
      </trkpt>
      <trkpt lat="45.95436" lon="4.38937">
        <ele>844.68762207</ele>
        <time>2016-01-28T09:31:14.155Z</time>
      </trkpt>
      <trkpt lat="45.95427" lon="4.38938">
        <ele>845.885986328</ele>
        <time>2016-01-28T09:31:22.175Z</time>
      </trkpt>
      <trkpt lat="45.95426" lon="4.38937">
        <ele>846.118041992</ele>
        <time>2016-01-28T09:31:23.144Z</time>
      </trkpt>
      <trkpt lat="45.95418" lon="4.38942">
        <ele>846.701965332</ele>
        <time>2016-01-28T09:31:30.188Z</time>
      </trkpt>
      <trkpt lat="45.95417" lon="4.38943">
        <ele>846.678100586</ele>
        <time>2016-01-28T09:31:31.157Z</time>
      </trkpt>
      <trkpt lat="45.95409" lon="4.38947">
        <ele>847.156555176</ele>
        <time>2016-01-28T09:31:34.188Z</time>
      </trkpt>
      <trkpt lat="45.95406" lon="4.38948">
        <ele>847.346008301</ele>
        <time>2016-01-28T09:31:35.148Z</time>
      </trkpt>
      <trkpt lat="45.95397" lon="4.38948">
        <ele>848.940795898</ele>
        <time>2016-01-28T09:31:42.193Z</time>
      </trkpt>
      <trkpt lat="45.95397" lon="4.38948">
        <ele>849.159851074</ele>
        <time>2016-01-28T09:31:43.157Z</time>
      </trkpt>
      <trkpt lat="45.95389" lon="4.38952">
        <ele>849.453613281</ele>
        <time>2016-01-28T09:31:47.19Z</time>
      </trkpt>
      <trkpt lat="45.95388" lon="4.38952">
        <ele>849.515258789</ele>
        <time>2016-01-28T09:31:48.158Z</time>
      </trkpt>
      <trkpt lat="45.9538" lon="4.38958">
        <ele>850.248535156</ele>
        <time>2016-01-28T09:31:56.188Z</time>
      </trkpt>
      <trkpt lat="45.95379" lon="4.38959">
        <ele>850.263061523</ele>
        <time>2016-01-28T09:31:57.159Z</time>
      </trkpt>
      <trkpt lat="45.95372" lon="4.38963">
        <ele>849.953674316</ele>
        <time>2016-01-28T09:32:01.192Z</time>
      </trkpt>
      <trkpt lat="45.9537" lon="4.38964">
        <ele>849.860290527</ele>
        <time>2016-01-28T09:32:02.162Z</time>
      </trkpt>
      <trkpt lat="45.95363" lon="4.38967">
        <ele>850.563293457</ele>
        <time>2016-01-28T09:32:10.188Z</time>
      </trkpt>
      <trkpt lat="45.95361" lon="4.38969">
        <ele>850.596008301</ele>
        <time>2016-01-28T09:32:11.154Z</time>
      </trkpt>
      <trkpt lat="45.95353" lon="4.38974">
        <ele>851.844299316</ele>
        <time>2016-01-28T09:32:20.176Z</time>
      </trkpt>
      <trkpt lat="45.95352" lon="4.38975">
        <ele>852.010009766</ele>
        <time>2016-01-28T09:32:21.142Z</time>
      </trkpt>
      <trkpt lat="45.95345" lon="4.3898">
        <ele>852.264587402</ele>
        <time>2016-01-28T09:32:27.18Z</time>
      </trkpt>
      <trkpt lat="45.95344" lon="4.3898">
        <ele>852.321166992</ele>
        <time>2016-01-28T09:32:28.129Z</time>
      </trkpt>
      <trkpt lat="45.95336" lon="4.38985">
        <ele>852.057067871</ele>
        <time>2016-01-28T09:32:32.148Z</time>
      </trkpt>
      <trkpt lat="45.95335" lon="4.38986">
        <ele>851.945678711</ele>
        <time>2016-01-28T09:32:33.131Z</time>
      </trkpt>
      <trkpt lat="45.95327" lon="4.38989">
        <ele>851.452331543</ele>
        <time>2016-01-28T09:32:42.147Z</time>
      </trkpt>
      <trkpt lat="45.95326" lon="4.3899">
        <ele>851.36920166</ele>
        <time>2016-01-28T09:32:43.148Z</time>
      </trkpt>
      <trkpt lat="45.95319" lon="4.38993">
        <ele>850.889038086</ele>
        <time>2016-01-28T09:32:48.155Z</time>
      </trkpt>
      <trkpt lat="45.95317" lon="4.38994">
        <ele>850.766723633</ele>
        <time>2016-01-28T09:32:49.148Z</time>
      </trkpt>
      <trkpt lat="45.9531" lon="4.38998">
        <ele>849.962219238</ele>
        <time>2016-01-28T09:32:54.151Z</time>
      </trkpt>
      <trkpt lat="45.95306" lon="4.39">
        <ele>849.749572754</ele>
        <time>2016-01-28T09:32:55.138Z</time>
      </trkpt>
      <trkpt lat="45.95298" lon="4.39">
        <ele>848.923095703</ele>
        <time>2016-01-28T09:33:09.154Z</time>
      </trkpt>
      <trkpt lat="45.95297" lon="4.39">
        <ele>848.907653809</ele>
        <time>2016-01-28T09:33:10.139Z</time>
      </trkpt>
      <trkpt lat="45.95288" lon="4.38998">
        <ele>845.797851562</ele>
        <time>2016-01-28T09:36:23.187Z</time>
      </trkpt>
      <trkpt lat="45.95288" lon="4.38998">
        <ele>845.802429199</ele>
        <time>2016-01-28T09:36:24.156Z</time>
      </trkpt>
      <trkpt lat="45.9528" lon="4.39003">
        <ele>847.739501953</ele>
        <time>2016-01-28T09:39:09.195Z</time>
      </trkpt>
      <trkpt lat="45.95279" lon="4.39005">
        <ele>847.691345215</ele>
        <time>2016-01-28T09:39:10.124Z</time>
      </trkpt>
      <trkpt lat="45.95271" lon="4.39007">
        <ele>847.220092773</ele>
        <time>2016-01-28T09:39:25.175Z</time>
      </trkpt>
      <trkpt lat="45.9527" lon="4.39007">
        <ele>847.175720215</ele>
        <time>2016-01-28T09:39:26.135Z</time>
      </trkpt>
      <trkpt lat="45.95262" lon="4.39007">
        <ele>847.033447266</ele>
        <time>2016-01-28T09:39:37.159Z</time>
      </trkpt>
      <trkpt lat="45.9526" lon="4.39006">
        <ele>847.134399414</ele>
        <time>2016-01-28T09:39:38.136Z</time>
      </trkpt>
      <trkpt lat="45.95253" lon="4.39004">
        <ele>847.276000977</ele>
        <time>2016-01-28T09:39:39.157Z</time>
      </trkpt>
      <trkpt lat="45.95251" lon="4.39003">
        <ele>847.380187988</ele>
        <time>2016-01-28T09:39:40.136Z</time>
      </trkpt>
      <trkpt lat="45.95242" lon="4.39001">
        <ele>848.313110352</ele>
        <time>2016-01-28T09:39:49.159Z</time>
      </trkpt>
      <trkpt lat="45.95241" lon="4.39002">
        <ele>848.509765625</ele>
        <time>2016-01-28T09:39:50.14Z</time>
      </trkpt>
      <trkpt lat="45.95233" lon="4.39002">
        <ele>849.41796875</ele>
        <time>2016-01-28T09:39:55.285Z</time>
      </trkpt>
      <trkpt lat="45.95232" lon="4.39002">
        <ele>849.46484375</ele>
        <time>2016-01-28T09:39:56.141Z</time>
      </trkpt>
      <trkpt lat="45.95225" lon="4.39003">
        <ele>849.43560791</ele>
        <time>2016-01-28T09:40:00.181Z</time>
      </trkpt>
      <trkpt lat="45.95222" lon="4.39003">
        <ele>849.360961914</ele>
        <time>2016-01-28T09:40:01.162Z</time>
      </trkpt>
      <trkpt lat="45.95213" lon="4.39005">
        <ele>848.064758301</ele>
        <time>2016-01-28T09:40:09.142Z</time>
      </trkpt>
      <trkpt lat="45.95213" lon="4.39005">
        <ele>847.956054688</ele>
        <time>2016-01-28T09:40:10.148Z</time>
      </trkpt>
      <trkpt lat="45.95205" lon="4.39005">
        <ele>847.34362793</ele>
        <time>2016-01-28T09:40:21.164Z</time>
      </trkpt>
      <trkpt lat="45.95203" lon="4.39004">
        <ele>847.346435547</ele>
        <time>2016-01-28T09:40:22.149Z</time>
      </trkpt>
      <trkpt lat="45.95194" lon="4.39002">
        <ele>846.724975586</ele>
        <time>2016-01-28T09:40:30.177Z</time>
      </trkpt>
      <trkpt lat="45.95193" lon="4.39002">
        <ele>846.661376953</ele>
        <time>2016-01-28T09:40:31.15Z</time>
      </trkpt>
      <trkpt lat="45.95185" lon="4.39002">
        <ele>847.009887695</ele>
        <time>2016-01-28T09:40:37.16Z</time>
      </trkpt>
      <trkpt lat="45.95184" lon="4.39002">
        <ele>846.971374512</ele>
        <time>2016-01-28T09:40:38.139Z</time>
      </trkpt>
      <trkpt lat="45.95175" lon="4.39002">
        <ele>847.063354492</ele>
        <time>2016-01-28T09:40:44.192Z</time>
      </trkpt>
      <trkpt lat="45.95174" lon="4.39002">
        <ele>847.091918945</ele>
        <time>2016-01-28T09:40:45.146Z</time>
      </trkpt>
      <trkpt lat="45.95167" lon="4.39003">
        <ele>847.419311523</ele>
        <time>2016-01-28T09:40:55.173Z</time>
      </trkpt>
      <trkpt lat="45.95161" lon="4.39005">
        <ele>847.434997559</ele>
        <time>2016-01-28T09:40:56.156Z</time>
      </trkpt>
      <trkpt lat="45.95153" lon="4.39007">
        <ele>848.341247559</ele>
        <time>2016-01-28T09:41:03.175Z</time>
      </trkpt>
      <trkpt lat="45.95151" lon="4.39007">
        <ele>848.403503418</ele>
        <time>2016-01-28T09:41:04.154Z</time>
      </trkpt>
      <trkpt lat="45.95143" lon="4.39006">
        <ele>848.493347168</ele>
        <time>2016-01-28T09:41:10.181Z</time>
      </trkpt>
      <trkpt lat="45.95142" lon="4.39006">
        <ele>848.467956543</ele>
        <time>2016-01-28T09:41:11.162Z</time>
      </trkpt>
      <trkpt lat="45.95133" lon="4.39006">
        <ele>847.84576416</ele>
        <time>2016-01-28T09:41:18.184Z</time>
      </trkpt>
      <trkpt lat="45.95131" lon="4.39006">
        <ele>847.809631348</ele>
        <time>2016-01-28T09:41:19.158Z</time>
      </trkpt>
      <trkpt lat="45.95122" lon="4.39006">
        <ele>848.02142334</ele>
        <time>2016-01-28T09:41:25.29Z</time>
      </trkpt>
      <trkpt lat="45.95122" lon="4.39006">
        <ele>848.038330078</ele>
        <time>2016-01-28T09:41:26.148Z</time>
      </trkpt>
      <trkpt lat="45.95115" lon="4.39007">
        <ele>848.18548584</ele>
        <time>2016-01-28T09:41:32.178Z</time>
      </trkpt>
      <trkpt lat="45.95113" lon="4.39007">
        <ele>848.152832031</ele>
        <time>2016-01-28T09:41:33.144Z</time>
      </trkpt>
      <trkpt lat="45.95104" lon="4.39008">
        <ele>848.35748291</ele>
        <time>2016-01-28T09:41:37.173Z</time>
      </trkpt>
      <trkpt lat="45.95103" lon="4.39009">
        <ele>848.440368652</ele>
        <time>2016-01-28T09:41:38.154Z</time>
      </trkpt>
      <trkpt lat="45.95094" lon="4.39009">
        <ele>848.516479492</ele>
        <time>2016-01-28T09:41:43.179Z</time>
      </trkpt>
      <trkpt lat="45.95093" lon="4.39009">
        <ele>848.398681641</ele>
        <time>2016-01-28T09:41:44.156Z</time>
      </trkpt>
      <trkpt lat="45.95085" lon="4.3901">
        <ele>848.3359375</ele>
        <time>2016-01-28T09:41:55.175Z</time>
      </trkpt>
      <trkpt lat="45.95083" lon="4.3901">
        <ele>848.319458008</ele>
        <time>2016-01-28T09:41:56.155Z</time>
      </trkpt>
      <trkpt lat="45.95075" lon="4.39012">
        <ele>849.076721191</ele>
        <time>2016-01-28T09:42:03.225Z</time>
      </trkpt>
      <trkpt lat="45.95073" lon="4.39013">
        <ele>849.215454102</ele>
        <time>2016-01-28T09:42:04.152Z</time>
      </trkpt>
      <trkpt lat="45.95064" lon="4.39014">
        <ele>849.538452148</ele>
        <time>2016-01-28T09:42:10.188Z</time>
      </trkpt>
      <trkpt lat="45.95063" lon="4.39015">
        <ele>849.495605469</ele>
        <time>2016-01-28T09:42:11.161Z</time>
      </trkpt>
      <trkpt lat="45.95055" lon="4.39016">
        <ele>849.106689453</ele>
        <time>2016-01-28T09:42:19.178Z</time>
      </trkpt>
      <trkpt lat="45.95054" lon="4.39017">
        <ele>849.152282715</ele>
        <time>2016-01-28T09:42:20.162Z</time>
      </trkpt>
      <trkpt lat="45.95047" lon="4.39019">
        <ele>849.231079102</ele>
        <time>2016-01-28T09:42:24.206Z</time>
      </trkpt>
      <trkpt lat="45.95045" lon="4.3902">
        <ele>849.27355957</ele>
        <time>2016-01-28T09:42:25.158Z</time>
      </trkpt>
      <trkpt lat="45.95036" lon="4.39019">
        <ele>849.093383789</ele>
        <time>2016-01-28T09:42:30.185Z</time>
      </trkpt>
      <trkpt lat="45.95035" lon="4.39019">
        <ele>849.083862305</ele>
        <time>2016-01-28T09:42:31.154Z</time>
      </trkpt>
      <trkpt lat="45.95026" lon="4.3902">
        <ele>851.36529541</ele>
        <time>2016-01-28T09:42:43.294Z</time>
      </trkpt>
      <trkpt lat="45.95025" lon="4.3902">
        <ele>851.563903809</ele>
        <time>2016-01-28T09:42:44.155Z</time>
      </trkpt>
      <trkpt lat="45.95016" lon="4.39021">
        <ele>851.771911621</ele>
        <time>2016-01-28T09:42:47.184Z</time>
      </trkpt>
      <trkpt lat="45.95015" lon="4.39021">
        <ele>851.888061523</ele>
        <time>2016-01-28T09:42:48.159Z</time>
      </trkpt>
      <trkpt lat="45.95006" lon="4.3902">
        <ele>853.048156738</ele>
        <time>2016-01-28T09:42:54.198Z</time>
      </trkpt>
      <trkpt lat="45.95005" lon="4.3902">
        <ele>853.20880127</ele>
        <time>2016-01-28T09:42:55.146Z</time>
      </trkpt>
      <trkpt lat="45.94998" lon="4.39019">
        <ele>854.414672852</ele>
        <time>2016-01-28T09:43:05.156Z</time>
      </trkpt>
      <trkpt lat="45.94996" lon="4.39019">
        <ele>854.615905762</ele>
        <time>2016-01-28T09:43:06.127Z</time>
      </trkpt>
      <trkpt lat="45.94988" lon="4.39019">
        <ele>856.282409668</ele>
        <time>2016-01-28T09:43:16.167Z</time>
      </trkpt>
      <trkpt lat="45.94986" lon="4.39018">
        <ele>856.474365234</ele>
        <time>2016-01-28T09:43:17.127Z</time>
      </trkpt>
      <trkpt lat="45.94978" lon="4.39019">
        <ele>857.35748291</ele>
        <time>2016-01-28T09:43:22.141Z</time>
      </trkpt>
      <trkpt lat="45.94976" lon="4.39019">
        <ele>857.483276367</ele>
        <time>2016-01-28T09:43:23.125Z</time>
      </trkpt>
      <trkpt lat="45.94967" lon="4.39017">
        <ele>858.332885742</ele>
        <time>2016-01-28T09:43:30.145Z</time>
      </trkpt>
      <trkpt lat="45.94966" lon="4.39017">
        <ele>858.587524414</ele>
        <time>2016-01-28T09:43:31.126Z</time>
      </trkpt>
      <trkpt lat="45.94957" lon="4.39016">
        <ele>859.729675293</ele>
        <time>2016-01-28T09:43:40.143Z</time>
      </trkpt>
      <trkpt lat="45.94956" lon="4.39015">
        <ele>859.809387207</ele>
        <time>2016-01-28T09:43:41.127Z</time>
      </trkpt>
      <trkpt lat="45.94948" lon="4.39013">
        <ele>861.002319336</ele>
        <time>2016-01-28T09:43:49.169Z</time>
      </trkpt>
      <trkpt lat="45.94947" lon="4.39013">
        <ele>861.158752441</ele>
        <time>2016-01-28T09:43:50.131Z</time>
      </trkpt>
      <trkpt lat="45.94939" lon="4.39012">
        <ele>861.941345215</ele>
        <time>2016-01-28T09:43:57.129Z</time>
      </trkpt>
      <trkpt lat="45.94937" lon="4.39012">
        <ele>861.947692871</ele>
        <time>2016-01-28T09:43:58.145Z</time>
      </trkpt>
      <trkpt lat="45.94929" lon="4.39011">
        <ele>861.797119141</ele>
        <time>2016-01-28T09:44:06.166Z</time>
      </trkpt>
      <trkpt lat="45.94927" lon="4.39011">
        <ele>861.782714844</ele>
        <time>2016-01-28T09:44:07.137Z</time>
      </trkpt>
      <trkpt lat="45.94919" lon="4.39009">
        <ele>861.823364258</ele>
        <time>2016-01-28T09:44:13.164Z</time>
      </trkpt>
      <trkpt lat="45.94918" lon="4.39009">
        <ele>861.769775391</ele>
        <time>2016-01-28T09:44:14.169Z</time>
      </trkpt>
      <trkpt lat="45.94909" lon="4.39009">
        <ele>861.975524902</ele>
        <time>2016-01-28T09:44:24.155Z</time>
      </trkpt>
      <trkpt lat="45.94908" lon="4.39009">
        <ele>861.910339355</ele>
        <time>2016-01-28T09:44:25.14Z</time>
      </trkpt>
      <trkpt lat="45.94899" lon="4.39008">
        <ele>862.753295898</ele>
        <time>2016-01-28T09:44:33.169Z</time>
      </trkpt>
      <trkpt lat="45.94897" lon="4.39008">
        <ele>862.85345459</ele>
        <time>2016-01-28T09:44:34.142Z</time>
      </trkpt>
      <trkpt lat="45.94888" lon="4.39006">
        <ele>863.41784668</ele>
        <time>2016-01-28T09:44:41.191Z</time>
      </trkpt>
      <trkpt lat="45.94886" lon="4.39005">
        <ele>863.643005371</ele>
        <time>2016-01-28T09:44:42.13Z</time>
      </trkpt>
      <trkpt lat="45.94878" lon="4.39005">
        <ele>864.240783691</ele>
        <time>2016-01-28T09:44:44.182Z</time>
      </trkpt>
      <trkpt lat="45.94876" lon="4.39005">
        <ele>864.558532715</ele>
        <time>2016-01-28T09:44:45.143Z</time>
      </trkpt>
      <trkpt lat="45.94867" lon="4.39002">
        <ele>865.503234863</ele>
        <time>2016-01-28T09:44:49.158Z</time>
      </trkpt>
      <trkpt lat="45.94865" lon="4.39001">
        <ele>865.692138672</ele>
        <time>2016-01-28T09:44:50.144Z</time>
      </trkpt>
      <trkpt lat="45.94858" lon="4.38999">
        <ele>868.508483887</ele>
        <time>2016-01-28T09:44:59.176Z</time>
      </trkpt>
      <trkpt lat="45.94856" lon="4.38999">
        <ele>868.816345215</ele>
        <time>2016-01-28T09:45:00.135Z</time>
      </trkpt>
      <trkpt lat="45.94848" lon="4.39">
        <ele>870.940917969</ele>
        <time>2016-01-28T09:45:08.171Z</time>
      </trkpt>
      <trkpt lat="45.94846" lon="4.39">
        <ele>871.215820312</ele>
        <time>2016-01-28T09:45:09.137Z</time>
      </trkpt>
      <trkpt lat="45.94837" lon="4.39">
        <ele>873.648925781</ele>
        <time>2016-01-28T09:45:17.254Z</time>
      </trkpt>
      <trkpt lat="45.94836" lon="4.39001">
        <ele>873.895690918</ele>
        <time>2016-01-28T09:45:18.146Z</time>
      </trkpt>
      <trkpt lat="45.94828" lon="4.39">
        <ele>875.351867676</ele>
        <time>2016-01-28T09:45:26.184Z</time>
      </trkpt>
      <trkpt lat="45.94827" lon="4.39">
        <ele>875.455200195</ele>
        <time>2016-01-28T09:45:27.143Z</time>
      </trkpt>
      <trkpt lat="45.94822" lon="4.39001">
        <ele>875.608642578</ele>
        <time>2016-01-28T09:45:31.178Z</time>
      </trkpt>
      <trkpt lat="45.94815" lon="4.38998">
        <ele>875.63067627</ele>
        <time>2016-01-28T09:45:32.147Z</time>
      </trkpt>
      <trkpt lat="45.94806" lon="4.38999">
        <ele>875.712158203</ele>
        <time>2016-01-28T09:45:44.197Z</time>
      </trkpt>
      <trkpt lat="45.94806" lon="4.38999">
        <ele>875.697937012</ele>
        <time>2016-01-28T09:45:45.148Z</time>
      </trkpt>
      <trkpt lat="45.94798" lon="4.39003">
        <ele>875.063110352</ele>
        <time>2016-01-28T09:45:52.168Z</time>
      </trkpt>
      <trkpt lat="45.94796" lon="4.39003">
        <ele>875.15447998</ele>
        <time>2016-01-28T09:45:53.14Z</time>
      </trkpt>
      <trkpt lat="45.94789" lon="4.39002">
        <ele>875.710021973</ele>
        <time>2016-01-28T09:45:57.184Z</time>
      </trkpt>
      <trkpt lat="45.94787" lon="4.39002">
        <ele>875.899414062</ele>
        <time>2016-01-28T09:45:58.15Z</time>
      </trkpt>
      <trkpt lat="45.94779" lon="4.38999">
        <ele>876.801452637</ele>
        <time>2016-01-28T09:46:02.169Z</time>
      </trkpt>
      <trkpt lat="45.94777" lon="4.38999">
        <ele>876.831604004</ele>
        <time>2016-01-28T09:46:03.152Z</time>
      </trkpt>
      <trkpt lat="45.94769" lon="4.38999">
        <ele>876.922363281</ele>
        <time>2016-01-28T09:46:08.174Z</time>
      </trkpt>
      <trkpt lat="45.94768" lon="4.39">
        <ele>876.938598633</ele>
        <time>2016-01-28T09:46:09.142Z</time>
      </trkpt>
      <trkpt lat="45.94759" lon="4.39004">
        <ele>876.384277344</ele>
        <time>2016-01-28T09:46:17.165Z</time>
      </trkpt>
      <trkpt lat="45.94758" lon="4.39004">
        <ele>876.176513672</ele>
        <time>2016-01-28T09:46:18.15Z</time>
      </trkpt>
      <trkpt lat="45.9475" lon="4.39008">
        <ele>873.636291504</ele>
        <time>2016-01-28T09:47:36.184Z</time>
      </trkpt>
      <trkpt lat="45.94749" lon="4.39009">
        <ele>873.585388184</ele>
        <time>2016-01-28T09:47:37.158Z</time>
      </trkpt>
      <trkpt lat="45.94743" lon="4.39017">
        <ele>873.777587891</ele>
        <time>2016-01-28T09:47:49.182Z</time>
      </trkpt>
      <trkpt lat="45.94742" lon="4.39019">
        <ele>873.83795166</ele>
        <time>2016-01-28T09:47:50.169Z</time>
      </trkpt>
      <trkpt lat="45.94736" lon="4.39027">
        <ele>873.564758301</ele>
        <time>2016-01-28T09:47:57.191Z</time>
      </trkpt>
      <trkpt lat="45.94736" lon="4.39028">
        <ele>873.572143555</ele>
        <time>2016-01-28T09:47:58.148Z</time>
      </trkpt>
      <trkpt lat="45.94728" lon="4.39028">
        <ele>873.607299805</ele>
        <time>2016-01-28T09:48:14.13Z</time>
      </trkpt>
      <trkpt lat="45.94727" lon="4.39028">
        <ele>873.725158691</ele>
        <time>2016-01-28T09:48:15.144Z</time>
      </trkpt>
      <trkpt lat="45.94719" lon="4.39024">
        <ele>874.522827148</ele>
        <time>2016-01-28T09:48:23.142Z</time>
      </trkpt>
      <trkpt lat="45.94718" lon="4.39022">
        <ele>874.581848145</ele>
        <time>2016-01-28T09:48:24.128Z</time>
      </trkpt>
      <trkpt lat="45.9471" lon="4.3902">
        <ele>875.084655762</ele>
        <time>2016-01-28T09:48:33.168Z</time>
      </trkpt>
      <trkpt lat="45.94709" lon="4.3902">
        <ele>875.041931152</ele>
        <time>2016-01-28T09:48:34.127Z</time>
      </trkpt>
      <trkpt lat="45.94702" lon="4.39016">
        <ele>874.567138672</ele>
        <time>2016-01-28T09:48:41.149Z</time>
      </trkpt>
      <trkpt lat="45.94701" lon="4.39015">
        <ele>874.502380371</ele>
        <time>2016-01-28T09:48:42.139Z</time>
      </trkpt>
      <trkpt lat="45.94693" lon="4.39012">
        <ele>874.138366699</ele>
        <time>2016-01-28T09:48:48.156Z</time>
      </trkpt>
      <trkpt lat="45.94692" lon="4.39011">
        <ele>874.127868652</ele>
        <time>2016-01-28T09:48:49.138Z</time>
      </trkpt>
      <trkpt lat="45.94684" lon="4.39005">
        <ele>874.833435059</ele>
        <time>2016-01-28T09:48:55.205Z</time>
      </trkpt>
      <trkpt lat="45.94683" lon="4.39005">
        <ele>874.938354492</ele>
        <time>2016-01-28T09:48:56.141Z</time>
      </trkpt>
      <trkpt lat="45.94675" lon="4.39003">
        <ele>874.393737793</ele>
        <time>2016-01-28T09:49:09.165Z</time>
      </trkpt>
      <trkpt lat="45.94673" lon="4.39003">
        <ele>874.293151855</ele>
        <time>2016-01-28T09:49:10.133Z</time>
      </trkpt>
      <trkpt lat="45.94664" lon="4.39006">
        <ele>873.69909668</ele>
        <time>2016-01-28T09:49:16.165Z</time>
      </trkpt>
      <trkpt lat="45.94663" lon="4.39006">
        <ele>873.648376465</ele>
        <time>2016-01-28T09:49:17.133Z</time>
      </trkpt>
      <trkpt lat="45.94656" lon="4.39007">
        <ele>873.738708496</ele>
        <time>2016-01-28T09:49:21.157Z</time>
      </trkpt>
      <trkpt lat="45.94653" lon="4.39007">
        <ele>873.657592773</ele>
        <time>2016-01-28T09:49:22.159Z</time>
      </trkpt>
      <trkpt lat="45.94645" lon="4.39005">
        <ele>873.231750488</ele>
        <time>2016-01-28T09:49:29.177Z</time>
      </trkpt>
      <trkpt lat="45.94644" lon="4.39004">
        <ele>873.29901123</ele>
        <time>2016-01-28T09:49:30.139Z</time>
      </trkpt>
      <trkpt lat="45.94636" lon="4.39006">
        <ele>873.802307129</ele>
        <time>2016-01-28T09:49:34.167Z</time>
      </trkpt>
      <trkpt lat="45.94634" lon="4.39006">
        <ele>873.716125488</ele>
        <time>2016-01-28T09:49:35.133Z</time>
      </trkpt>
      <trkpt lat="45.94626" lon="4.39011">
        <ele>872.274719238</ele>
        <time>2016-01-28T09:49:41.175Z</time>
      </trkpt>
      <trkpt lat="45.94625" lon="4.39011">
        <ele>872.056640625</ele>
        <time>2016-01-28T09:49:42.14Z</time>
      </trkpt>
      <trkpt lat="45.94618" lon="4.39018">
        <ele>870.607727051</ele>
        <time>2016-01-28T09:49:47.15Z</time>
      </trkpt>
      <trkpt lat="45.94616" lon="4.3902">
        <ele>870.332275391</ele>
        <time>2016-01-28T09:49:48.134Z</time>
      </trkpt>
      <trkpt lat="45.9461" lon="4.39028">
        <ele>869.538696289</ele>
        <time>2016-01-28T09:49:51.28Z</time>
      </trkpt>
      <trkpt lat="45.94609" lon="4.3903">
        <ele>869.32208252</ele>
        <time>2016-01-28T09:49:52.143Z</time>
      </trkpt>
      <trkpt lat="45.94603" lon="4.39037">
        <ele>867.942199707</ele>
        <time>2016-01-28T09:49:58.172Z</time>
      </trkpt>
      <trkpt lat="45.94602" lon="4.39038">
        <ele>867.647888184</ele>
        <time>2016-01-28T09:49:59.139Z</time>
      </trkpt>
      <trkpt lat="45.94594" lon="4.39043">
        <ele>866.370483398</ele>
        <time>2016-01-28T09:50:06.177Z</time>
      </trkpt>
      <trkpt lat="45.94592" lon="4.39044">
        <ele>866.283691406</ele>
        <time>2016-01-28T09:50:07.144Z</time>
      </trkpt>
      <trkpt lat="45.94587" lon="4.39052">
        <ele>865.192077637</ele>
        <time>2016-01-28T09:50:14.176Z</time>
      </trkpt>
      <trkpt lat="45.94586" lon="4.39054">
        <ele>865.082580566</ele>
        <time>2016-01-28T09:50:15.145Z</time>
      </trkpt>
      <trkpt lat="45.9458" lon="4.39063">
        <ele>862.89453125</ele>
        <time>2016-01-28T09:50:24.17Z</time>
      </trkpt>
      <trkpt lat="45.94579" lon="4.39066">
        <ele>862.716918945</ele>
        <time>2016-01-28T09:50:25.146Z</time>
      </trkpt>
      <trkpt lat="45.94573" lon="4.39072">
        <ele>862.356140137</ele>
        <time>2016-01-28T09:50:29.164Z</time>
      </trkpt>
      <trkpt lat="45.94572" lon="4.39074">
        <ele>862.243530273</ele>
        <time>2016-01-28T09:50:30.147Z</time>
      </trkpt>
      <trkpt lat="45.94568" lon="4.39085">
        <ele>861.700622559</ele>
        <time>2016-01-28T09:50:34.187Z</time>
      </trkpt>
      <trkpt lat="45.94568" lon="4.39087">
        <ele>861.496520996</ele>
        <time>2016-01-28T09:50:35.147Z</time>
      </trkpt>
      <trkpt lat="45.94562" lon="4.39095">
        <ele>861.741210938</ele>
        <time>2016-01-28T09:50:42.182Z</time>
      </trkpt>
      <trkpt lat="45.94561" lon="4.39097">
        <ele>861.788513184</ele>
        <time>2016-01-28T09:50:43.149Z</time>
      </trkpt>
      <trkpt lat="45.94555" lon="4.39106">
        <ele>861.88684082</ele>
        <time>2016-01-28T09:50:51.178Z</time>
      </trkpt>
      <trkpt lat="45.94555" lon="4.39107">
        <ele>861.53729248</ele>
        <time>2016-01-28T09:50:52.149Z</time>
      </trkpt>
      <trkpt lat="45.9455" lon="4.39118">
        <ele>860.179931641</ele>
        <time>2016-01-28T09:51:00.172Z</time>
      </trkpt>
      <trkpt lat="45.94549" lon="4.39119">
        <ele>860.441711426</ele>
        <time>2016-01-28T09:51:01.15Z</time>
      </trkpt>
      <trkpt lat="45.94542" lon="4.39127">
        <ele>864.414306641</ele>
        <time>2016-01-28T09:51:10.19Z</time>
      </trkpt>
      <trkpt lat="45.94541" lon="4.39129">
        <ele>864.745056152</ele>
        <time>2016-01-28T09:51:11.15Z</time>
      </trkpt>
      <trkpt lat="45.94538" lon="4.39139">
        <ele>865.962524414</ele>
        <time>2016-01-28T09:51:15.27Z</time>
      </trkpt>
      <trkpt lat="45.94537" lon="4.39142">
        <ele>866.250793457</ele>
        <time>2016-01-28T09:51:16.15Z</time>
      </trkpt>
      <trkpt lat="45.9453" lon="4.39149">
        <ele>868.131164551</ele>
        <time>2016-01-28T09:51:23.177Z</time>
      </trkpt>
      <trkpt lat="45.94529" lon="4.3915">
        <ele>868.252563477</ele>
        <time>2016-01-28T09:51:24.152Z</time>
      </trkpt>
      <trkpt lat="45.94523" lon="4.39158">
        <ele>868.741210938</ele>
        <time>2016-01-28T09:51:29.176Z</time>
      </trkpt>
      <trkpt lat="45.94521" lon="4.3916">
        <ele>868.818908691</ele>
        <time>2016-01-28T09:51:30.151Z</time>
      </trkpt>
      <trkpt lat="45.94515" lon="4.39169">
        <ele>868.479370117</ele>
        <time>2016-01-28T09:51:36.162Z</time>
      </trkpt>
      <trkpt lat="45.94514" lon="4.3917">
        <ele>868.40637207</ele>
        <time>2016-01-28T09:51:37.152Z</time>
      </trkpt>
      <trkpt lat="45.94509" lon="4.39179">
        <ele>868.768676758</ele>
        <time>2016-01-28T09:51:45.177Z</time>
      </trkpt>
      <trkpt lat="45.94508" lon="4.39181">
        <ele>868.831420898</ele>
        <time>2016-01-28T09:51:46.159Z</time>
      </trkpt>
      <trkpt lat="45.94506" lon="4.39193">
        <ele>868.922424316</ele>
        <time>2016-01-28T09:51:51.184Z</time>
      </trkpt>
      <trkpt lat="45.94506" lon="4.39196">
        <ele>868.897155762</ele>
        <time>2016-01-28T09:51:52.146Z</time>
      </trkpt>
      <trkpt lat="45.94505" lon="4.39208">
        <ele>868.981323242</ele>
        <time>2016-01-28T09:51:57.169Z</time>
      </trkpt>
      <trkpt lat="45.94505" lon="4.3921">
        <ele>869.020141602</ele>
        <time>2016-01-28T09:51:58.154Z</time>
      </trkpt>
      <trkpt lat="45.945" lon="4.3922">
        <ele>869.199523926</ele>
        <time>2016-01-28T09:52:05.182Z</time>
      </trkpt>
      <trkpt lat="45.94499" lon="4.39221">
        <ele>869.222839355</ele>
        <time>2016-01-28T09:52:06.149Z</time>
      </trkpt>
      <trkpt lat="45.94493" lon="4.39227">
        <ele>869.354980469</ele>
        <time>2016-01-28T09:52:11.173Z</time>
      </trkpt>
      <trkpt lat="45.94492" lon="4.39228">
        <ele>869.392211914</ele>
        <time>2016-01-28T09:52:12.14Z</time>
      </trkpt>
      <trkpt lat="45.94484" lon="4.39233">
        <ele>869.625366211</ele>
        <time>2016-01-28T09:52:16.161Z</time>
      </trkpt>
      <trkpt lat="45.94483" lon="4.39234">
        <ele>869.659301758</ele>
        <time>2016-01-28T09:52:17.136Z</time>
      </trkpt>
      <trkpt lat="45.94476" lon="4.39239">
        <ele>869.958068848</ele>
        <time>2016-01-28T09:52:21.171Z</time>
      </trkpt>
      <trkpt lat="45.94474" lon="4.39241">
        <ele>870.137390137</ele>
        <time>2016-01-28T09:52:22.146Z</time>
      </trkpt>
      <trkpt lat="45.94466" lon="4.39247">
        <ele>870.732971191</ele>
        <time>2016-01-28T09:52:28.185Z</time>
      </trkpt>
      <trkpt lat="45.94466" lon="4.39247">
        <ele>870.790649414</ele>
        <time>2016-01-28T09:52:29.156Z</time>
      </trkpt>
      <trkpt lat="45.94463" lon="4.39259">
        <ele>871.128356934</ele>
        <time>2016-01-28T09:52:35.176Z</time>
      </trkpt>
      <trkpt lat="45.94462" lon="4.3926">
        <ele>871.290161133</ele>
        <time>2016-01-28T09:52:36.159Z</time>
      </trkpt>
      <trkpt lat="45.94456" lon="4.39269">
        <ele>871.819030762</ele>
        <time>2016-01-28T09:52:44.291Z</time>
      </trkpt>
      <trkpt lat="45.94455" lon="4.3927">
        <ele>871.81262207</ele>
        <time>2016-01-28T09:52:45.157Z</time>
      </trkpt>
      <trkpt lat="45.94448" lon="4.39277">
        <ele>871.149841309</ele>
        <time>2016-01-28T09:52:53.19Z</time>
      </trkpt>
      <trkpt lat="45.94447" lon="4.39278">
        <ele>870.873352051</ele>
        <time>2016-01-28T09:52:54.148Z</time>
      </trkpt>
      <trkpt lat="45.94439" lon="4.39284">
        <ele>870.223571777</ele>
        <time>2016-01-28T09:52:59.189Z</time>
      </trkpt>
      <trkpt lat="45.94439" lon="4.39285">
        <ele>870.225708008</ele>
        <time>2016-01-28T09:53:00.16Z</time>
      </trkpt>
      <trkpt lat="45.94432" lon="4.39291">
        <ele>870.679931641</ele>
        <time>2016-01-28T09:53:08.184Z</time>
      </trkpt>
      <trkpt lat="45.94431" lon="4.39292">
        <ele>870.803466797</ele>
        <time>2016-01-28T09:53:09.159Z</time>
      </trkpt>
      <trkpt lat="45.94424" lon="4.39297">
        <ele>871.334533691</ele>
        <time>2016-01-28T09:53:14.215Z</time>
      </trkpt>
      <trkpt lat="45.94423" lon="4.39298">
        <ele>871.386535645</ele>
        <time>2016-01-28T09:53:15.159Z</time>
      </trkpt>
      <trkpt lat="45.94418" lon="4.39308">
        <ele>871.531616211</ele>
        <time>2016-01-28T09:53:24.183Z</time>
      </trkpt>
      <trkpt lat="45.94417" lon="4.39309">
        <ele>871.531188965</ele>
        <time>2016-01-28T09:53:25.155Z</time>
      </trkpt>
      <trkpt lat="45.94413" lon="4.39319">
        <ele>872.179199219</ele>
        <time>2016-01-28T09:53:32.153Z</time>
      </trkpt>
      <trkpt lat="45.94412" lon="4.3932">
        <ele>872.264953613</ele>
        <time>2016-01-28T09:53:33.125Z</time>
      </trkpt>
      <trkpt lat="45.94407" lon="4.39328">
        <ele>872.979370117</ele>
        <time>2016-01-28T09:53:39.161Z</time>
      </trkpt>
      <trkpt lat="45.94406" lon="4.3933">
        <ele>873.126953125</ele>
        <time>2016-01-28T09:53:40.134Z</time>
      </trkpt>
      <trkpt lat="45.94402" lon="4.3934">
        <ele>873.633239746</ele>
        <time>2016-01-28T09:53:46.142Z</time>
      </trkpt>
      <trkpt lat="45.94402" lon="4.39341">
        <ele>873.75012207</ele>
        <time>2016-01-28T09:53:47.131Z</time>
      </trkpt>
      <trkpt lat="45.94398" lon="4.39352">
        <ele>874.493408203</ele>
        <time>2016-01-28T09:53:54.145Z</time>
      </trkpt>
      <trkpt lat="45.94398" lon="4.39353">
        <ele>874.579589844</ele>
        <time>2016-01-28T09:53:55.126Z</time>
      </trkpt>
      <trkpt lat="45.94395" lon="4.39362">
        <ele>875.20703125</ele>
        <time>2016-01-28T09:54:01.154Z</time>
      </trkpt>
      <trkpt lat="45.94394" lon="4.39365">
        <ele>875.321411133</ele>
        <time>2016-01-28T09:54:02.131Z</time>
      </trkpt>
      <trkpt lat="45.94391" lon="4.39376">
        <ele>875.725769043</ele>
        <time>2016-01-28T09:54:07.177Z</time>
      </trkpt>
      <trkpt lat="45.9439" lon="4.39378">
        <ele>875.831726074</ele>
        <time>2016-01-28T09:54:08.132Z</time>
      </trkpt>
      <trkpt lat="45.94387" lon="4.39389">
        <ele>876.402893066</ele>
        <time>2016-01-28T09:54:15.181Z</time>
      </trkpt>
      <trkpt lat="45.94386" lon="4.39392">
        <ele>876.506103516</ele>
        <time>2016-01-28T09:54:16.135Z</time>
      </trkpt>
      <trkpt lat="45.94384" lon="4.39404">
        <ele>877.249084473</ele>
        <time>2016-01-28T09:54:22.153Z</time>
      </trkpt>
      <trkpt lat="45.94384" lon="4.39405">
        <ele>877.397033691</ele>
        <time>2016-01-28T09:54:23.127Z</time>
      </trkpt>
      <trkpt lat="45.94381" lon="4.39417">
        <ele>878.607971191</ele>
        <time>2016-01-28T09:54:31.16Z</time>
      </trkpt>
      <trkpt lat="45.9438" lon="4.39419">
        <ele>878.763427734</ele>
        <time>2016-01-28T09:54:32.127Z</time>
      </trkpt>
      <trkpt lat="45.94379" lon="4.39432">
        <ele>879.08001709</ele>
        <time>2016-01-28T09:54:36.152Z</time>
      </trkpt>
      <trkpt lat="45.94379" lon="4.39435">
        <ele>879.128295898</ele>
        <time>2016-01-28T09:54:37.14Z</time>
      </trkpt>
      <trkpt lat="45.9438" lon="4.39447">
        <ele>879.530090332</ele>
        <time>2016-01-28T09:54:45.152Z</time>
      </trkpt>
      <trkpt lat="45.9438" lon="4.39449">
        <ele>879.612670898</ele>
        <time>2016-01-28T09:54:46.133Z</time>
      </trkpt>
      <trkpt lat="45.9438" lon="4.39461">
        <ele>880.493286133</ele>
        <time>2016-01-28T09:54:53.146Z</time>
      </trkpt>
      <trkpt lat="45.9438" lon="4.39463">
        <ele>880.619628906</ele>
        <time>2016-01-28T09:54:54.133Z</time>
      </trkpt>
      <trkpt lat="45.94382" lon="4.39475">
        <ele>881.879882812</ele>
        <time>2016-01-28T09:55:03.153Z</time>
      </trkpt>
      <trkpt lat="45.94383" lon="4.39478">
        <ele>881.984130859</ele>
        <time>2016-01-28T09:55:04.133Z</time>
      </trkpt>
      <trkpt lat="45.94384" lon="4.39489">
        <ele>882.72265625</ele>
        <time>2016-01-28T09:55:12.168Z</time>
      </trkpt>
      <trkpt lat="45.94385" lon="4.39491">
        <ele>882.755432129</ele>
        <time>2016-01-28T09:55:13.142Z</time>
      </trkpt>
      <trkpt lat="45.94386" lon="4.39503">
        <ele>882.683837891</ele>
        <time>2016-01-28T09:55:18.172Z</time>
      </trkpt>
      <trkpt lat="45.94386" lon="4.39504">
        <ele>882.645446777</ele>
        <time>2016-01-28T09:55:19.135Z</time>
      </trkpt>
      <trkpt lat="45.94388" lon="4.39515">
        <ele>882.443908691</ele>
        <time>2016-01-28T09:55:25.17Z</time>
      </trkpt>
      <trkpt lat="45.94388" lon="4.39517">
        <ele>882.399658203</ele>
        <time>2016-01-28T09:55:26.135Z</time>
      </trkpt>
      <trkpt lat="45.94387" lon="4.39528">
        <ele>881.657043457</ele>
        <time>2016-01-28T09:55:33.164Z</time>
      </trkpt>
      <trkpt lat="45.94387" lon="4.39534">
        <ele>881.708984375</ele>
        <time>2016-01-28T09:55:34.145Z</time>
      </trkpt>
      <trkpt lat="45.94385" lon="4.39546">
        <ele>882.099304199</ele>
        <time>2016-01-28T09:55:42.162Z</time>
      </trkpt>
      <trkpt lat="45.94385" lon="4.39548">
        <ele>882.127563477</ele>
        <time>2016-01-28T09:55:43.132Z</time>
      </trkpt>
      <trkpt lat="45.94383" lon="4.39558">
        <ele>882.099853516</ele>
        <time>2016-01-28T09:55:51.168Z</time>
      </trkpt>
      <trkpt lat="45.94382" lon="4.3956">
        <ele>882.145019531</ele>
        <time>2016-01-28T09:55:52.136Z</time>
      </trkpt>
      <trkpt lat="45.94382" lon="4.39572">
        <ele>881.669250488</ele>
        <time>2016-01-28T09:55:58.169Z</time>
      </trkpt>
      <trkpt lat="45.94381" lon="4.39574">
        <ele>881.502929688</ele>
        <time>2016-01-28T09:55:59.146Z</time>
      </trkpt>
      <trkpt lat="45.94379" lon="4.39586">
        <ele>881.184265137</ele>
        <time>2016-01-28T09:56:02.168Z</time>
      </trkpt>
      <trkpt lat="45.94378" lon="4.39589">
        <ele>881.045898438</ele>
        <time>2016-01-28T09:56:03.137Z</time>
      </trkpt>
      <trkpt lat="45.94377" lon="4.39601">
        <ele>880.83605957</ele>
        <time>2016-01-28T09:56:11.169Z</time>
      </trkpt>
      <trkpt lat="45.94376" lon="4.39602">
        <ele>880.88885498</ele>
        <time>2016-01-28T09:56:12.14Z</time>
      </trkpt>
      <trkpt lat="45.94371" lon="4.39613">
        <ele>880.585632324</ele>
        <time>2016-01-28T09:56:20.15Z</time>
      </trkpt>
      <trkpt lat="45.94371" lon="4.39614">
        <ele>880.620422363</ele>
        <time>2016-01-28T09:56:21.148Z</time>
      </trkpt>
      <trkpt lat="45.94368" lon="4.39626">
        <ele>880.618652344</ele>
        <time>2016-01-28T09:56:29.177Z</time>
      </trkpt>
      <trkpt lat="45.94369" lon="4.39627">
        <ele>880.721923828</ele>
        <time>2016-01-28T09:56:30.148Z</time>
      </trkpt>
      <trkpt lat="45.9437" lon="4.39639">
        <ele>880.710388184</ele>
        <time>2016-01-28T09:56:54.172Z</time>
      </trkpt>
      <trkpt lat="45.9437" lon="4.3964">
        <ele>880.727355957</ele>
        <time>2016-01-28T09:56:55.14Z</time>
      </trkpt>
      <trkpt lat="45.94365" lon="4.3965">
        <ele>881.389648438</ele>
        <time>2016-01-28T09:57:17.287Z</time>
      </trkpt>
      <trkpt lat="45.94365" lon="4.39651">
        <ele>881.456542969</ele>
        <time>2016-01-28T09:57:18.15Z</time>
      </trkpt>
      <trkpt lat="45.94363" lon="4.39662">
        <ele>881.822692871</ele>
        <time>2016-01-28T09:57:22.178Z</time>
      </trkpt>
      <trkpt lat="45.94362" lon="4.39665">
        <ele>881.888183594</ele>
        <time>2016-01-28T09:57:23.16Z</time>
      </trkpt>
      <trkpt lat="45.9436" lon="4.39676">
        <ele>881.713684082</ele>
        <time>2016-01-28T09:57:29.177Z</time>
      </trkpt>
      <trkpt lat="45.94359" lon="4.39677">
        <ele>881.575561523</ele>
        <time>2016-01-28T09:57:30.158Z</time>
      </trkpt>
      <trkpt lat="45.94356" lon="4.39686">
        <ele>880.89855957</ele>
        <time>2016-01-28T09:57:35.201Z</time>
      </trkpt>
      <trkpt lat="45.94354" lon="4.39689">
        <ele>880.737365723</ele>
        <time>2016-01-28T09:57:36.157Z</time>
      </trkpt>
      <trkpt lat="45.94353" lon="4.39701">
        <ele>880.501281738</ele>
        <time>2016-01-28T09:57:39.179Z</time>
      </trkpt>
      <trkpt lat="45.94353" lon="4.39704">
        <ele>880.346130371</ele>
        <time>2016-01-28T09:57:40.145Z</time>
      </trkpt>
      <trkpt lat="45.94352" lon="4.39717">
        <ele>877.989685059</ele>
        <time>2016-01-28T09:57:52.176Z</time>
      </trkpt>
      <trkpt lat="45.94352" lon="4.39718">
        <ele>877.879333496</ele>
        <time>2016-01-28T09:57:53.151Z</time>
      </trkpt>
      <trkpt lat="45.9435" lon="4.39729">
        <ele>877.341552734</ele>
        <time>2016-01-28T09:57:56.195Z</time>
      </trkpt>
      <trkpt lat="45.94349" lon="4.39732">
        <ele>877.185546875</ele>
        <time>2016-01-28T09:57:57.162Z</time>
      </trkpt>
      <trkpt lat="45.94349" lon="4.39744">
        <ele>875.971435547</ele>
        <time>2016-01-28T09:58:03.202Z</time>
      </trkpt>
      <trkpt lat="45.94348" lon="4.39746">
        <ele>875.653320312</ele>
        <time>2016-01-28T09:58:04.146Z</time>
      </trkpt>
      <trkpt lat="45.94344" lon="4.39755">
        <ele>874.124450684</ele>
        <time>2016-01-28T09:58:09.185Z</time>
      </trkpt>
      <trkpt lat="45.94343" lon="4.39758">
        <ele>873.719543457</ele>
        <time>2016-01-28T09:58:10.133Z</time>
      </trkpt>
      <trkpt lat="45.94337" lon="4.39767">
        <ele>870.650634766</ele>
        <time>2016-01-28T09:58:19.158Z</time>
      </trkpt>
      <trkpt lat="45.94336" lon="4.39768">
        <ele>870.46270752</ele>
        <time>2016-01-28T09:58:20.158Z</time>
      </trkpt>
      <trkpt lat="45.9433" lon="4.39775">
        <ele>868.641235352</ele>
        <time>2016-01-28T09:58:27.19Z</time>
      </trkpt>
      <trkpt lat="45.94329" lon="4.39777">
        <ele>868.272338867</ele>
        <time>2016-01-28T09:58:28.15Z</time>
      </trkpt>
      <trkpt lat="45.94323" lon="4.39786">
        <ele>866.399719238</ele>
        <time>2016-01-28T09:58:33.181Z</time>
      </trkpt>
      <trkpt lat="45.94322" lon="4.39787">
        <ele>866.067382812</ele>
        <time>2016-01-28T09:58:34.158Z</time>
      </trkpt>
      <trkpt lat="45.94316" lon="4.39795">
        <ele>863.657409668</ele>
        <time>2016-01-28T09:58:42.182Z</time>
      </trkpt>
      <trkpt lat="45.94315" lon="4.39796">
        <ele>863.315368652</ele>
        <time>2016-01-28T09:58:43.142Z</time>
      </trkpt>
      <trkpt lat="45.94309" lon="4.39803">
        <ele>862.112609863</ele>
        <time>2016-01-28T09:58:48.15Z</time>
      </trkpt>
      <trkpt lat="45.94308" lon="4.39805">
        <ele>861.975463867</ele>
        <time>2016-01-28T09:58:49.125Z</time>
      </trkpt>
      <trkpt lat="45.94303" lon="4.39815">
        <ele>860.523986816</ele>
        <time>2016-01-28T09:58:55.144Z</time>
      </trkpt>
      <trkpt lat="45.94302" lon="4.39816">
        <ele>860.225219727</ele>
        <time>2016-01-28T09:58:56.124Z</time>
      </trkpt>
      <trkpt lat="45.94298" lon="4.39828">
        <ele>858.635498047</ele>
        <time>2016-01-28T09:59:02.157Z</time>
      </trkpt>
      <trkpt lat="45.94297" lon="4.3983">
        <ele>858.414489746</ele>
        <time>2016-01-28T09:59:03.125Z</time>
      </trkpt>
      <trkpt lat="45.94289" lon="4.39835">
        <ele>855.629455566</ele>
        <time>2016-01-28T09:59:27.161Z</time>
      </trkpt>
      <trkpt lat="45.94288" lon="4.39835">
        <ele>855.613708496</ele>
        <time>2016-01-28T09:59:28.134Z</time>
      </trkpt>
      <trkpt lat="45.94288" lon="4.39846">
        <ele>853.19342041</ele>
        <time>2016-01-28T10:00:21.156Z</time>
      </trkpt>
      <trkpt lat="45.94288" lon="4.39848">
        <ele>852.98059082</ele>
        <time>2016-01-28T10:00:22.129Z</time>
      </trkpt>
      <trkpt lat="45.94285" lon="4.39858">
        <ele>852.080688477</ele>
        <time>2016-01-28T10:00:27.146Z</time>
      </trkpt>
      <trkpt lat="45.94285" lon="4.39861">
        <ele>851.897460938</ele>
        <time>2016-01-28T10:00:28.132Z</time>
      </trkpt>
      <trkpt lat="45.94284" lon="4.39874">
        <ele>850.055541992</ele>
        <time>2016-01-28T10:00:37.158Z</time>
      </trkpt>
      <trkpt lat="45.94284" lon="4.39875">
        <ele>849.837524414</ele>
        <time>2016-01-28T10:00:38.142Z</time>
      </trkpt>
      <trkpt lat="45.94283" lon="4.39887">
        <ele>848.334350586</ele>
        <time>2016-01-28T10:00:46.163Z</time>
      </trkpt>
      <trkpt lat="45.94283" lon="4.39888">
        <ele>848.159484863</ele>
        <time>2016-01-28T10:00:47.138Z</time>
      </trkpt>
      <trkpt lat="45.94281" lon="4.39899">
        <ele>846.372375488</ele>
        <time>2016-01-28T10:00:57.163Z</time>
      </trkpt>
      <trkpt lat="45.94281" lon="4.39901">
        <ele>846.214538574</ele>
        <time>2016-01-28T10:00:58.144Z</time>
      </trkpt>
      <trkpt lat="45.94276" lon="4.39911">
        <ele>845.801391602</ele>
        <time>2016-01-28T10:01:03.17Z</time>
      </trkpt>
      <trkpt lat="45.94275" lon="4.39912">
        <ele>845.75177002</ele>
        <time>2016-01-28T10:01:04.135Z</time>
      </trkpt>
      <trkpt lat="45.94269" lon="4.39921">
        <ele>845.709289551</ele>
        <time>2016-01-28T10:01:10.171Z</time>
      </trkpt>
      <trkpt lat="45.94267" lon="4.39925">
        <ele>845.612792969</ele>
        <time>2016-01-28T10:01:11.136Z</time>
      </trkpt>
      <trkpt lat="45.94263" lon="4.39934">
        <ele>845.062194824</ele>
        <time>2016-01-28T10:01:21.19Z</time>
      </trkpt>
      <trkpt lat="45.94261" lon="4.39935">
        <ele>845.118835449</ele>
        <time>2016-01-28T10:01:22.138Z</time>
      </trkpt>
      <trkpt lat="45.94256" lon="4.39942">
        <ele>845.633789062</ele>
        <time>2016-01-28T10:01:27.171Z</time>
      </trkpt>
      <trkpt lat="45.94254" lon="4.39944">
        <ele>845.694335938</ele>
        <time>2016-01-28T10:01:28.152Z</time>
      </trkpt>
      <trkpt lat="45.94249" lon="4.39952">
        <ele>845.977233887</ele>
        <time>2016-01-28T10:01:36.174Z</time>
      </trkpt>
      <trkpt lat="45.94248" lon="4.39955">
        <ele>845.911621094</ele>
        <time>2016-01-28T10:01:37.134Z</time>
      </trkpt>
      <trkpt lat="45.94243" lon="4.39965">
        <ele>845.614868164</ele>
        <time>2016-01-28T10:01:44.177Z</time>
      </trkpt>
      <trkpt lat="45.94242" lon="4.39966">
        <ele>845.589233398</ele>
        <time>2016-01-28T10:01:45.148Z</time>
      </trkpt>
      <trkpt lat="45.94242" lon="4.39972">
        <ele>845.467407227</ele>
        <time>2016-01-28T10:01:52.167Z</time>
      </trkpt>
      <trkpt lat="45.94238" lon="4.39978">
        <ele>845.384094238</ele>
        <time>2016-01-28T10:01:53.149Z</time>
      </trkpt>
      <trkpt lat="45.94233" lon="4.39987">
        <ele>845.258911133</ele>
        <time>2016-01-28T10:01:59.158Z</time>
      </trkpt>
      <trkpt lat="45.94232" lon="4.39988">
        <ele>845.338500977</ele>
        <time>2016-01-28T10:02:00.148Z</time>
      </trkpt>
      <trkpt lat="45.94228" lon="4.39993">
        <ele>845.397827148</ele>
        <time>2016-01-28T10:02:04.181Z</time>
      </trkpt>
      <trkpt lat="45.94226" lon="4.39999">
        <ele>845.419189453</ele>
        <time>2016-01-28T10:02:05.141Z</time>
      </trkpt>
      <trkpt lat="45.94223" lon="4.4001">
        <ele>845.250488281</ele>
        <time>2016-01-28T10:02:10.184Z</time>
      </trkpt>
      <trkpt lat="45.94223" lon="4.40012">
        <ele>845.237121582</ele>
        <time>2016-01-28T10:02:11.149Z</time>
      </trkpt>
      <trkpt lat="45.9422" lon="4.40022">
        <ele>845.12487793</ele>
        <time>2016-01-28T10:02:17.192Z</time>
      </trkpt>
      <trkpt lat="45.94219" lon="4.40023">
        <ele>845.097473145</ele>
        <time>2016-01-28T10:02:18.151Z</time>
      </trkpt>
      <trkpt lat="45.94216" lon="4.40035">
        <ele>844.802124023</ele>
        <time>2016-01-28T10:02:24.172Z</time>
      </trkpt>
      <trkpt lat="45.94216" lon="4.40036">
        <ele>844.770874023</ele>
        <time>2016-01-28T10:02:25.134Z</time>
      </trkpt>
      <trkpt lat="45.94213" lon="4.40048">
        <ele>844.743774414</ele>
        <time>2016-01-28T10:02:33.176Z</time>
      </trkpt>
      <trkpt lat="45.94212" lon="4.40049">
        <ele>844.778808594</ele>
        <time>2016-01-28T10:02:34.15Z</time>
      </trkpt>
      <trkpt lat="45.9421" lon="4.40061">
        <ele>844.990722656</ele>
        <time>2016-01-28T10:02:40.173Z</time>
      </trkpt>
      <trkpt lat="45.94209" lon="4.40062">
        <ele>844.990905762</ele>
        <time>2016-01-28T10:02:41.152Z</time>
      </trkpt>
      <trkpt lat="45.94207" lon="4.40074">
        <ele>845.566040039</ele>
        <time>2016-01-28T10:02:49.185Z</time>
      </trkpt>
      <trkpt lat="45.94207" lon="4.40076">
        <ele>845.66192627</ele>
        <time>2016-01-28T10:02:50.153Z</time>
      </trkpt>
      <trkpt lat="45.94207" lon="4.40087">
        <ele>846.685241699</ele>
        <time>2016-01-28T10:02:59.177Z</time>
      </trkpt>
      <trkpt lat="45.94207" lon="4.40089">
        <ele>846.801208496</ele>
        <time>2016-01-28T10:03:00.154Z</time>
      </trkpt>
      <trkpt lat="45.94207" lon="4.40101">
        <ele>847.63684082</ele>
        <time>2016-01-28T10:03:07.181Z</time>
      </trkpt>
      <trkpt lat="45.94206" lon="4.40103">
        <ele>847.71472168</ele>
        <time>2016-01-28T10:03:08.153Z</time>
      </trkpt>
      <trkpt lat="45.94206" lon="4.40114">
        <ele>848.404418945</ele>
        <time>2016-01-28T10:03:14.176Z</time>
      </trkpt>
      <trkpt lat="45.94206" lon="4.40116">
        <ele>848.556518555</ele>
        <time>2016-01-28T10:03:15.144Z</time>
      </trkpt>
      <trkpt lat="45.94206" lon="4.40128">
        <ele>849.59777832</ele>
        <time>2016-01-28T10:03:21.185Z</time>
      </trkpt>
      <trkpt lat="45.94207" lon="4.40129">
        <ele>849.788696289</ele>
        <time>2016-01-28T10:03:22.146Z</time>
      </trkpt>
      <trkpt lat="45.94209" lon="4.4014">
        <ele>850.926025391</ele>
        <time>2016-01-28T10:03:28.174Z</time>
      </trkpt>
      <trkpt lat="45.94209" lon="4.40142">
        <ele>851.062866211</ele>
        <time>2016-01-28T10:03:29.155Z</time>
      </trkpt>
      <trkpt lat="45.94211" lon="4.40154">
        <ele>851.963806152</ele>
        <time>2016-01-28T10:03:35.177Z</time>
      </trkpt>
      <trkpt lat="45.94211" lon="4.40156">
        <ele>852.11328125</ele>
        <time>2016-01-28T10:03:36.14Z</time>
      </trkpt>
      <trkpt lat="45.94213" lon="4.40168">
        <ele>852.770690918</ele>
        <time>2016-01-28T10:03:41.178Z</time>
      </trkpt>
      <trkpt lat="45.94214" lon="4.40169">
        <ele>852.875915527</ele>
        <time>2016-01-28T10:03:42.155Z</time>
      </trkpt>
      <trkpt lat="45.94215" lon="4.40181">
        <ele>853.421264648</ele>
        <time>2016-01-28T10:03:49.328Z</time>
      </trkpt>
      <trkpt lat="45.94215" lon="4.40182">
        <ele>853.486633301</ele>
        <time>2016-01-28T10:03:50.146Z</time>
      </trkpt>
      <trkpt lat="45.94218" lon="4.40194">
        <ele>853.668029785</ele>
        <time>2016-01-28T10:03:56.186Z</time>
      </trkpt>
      <trkpt lat="45.94219" lon="4.40196">
        <ele>853.741149902</ele>
        <time>2016-01-28T10:03:57.158Z</time>
      </trkpt>
      <trkpt lat="45.94222" lon="4.40208">
        <ele>854.001098633</ele>
        <time>2016-01-28T10:04:03.14Z</time>
      </trkpt>
      <trkpt lat="45.94222" lon="4.40209">
        <ele>854.008300781</ele>
        <time>2016-01-28T10:04:04.129Z</time>
      </trkpt>
      <trkpt lat="45.94224" lon="4.40221">
        <ele>854.166015625</ele>
        <time>2016-01-28T10:04:10.147Z</time>
      </trkpt>
      <trkpt lat="45.94224" lon="4.40223">
        <ele>854.169372559</ele>
        <time>2016-01-28T10:04:11.131Z</time>
      </trkpt>
      <trkpt lat="45.94227" lon="4.40234">
        <ele>854.001953125</ele>
        <time>2016-01-28T10:04:15.148Z</time>
      </trkpt>
      <trkpt lat="45.94228" lon="4.40238">
        <ele>853.938842773</ele>
        <time>2016-01-28T10:04:16.135Z</time>
      </trkpt>
      <trkpt lat="45.94231" lon="4.40249">
        <ele>852.997802734</ele>
        <time>2016-01-28T10:04:25.159Z</time>
      </trkpt>
      <trkpt lat="45.94232" lon="4.40251">
        <ele>852.862792969</ele>
        <time>2016-01-28T10:04:26.13Z</time>
      </trkpt>
      <trkpt lat="45.94233" lon="4.40262">
        <ele>852.041687012</ele>
        <time>2016-01-28T10:04:33.142Z</time>
      </trkpt>
      <trkpt lat="45.94233" lon="4.40264">
        <ele>851.950195312</ele>
        <time>2016-01-28T10:04:34.132Z</time>
      </trkpt>
      <trkpt lat="45.94234" lon="4.40276">
        <ele>851.321594238</ele>
        <time>2016-01-28T10:04:39.155Z</time>
      </trkpt>
      <trkpt lat="45.94235" lon="4.40277">
        <ele>851.168579102</ele>
        <time>2016-01-28T10:04:40.129Z</time>
      </trkpt>
      <trkpt lat="45.94235" lon="4.4029">
        <ele>849.942260742</ele>
        <time>2016-01-28T10:04:47.184Z</time>
      </trkpt>
      <trkpt lat="45.94235" lon="4.40292">
        <ele>849.704467773</ele>
        <time>2016-01-28T10:04:48.139Z</time>
      </trkpt>
      <trkpt lat="45.94237" lon="4.40304">
        <ele>848.555908203</ele>
        <time>2016-01-28T10:04:55.17Z</time>
      </trkpt>
      <trkpt lat="45.94237" lon="4.4031">
        <ele>848.378173828</ele>
        <time>2016-01-28T10:04:56.137Z</time>
      </trkpt>
      <trkpt lat="45.94237" lon="4.40321">
        <ele>847.002258301</ele>
        <time>2016-01-28T10:05:04.159Z</time>
      </trkpt>
      <trkpt lat="45.94237" lon="4.40323">
        <ele>846.782104492</ele>
        <time>2016-01-28T10:05:05.132Z</time>
      </trkpt>
      <trkpt lat="45.94235" lon="4.40335">
        <ele>845.360717773</ele>
        <time>2016-01-28T10:05:12.148Z</time>
      </trkpt>
      <trkpt lat="45.94235" lon="4.40337">
        <ele>845.156494141</ele>
        <time>2016-01-28T10:05:13.138Z</time>
      </trkpt>
      <trkpt lat="45.94234" lon="4.40348">
        <ele>843.685913086</ele>
        <time>2016-01-28T10:05:19.152Z</time>
      </trkpt>
      <trkpt lat="45.94233" lon="4.4035">
        <ele>843.289123535</ele>
        <time>2016-01-28T10:05:20.132Z</time>
      </trkpt>
      <trkpt lat="45.94231" lon="4.40361">
        <ele>840.758789062</ele>
        <time>2016-01-28T10:05:27.145Z</time>
      </trkpt>
      <trkpt lat="45.94231" lon="4.40363">
        <ele>840.401123047</ele>
        <time>2016-01-28T10:05:28.135Z</time>
      </trkpt>
      <trkpt lat="45.94228" lon="4.40374">
        <ele>837.664611816</ele>
        <time>2016-01-28T10:05:37.155Z</time>
      </trkpt>
      <trkpt lat="45.94228" lon="4.40376">
        <ele>837.362060547</ele>
        <time>2016-01-28T10:05:38.133Z</time>
      </trkpt>
      <trkpt lat="45.94224" lon="4.40387">
        <ele>835.712402344</ele>
        <time>2016-01-28T10:05:46.157Z</time>
      </trkpt>
      <trkpt lat="45.94224" lon="4.40388">
        <ele>835.629150391</ele>
        <time>2016-01-28T10:05:47.142Z</time>
      </trkpt>
      <trkpt lat="45.94219" lon="4.40399">
        <ele>834.720275879</ele>
        <time>2016-01-28T10:05:53.217Z</time>
      </trkpt>
      <trkpt lat="45.94219" lon="4.40401">
        <ele>834.626342773</ele>
        <time>2016-01-28T10:05:54.149Z</time>
      </trkpt>
      <trkpt lat="45.94214" lon="4.40411">
        <ele>833.568481445</ele>
        <time>2016-01-28T10:06:01.175Z</time>
      </trkpt>
      <trkpt lat="45.94214" lon="4.40413">
        <ele>833.374816895</ele>
        <time>2016-01-28T10:06:02.134Z</time>
      </trkpt>
      <trkpt lat="45.9421" lon="4.40422">
        <ele>832.704345703</ele>
        <time>2016-01-28T10:06:06.144Z</time>
      </trkpt>
      <trkpt lat="45.94209" lon="4.40424">
        <ele>832.543212891</ele>
        <time>2016-01-28T10:06:07.132Z</time>
      </trkpt>
      <trkpt lat="45.94208" lon="4.40435">
        <ele>831.757385254</ele>
        <time>2016-01-28T10:06:11.16Z</time>
      </trkpt>
      <trkpt lat="45.94208" lon="4.40437">
        <ele>831.530395508</ele>
        <time>2016-01-28T10:06:12.147Z</time>
      </trkpt>
      <trkpt lat="45.94204" lon="4.40446">
        <ele>828.505310059</ele>
        <time>2016-01-28T10:06:22.181Z</time>
      </trkpt>
      <trkpt lat="45.94203" lon="4.40449">
        <ele>828.325012207</ele>
        <time>2016-01-28T10:06:23.141Z</time>
      </trkpt>
      <trkpt lat="45.94198" lon="4.40457">
        <ele>827.549316406</ele>
        <time>2016-01-28T10:06:27.153Z</time>
      </trkpt>
      <trkpt lat="45.94196" lon="4.40459">
        <ele>827.354614258</ele>
        <time>2016-01-28T10:06:28.135Z</time>
      </trkpt>
      <trkpt lat="45.9419" lon="4.40466">
        <ele>826.684631348</ele>
        <time>2016-01-28T10:06:32.167Z</time>
      </trkpt>
      <trkpt lat="45.94188" lon="4.40467">
        <ele>826.571716309</ele>
        <time>2016-01-28T10:06:33.135Z</time>
      </trkpt>
      <trkpt lat="45.94183" lon="4.40477">
        <ele>826.390136719</ele>
        <time>2016-01-28T10:06:42.154Z</time>
      </trkpt>
      <trkpt lat="45.94182" lon="4.40479">
        <ele>826.275146484</ele>
        <time>2016-01-28T10:06:43.137Z</time>
      </trkpt>
      <trkpt lat="45.94176" lon="4.40487">
        <ele>825.160766602</ele>
        <time>2016-01-28T10:06:50.155Z</time>
      </trkpt>
      <trkpt lat="45.94175" lon="4.40488">
        <ele>825.096984863</ele>
        <time>2016-01-28T10:06:51.134Z</time>
      </trkpt>
      <trkpt lat="45.9417" lon="4.40496">
        <ele>824.593078613</ele>
        <time>2016-01-28T10:06:55.151Z</time>
      </trkpt>
      <trkpt lat="45.94169" lon="4.40498">
        <ele>824.45501709</ele>
        <time>2016-01-28T10:06:56.122Z</time>
      </trkpt>
      <trkpt lat="45.94165" lon="4.40509">
        <ele>822.823242188</ele>
        <time>2016-01-28T10:07:04.177Z</time>
      </trkpt>
      <trkpt lat="45.94164" lon="4.40511">
        <ele>822.580932617</ele>
        <time>2016-01-28T10:07:05.137Z</time>
      </trkpt>
      <trkpt lat="45.94159" lon="4.40517">
        <ele>821.633728027</ele>
        <time>2016-01-28T10:07:10.152Z</time>
      </trkpt>
      <trkpt lat="45.94157" lon="4.40519">
        <ele>821.516784668</ele>
        <time>2016-01-28T10:07:11.143Z</time>
      </trkpt>
      <trkpt lat="45.94151" lon="4.40528">
        <ele>820.922851562</ele>
        <time>2016-01-28T10:07:23.16Z</time>
      </trkpt>
      <trkpt lat="45.9415" lon="4.40529">
        <ele>821.01940918</ele>
        <time>2016-01-28T10:07:24.138Z</time>
      </trkpt>
      <trkpt lat="45.94144" lon="4.40537">
        <ele>821.294250488</ele>
        <time>2016-01-28T10:07:29.179Z</time>
      </trkpt>
      <trkpt lat="45.94143" lon="4.40538">
        <ele>821.372924805</ele>
        <time>2016-01-28T10:07:30.139Z</time>
      </trkpt>
      <trkpt lat="45.94138" lon="4.40547">
        <ele>821.590942383</ele>
        <time>2016-01-28T10:07:34.149Z</time>
      </trkpt>
      <trkpt lat="45.94138" lon="4.4055">
        <ele>821.521789551</ele>
        <time>2016-01-28T10:07:35.149Z</time>
      </trkpt>
      <trkpt lat="45.94134" lon="4.4056">
        <ele>821.174804688</ele>
        <time>2016-01-28T10:07:42.161Z</time>
      </trkpt>
      <trkpt lat="45.94133" lon="4.40561">
        <ele>821.148071289</ele>
        <time>2016-01-28T10:07:43.136Z</time>
      </trkpt>
      <trkpt lat="45.94128" lon="4.4057">
        <ele>821.163024902</ele>
        <time>2016-01-28T10:07:49.175Z</time>
      </trkpt>
      <trkpt lat="45.94127" lon="4.40572">
        <ele>821.090148926</ele>
        <time>2016-01-28T10:07:50.158Z</time>
      </trkpt>
      <trkpt lat="45.94121" lon="4.40582">
        <ele>821.318603516</ele>
        <time>2016-01-28T10:07:57.172Z</time>
      </trkpt>
      <trkpt lat="45.9412" lon="4.40584">
        <ele>821.248901367</ele>
        <time>2016-01-28T10:07:58.143Z</time>
      </trkpt>
      <trkpt lat="45.94116" lon="4.40596">
        <ele>820.961975098</ele>
        <time>2016-01-28T10:08:05.18Z</time>
      </trkpt>
      <trkpt lat="45.94116" lon="4.40597">
        <ele>820.959899902</ele>
        <time>2016-01-28T10:08:06.144Z</time>
      </trkpt>
      <trkpt lat="45.9411" lon="4.40605">
        <ele>821.849182129</ele>
        <time>2016-01-28T10:08:14.264Z</time>
      </trkpt>
      <trkpt lat="45.94109" lon="4.40607">
        <ele>821.90057373</ele>
        <time>2016-01-28T10:08:15.159Z</time>
      </trkpt>
      <trkpt lat="45.94104" lon="4.40615">
        <ele>822.361450195</ele>
        <time>2016-01-28T10:08:22.191Z</time>
      </trkpt>
      <trkpt lat="45.94103" lon="4.40617">
        <ele>822.465881348</ele>
        <time>2016-01-28T10:08:23.154Z</time>
      </trkpt>
      <trkpt lat="45.94097" lon="4.40625">
        <ele>822.610900879</ele>
        <time>2016-01-28T10:08:28.187Z</time>
      </trkpt>
      <trkpt lat="45.94096" lon="4.40626">
        <ele>822.621520996</ele>
        <time>2016-01-28T10:08:29.141Z</time>
      </trkpt>
      <trkpt lat="45.94092" lon="4.40636">
        <ele>822.575927734</ele>
        <time>2016-01-28T10:08:35.179Z</time>
      </trkpt>
      <trkpt lat="45.94091" lon="4.40637">
        <ele>822.587036133</ele>
        <time>2016-01-28T10:08:36.139Z</time>
      </trkpt>
      <trkpt lat="45.94089" lon="4.40649">
        <ele>823.013122559</ele>
        <time>2016-01-28T10:08:43.176Z</time>
      </trkpt>
      <trkpt lat="45.94088" lon="4.40651">
        <ele>823.131713867</ele>
        <time>2016-01-28T10:08:44.151Z</time>
      </trkpt>
      <trkpt lat="45.94085" lon="4.40661">
        <ele>823.22277832</ele>
        <time>2016-01-28T10:08:50.165Z</time>
      </trkpt>
      <trkpt lat="45.94084" lon="4.40663">
        <ele>823.233764648</ele>
        <time>2016-01-28T10:08:51.149Z</time>
      </trkpt>
      <trkpt lat="45.94079" lon="4.40673">
        <ele>823.936889648</ele>
        <time>2016-01-28T10:08:59.181Z</time>
      </trkpt>
      <trkpt lat="45.94078" lon="4.40674">
        <ele>824.040466309</ele>
        <time>2016-01-28T10:09:00.15Z</time>
      </trkpt>
      <trkpt lat="45.94074" lon="4.40683">
        <ele>825.087341309</ele>
        <time>2016-01-28T10:09:08.162Z</time>
      </trkpt>
      <trkpt lat="45.94073" lon="4.40686">
        <ele>825.22076416</ele>
        <time>2016-01-28T10:09:09.151Z</time>
      </trkpt>
      <trkpt lat="45.94067" lon="4.40694">
        <ele>825.848022461</ele>
        <time>2016-01-28T10:09:13.178Z</time>
      </trkpt>
      <trkpt lat="45.94066" lon="4.40695">
        <ele>826.031860352</ele>
        <time>2016-01-28T10:09:14.145Z</time>
      </trkpt>
      <trkpt lat="45.94063" lon="4.40707">
        <ele>826.487060547</ele>
        <time>2016-01-28T10:09:20.161Z</time>
      </trkpt>
      <trkpt lat="45.94062" lon="4.40708">
        <ele>826.567504883</ele>
        <time>2016-01-28T10:09:21.129Z</time>
      </trkpt>
      <trkpt lat="45.9406" lon="4.40719">
        <ele>827.19744873</ele>
        <time>2016-01-28T10:09:31.145Z</time>
      </trkpt>
      <trkpt lat="45.94059" lon="4.40721">
        <ele>827.328063965</ele>
        <time>2016-01-28T10:09:32.13Z</time>
      </trkpt>
      <trkpt lat="45.94055" lon="4.40731">
        <ele>827.437438965</ele>
        <time>2016-01-28T10:09:38.151Z</time>
      </trkpt>
      <trkpt lat="45.94055" lon="4.40734">
        <ele>827.476806641</ele>
        <time>2016-01-28T10:09:39.129Z</time>
      </trkpt>
      <trkpt lat="45.94052" lon="4.40745">
        <ele>827.161132812</ele>
        <time>2016-01-28T10:09:45.146Z</time>
      </trkpt>
      <trkpt lat="45.94051" lon="4.40747">
        <ele>827.188537598</ele>
        <time>2016-01-28T10:09:46.134Z</time>
      </trkpt>
      <trkpt lat="45.94047" lon="4.40757">
        <ele>827.437866211</ele>
        <time>2016-01-28T10:09:52.145Z</time>
      </trkpt>
      <trkpt lat="45.94047" lon="4.40759">
        <ele>827.457519531</ele>
        <time>2016-01-28T10:09:53.134Z</time>
      </trkpt>
      <trkpt lat="45.94046" lon="4.4077">
        <ele>827.741149902</ele>
        <time>2016-01-28T10:10:02.142Z</time>
      </trkpt>
      <trkpt lat="45.94045" lon="4.40773">
        <ele>827.76171875</ele>
        <time>2016-01-28T10:10:03.131Z</time>
      </trkpt>
      <trkpt lat="45.94043" lon="4.40784">
        <ele>827.089050293</ele>
        <time>2016-01-28T10:10:09.197Z</time>
      </trkpt>
      <trkpt lat="45.94042" lon="4.40787">
        <ele>826.908325195</ele>
        <time>2016-01-28T10:10:10.137Z</time>
      </trkpt>
      <trkpt lat="45.94039" lon="4.40797">
        <ele>826.133483887</ele>
        <time>2016-01-28T10:10:14.145Z</time>
      </trkpt>
      <trkpt lat="45.94039" lon="4.40799">
        <ele>825.941711426</ele>
        <time>2016-01-28T10:10:15.13Z</time>
      </trkpt>
      <trkpt lat="45.94037" lon="4.40811">
        <ele>825.048828125</ele>
        <time>2016-01-28T10:10:21.149Z</time>
      </trkpt>
      <trkpt lat="45.94037" lon="4.40814">
        <ele>824.775878906</ele>
        <time>2016-01-28T10:10:22.131Z</time>
      </trkpt>
      <trkpt lat="45.94035" lon="4.40826">
        <ele>823.151062012</ele>
        <time>2016-01-28T10:10:27.148Z</time>
      </trkpt>
      <trkpt lat="45.94035" lon="4.40827">
        <ele>822.81237793</ele>
        <time>2016-01-28T10:10:28.132Z</time>
      </trkpt>
      <trkpt lat="45.94035" lon="4.40838">
        <ele>820.661987305</ele>
        <time>2016-01-28T10:10:35.156Z</time>
      </trkpt>
      <trkpt lat="45.94035" lon="4.40841">
        <ele>820.508178711</ele>
        <time>2016-01-28T10:10:36.132Z</time>
      </trkpt>
      <trkpt lat="45.94035" lon="4.40853">
        <ele>819.219421387</ele>
        <time>2016-01-28T10:10:43.177Z</time>
      </trkpt>
      <trkpt lat="45.94035" lon="4.40854">
        <ele>819.005859375</ele>
        <time>2016-01-28T10:10:44.132Z</time>
      </trkpt>
      <trkpt lat="45.94035" lon="4.40865">
        <ele>815.969360352</ele>
        <time>2016-01-28T10:10:53.154Z</time>
      </trkpt>
      <trkpt lat="45.94035" lon="4.40867">
        <ele>815.787109375</ele>
        <time>2016-01-28T10:10:54.131Z</time>
      </trkpt>
      <trkpt lat="45.94034" lon="4.40879">
        <ele>815.029663086</ele>
        <time>2016-01-28T10:11:00.151Z</time>
      </trkpt>
      <trkpt lat="45.94034" lon="4.4088">
        <ele>814.930786133</ele>
        <time>2016-01-28T10:11:01.133Z</time>
      </trkpt>
      <trkpt lat="45.94032" lon="4.40891">
        <ele>813.675964355</ele>
        <time>2016-01-28T10:11:10.255Z</time>
      </trkpt>
      <trkpt lat="45.94031" lon="4.40893">
        <ele>813.469970703</ele>
        <time>2016-01-28T10:11:11.144Z</time>
      </trkpt>
      <trkpt lat="45.94028" lon="4.40903">
        <ele>812.375488281</ele>
        <time>2016-01-28T10:11:16.151Z</time>
      </trkpt>
      <trkpt lat="45.94026" lon="4.40909">
        <ele>812.138549805</ele>
        <time>2016-01-28T10:11:17.136Z</time>
      </trkpt>
      <trkpt lat="45.94022" lon="4.4092">
        <ele>810.402770996</ele>
        <time>2016-01-28T10:11:25.156Z</time>
      </trkpt>
      <trkpt lat="45.94021" lon="4.40921">
        <ele>810.186828613</ele>
        <time>2016-01-28T10:11:26.134Z</time>
      </trkpt>
      <trkpt lat="45.94016" lon="4.4093">
        <ele>809.170043945</ele>
        <time>2016-01-28T10:11:31.167Z</time>
      </trkpt>
      <trkpt lat="45.94016" lon="4.40931">
        <ele>808.927490234</ele>
        <time>2016-01-28T10:11:32.133Z</time>
      </trkpt>
      <trkpt lat="45.94012" lon="4.40941">
        <ele>807.445739746</ele>
        <time>2016-01-28T10:11:40.223Z</time>
      </trkpt>
      <trkpt lat="45.94012" lon="4.40943">
        <ele>807.262207031</ele>
        <time>2016-01-28T10:11:41.145Z</time>
      </trkpt>
      <trkpt lat="45.94008" lon="4.40954">
        <ele>805.431274414</ele>
        <time>2016-01-28T10:11:49.18Z</time>
      </trkpt>
      <trkpt lat="45.94008" lon="4.40957">
        <ele>805.181274414</ele>
        <time>2016-01-28T10:11:50.135Z</time>
      </trkpt>
      <trkpt lat="45.94006" lon="4.40969">
        <ele>804.18371582</ele>
        <time>2016-01-28T10:11:54.149Z</time>
      </trkpt>
      <trkpt lat="45.94005" lon="4.4097">
        <ele>803.932250977</ele>
        <time>2016-01-28T10:11:55.141Z</time>
      </trkpt>
      <trkpt lat="45.94002" lon="4.4098">
        <ele>800.736328125</ele>
        <time>2016-01-28T10:12:05.154Z</time>
      </trkpt>
      <trkpt lat="45.94001" lon="4.40983">
        <ele>800.348327637</ele>
        <time>2016-01-28T10:12:06.14Z</time>
      </trkpt>
      <trkpt lat="45.94" lon="4.40994">
        <ele>796.254577637</ele>
        <time>2016-01-28T10:12:16.272Z</time>
      </trkpt>
      <trkpt lat="45.93998" lon="4.40997">
        <ele>795.782653809</ele>
        <time>2016-01-28T10:12:17.139Z</time>
      </trkpt>
      <trkpt lat="45.93994" lon="4.41008">
        <ele>792.198486328</ele>
        <time>2016-01-28T10:12:29.174Z</time>
      </trkpt>
      <trkpt lat="45.93994" lon="4.41009">
        <ele>792.033691406</ele>
        <time>2016-01-28T10:12:30.136Z</time>
      </trkpt>
      <trkpt lat="45.9399" lon="4.41021">
        <ele>789.957824707</ele>
        <time>2016-01-28T10:12:40.163Z</time>
      </trkpt>
      <trkpt lat="45.93989" lon="4.41021">
        <ele>789.854614258</ele>
        <time>2016-01-28T10:12:41.137Z</time>
      </trkpt>
      <trkpt lat="45.93989" lon="4.41033">
        <ele>789.007507324</ele>
        <time>2016-01-28T10:12:49.167Z</time>
      </trkpt>
      <trkpt lat="45.93989" lon="4.41034">
        <ele>788.94934082</ele>
        <time>2016-01-28T10:12:50.136Z</time>
      </trkpt>
      <trkpt lat="45.9399" lon="4.41045">
        <ele>788.217590332</ele>
        <time>2016-01-28T10:12:57.18Z</time>
      </trkpt>
      <trkpt lat="45.9399" lon="4.41047">
        <ele>788.190551758</ele>
        <time>2016-01-28T10:12:58.134Z</time>
      </trkpt>
      <trkpt lat="45.9399" lon="4.41058">
        <ele>787.931274414</ele>
        <time>2016-01-28T10:13:03.164Z</time>
      </trkpt>
      <trkpt lat="45.93989" lon="4.4106">
        <ele>787.867126465</ele>
        <time>2016-01-28T10:13:04.138Z</time>
      </trkpt>
      <trkpt lat="45.93987" lon="4.41072">
        <ele>787.850524902</ele>
        <time>2016-01-28T10:13:10.161Z</time>
      </trkpt>
      <trkpt lat="45.93987" lon="4.41074">
        <ele>787.900817871</ele>
        <time>2016-01-28T10:13:11.14Z</time>
      </trkpt>
      <trkpt lat="45.93988" lon="4.41084">
        <ele>787.886535645</ele>
        <time>2016-01-28T10:13:17.157Z</time>
      </trkpt>
      <trkpt lat="45.93988" lon="4.41087">
        <ele>787.865600586</ele>
        <time>2016-01-28T10:13:18.143Z</time>
      </trkpt>
      <trkpt lat="45.93987" lon="4.41099">
        <ele>787.712402344</ele>
        <time>2016-01-28T10:13:22.269Z</time>
      </trkpt>
      <trkpt lat="45.93987" lon="4.41101">
        <ele>787.586791992</ele>
        <time>2016-01-28T10:13:23.18Z</time>
      </trkpt>
      <trkpt lat="45.93986" lon="4.41113">
        <ele>787.388000488</ele>
        <time>2016-01-28T10:13:26.164Z</time>
      </trkpt>
      <trkpt lat="45.93986" lon="4.41116">
        <ele>787.257995605</ele>
        <time>2016-01-28T10:13:27.139Z</time>
      </trkpt>
      <trkpt lat="45.93983" lon="4.41128">
        <ele>786.563293457</ele>
        <time>2016-01-28T10:13:35.178Z</time>
      </trkpt>
      <trkpt lat="45.93982" lon="4.41129">
        <ele>786.432434082</ele>
        <time>2016-01-28T10:13:36.152Z</time>
      </trkpt>
      <trkpt lat="45.93984" lon="4.41141">
        <ele>784.654785156</ele>
        <time>2016-01-28T10:13:44.175Z</time>
      </trkpt>
      <trkpt lat="45.93985" lon="4.41143">
        <ele>784.264221191</ele>
        <time>2016-01-28T10:13:45.159Z</time>
      </trkpt>
      <trkpt lat="45.93983" lon="4.41153">
        <ele>783.098144531</ele>
        <time>2016-01-28T10:13:50.165Z</time>
      </trkpt>
      <trkpt lat="45.93982" lon="4.41159">
        <ele>782.932189941</ele>
        <time>2016-01-28T10:13:51.141Z</time>
      </trkpt>
      <trkpt lat="45.93979" lon="4.41171">
        <ele>782.240234375</ele>
        <time>2016-01-28T10:13:55.171Z</time>
      </trkpt>
      <trkpt lat="45.93979" lon="4.41174">
        <ele>782.057739258</ele>
        <time>2016-01-28T10:13:56.145Z</time>
      </trkpt>
      <trkpt lat="45.93978" lon="4.41187">
        <ele>780.885681152</ele>
        <time>2016-01-28T10:14:03.185Z</time>
      </trkpt>
      <trkpt lat="45.93978" lon="4.41187">
        <ele>780.753662109</ele>
        <time>2016-01-28T10:14:04.152Z</time>
      </trkpt>
      <trkpt lat="45.93977" lon="4.41199">
        <ele>780.147277832</ele>
        <time>2016-01-28T10:14:10.185Z</time>
      </trkpt>
      <trkpt lat="45.93977" lon="4.412">
        <ele>780.059692383</ele>
        <time>2016-01-28T10:14:11.158Z</time>
      </trkpt>
      <trkpt lat="45.93976" lon="4.41212">
        <ele>779.734436035</ele>
        <time>2016-01-28T10:14:18.183Z</time>
      </trkpt>
      <trkpt lat="45.93976" lon="4.41216">
        <ele>779.647277832</ele>
        <time>2016-01-28T10:14:19.155Z</time>
      </trkpt>
      <trkpt lat="45.93976" lon="4.41227">
        <ele>779.314758301</ele>
        <time>2016-01-28T10:14:24.178Z</time>
      </trkpt>
      <trkpt lat="45.93975" lon="4.4123">
        <ele>779.253417969</ele>
        <time>2016-01-28T10:14:25.155Z</time>
      </trkpt>
      <trkpt lat="45.93971" lon="4.41241">
        <ele>778.805297852</ele>
        <time>2016-01-28T10:14:31.145Z</time>
      </trkpt>
      <trkpt lat="45.93971" lon="4.41242">
        <ele>778.715515137</ele>
        <time>2016-01-28T10:14:32.123Z</time>
      </trkpt>
      <trkpt lat="45.93968" lon="4.41253">
        <ele>778.23248291</ele>
        <time>2016-01-28T10:14:39.16Z</time>
      </trkpt>
      <trkpt lat="45.93967" lon="4.41255">
        <ele>778.159423828</ele>
        <time>2016-01-28T10:14:40.135Z</time>
      </trkpt>
      <trkpt lat="45.93963" lon="4.41266">
        <ele>777.711975098</ele>
        <time>2016-01-28T10:14:46.145Z</time>
      </trkpt>
      <trkpt lat="45.93962" lon="4.41267">
        <ele>777.642333984</ele>
        <time>2016-01-28T10:14:47.136Z</time>
      </trkpt>
      <trkpt lat="45.9396" lon="4.41278">
        <ele>777.33013916</ele>
        <time>2016-01-28T10:14:54.141Z</time>
      </trkpt>
      <trkpt lat="45.9396" lon="4.4128">
        <ele>777.305175781</ele>
        <time>2016-01-28T10:14:55.126Z</time>
      </trkpt>
      <trkpt lat="45.9396" lon="4.41291">
        <ele>777.177734375</ele>
        <time>2016-01-28T10:15:01.166Z</time>
      </trkpt>
      <trkpt lat="45.9396" lon="4.41293">
        <ele>777.151000977</ele>
        <time>2016-01-28T10:15:02.125Z</time>
      </trkpt>
      <trkpt lat="45.93959" lon="4.41306">
        <ele>776.896850586</ele>
        <time>2016-01-28T10:15:09.155Z</time>
      </trkpt>
      <trkpt lat="45.93959" lon="4.41307">
        <ele>776.867980957</ele>
        <time>2016-01-28T10:15:10.137Z</time>
      </trkpt>
      <trkpt lat="45.93956" lon="4.41318">
        <ele>776.803222656</ele>
        <time>2016-01-28T10:15:14.146Z</time>
      </trkpt>
      <trkpt lat="45.93956" lon="4.4132">
        <ele>776.777160645</ele>
        <time>2016-01-28T10:15:15.131Z</time>
      </trkpt>
      <trkpt lat="45.93953" lon="4.41332">
        <ele>776.026855469</ele>
        <time>2016-01-28T10:15:24.148Z</time>
      </trkpt>
      <trkpt lat="45.93953" lon="4.41333">
        <ele>775.947387695</ele>
        <time>2016-01-28T10:15:25.119Z</time>
      </trkpt>
      <trkpt lat="45.93951" lon="4.41346">
        <ele>775.484619141</ele>
        <time>2016-01-28T10:15:51.165Z</time>
      </trkpt>
      <trkpt lat="45.93951" lon="4.41346">
        <ele>775.478088379</ele>
        <time>2016-01-28T10:15:52.131Z</time>
      </trkpt>
      <trkpt lat="45.93947" lon="4.41356">
        <ele>775.051147461</ele>
        <time>2016-01-28T10:16:05.158Z</time>
      </trkpt>
      <trkpt lat="45.93946" lon="4.41358">
        <ele>775.124633789</ele>
        <time>2016-01-28T10:16:06.119Z</time>
      </trkpt>
      <trkpt lat="45.93941" lon="4.41368">
        <ele>775.583862305</ele>
        <time>2016-01-28T10:16:15.15Z</time>
      </trkpt>
      <trkpt lat="45.93941" lon="4.4137">
        <ele>775.593139648</ele>
        <time>2016-01-28T10:16:16.125Z</time>
      </trkpt>
      <trkpt lat="45.93938" lon="4.41381">
        <ele>775.640319824</ele>
        <time>2016-01-28T10:16:22.163Z</time>
      </trkpt>
      <trkpt lat="45.93937" lon="4.41382">
        <ele>775.616333008</ele>
        <time>2016-01-28T10:16:23.14Z</time>
      </trkpt>
      <trkpt lat="45.93934" lon="4.41392">
        <ele>775.657775879</ele>
        <time>2016-01-28T10:16:27.162Z</time>
      </trkpt>
      <trkpt lat="45.93934" lon="4.41395">
        <ele>775.634338379</ele>
        <time>2016-01-28T10:16:28.136Z</time>
      </trkpt>
      <trkpt lat="45.93931" lon="4.41407">
        <ele>775.430969238</ele>
        <time>2016-01-28T10:16:35.16Z</time>
      </trkpt>
      <trkpt lat="45.93931" lon="4.41409">
        <ele>775.403442383</ele>
        <time>2016-01-28T10:16:36.14Z</time>
      </trkpt>
      <trkpt lat="45.93929" lon="4.41418">
        <ele>775.278564453</ele>
        <time>2016-01-28T10:16:42.183Z</time>
      </trkpt>
      <trkpt lat="45.93928" lon="4.41421">
        <ele>775.289001465</ele>
        <time>2016-01-28T10:16:43.132Z</time>
      </trkpt>
      <trkpt lat="45.93923" lon="4.41431">
        <ele>774.842834473</ele>
        <time>2016-01-28T10:16:50.181Z</time>
      </trkpt>
      <trkpt lat="45.93923" lon="4.41432">
        <ele>774.704956055</ele>
        <time>2016-01-28T10:16:51.13Z</time>
      </trkpt>
      <trkpt lat="45.9392" lon="4.41441">
        <ele>774.003540039</ele>
        <time>2016-01-28T10:16:58.149Z</time>
      </trkpt>
      <trkpt lat="45.93919" lon="4.41444">
        <ele>773.944580078</ele>
        <time>2016-01-28T10:16:59.135Z</time>
      </trkpt>
      <trkpt lat="45.93915" lon="4.41455">
        <ele>773.417724609</ele>
        <time>2016-01-28T10:17:04.167Z</time>
      </trkpt>
      <trkpt lat="45.93914" lon="4.41457">
        <ele>773.370727539</ele>
        <time>2016-01-28T10:17:05.119Z</time>
      </trkpt>
      <trkpt lat="45.93909" lon="4.41467">
        <ele>772.702392578</ele>
        <time>2016-01-28T10:17:12.173Z</time>
      </trkpt>
      <trkpt lat="45.93908" lon="4.41468">
        <ele>772.523986816</ele>
        <time>2016-01-28T10:17:13.145Z</time>
      </trkpt>
      <trkpt lat="45.93904" lon="4.41477">
        <ele>771.680419922</ele>
        <time>2016-01-28T10:17:18.189Z</time>
      </trkpt>
      <trkpt lat="45.93903" lon="4.41479">
        <ele>771.548278809</ele>
        <time>2016-01-28T10:17:19.141Z</time>
      </trkpt>
      <trkpt lat="45.93897" lon="4.41487">
        <ele>770.901306152</ele>
        <time>2016-01-28T10:17:24.169Z</time>
      </trkpt>
      <trkpt lat="45.93896" lon="4.41489">
        <ele>770.803405762</ele>
        <time>2016-01-28T10:17:25.144Z</time>
      </trkpt>
      <trkpt lat="45.9389" lon="4.41497">
        <ele>770.293151855</ele>
        <time>2016-01-28T10:17:31.147Z</time>
      </trkpt>
      <trkpt lat="45.93889" lon="4.41499">
        <ele>770.209350586</ele>
        <time>2016-01-28T10:17:32.112Z</time>
      </trkpt>
      <trkpt lat="45.93884" lon="4.41507">
        <ele>769.734008789</ele>
        <time>2016-01-28T10:17:38.134Z</time>
      </trkpt>
      <trkpt lat="45.93883" lon="4.41509">
        <ele>769.66015625</ele>
        <time>2016-01-28T10:17:39.122Z</time>
      </trkpt>
      <trkpt lat="45.93877" lon="4.41517">
        <ele>769.068481445</ele>
        <time>2016-01-28T10:17:45.159Z</time>
      </trkpt>
      <trkpt lat="45.93877" lon="4.41518">
        <ele>768.977600098</ele>
        <time>2016-01-28T10:17:46.125Z</time>
      </trkpt>
      <trkpt lat="45.9387" lon="4.41526">
        <ele>768.518554688</ele>
        <time>2016-01-28T10:17:52.129Z</time>
      </trkpt>
      <trkpt lat="45.93869" lon="4.41527">
        <ele>768.449951172</ele>
        <time>2016-01-28T10:17:53.119Z</time>
      </trkpt>
      <trkpt lat="45.93862" lon="4.41534">
        <ele>768.046142578</ele>
        <time>2016-01-28T10:17:59.132Z</time>
      </trkpt>
      <trkpt lat="45.93861" lon="4.41536">
        <ele>767.98248291</ele>
        <time>2016-01-28T10:18:00.119Z</time>
      </trkpt>
      <trkpt lat="45.93855" lon="4.41544">
        <ele>767.567810059</ele>
        <time>2016-01-28T10:18:06.15Z</time>
      </trkpt>
      <trkpt lat="45.93854" lon="4.41545">
        <ele>767.507080078</ele>
        <time>2016-01-28T10:18:07.113Z</time>
      </trkpt>
      <trkpt lat="45.93847" lon="4.41552">
        <ele>767.14855957</ele>
        <time>2016-01-28T10:18:14.163Z</time>
      </trkpt>
      <trkpt lat="45.93846" lon="4.41553">
        <ele>767.107177734</ele>
        <time>2016-01-28T10:18:15.114Z</time>
      </trkpt>
      <trkpt lat="45.93841" lon="4.41562">
        <ele>766.264160156</ele>
        <time>2016-01-28T10:19:04.143Z</time>
      </trkpt>
      <trkpt lat="45.93839" lon="4.41563">
        <ele>766.168457031</ele>
        <time>2016-01-28T10:19:05.117Z</time>
      </trkpt>
      <trkpt lat="45.93834" lon="4.41571">
        <ele>765.56060791</ele>
        <time>2016-01-28T10:19:12.191Z</time>
      </trkpt>
      <trkpt lat="45.93833" lon="4.41572">
        <ele>765.487609863</ele>
        <time>2016-01-28T10:19:13.128Z</time>
      </trkpt>
      <trkpt lat="45.93828" lon="4.41581">
        <ele>765.175048828</ele>
        <time>2016-01-28T10:19:20.148Z</time>
      </trkpt>
      <trkpt lat="45.93827" lon="4.41583">
        <ele>765.135131836</ele>
        <time>2016-01-28T10:19:21.121Z</time>
      </trkpt>
      <trkpt lat="45.93821" lon="4.41593">
        <ele>764.743469238</ele>
        <time>2016-01-28T10:19:28.137Z</time>
      </trkpt>
      <trkpt lat="45.93821" lon="4.41594">
        <ele>764.680480957</ele>
        <time>2016-01-28T10:19:29.129Z</time>
      </trkpt>
      <trkpt lat="45.93816" lon="4.41603">
        <ele>764.227050781</ele>
        <time>2016-01-28T10:19:35.148Z</time>
      </trkpt>
      <trkpt lat="45.93815" lon="4.41605">
        <ele>764.143066406</ele>
        <time>2016-01-28T10:19:36.128Z</time>
      </trkpt>
      <trkpt lat="45.9381" lon="4.41615">
        <ele>763.572753906</ele>
        <time>2016-01-28T10:19:43.147Z</time>
      </trkpt>
      <trkpt lat="45.93809" lon="4.41617">
        <ele>763.495239258</ele>
        <time>2016-01-28T10:19:44.119Z</time>
      </trkpt>
      <trkpt lat="45.93803" lon="4.41625">
        <ele>762.655334473</ele>
        <time>2016-01-28T10:19:52.159Z</time>
      </trkpt>
      <trkpt lat="45.93802" lon="4.41627">
        <ele>762.56817627</ele>
        <time>2016-01-28T10:19:53.131Z</time>
      </trkpt>
      <trkpt lat="45.93795" lon="4.41633">
        <ele>762.015197754</ele>
        <time>2016-01-28T10:19:59.159Z</time>
      </trkpt>
      <trkpt lat="45.93794" lon="4.41634">
        <ele>761.928344727</ele>
        <time>2016-01-28T10:20:00.122Z</time>
      </trkpt>
      <trkpt lat="45.93787" lon="4.4164">
        <ele>761.324951172</ele>
        <time>2016-01-28T10:20:07.149Z</time>
      </trkpt>
      <trkpt lat="45.93786" lon="4.4164">
        <ele>761.250671387</ele>
        <time>2016-01-28T10:20:08.124Z</time>
      </trkpt>
      <trkpt lat="45.93778" lon="4.41646">
        <ele>760.810424805</ele>
        <time>2016-01-28T10:20:15.172Z</time>
      </trkpt>
      <trkpt lat="45.93777" lon="4.41647">
        <ele>760.752197266</ele>
        <time>2016-01-28T10:20:16.124Z</time>
      </trkpt>
      <trkpt lat="45.93769" lon="4.41652">
        <ele>760.486999512</ele>
        <time>2016-01-28T10:20:23.171Z</time>
      </trkpt>
      <trkpt lat="45.93768" lon="4.41653">
        <ele>760.457458496</ele>
        <time>2016-01-28T10:20:24.136Z</time>
      </trkpt>
      <trkpt lat="45.9376" lon="4.41657">
        <ele>760.341796875</ele>
        <time>2016-01-28T10:20:31.141Z</time>
      </trkpt>
      <trkpt lat="45.93759" lon="4.41658">
        <ele>760.350036621</ele>
        <time>2016-01-28T10:20:32.125Z</time>
      </trkpt>
      <trkpt lat="45.9375" lon="4.4166">
        <ele>760.23248291</ele>
        <time>2016-01-28T10:20:38.142Z</time>
      </trkpt>
      <trkpt lat="45.93749" lon="4.41661">
        <ele>760.182312012</ele>
        <time>2016-01-28T10:20:39.138Z</time>
      </trkpt>
      <trkpt lat="45.9374" lon="4.41664">
        <ele>760.077331543</ele>
        <time>2016-01-28T10:20:47.16Z</time>
      </trkpt>
      <trkpt lat="45.93739" lon="4.41664">
        <ele>760.071472168</ele>
        <time>2016-01-28T10:20:48.123Z</time>
      </trkpt>
      <trkpt lat="45.93731" lon="4.41666">
        <ele>760.048339844</ele>
        <time>2016-01-28T10:20:55.157Z</time>
      </trkpt>
      <trkpt lat="45.93729" lon="4.41665">
        <ele>760.022460938</ele>
        <time>2016-01-28T10:20:56.128Z</time>
      </trkpt>
      <trkpt lat="45.93721" lon="4.41666">
        <ele>759.834655762</ele>
        <time>2016-01-28T10:21:02.152Z</time>
      </trkpt>
      <trkpt lat="45.9372" lon="4.41666">
        <ele>759.812988281</ele>
        <time>2016-01-28T10:21:03.141Z</time>
      </trkpt>
      <trkpt lat="45.93712" lon="4.41666">
        <ele>759.823547363</ele>
        <time>2016-01-28T10:21:08.164Z</time>
      </trkpt>
      <trkpt lat="45.93711" lon="4.41666">
        <ele>759.832824707</ele>
        <time>2016-01-28T10:21:09.135Z</time>
      </trkpt>
      <trkpt lat="45.93702" lon="4.41667">
        <ele>759.972167969</ele>
        <time>2016-01-28T10:21:16.15Z</time>
      </trkpt>
      <trkpt lat="45.937" lon="4.41667">
        <ele>759.978637695</ele>
        <time>2016-01-28T10:21:17.139Z</time>
      </trkpt>
      <trkpt lat="45.93691" lon="4.4167">
        <ele>760.111450195</ele>
        <time>2016-01-28T10:21:24.154Z</time>
      </trkpt>
      <trkpt lat="45.9369" lon="4.41671">
        <ele>760.121826172</ele>
        <time>2016-01-28T10:21:25.127Z</time>
      </trkpt>
      <trkpt lat="45.93682" lon="4.41674">
        <ele>760.118408203</ele>
        <time>2016-01-28T10:21:31.164Z</time>
      </trkpt>
      <trkpt lat="45.93681" lon="4.41674">
        <ele>760.103088379</ele>
        <time>2016-01-28T10:21:32.169Z</time>
      </trkpt>
      <trkpt lat="45.93674" lon="4.4168">
        <ele>760.05065918</ele>
        <time>2016-01-28T10:21:39.151Z</time>
      </trkpt>
      <trkpt lat="45.93672" lon="4.41681">
        <ele>760.023132324</ele>
        <time>2016-01-28T10:21:40.131Z</time>
      </trkpt>
      <trkpt lat="45.93665" lon="4.41688">
        <ele>759.858032227</ele>
        <time>2016-01-28T10:21:47.144Z</time>
      </trkpt>
      <trkpt lat="45.93665" lon="4.41689">
        <ele>759.82824707</ele>
        <time>2016-01-28T10:21:48.139Z</time>
      </trkpt>
      <trkpt lat="45.93658" lon="4.41697">
        <ele>759.543334961</ele>
        <time>2016-01-28T10:21:55.165Z</time>
      </trkpt>
      <trkpt lat="45.93658" lon="4.41699">
        <ele>759.484130859</ele>
        <time>2016-01-28T10:21:56.139Z</time>
      </trkpt>
      <trkpt lat="45.93652" lon="4.41708">
        <ele>759.068786621</ele>
        <time>2016-01-28T10:22:03.148Z</time>
      </trkpt>
      <trkpt lat="45.93651" lon="4.41709">
        <ele>758.997619629</ele>
        <time>2016-01-28T10:22:04.143Z</time>
      </trkpt>
      <trkpt lat="45.93646" lon="4.41717">
        <ele>758.364624023</ele>
        <time>2016-01-28T10:22:11.187Z</time>
      </trkpt>
      <trkpt lat="45.93645" lon="4.41719">
        <ele>758.238952637</ele>
        <time>2016-01-28T10:22:12.141Z</time>
      </trkpt>
      <trkpt lat="45.93638" lon="4.41728">
        <ele>757.222900391</ele>
        <time>2016-01-28T10:22:20.162Z</time>
      </trkpt>
      <trkpt lat="45.93637" lon="4.41729">
        <ele>757.088500977</ele>
        <time>2016-01-28T10:22:21.142Z</time>
      </trkpt>
      <trkpt lat="45.93632" lon="4.41738">
        <ele>756.195922852</ele>
        <time>2016-01-28T10:22:27.17Z</time>
      </trkpt>
      <trkpt lat="45.93631" lon="4.41739">
        <ele>756.039367676</ele>
        <time>2016-01-28T10:22:28.143Z</time>
      </trkpt>
      <trkpt lat="45.93626" lon="4.41747">
        <ele>754.925109863</ele>
        <time>2016-01-28T10:22:35.186Z</time>
      </trkpt>
      <trkpt lat="45.93625" lon="4.41749">
        <ele>754.745849609</ele>
        <time>2016-01-28T10:22:36.144Z</time>
      </trkpt>
      <trkpt lat="45.93621" lon="4.41758">
        <ele>753.562561035</ele>
        <time>2016-01-28T10:22:43.149Z</time>
      </trkpt>
      <trkpt lat="45.9362" lon="4.41759">
        <ele>753.399841309</ele>
        <time>2016-01-28T10:22:44.112Z</time>
      </trkpt>
      <trkpt lat="45.93614" lon="4.41768">
        <ele>752.145141602</ele>
        <time>2016-01-28T10:22:52.139Z</time>
      </trkpt>
      <trkpt lat="45.93613" lon="4.4177">
        <ele>751.955444336</ele>
        <time>2016-01-28T10:22:53.107Z</time>
      </trkpt>
      <trkpt lat="45.93608" lon="4.41781">
        <ele>750.80456543</ele>
        <time>2016-01-28T10:22:59.147Z</time>
      </trkpt>
      <trkpt lat="45.93608" lon="4.41783">
        <ele>750.617736816</ele>
        <time>2016-01-28T10:23:00.121Z</time>
      </trkpt>
      <trkpt lat="45.93603" lon="4.41792">
        <ele>748.894836426</ele>
        <time>2016-01-28T10:23:09.143Z</time>
      </trkpt>
      <trkpt lat="45.93602" lon="4.41793">
        <ele>748.698242188</ele>
        <time>2016-01-28T10:23:10.112Z</time>
      </trkpt>
      <trkpt lat="45.93596" lon="4.41802">
        <ele>747.222412109</ele>
        <time>2016-01-28T10:23:17.127Z</time>
      </trkpt>
      <trkpt lat="45.93596" lon="4.41803">
        <ele>747.025146484</ele>
        <time>2016-01-28T10:23:18.115Z</time>
      </trkpt>
      <trkpt lat="45.93591" lon="4.41813">
        <ele>745.06829834</ele>
        <time>2016-01-28T10:23:27.129Z</time>
      </trkpt>
      <trkpt lat="45.9359" lon="4.41814">
        <ele>744.842773438</ele>
        <time>2016-01-28T10:23:28.114Z</time>
      </trkpt>
      <trkpt lat="45.93586" lon="4.41824">
        <ele>743.155334473</ele>
        <time>2016-01-28T10:23:35.134Z</time>
      </trkpt>
      <trkpt lat="45.93585" lon="4.41825">
        <ele>742.915100098</ele>
        <time>2016-01-28T10:23:36.12Z</time>
      </trkpt>
      <trkpt lat="45.93581" lon="4.41836">
        <ele>740.959472656</ele>
        <time>2016-01-28T10:23:44.133Z</time>
      </trkpt>
      <trkpt lat="45.93581" lon="4.41837">
        <ele>740.734863281</ele>
        <time>2016-01-28T10:23:45.114Z</time>
      </trkpt>
      <trkpt lat="45.93575" lon="4.41848">
        <ele>738.754516602</ele>
        <time>2016-01-28T10:23:54.156Z</time>
      </trkpt>
      <trkpt lat="45.93575" lon="4.41848">
        <ele>738.550109863</ele>
        <time>2016-01-28T10:23:55.129Z</time>
      </trkpt>
      <trkpt lat="45.93569" lon="4.41858">
        <ele>736.406066895</ele>
        <time>2016-01-28T10:24:08.171Z</time>
      </trkpt>
      <trkpt lat="45.93569" lon="4.41859">
        <ele>736.186889648</ele>
        <time>2016-01-28T10:24:09.128Z</time>
      </trkpt>
      <trkpt lat="45.93564" lon="4.41869">
        <ele>734.475097656</ele>
        <time>2016-01-28T10:24:18.159Z</time>
      </trkpt>
      <trkpt lat="45.93564" lon="4.4187">
        <ele>734.280334473</ele>
        <time>2016-01-28T10:24:19.116Z</time>
      </trkpt>
      <trkpt lat="45.93557" lon="4.41878">
        <ele>732.369812012</ele>
        <time>2016-01-28T10:24:28.138Z</time>
      </trkpt>
      <trkpt lat="45.93556" lon="4.41878">
        <ele>732.161804199</ele>
        <time>2016-01-28T10:24:29.117Z</time>
      </trkpt>
      <trkpt lat="45.93551" lon="4.41888">
        <ele>730.241394043</ele>
        <time>2016-01-28T10:24:38.154Z</time>
      </trkpt>
      <trkpt lat="45.93551" lon="4.41889">
        <ele>730.117004395</ele>
        <time>2016-01-28T10:24:39.119Z</time>
      </trkpt>
      <trkpt lat="45.93547" lon="4.419">
        <ele>729.024719238</ele>
        <time>2016-01-28T10:24:48.163Z</time>
      </trkpt>
      <trkpt lat="45.93546" lon="4.41901">
        <ele>728.879821777</ele>
        <time>2016-01-28T10:24:49.128Z</time>
      </trkpt>
      <trkpt lat="45.93541" lon="4.41911">
        <ele>727.749511719</ele>
        <time>2016-01-28T10:24:56.121Z</time>
      </trkpt>
      <trkpt lat="45.9354" lon="4.41912">
        <ele>727.539733887</ele>
        <time>2016-01-28T10:24:57.133Z</time>
      </trkpt>
      <trkpt lat="45.93533" lon="4.4192">
        <ele>725.949768066</ele>
        <time>2016-01-28T10:25:05.149Z</time>
      </trkpt>
      <trkpt lat="45.93533" lon="4.41921">
        <ele>725.730651855</ele>
        <time>2016-01-28T10:25:06.127Z</time>
      </trkpt>
      <trkpt lat="45.93527" lon="4.41931">
        <ele>724.217895508</ele>
        <time>2016-01-28T10:25:14.162Z</time>
      </trkpt>
      <trkpt lat="45.93526" lon="4.41933">
        <ele>724.017944336</ele>
        <time>2016-01-28T10:25:15.119Z</time>
      </trkpt>
      <trkpt lat="45.93521" lon="4.41941">
        <ele>722.395446777</ele>
        <time>2016-01-28T10:25:22.158Z</time>
      </trkpt>
      <trkpt lat="45.93521" lon="4.41944">
        <ele>722.176330566</ele>
        <time>2016-01-28T10:25:23.126Z</time>
      </trkpt>
      <trkpt lat="45.93515" lon="4.41952">
        <ele>720.452819824</ele>
        <time>2016-01-28T10:25:32.181Z</time>
      </trkpt>
      <trkpt lat="45.93514" lon="4.41954">
        <ele>720.265441895</ele>
        <time>2016-01-28T10:25:33.141Z</time>
      </trkpt>
      <trkpt lat="45.93509" lon="4.41963">
        <ele>718.891418457</ele>
        <time>2016-01-28T10:25:39.155Z</time>
      </trkpt>
      <trkpt lat="45.93509" lon="4.41965">
        <ele>718.658752441</ele>
        <time>2016-01-28T10:25:40.124Z</time>
      </trkpt>
      <trkpt lat="45.93503" lon="4.41973">
        <ele>716.85345459</ele>
        <time>2016-01-28T10:25:47.149Z</time>
      </trkpt>
      <trkpt lat="45.93501" lon="4.41975">
        <ele>716.593139648</ele>
        <time>2016-01-28T10:25:48.125Z</time>
      </trkpt>
      <trkpt lat="45.93496" lon="4.41983">
        <ele>714.74420166</ele>
        <time>2016-01-28T10:25:56.146Z</time>
      </trkpt>
      <trkpt lat="45.93495" lon="4.41985">
        <ele>714.511535645</ele>
        <time>2016-01-28T10:25:57.124Z</time>
      </trkpt>
      <trkpt lat="45.9349" lon="4.41996">
        <ele>712.534606934</ele>
        <time>2016-01-28T10:26:06.155Z</time>
      </trkpt>
      <trkpt lat="45.9349" lon="4.41997">
        <ele>712.311096191</ele>
        <time>2016-01-28T10:26:07.13Z</time>
      </trkpt>
      <trkpt lat="45.93483" lon="4.42004">
        <ele>710.816345215</ele>
        <time>2016-01-28T10:26:13.157Z</time>
      </trkpt>
      <trkpt lat="45.93482" lon="4.42005">
        <ele>710.597961426</ele>
        <time>2016-01-28T10:26:14.133Z</time>
      </trkpt>
      <trkpt lat="45.93482" lon="4.42018">
        <ele>707.191711426</ele>
        <time>2016-01-28T10:26:31.164Z</time>
      </trkpt>
      <trkpt lat="45.93483" lon="4.42018">
        <ele>707.174987793</ele>
        <time>2016-01-28T10:26:32.137Z</time>
      </trkpt>
      <trkpt lat="45.93474" lon="4.42023">
        <ele>705.413574219</ele>
        <time>2016-01-28T10:26:55.168Z</time>
      </trkpt>
      <trkpt lat="45.93474" lon="4.42022">
        <ele>705.364746094</ele>
        <time>2016-01-28T10:26:56.139Z</time>
      </trkpt>
      <trkpt lat="45.93465" lon="4.42022">
        <ele>703.801147461</ele>
        <time>2016-01-28T10:27:49.166Z</time>
      </trkpt>
      <trkpt lat="45.93464" lon="4.42022">
        <ele>703.78894043</ele>
        <time>2016-01-28T10:27:50.132Z</time>
      </trkpt>
      <trkpt lat="45.93473" lon="4.4202">
        <ele>702.523193359</ele>
        <time>2016-01-28T10:28:11.15Z</time>
      </trkpt>
      <trkpt lat="45.93473" lon="4.42019">
        <ele>702.447509766</ele>
        <time>2016-01-28T10:28:12.127Z</time>
      </trkpt>
      <trkpt lat="45.93482" lon="4.42021">
        <ele>701.099853516</ele>
        <time>2016-01-28T10:29:39.163Z</time>
      </trkpt>
      <trkpt lat="45.93483" lon="4.42022">
        <ele>701.093444824</ele>
        <time>2016-01-28T10:29:40.114Z</time>
      </trkpt>
      <trkpt lat="45.93489" lon="4.42027">
        <ele>700.84942627</ele>
        <time>2016-01-28T10:29:46.157Z</time>
      </trkpt>
      <trkpt lat="45.93491" lon="4.42028">
        <ele>700.781494141</ele>
        <time>2016-01-28T10:29:47.125Z</time>
      </trkpt>
      <trkpt lat="45.93499" lon="4.4203">
        <ele>700.281494141</ele>
        <time>2016-01-28T10:29:53.161Z</time>
      </trkpt>
      <trkpt lat="45.935" lon="4.42031">
        <ele>700.17199707</ele>
        <time>2016-01-28T10:29:54.116Z</time>
      </trkpt>
      <trkpt lat="45.93509" lon="4.42034">
        <ele>699.589599609</ele>
        <time>2016-01-28T10:30:02.143Z</time>
      </trkpt>
      <trkpt lat="45.9351" lon="4.42034">
        <ele>699.532470703</ele>
        <time>2016-01-28T10:30:03.122Z</time>
      </trkpt>
      <trkpt lat="45.93518" lon="4.42037">
        <ele>699.450622559</ele>
        <time>2016-01-28T10:30:08.162Z</time>
      </trkpt>
      <trkpt lat="45.93519" lon="4.42037">
        <ele>699.42791748</ele>
        <time>2016-01-28T10:30:09.121Z</time>
      </trkpt>
      <trkpt lat="45.93527" lon="4.4204">
        <ele>699.37322998</ele>
        <time>2016-01-28T10:30:15.149Z</time>
      </trkpt>
      <trkpt lat="45.93529" lon="4.42041">
        <ele>699.337280273</ele>
        <time>2016-01-28T10:30:16.133Z</time>
      </trkpt>
      <trkpt lat="45.93537" lon="4.42044">
        <ele>699.318786621</ele>
        <time>2016-01-28T10:30:22.159Z</time>
      </trkpt>
      <trkpt lat="45.93538" lon="4.42044">
        <ele>699.336181641</ele>
        <time>2016-01-28T10:30:23.122Z</time>
      </trkpt>
      <trkpt lat="45.93545" lon="4.42048">
        <ele>699.809753418</ele>
        <time>2016-01-28T10:30:31.138Z</time>
      </trkpt>
      <trkpt lat="45.93546" lon="4.4205">
        <ele>699.859985352</ele>
        <time>2016-01-28T10:30:32.126Z</time>
      </trkpt>
      <trkpt lat="45.93552" lon="4.42058">
        <ele>700.348449707</ele>
        <time>2016-01-28T10:30:38.145Z</time>
      </trkpt>
      <trkpt lat="45.93553" lon="4.42059">
        <ele>700.421020508</ele>
        <time>2016-01-28T10:30:39.132Z</time>
      </trkpt>
      <trkpt lat="45.93558" lon="4.42067">
        <ele>700.934326172</ele>
        <time>2016-01-28T10:30:45.18Z</time>
      </trkpt>
      <trkpt lat="45.9356" lon="4.42068">
        <ele>700.966430664</ele>
        <time>2016-01-28T10:30:46.129Z</time>
      </trkpt>
      <trkpt lat="45.93567" lon="4.42073">
        <ele>700.985107422</ele>
        <time>2016-01-28T10:30:51.146Z</time>
      </trkpt>
      <trkpt lat="45.93568" lon="4.42073">
        <ele>700.943786621</ele>
        <time>2016-01-28T10:30:52.125Z</time>
      </trkpt>
      <trkpt lat="45.93575" lon="4.42079">
        <ele>700.558349609</ele>
        <time>2016-01-28T10:31:00.152Z</time>
      </trkpt>
      <trkpt lat="45.93576" lon="4.4208">
        <ele>700.558349609</ele>
        <time>2016-01-28T10:31:01.125Z</time>
      </trkpt>
      <trkpt lat="45.93582" lon="4.42087">
        <ele>700.471130371</ele>
        <time>2016-01-28T10:31:05.143Z</time>
      </trkpt>
      <trkpt lat="45.93584" lon="4.42088">
        <ele>700.422851562</ele>
        <time>2016-01-28T10:31:06.124Z</time>
      </trkpt>
      <trkpt lat="45.93592" lon="4.42092">
        <ele>700.05090332</ele>
        <time>2016-01-28T10:31:12.154Z</time>
      </trkpt>
      <trkpt lat="45.93593" lon="4.42093">
        <ele>699.946594238</ele>
        <time>2016-01-28T10:31:13.13Z</time>
      </trkpt>
      <trkpt lat="45.93601" lon="4.42096">
        <ele>699.245605469</ele>
        <time>2016-01-28T10:31:20.193Z</time>
      </trkpt>
      <trkpt lat="45.93603" lon="4.42097">
        <ele>699.16204834</ele>
        <time>2016-01-28T10:31:21.126Z</time>
      </trkpt>
      <trkpt lat="45.9361" lon="4.42101">
        <ele>698.718322754</ele>
        <time>2016-01-28T10:31:26.156Z</time>
      </trkpt>
      <trkpt lat="45.93612" lon="4.42101">
        <ele>698.616210938</ele>
        <time>2016-01-28T10:31:27.118Z</time>
      </trkpt>
      <trkpt lat="45.93619" lon="4.42106">
        <ele>697.764160156</ele>
        <time>2016-01-28T10:31:33.158Z</time>
      </trkpt>
      <trkpt lat="45.9362" lon="4.42107">
        <ele>697.599609375</ele>
        <time>2016-01-28T10:31:34.145Z</time>
      </trkpt>
      <trkpt lat="45.93629" lon="4.42111">
        <ele>696.655639648</ele>
        <time>2016-01-28T10:31:40.155Z</time>
      </trkpt>
      <trkpt lat="45.9363" lon="4.42112">
        <ele>696.493530273</ele>
        <time>2016-01-28T10:31:41.122Z</time>
      </trkpt>
      <trkpt lat="45.93638" lon="4.42118">
        <ele>694.405151367</ele>
        <time>2016-01-28T10:31:57.158Z</time>
      </trkpt>
      <trkpt lat="45.93638" lon="4.42119">
        <ele>694.414855957</ele>
        <time>2016-01-28T10:31:58.147Z</time>
      </trkpt>
      <trkpt lat="45.93641" lon="4.4213">
        <ele>693.84954834</ele>
        <time>2016-01-28T10:32:09.16Z</time>
      </trkpt>
      <trkpt lat="45.93642" lon="4.42132">
        <ele>693.801391602</ele>
        <time>2016-01-28T10:32:10.142Z</time>
      </trkpt>
      <trkpt lat="45.93648" lon="4.42138">
        <ele>693.23828125</ele>
        <time>2016-01-28T10:32:14.162Z</time>
      </trkpt>
      <trkpt lat="45.9365" lon="4.42139">
        <ele>693.001586914</ele>
        <time>2016-01-28T10:32:15.134Z</time>
      </trkpt>
      <trkpt lat="45.93656" lon="4.42144">
        <ele>692.331237793</ele>
        <time>2016-01-28T10:32:18.159Z</time>
      </trkpt>
      <trkpt lat="45.93657" lon="4.42146">
        <ele>692.117614746</ele>
        <time>2016-01-28T10:32:19.14Z</time>
      </trkpt>
      <trkpt lat="45.93663" lon="4.42154">
        <ele>690.939331055</ele>
        <time>2016-01-28T10:32:25.162Z</time>
      </trkpt>
      <trkpt lat="45.93664" lon="4.42155">
        <ele>690.772155762</ele>
        <time>2016-01-28T10:32:26.138Z</time>
      </trkpt>
      <trkpt lat="45.93671" lon="4.42161">
        <ele>689.613342285</ele>
        <time>2016-01-28T10:32:33.173Z</time>
      </trkpt>
      <trkpt lat="45.93672" lon="4.42161">
        <ele>689.417541504</ele>
        <time>2016-01-28T10:32:34.138Z</time>
      </trkpt>
      <trkpt lat="45.93679" lon="4.42167">
        <ele>688.209899902</ele>
        <time>2016-01-28T10:32:42.259Z</time>
      </trkpt>
      <trkpt lat="45.9368" lon="4.42167">
        <ele>688.02331543</ele>
        <time>2016-01-28T10:32:43.139Z</time>
      </trkpt>
      <trkpt lat="45.93688" lon="4.42173">
        <ele>686.34753418</ele>
        <time>2016-01-28T10:32:52.166Z</time>
      </trkpt>
      <trkpt lat="45.93688" lon="4.42173">
        <ele>686.040161133</ele>
        <time>2016-01-28T10:32:53.143Z</time>
      </trkpt>
      <trkpt lat="45.93696" lon="4.42179">
        <ele>683.741943359</ele>
        <time>2016-01-28T10:33:03.178Z</time>
      </trkpt>
      <trkpt lat="45.93697" lon="4.4218">
        <ele>683.589172363</ele>
        <time>2016-01-28T10:33:04.142Z</time>
      </trkpt>
      <trkpt lat="45.93704" lon="4.42185">
        <ele>682.088134766</ele>
        <time>2016-01-28T10:33:13.13Z</time>
      </trkpt>
      <trkpt lat="45.93705" lon="4.42186">
        <ele>681.988891602</ele>
        <time>2016-01-28T10:33:14.105Z</time>
      </trkpt>
      <trkpt lat="45.93713" lon="4.42192">
        <ele>680.15802002</ele>
        <time>2016-01-28T10:33:24.142Z</time>
      </trkpt>
      <trkpt lat="45.93714" lon="4.42192">
        <ele>679.834960938</ele>
        <time>2016-01-28T10:33:25.108Z</time>
      </trkpt>
      <trkpt lat="45.93721" lon="4.42198">
        <ele>677.945373535</ele>
        <time>2016-01-28T10:33:38.149Z</time>
      </trkpt>
      <trkpt lat="45.93722" lon="4.42199">
        <ele>677.814575195</ele>
        <time>2016-01-28T10:33:39.112Z</time>
      </trkpt>
      <trkpt lat="45.93729" lon="4.42203">
        <ele>675.289001465</ele>
        <time>2016-01-28T10:33:47.122Z</time>
      </trkpt>
      <trkpt lat="45.93731" lon="4.42204">
        <ele>674.974121094</ele>
        <time>2016-01-28T10:33:48.112Z</time>
      </trkpt>
      <trkpt lat="45.93738" lon="4.4221">
        <ele>673.432678223</ele>
        <time>2016-01-28T10:33:56.136Z</time>
      </trkpt>
      <trkpt lat="45.93739" lon="4.4221">
        <ele>673.401123047</ele>
        <time>2016-01-28T10:33:57.122Z</time>
      </trkpt>
      <trkpt lat="45.93746" lon="4.42216">
        <ele>672.398803711</ele>
        <time>2016-01-28T10:34:04.131Z</time>
      </trkpt>
      <trkpt lat="45.93747" lon="4.42217">
        <ele>672.157348633</ele>
        <time>2016-01-28T10:34:05.114Z</time>
      </trkpt>
      <trkpt lat="45.93754" lon="4.42223">
        <ele>670.694213867</ele>
        <time>2016-01-28T10:34:13.148Z</time>
      </trkpt>
      <trkpt lat="45.93756" lon="4.42223">
        <ele>670.456726074</ele>
        <time>2016-01-28T10:34:14.123Z</time>
      </trkpt>
      <trkpt lat="45.93764" lon="4.42226">
        <ele>668.41595459</ele>
        <time>2016-01-28T10:34:24.141Z</time>
      </trkpt>
      <trkpt lat="45.93765" lon="4.42227">
        <ele>668.140686035</ele>
        <time>2016-01-28T10:34:25.112Z</time>
      </trkpt>
      <trkpt lat="45.93774" lon="4.42231">
        <ele>666.462524414</ele>
        <time>2016-01-28T10:34:35.169Z</time>
      </trkpt>
      <trkpt lat="45.93775" lon="4.42232">
        <ele>666.330871582</ele>
        <time>2016-01-28T10:34:36.099Z</time>
      </trkpt>
      <trkpt lat="45.93782" lon="4.42234">
        <ele>665.417907715</ele>
        <time>2016-01-28T10:34:44.157Z</time>
      </trkpt>
      <trkpt lat="45.93783" lon="4.42234">
        <ele>665.34979248</ele>
        <time>2016-01-28T10:34:45.123Z</time>
      </trkpt>
      <trkpt lat="45.93792" lon="4.42236">
        <ele>665.235900879</ele>
        <time>2016-01-28T10:34:58.149Z</time>
      </trkpt>
      <trkpt lat="45.93793" lon="4.42237">
        <ele>665.333557129</ele>
        <time>2016-01-28T10:34:59.128Z</time>
      </trkpt>
      <trkpt lat="45.938" lon="4.42241">
        <ele>666.05291748</ele>
        <time>2016-01-28T10:35:07.18Z</time>
      </trkpt>
      <trkpt lat="45.93802" lon="4.42242">
        <ele>666.199401855</ele>
        <time>2016-01-28T10:35:08.125Z</time>
      </trkpt>
      <trkpt lat="45.93808" lon="4.42247">
        <ele>666.5625</ele>
        <time>2016-01-28T10:35:11.15Z</time>
      </trkpt>
      <trkpt lat="45.9381" lon="4.42249">
        <ele>666.658569336</ele>
        <time>2016-01-28T10:35:12.128Z</time>
      </trkpt>
      <trkpt lat="45.93817" lon="4.42256">
        <ele>666.45916748</ele>
        <time>2016-01-28T10:35:17.159Z</time>
      </trkpt>
      <trkpt lat="45.93818" lon="4.42257">
        <ele>666.366149902</ele>
        <time>2016-01-28T10:35:18.127Z</time>
      </trkpt>
      <trkpt lat="45.93825" lon="4.42261">
        <ele>667.012756348</ele>
        <time>2016-01-28T10:35:29.153Z</time>
      </trkpt>
      <trkpt lat="45.93828" lon="4.42262">
        <ele>667.133789062</ele>
        <time>2016-01-28T10:35:30.126Z</time>
      </trkpt>
      <trkpt lat="45.93835" lon="4.42267">
        <ele>667.093261719</ele>
        <time>2016-01-28T10:35:37.156Z</time>
      </trkpt>
      <trkpt lat="45.93836" lon="4.42267">
        <ele>667.119140625</ele>
        <time>2016-01-28T10:35:38.126Z</time>
      </trkpt>
      <trkpt lat="45.9384" lon="4.42273">
        <ele>666.305603027</ele>
        <time>2016-01-28T10:35:49.157Z</time>
      </trkpt>
      <trkpt lat="45.93842" lon="4.42277">
        <ele>665.988464355</ele>
        <time>2016-01-28T10:35:50.128Z</time>
      </trkpt>
      <trkpt lat="45.93846" lon="4.42287">
        <ele>661.197021484</ele>
        <time>2016-01-28T10:36:00.16Z</time>
      </trkpt>
      <trkpt lat="45.93847" lon="4.42289">
        <ele>660.768615723</ele>
        <time>2016-01-28T10:36:01.128Z</time>
      </trkpt>
      <trkpt lat="45.9385" lon="4.423">
        <ele>655.02911377</ele>
        <time>2016-01-28T10:36:15.157Z</time>
      </trkpt>
      <trkpt lat="45.93851" lon="4.42302">
        <ele>654.381774902</ele>
        <time>2016-01-28T10:36:16.138Z</time>
      </trkpt>
      <trkpt lat="45.93857" lon="4.42311">
        <ele>650.500854492</ele>
        <time>2016-01-28T10:36:25.158Z</time>
      </trkpt>
      <trkpt lat="45.93858" lon="4.42313">
        <ele>649.975585938</ele>
        <time>2016-01-28T10:36:26.124Z</time>
      </trkpt>
      <trkpt lat="45.93863" lon="4.42319">
        <ele>645.119873047</ele>
        <time>2016-01-28T10:36:38.27Z</time>
      </trkpt>
      <trkpt lat="45.93866" lon="4.42323">
        <ele>644.733825684</ele>
        <time>2016-01-28T10:36:39.131Z</time>
      </trkpt>
      <trkpt lat="45.93871" lon="4.42329">
        <ele>643.095214844</ele>
        <time>2016-01-28T10:36:43.174Z</time>
      </trkpt>
      <trkpt lat="45.93873" lon="4.42332">
        <ele>642.750183105</ele>
        <time>2016-01-28T10:36:44.132Z</time>
      </trkpt>
      <trkpt lat="45.93879" lon="4.42339">
        <ele>641.399291992</ele>
        <time>2016-01-28T10:36:48.157Z</time>
      </trkpt>
      <trkpt lat="45.93881" lon="4.42342">
        <ele>641.083496094</ele>
        <time>2016-01-28T10:36:49.122Z</time>
      </trkpt>
      <trkpt lat="45.93887" lon="4.42351">
        <ele>640.278564453</ele>
        <time>2016-01-28T10:36:52.155Z</time>
      </trkpt>
      <trkpt lat="45.93888" lon="4.42353">
        <ele>639.95501709</ele>
        <time>2016-01-28T10:36:53.122Z</time>
      </trkpt>
      <trkpt lat="45.93893" lon="4.42363">
        <ele>638.422790527</ele>
        <time>2016-01-28T10:36:58.162Z</time>
      </trkpt>
      <trkpt lat="45.93893" lon="4.42364">
        <ele>638.203735352</ele>
        <time>2016-01-28T10:36:59.134Z</time>
      </trkpt>
      <trkpt lat="45.93899" lon="4.42374">
        <ele>636.580200195</ele>
        <time>2016-01-28T10:37:06.163Z</time>
      </trkpt>
      <trkpt lat="45.939" lon="4.42376">
        <ele>636.387634277</ele>
        <time>2016-01-28T10:37:07.139Z</time>
      </trkpt>
      <trkpt lat="45.93904" lon="4.42387">
        <ele>634.289794922</ele>
        <time>2016-01-28T10:37:15.27Z</time>
      </trkpt>
      <trkpt lat="45.93905" lon="4.42388">
        <ele>633.976196289</ele>
        <time>2016-01-28T10:37:16.137Z</time>
      </trkpt>
      <trkpt lat="45.9391" lon="4.42396">
        <ele>632.398681641</ele>
        <time>2016-01-28T10:37:21.226Z</time>
      </trkpt>
      <trkpt lat="45.93911" lon="4.42398">
        <ele>632.094482422</ele>
        <time>2016-01-28T10:37:22.145Z</time>
      </trkpt>
      <trkpt lat="45.93916" lon="4.42408">
        <ele>630.042907715</ele>
        <time>2016-01-28T10:37:30.173Z</time>
      </trkpt>
      <trkpt lat="45.93917" lon="4.4241">
        <ele>629.789916992</ele>
        <time>2016-01-28T10:37:31.144Z</time>
      </trkpt>
      <trkpt lat="45.9392" lon="4.4242">
        <ele>628.065612793</ele>
        <time>2016-01-28T10:37:40.176Z</time>
      </trkpt>
      <trkpt lat="45.93921" lon="4.42422">
        <ele>627.924560547</ele>
        <time>2016-01-28T10:37:41.143Z</time>
      </trkpt>
      <trkpt lat="45.93924" lon="4.42433">
        <ele>627.073669434</ele>
        <time>2016-01-28T10:37:47.134Z</time>
      </trkpt>
      <trkpt lat="45.93925" lon="4.42433">
        <ele>626.90222168</ele>
        <time>2016-01-28T10:37:48.136Z</time>
      </trkpt>
      <trkpt lat="45.93928" lon="4.42445">
        <ele>625.636535645</ele>
        <time>2016-01-28T10:37:56.159Z</time>
      </trkpt>
      <trkpt lat="45.93928" lon="4.42446">
        <ele>625.509887695</ele>
        <time>2016-01-28T10:37:57.137Z</time>
      </trkpt>
      <trkpt lat="45.93931" lon="4.42457">
        <ele>624.838012695</ele>
        <time>2016-01-28T10:38:02.164Z</time>
      </trkpt>
      <trkpt lat="45.93932" lon="4.42458">
        <ele>624.713867188</ele>
        <time>2016-01-28T10:38:03.118Z</time>
      </trkpt>
      <trkpt lat="45.93934" lon="4.4247">
        <ele>623.37322998</ele>
        <time>2016-01-28T10:38:13.163Z</time>
      </trkpt>
      <trkpt lat="45.93935" lon="4.42472">
        <ele>623.252502441</ele>
        <time>2016-01-28T10:38:14.141Z</time>
      </trkpt>
      <trkpt lat="45.93937" lon="4.42484">
        <ele>622.128967285</ele>
        <time>2016-01-28T10:38:21.195Z</time>
      </trkpt>
      <trkpt lat="45.93938" lon="4.42486">
        <ele>622.067016602</ele>
        <time>2016-01-28T10:38:22.14Z</time>
      </trkpt>
      <trkpt lat="45.93943" lon="4.42496">
        <ele>621.343261719</ele>
        <time>2016-01-28T10:38:30.142Z</time>
      </trkpt>
      <trkpt lat="45.93943" lon="4.42497">
        <ele>621.212341309</ele>
        <time>2016-01-28T10:38:31.115Z</time>
      </trkpt>
      <trkpt lat="45.93948" lon="4.42506">
        <ele>621.444030762</ele>
        <time>2016-01-28T10:38:39.141Z</time>
      </trkpt>
      <trkpt lat="45.93949" lon="4.42508">
        <ele>621.46887207</ele>
        <time>2016-01-28T10:38:40.116Z</time>
      </trkpt>
      <trkpt lat="45.93954" lon="4.42518">
        <ele>621.025024414</ele>
        <time>2016-01-28T10:38:50.14Z</time>
      </trkpt>
      <trkpt lat="45.93954" lon="4.42519">
        <ele>621.044372559</ele>
        <time>2016-01-28T10:38:51.107Z</time>
      </trkpt>
      <trkpt lat="45.93959" lon="4.42528">
        <ele>621.06842041</ele>
        <time>2016-01-28T10:38:58.134Z</time>
      </trkpt>
      <trkpt lat="45.93959" lon="4.42529">
        <ele>621.087097168</ele>
        <time>2016-01-28T10:38:59.111Z</time>
      </trkpt>
      <trkpt lat="45.93963" lon="4.4254">
        <ele>621.523010254</ele>
        <time>2016-01-28T10:39:05.112Z</time>
      </trkpt>
      <trkpt lat="45.93963" lon="4.42542">
        <ele>621.50012207</ele>
        <time>2016-01-28T10:39:06.118Z</time>
      </trkpt>
      <trkpt lat="45.93967" lon="4.42554">
        <ele>620.520385742</ele>
        <time>2016-01-28T10:39:13.134Z</time>
      </trkpt>
      <trkpt lat="45.93967" lon="4.42555">
        <ele>620.385559082</ele>
        <time>2016-01-28T10:39:14.111Z</time>
      </trkpt>
      <trkpt lat="45.93971" lon="4.42566">
        <ele>619.802734375</ele>
        <time>2016-01-28T10:39:25.146Z</time>
      </trkpt>
      <trkpt lat="45.93971" lon="4.42568">
        <ele>619.807312012</ele>
        <time>2016-01-28T10:39:26.118Z</time>
      </trkpt>
      <trkpt lat="45.93976" lon="4.42578">
        <ele>620.089050293</ele>
        <time>2016-01-28T10:39:33.155Z</time>
      </trkpt>
      <trkpt lat="45.93977" lon="4.42578">
        <ele>620.089599609</ele>
        <time>2016-01-28T10:39:34.119Z</time>
      </trkpt>
      <trkpt lat="45.93979" lon="4.4259">
        <ele>618.095092773</ele>
        <time>2016-01-28T10:39:42.148Z</time>
      </trkpt>
      <trkpt lat="45.93979" lon="4.42592">
        <ele>617.789733887</ele>
        <time>2016-01-28T10:39:43.121Z</time>
      </trkpt>
      <trkpt lat="45.93982" lon="4.42603">
        <ele>614.758972168</ele>
        <time>2016-01-28T10:39:53.144Z</time>
      </trkpt>
      <trkpt lat="45.93982" lon="4.42605">
        <ele>614.480651855</ele>
        <time>2016-01-28T10:39:54.112Z</time>
      </trkpt>
      <trkpt lat="45.93986" lon="4.42616">
        <ele>610.004089355</ele>
        <time>2016-01-28T10:40:04.116Z</time>
      </trkpt>
      <trkpt lat="45.93987" lon="4.42618">
        <ele>609.553771973</ele>
        <time>2016-01-28T10:40:05.125Z</time>
      </trkpt>
      <trkpt lat="45.9399" lon="4.42628">
        <ele>605.737670898</ele>
        <time>2016-01-28T10:40:14.145Z</time>
      </trkpt>
      <trkpt lat="45.93991" lon="4.42629">
        <ele>605.412414551</ele>
        <time>2016-01-28T10:40:15.123Z</time>
      </trkpt>
      <trkpt lat="45.93995" lon="4.42641">
        <ele>603.422546387</ele>
        <time>2016-01-28T10:40:25.156Z</time>
      </trkpt>
      <trkpt lat="45.93995" lon="4.42643">
        <ele>603.383728027</ele>
        <time>2016-01-28T10:40:26.123Z</time>
      </trkpt>
      <trkpt lat="45.93998" lon="4.42654">
        <ele>603.01776123</ele>
        <time>2016-01-28T10:40:32.147Z</time>
      </trkpt>
      <trkpt lat="45.93999" lon="4.42656">
        <ele>602.865600586</ele>
        <time>2016-01-28T10:40:33.126Z</time>
      </trkpt>
      <trkpt lat="45.94001" lon="4.42666">
        <ele>601.497924805</ele>
        <time>2016-01-28T10:40:42.152Z</time>
      </trkpt>
      <trkpt lat="45.94003" lon="4.4267">
        <ele>601.480041504</ele>
        <time>2016-01-28T10:40:43.131Z</time>
      </trkpt>
      <trkpt lat="45.94005" lon="4.42682">
        <ele>601.052978516</ele>
        <time>2016-01-28T10:40:50.157Z</time>
      </trkpt>
      <trkpt lat="45.94006" lon="4.42683">
        <ele>600.992553711</ele>
        <time>2016-01-28T10:40:51.127Z</time>
      </trkpt>
      <trkpt lat="45.94007" lon="4.42696">
        <ele>599.630493164</ele>
        <time>2016-01-28T10:40:58.155Z</time>
      </trkpt>
      <trkpt lat="45.94007" lon="4.42698">
        <ele>599.483825684</ele>
        <time>2016-01-28T10:40:59.126Z</time>
      </trkpt>
      <trkpt lat="45.94008" lon="4.4271">
        <ele>595.92376709</ele>
        <time>2016-01-28T10:41:15.161Z</time>
      </trkpt>
      <trkpt lat="45.94009" lon="4.42712">
        <ele>595.573242188</ele>
        <time>2016-01-28T10:41:16.127Z</time>
      </trkpt>
      <trkpt lat="45.94013" lon="4.42722">
        <ele>591.102355957</ele>
        <time>2016-01-28T10:41:33.156Z</time>
      </trkpt>
      <trkpt lat="45.94013" lon="4.42724">
        <ele>590.965332031</ele>
        <time>2016-01-28T10:41:34.129Z</time>
      </trkpt>
      <trkpt lat="45.94017" lon="4.42734">
        <ele>586.952087402</ele>
        <time>2016-01-28T10:41:43.199Z</time>
      </trkpt>
      <trkpt lat="45.94018" lon="4.42736">
        <ele>586.297546387</ele>
        <time>2016-01-28T10:41:44.129Z</time>
      </trkpt>
      <trkpt lat="45.9402" lon="4.42747">
        <ele>583.564086914</ele>
        <time>2016-01-28T10:41:49.167Z</time>
      </trkpt>
      <trkpt lat="45.94021" lon="4.4275">
        <ele>583.263549805</ele>
        <time>2016-01-28T10:41:50.134Z</time>
      </trkpt>
      <trkpt lat="45.94024" lon="4.42761">
        <ele>581.658630371</ele>
        <time>2016-01-28T10:41:56.15Z</time>
      </trkpt>
      <trkpt lat="45.94024" lon="4.42763">
        <ele>581.448181152</ele>
        <time>2016-01-28T10:41:57.129Z</time>
      </trkpt>
      <trkpt lat="45.94027" lon="4.42775">
        <ele>580.00189209</ele>
        <time>2016-01-28T10:42:10.157Z</time>
      </trkpt>
      <trkpt lat="45.94027" lon="4.42776">
        <ele>579.839294434</ele>
        <time>2016-01-28T10:42:11.133Z</time>
      </trkpt>
      <trkpt lat="45.94026" lon="4.42788">
        <ele>577.140197754</ele>
        <time>2016-01-28T10:42:21.186Z</time>
      </trkpt>
      <trkpt lat="45.94026" lon="4.42789">
        <ele>576.895080566</ele>
        <time>2016-01-28T10:42:22.132Z</time>
      </trkpt>
      <trkpt lat="45.94027" lon="4.42802">
        <ele>575.311950684</ele>
        <time>2016-01-28T10:42:29.154Z</time>
      </trkpt>
      <trkpt lat="45.94027" lon="4.42804">
        <ele>575.139526367</ele>
        <time>2016-01-28T10:42:30.134Z</time>
      </trkpt>
      <trkpt lat="45.94029" lon="4.42816">
        <ele>572.86932373</ele>
        <time>2016-01-28T10:42:39.157Z</time>
      </trkpt>
      <trkpt lat="45.94029" lon="4.42817">
        <ele>572.70526123</ele>
        <time>2016-01-28T10:42:40.139Z</time>
      </trkpt>
      <trkpt lat="45.94031" lon="4.42829">
        <ele>570.726745605</ele>
        <time>2016-01-28T10:42:49.153Z</time>
      </trkpt>
      <trkpt lat="45.94032" lon="4.4283">
        <ele>570.473632812</ele>
        <time>2016-01-28T10:42:50.135Z</time>
      </trkpt>
      <trkpt lat="45.94035" lon="4.42841">
        <ele>567.887878418</ele>
        <time>2016-01-28T10:43:02.188Z</time>
      </trkpt>
      <trkpt lat="45.94035" lon="4.42842">
        <ele>567.86114502</ele>
        <time>2016-01-28T10:43:03.137Z</time>
      </trkpt>
      <trkpt lat="45.94038" lon="4.42854">
        <ele>566.251342773</ele>
        <time>2016-01-28T10:43:13.158Z</time>
      </trkpt>
      <trkpt lat="45.94038" lon="4.42855">
        <ele>566.075805664</ele>
        <time>2016-01-28T10:43:14.138Z</time>
      </trkpt>
      <trkpt lat="45.9404" lon="4.42867">
        <ele>564.198059082</ele>
        <time>2016-01-28T10:43:20.161Z</time>
      </trkpt>
      <trkpt lat="45.9404" lon="4.4287">
        <ele>563.901977539</ele>
        <time>2016-01-28T10:43:21.138Z</time>
      </trkpt>
      <trkpt lat="45.94043" lon="4.42881">
        <ele>561.928405762</ele>
        <time>2016-01-28T10:43:29.159Z</time>
      </trkpt>
      <trkpt lat="45.94043" lon="4.42883">
        <ele>561.705322266</ele>
        <time>2016-01-28T10:43:30.138Z</time>
      </trkpt>
      <trkpt lat="45.94045" lon="4.42894">
        <ele>560.719543457</ele>
        <time>2016-01-28T10:43:36.18Z</time>
      </trkpt>
      <trkpt lat="45.94046" lon="4.42896">
        <ele>560.465270996</ele>
        <time>2016-01-28T10:43:37.134Z</time>
      </trkpt>
      <trkpt lat="45.94048" lon="4.42907">
        <ele>558.468078613</ele>
        <time>2016-01-28T10:43:44.182Z</time>
      </trkpt>
      <trkpt lat="45.94048" lon="4.42909">
        <ele>558.248718262</ele>
        <time>2016-01-28T10:43:45.115Z</time>
      </trkpt>
      <trkpt lat="45.9405" lon="4.42921">
        <ele>555.870849609</ele>
        <time>2016-01-28T10:43:58.144Z</time>
      </trkpt>
      <trkpt lat="45.9405" lon="4.42923">
        <ele>555.503662109</ele>
        <time>2016-01-28T10:43:59.118Z</time>
      </trkpt>
      <trkpt lat="45.94051" lon="4.42935">
        <ele>553.612304688</ele>
        <time>2016-01-28T10:44:04.16Z</time>
      </trkpt>
      <trkpt lat="45.94051" lon="4.42937">
        <ele>553.35546875</ele>
        <time>2016-01-28T10:44:05.106Z</time>
      </trkpt>
      <trkpt lat="45.94054" lon="4.42948">
        <ele>551.515197754</ele>
        <time>2016-01-28T10:44:13.139Z</time>
      </trkpt>
      <trkpt lat="45.94054" lon="4.4295">
        <ele>551.27166748</ele>
        <time>2016-01-28T10:44:14.134Z</time>
      </trkpt>
      <trkpt lat="45.94061" lon="4.42956">
        <ele>549.084106445</ele>
        <time>2016-01-28T10:44:20.143Z</time>
      </trkpt>
      <trkpt lat="45.94062" lon="4.42957">
        <ele>548.785217285</ele>
        <time>2016-01-28T10:44:21.126Z</time>
      </trkpt>
      <trkpt lat="45.94071" lon="4.42958">
        <ele>546.948974609</ele>
        <time>2016-01-28T10:44:27.142Z</time>
      </trkpt>
      <trkpt lat="45.94071" lon="4.42958">
        <ele>546.724853516</ele>
        <time>2016-01-28T10:44:28.117Z</time>
      </trkpt>
      <trkpt lat="45.9408" lon="4.42957">
        <ele>544.397644043</ele>
        <time>2016-01-28T10:44:39.145Z</time>
      </trkpt>
      <trkpt lat="45.94081" lon="4.42956">
        <ele>544.254577637</ele>
        <time>2016-01-28T10:44:40.118Z</time>
      </trkpt>
      <trkpt lat="45.9409" lon="4.42956">
        <ele>542.970092773</ele>
        <time>2016-01-28T10:44:49.142Z</time>
      </trkpt>
      <trkpt lat="45.94091" lon="4.42956">
        <ele>542.905822754</ele>
        <time>2016-01-28T10:44:50.12Z</time>
      </trkpt>
      <trkpt lat="45.94099" lon="4.42958">
        <ele>541.964355469</ele>
        <time>2016-01-28T10:44:56.141Z</time>
      </trkpt>
      <trkpt lat="45.941" lon="4.42958">
        <ele>541.784179688</ele>
        <time>2016-01-28T10:44:57.121Z</time>
      </trkpt>
      <trkpt lat="45.94108" lon="4.42963">
        <ele>540.164001465</ele>
        <time>2016-01-28T10:45:12.145Z</time>
      </trkpt>
      <trkpt lat="45.94108" lon="4.42963">
        <ele>540.175964355</ele>
        <time>2016-01-28T10:45:13.121Z</time>
      </trkpt>
      <trkpt lat="45.94111" lon="4.42972">
        <ele>540.340454102</ele>
        <time>2016-01-28T10:45:24.269Z</time>
      </trkpt>
      <trkpt lat="45.94112" lon="4.42977">
        <ele>540.316162109</ele>
        <time>2016-01-28T10:45:25.173Z</time>
      </trkpt>
      <trkpt lat="45.94115" lon="4.42988">
        <ele>539.459289551</ele>
        <time>2016-01-28T10:45:33.167Z</time>
      </trkpt>
      <trkpt lat="45.94115" lon="4.4299">
        <ele>539.330749512</ele>
        <time>2016-01-28T10:45:34.122Z</time>
      </trkpt>
      <trkpt lat="45.94117" lon="4.43002">
        <ele>537.581237793</ele>
        <time>2016-01-28T10:45:41.146Z</time>
      </trkpt>
      <trkpt lat="45.94117" lon="4.43002">
        <ele>537.230834961</ele>
        <time>2016-01-28T10:45:42.136Z</time>
      </trkpt>
      <trkpt lat="45.94116" lon="4.43015">
        <ele>534.554016113</ele>
        <time>2016-01-28T10:45:54.239Z</time>
      </trkpt>
      <trkpt lat="45.94116" lon="4.43016">
        <ele>534.477661133</ele>
        <time>2016-01-28T10:45:55.127Z</time>
      </trkpt>
      <trkpt lat="45.94114" lon="4.43028">
        <ele>533.733947754</ele>
        <time>2016-01-28T10:46:05.148Z</time>
      </trkpt>
      <trkpt lat="45.94113" lon="4.43029">
        <ele>533.589111328</ele>
        <time>2016-01-28T10:46:06.124Z</time>
      </trkpt>
      <trkpt lat="45.94113" lon="4.43042">
        <ele>532.287658691</ele>
        <time>2016-01-28T10:46:16.143Z</time>
      </trkpt>
      <trkpt lat="45.94113" lon="4.43043">
        <ele>532.166320801</ele>
        <time>2016-01-28T10:46:17.125Z</time>
      </trkpt>
      <trkpt lat="45.94112" lon="4.43055">
        <ele>532.893432617</ele>
        <time>2016-01-28T10:46:25.153Z</time>
      </trkpt>
      <trkpt lat="45.94113" lon="4.43057">
        <ele>532.949645996</ele>
        <time>2016-01-28T10:46:26.13Z</time>
      </trkpt>
      <trkpt lat="45.94111" lon="4.4307">
        <ele>532.69354248</ele>
        <time>2016-01-28T10:46:38.161Z</time>
      </trkpt>
      <trkpt lat="45.94111" lon="4.4307">
        <ele>532.739868164</ele>
        <time>2016-01-28T10:46:39.114Z</time>
      </trkpt>
      <trkpt lat="45.94111" lon="4.43082">
        <ele>532.452392578</ele>
        <time>2016-01-28T10:46:45.157Z</time>
      </trkpt>
      <trkpt lat="45.94111" lon="4.43084">
        <ele>532.235778809</ele>
        <time>2016-01-28T10:46:46.12Z</time>
      </trkpt>
      <trkpt lat="45.94113" lon="4.43095">
        <ele>530.238891602</ele>
        <time>2016-01-28T10:46:55.149Z</time>
      </trkpt>
      <trkpt lat="45.94115" lon="4.43098">
        <ele>529.817810059</ele>
        <time>2016-01-28T10:46:56.108Z</time>
      </trkpt>
      <trkpt lat="45.94119" lon="4.43106">
        <ele>527.624694824</ele>
        <time>2016-01-28T10:47:02.151Z</time>
      </trkpt>
      <trkpt lat="45.94121" lon="4.43108">
        <ele>527.290344238</ele>
        <time>2016-01-28T10:47:03.132Z</time>
      </trkpt>
      <trkpt lat="45.94128" lon="4.43115">
        <ele>525.331848145</ele>
        <time>2016-01-28T10:47:08.155Z</time>
      </trkpt>
      <trkpt lat="45.94128" lon="4.43117">
        <ele>525.044494629</ele>
        <time>2016-01-28T10:47:09.13Z</time>
      </trkpt>
      <trkpt lat="45.94134" lon="4.43127">
        <ele>523.05670166</ele>
        <time>2016-01-28T10:47:17.158Z</time>
      </trkpt>
      <trkpt lat="45.94134" lon="4.43128">
        <ele>522.869812012</ele>
        <time>2016-01-28T10:47:18.133Z</time>
      </trkpt>
      <trkpt lat="45.94141" lon="4.43136">
        <ele>521.651000977</ele>
        <time>2016-01-28T10:47:25.153Z</time>
      </trkpt>
      <trkpt lat="45.94142" lon="4.43137">
        <ele>521.364379883</ele>
        <time>2016-01-28T10:47:26.131Z</time>
      </trkpt>
      <trkpt lat="45.94148" lon="4.43144">
        <ele>519.582885742</ele>
        <time>2016-01-28T10:47:33.152Z</time>
      </trkpt>
      <trkpt lat="45.9415" lon="4.43144">
        <ele>519.298400879</ele>
        <time>2016-01-28T10:47:34.131Z</time>
      </trkpt>
      <trkpt lat="45.94157" lon="4.43152">
        <ele>518.675292969</ele>
        <time>2016-01-28T10:47:40.157Z</time>
      </trkpt>
      <trkpt lat="45.94158" lon="4.43154">
        <ele>518.662536621</ele>
        <time>2016-01-28T10:47:41.12Z</time>
      </trkpt>
      <trkpt lat="45.94165" lon="4.4316">
        <ele>517.906799316</ele>
        <time>2016-01-28T10:47:48.175Z</time>
      </trkpt>
      <trkpt lat="45.94166" lon="4.4316">
        <ele>517.818603516</ele>
        <time>2016-01-28T10:47:49.133Z</time>
      </trkpt>
      <trkpt lat="45.94172" lon="4.43167">
        <ele>517.518005371</ele>
        <time>2016-01-28T10:47:54.151Z</time>
      </trkpt>
      <trkpt lat="45.94173" lon="4.43168">
        <ele>517.402587891</ele>
        <time>2016-01-28T10:47:55.117Z</time>
      </trkpt>
      <trkpt lat="45.9418" lon="4.43175">
        <ele>516.430053711</ele>
        <time>2016-01-28T10:48:01.174Z</time>
      </trkpt>
      <trkpt lat="45.94181" lon="4.43176">
        <ele>516.333068848</ele>
        <time>2016-01-28T10:48:02.133Z</time>
      </trkpt>
      <trkpt lat="45.94186" lon="4.43185">
        <ele>515.517456055</ele>
        <time>2016-01-28T10:48:07.263Z</time>
      </trkpt>
      <trkpt lat="45.94187" lon="4.43187">
        <ele>515.38873291</ele>
        <time>2016-01-28T10:48:08.133Z</time>
      </trkpt>
      <trkpt lat="45.94194" lon="4.43194">
        <ele>514.387023926</ele>
        <time>2016-01-28T10:48:14.162Z</time>
      </trkpt>
      <trkpt lat="45.94195" lon="4.43195">
        <ele>514.331359863</ele>
        <time>2016-01-28T10:48:15.134Z</time>
      </trkpt>
      <trkpt lat="45.94201" lon="4.43203">
        <ele>513.345825195</ele>
        <time>2016-01-28T10:48:20.204Z</time>
      </trkpt>
      <trkpt lat="45.94203" lon="4.43205">
        <ele>513.038635254</ele>
        <time>2016-01-28T10:48:21.136Z</time>
      </trkpt>
      <trkpt lat="45.94209" lon="4.43211">
        <ele>510.711791992</ele>
        <time>2016-01-28T10:48:30.16Z</time>
      </trkpt>
      <trkpt lat="45.9421" lon="4.43212">
        <ele>510.545593262</ele>
        <time>2016-01-28T10:48:31.138Z</time>
      </trkpt>
      <trkpt lat="45.94215" lon="4.4322">
        <ele>509.743347168</ele>
        <time>2016-01-28T10:48:37.178Z</time>
      </trkpt>
      <trkpt lat="45.94216" lon="4.43222">
        <ele>509.565032959</ele>
        <time>2016-01-28T10:48:38.136Z</time>
      </trkpt>
      <trkpt lat="45.94222" lon="4.4323">
        <ele>508.49432373</ele>
        <time>2016-01-28T10:48:44.183Z</time>
      </trkpt>
      <trkpt lat="45.94223" lon="4.43231">
        <ele>508.270233154</ele>
        <time>2016-01-28T10:48:45.148Z</time>
      </trkpt>
      <trkpt lat="45.9423" lon="4.4324">
        <ele>507.126617432</ele>
        <time>2016-01-28T10:48:50.149Z</time>
      </trkpt>
      <trkpt lat="45.94231" lon="4.43241">
        <ele>506.911590576</ele>
        <time>2016-01-28T10:48:51.138Z</time>
      </trkpt>
      <trkpt lat="45.94237" lon="4.43249">
        <ele>505.71774292</ele>
        <time>2016-01-28T10:48:57.159Z</time>
      </trkpt>
      <trkpt lat="45.94238" lon="4.4325">
        <ele>505.510498047</ele>
        <time>2016-01-28T10:48:58.134Z</time>
      </trkpt>
      <trkpt lat="45.94245" lon="4.43256">
        <ele>504.201263428</ele>
        <time>2016-01-28T10:49:04.132Z</time>
      </trkpt>
      <trkpt lat="45.94246" lon="4.43257">
        <ele>503.986022949</ele>
        <time>2016-01-28T10:49:05.111Z</time>
      </trkpt>
      <trkpt lat="45.94254" lon="4.43259">
        <ele>502.098846436</ele>
        <time>2016-01-28T10:49:13.138Z</time>
      </trkpt>
      <trkpt lat="45.94255" lon="4.43259">
        <ele>501.983215332</ele>
        <time>2016-01-28T10:49:14.113Z</time>
      </trkpt>
      <trkpt lat="45.94264" lon="4.43261">
        <ele>500.288574219</ele>
        <time>2016-01-28T10:49:22.137Z</time>
      </trkpt>
      <trkpt lat="45.94265" lon="4.43262">
        <ele>500.021118164</ele>
        <time>2016-01-28T10:49:23.114Z</time>
      </trkpt>
      <trkpt lat="45.94272" lon="4.43262">
        <ele>498.578308105</ele>
        <time>2016-01-28T10:49:30.138Z</time>
      </trkpt>
      <trkpt lat="45.94274" lon="4.43263">
        <ele>498.403289795</ele>
        <time>2016-01-28T10:49:31.115Z</time>
      </trkpt>
      <trkpt lat="45.94282" lon="4.43267">
        <ele>497.46005249</ele>
        <time>2016-01-28T10:49:36.147Z</time>
      </trkpt>
      <trkpt lat="45.94283" lon="4.43267">
        <ele>497.23614502</ele>
        <time>2016-01-28T10:49:37.13Z</time>
      </trkpt>
      <trkpt lat="45.94292" lon="4.43269">
        <ele>495.528167725</ele>
        <time>2016-01-28T10:49:45.139Z</time>
      </trkpt>
      <trkpt lat="45.94293" lon="4.43269">
        <ele>495.283569336</ele>
        <time>2016-01-28T10:49:46.117Z</time>
      </trkpt>
      <trkpt lat="45.943" lon="4.43272">
        <ele>494.362060547</ele>
        <time>2016-01-28T10:49:50.145Z</time>
      </trkpt>
      <trkpt lat="45.94302" lon="4.43272">
        <ele>494.271118164</ele>
        <time>2016-01-28T10:49:51.121Z</time>
      </trkpt>
      <trkpt lat="45.9431" lon="4.43275">
        <ele>494.011901855</ele>
        <time>2016-01-28T10:49:58.154Z</time>
      </trkpt>
      <trkpt lat="45.94311" lon="4.43275">
        <ele>493.856903076</ele>
        <time>2016-01-28T10:49:59.117Z</time>
      </trkpt>
      <trkpt lat="45.94319" lon="4.43275">
        <ele>493.198822021</ele>
        <time>2016-01-28T10:50:13.149Z</time>
      </trkpt>
      <trkpt lat="45.94321" lon="4.43274">
        <ele>493.084442139</ele>
        <time>2016-01-28T10:50:14.118Z</time>
      </trkpt>
      <trkpt lat="45.9433" lon="4.43274">
        <ele>491.986450195</ele>
        <time>2016-01-28T10:50:31.148Z</time>
      </trkpt>
      <trkpt lat="45.94331" lon="4.43273">
        <ele>492.007141113</ele>
        <time>2016-01-28T10:50:32.118Z</time>
      </trkpt>
      <trkpt lat="45.94339" lon="4.43273">
        <ele>489.642211914</ele>
        <time>2016-01-28T10:50:46.165Z</time>
      </trkpt>
      <trkpt lat="45.9434" lon="4.43274">
        <ele>489.440612793</ele>
        <time>2016-01-28T10:50:47.123Z</time>
      </trkpt>
      <trkpt lat="45.94347" lon="4.43278">
        <ele>488.577941895</ele>
        <time>2016-01-28T10:50:53.159Z</time>
      </trkpt>
      <trkpt lat="45.94348" lon="4.43279">
        <ele>488.457519531</ele>
        <time>2016-01-28T10:50:54.122Z</time>
      </trkpt>
      <trkpt lat="45.94356" lon="4.43285">
        <ele>487.493225098</ele>
        <time>2016-01-28T10:51:02.152Z</time>
      </trkpt>
      <trkpt lat="45.94357" lon="4.43286">
        <ele>487.40737915</ele>
        <time>2016-01-28T10:51:03.124Z</time>
      </trkpt>
      <trkpt lat="45.94364" lon="4.43292">
        <ele>486.719116211</ele>
        <time>2016-01-28T10:51:09.148Z</time>
      </trkpt>
      <trkpt lat="45.94365" lon="4.43292">
        <ele>486.604888916</ele>
        <time>2016-01-28T10:51:10.112Z</time>
      </trkpt>
      <trkpt lat="45.94373" lon="4.43295">
        <ele>485.944976807</ele>
        <time>2016-01-28T10:51:16.146Z</time>
      </trkpt>
      <trkpt lat="45.94374" lon="4.43296">
        <ele>485.798431396</ele>
        <time>2016-01-28T10:51:17.113Z</time>
      </trkpt>
      <trkpt lat="45.94382" lon="4.43292">
        <ele>485.033508301</ele>
        <time>2016-01-28T10:51:25.157Z</time>
      </trkpt>
      <trkpt lat="45.94383" lon="4.43291">
        <ele>484.985351562</ele>
        <time>2016-01-28T10:51:26.111Z</time>
      </trkpt>
      <trkpt lat="45.94389" lon="4.43282">
        <ele>485.133087158</ele>
        <time>2016-01-28T10:51:34.156Z</time>
      </trkpt>
      <trkpt lat="45.9439" lon="4.43282">
        <ele>485.160064697</ele>
        <time>2016-01-28T10:51:35.114Z</time>
      </trkpt>
      <trkpt lat="45.94396" lon="4.43273">
        <ele>485.540222168</ele>
        <time>2016-01-28T10:51:42.149Z</time>
      </trkpt>
      <trkpt lat="45.94397" lon="4.43272">
        <ele>485.620178223</ele>
        <time>2016-01-28T10:51:43.123Z</time>
      </trkpt>
      <trkpt lat="45.94403" lon="4.43263">
        <ele>486.343444824</ele>
        <time>2016-01-28T10:51:51.144Z</time>
      </trkpt>
      <trkpt lat="45.94404" lon="4.43262">
        <ele>486.397674561</ele>
        <time>2016-01-28T10:51:52.124Z</time>
      </trkpt>
      <trkpt lat="45.94411" lon="4.43254">
        <ele>487.096069336</ele>
        <time>2016-01-28T10:52:01.152Z</time>
      </trkpt>
      <trkpt lat="45.94412" lon="4.43253">
        <ele>487.213409424</ele>
        <time>2016-01-28T10:52:02.127Z</time>
      </trkpt>
      <trkpt lat="45.94418" lon="4.43248">
        <ele>488.012176514</ele>
        <time>2016-01-28T10:52:09.167Z</time>
      </trkpt>
      <trkpt lat="45.9442" lon="4.43246">
        <ele>488.097137451</ele>
        <time>2016-01-28T10:52:10.123Z</time>
      </trkpt>
      <trkpt lat="45.94424" lon="4.43237">
        <ele>488.499420166</ele>
        <time>2016-01-28T10:52:15.157Z</time>
      </trkpt>
      <trkpt lat="45.94425" lon="4.43235">
        <ele>488.578582764</ele>
        <time>2016-01-28T10:52:16.128Z</time>
      </trkpt>
      <trkpt lat="45.94432" lon="4.43227">
        <ele>489.019134521</ele>
        <time>2016-01-28T10:52:22.152Z</time>
      </trkpt>
      <trkpt lat="45.94433" lon="4.43226">
        <ele>489.073120117</ele>
        <time>2016-01-28T10:52:23.13Z</time>
      </trkpt>
      <trkpt lat="45.94439" lon="4.43219">
        <ele>489.174865723</ele>
        <time>2016-01-28T10:52:30.165Z</time>
      </trkpt>
      <trkpt lat="45.9444" lon="4.43218">
        <ele>489.194488525</ele>
        <time>2016-01-28T10:52:31.128Z</time>
      </trkpt>
      <trkpt lat="45.94446" lon="4.43208">
        <ele>489.828521729</ele>
        <time>2016-01-28T10:52:39.16Z</time>
      </trkpt>
      <trkpt lat="45.94446" lon="4.43208">
        <ele>489.900512695</ele>
        <time>2016-01-28T10:52:40.129Z</time>
      </trkpt>
      <trkpt lat="45.94454" lon="4.43203">
        <ele>490.383514404</ele>
        <time>2016-01-28T10:52:47.175Z</time>
      </trkpt>
      <trkpt lat="45.94455" lon="4.43202">
        <ele>490.457855225</ele>
        <time>2016-01-28T10:52:48.119Z</time>
      </trkpt>
      <trkpt lat="45.94462" lon="4.43196">
        <ele>491.150299072</ele>
        <time>2016-01-28T10:52:55.169Z</time>
      </trkpt>
      <trkpt lat="45.94463" lon="4.43195">
        <ele>491.221282959</ele>
        <time>2016-01-28T10:52:56.131Z</time>
      </trkpt>
      <trkpt lat="45.9447" lon="4.43189">
        <ele>492.275054932</ele>
        <time>2016-01-28T10:53:04.161Z</time>
      </trkpt>
      <trkpt lat="45.94471" lon="4.43189">
        <ele>492.36605835</ele>
        <time>2016-01-28T10:53:05.13Z</time>
      </trkpt>
      <trkpt lat="45.94478" lon="4.43181">
        <ele>492.905578613</ele>
        <time>2016-01-28T10:53:12.154Z</time>
      </trkpt>
      <trkpt lat="45.94479" lon="4.43181">
        <ele>492.995727539</ele>
        <time>2016-01-28T10:53:13.141Z</time>
      </trkpt>
      <trkpt lat="45.94486" lon="4.43174">
        <ele>493.967590332</ele>
        <time>2016-01-28T10:53:24.177Z</time>
      </trkpt>
      <trkpt lat="45.94487" lon="4.43172">
        <ele>494.043731689</ele>
        <time>2016-01-28T10:53:25.122Z</time>
      </trkpt>
      <trkpt lat="45.94492" lon="4.43162">
        <ele>494.607177734</ele>
        <time>2016-01-28T10:53:33.184Z</time>
      </trkpt>
      <trkpt lat="45.94493" lon="4.4316">
        <ele>494.68661499</ele>
        <time>2016-01-28T10:53:34.149Z</time>
      </trkpt>
      <trkpt lat="45.94499" lon="4.4315">
        <ele>495.850128174</ele>
        <time>2016-01-28T10:53:42.171Z</time>
      </trkpt>
      <trkpt lat="45.945" lon="4.43149">
        <ele>495.902832031</ele>
        <time>2016-01-28T10:53:43.135Z</time>
      </trkpt>
      <trkpt lat="45.94506" lon="4.43142">
        <ele>496.105773926</ele>
        <time>2016-01-28T10:53:48.155Z</time>
      </trkpt>
      <trkpt lat="45.94507" lon="4.43141">
        <ele>496.12701416</ele>
        <time>2016-01-28T10:53:49.135Z</time>
      </trkpt>
      <trkpt lat="45.94514" lon="4.43134">
        <ele>496.451477051</ele>
        <time>2016-01-28T10:53:55.162Z</time>
      </trkpt>
      <trkpt lat="45.94515" lon="4.43132">
        <ele>496.537628174</ele>
        <time>2016-01-28T10:53:56.131Z</time>
      </trkpt>
      <trkpt lat="45.94517" lon="4.43121">
        <ele>497.628387451</ele>
        <time>2016-01-28T10:54:04.16Z</time>
      </trkpt>
      <trkpt lat="45.94518" lon="4.4312">
        <ele>497.812988281</ele>
        <time>2016-01-28T10:54:05.136Z</time>
      </trkpt>
      <trkpt lat="45.94524" lon="4.43113">
        <ele>498.743682861</ele>
        <time>2016-01-28T10:54:10.164Z</time>
      </trkpt>
      <trkpt lat="45.94526" lon="4.43111">
        <ele>498.988189697</ele>
        <time>2016-01-28T10:54:11.143Z</time>
      </trkpt>
      <trkpt lat="45.94532" lon="4.43104">
        <ele>499.802856445</ele>
        <time>2016-01-28T10:54:16.159Z</time>
      </trkpt>
      <trkpt lat="45.94533" lon="4.43103">
        <ele>499.915618896</ele>
        <time>2016-01-28T10:54:17.103Z</time>
      </trkpt>
      <trkpt lat="45.94537" lon="4.43094">
        <ele>500.745147705</ele>
        <time>2016-01-28T10:54:23.136Z</time>
      </trkpt>
      <trkpt lat="45.94538" lon="4.43093">
        <ele>500.872436523</ele>
        <time>2016-01-28T10:54:24.104Z</time>
      </trkpt>
      <trkpt lat="45.94544" lon="4.43083">
        <ele>501.608947754</ele>
        <time>2016-01-28T10:54:30.117Z</time>
      </trkpt>
      <trkpt lat="45.94545" lon="4.43082">
        <ele>501.730438232</ele>
        <time>2016-01-28T10:54:31.105Z</time>
      </trkpt>
      <trkpt lat="45.94551" lon="4.43074">
        <ele>502.335662842</ele>
        <time>2016-01-28T10:54:39.145Z</time>
      </trkpt>
      <trkpt lat="45.94552" lon="4.43073">
        <ele>502.368469238</ele>
        <time>2016-01-28T10:54:40.11Z</time>
      </trkpt>
      <trkpt lat="45.94558" lon="4.43064">
        <ele>502.718109131</ele>
        <time>2016-01-28T10:54:46.252Z</time>
      </trkpt>
      <trkpt lat="45.9456" lon="4.43063">
        <ele>502.801147461</ele>
        <time>2016-01-28T10:54:47.115Z</time>
      </trkpt>
      <trkpt lat="45.94566" lon="4.43055">
        <ele>503.42791748</ele>
        <time>2016-01-28T10:54:54.141Z</time>
      </trkpt>
      <trkpt lat="45.94567" lon="4.43053">
        <ele>503.507659912</ele>
        <time>2016-01-28T10:54:55.122Z</time>
      </trkpt>
      <trkpt lat="45.94573" lon="4.43045">
        <ele>503.608978271</ele>
        <time>2016-01-28T10:55:02.15Z</time>
      </trkpt>
      <trkpt lat="45.94574" lon="4.43044">
        <ele>503.643371582</ele>
        <time>2016-01-28T10:55:03.118Z</time>
      </trkpt>
      <trkpt lat="45.94581" lon="4.43038">
        <ele>503.822937012</ele>
        <time>2016-01-28T10:55:10.146Z</time>
      </trkpt>
      <trkpt lat="45.94582" lon="4.43037">
        <ele>503.8487854</ele>
        <time>2016-01-28T10:55:11.118Z</time>
      </trkpt>
      <trkpt lat="45.94589" lon="4.4303">
        <ele>505.80368042</ele>
        <time>2016-01-28T10:55:21.156Z</time>
      </trkpt>
      <trkpt lat="45.9459" lon="4.43028">
        <ele>506.085205078</ele>
        <time>2016-01-28T10:55:22.117Z</time>
      </trkpt>
      <trkpt lat="45.94596" lon="4.4302">
        <ele>506.348968506</ele>
        <time>2016-01-28T10:55:24.152Z</time>
      </trkpt>
      <trkpt lat="45.94598" lon="4.43018">
        <ele>506.426269531</ele>
        <time>2016-01-28T10:55:25.122Z</time>
      </trkpt>
      <trkpt lat="45.94602" lon="4.43009">
        <ele>506.992889404</ele>
        <time>2016-01-28T10:55:30.163Z</time>
      </trkpt>
      <trkpt lat="45.94602" lon="4.43007">
        <ele>507.112091064</ele>
        <time>2016-01-28T10:55:31.119Z</time>
      </trkpt>
      <trkpt lat="45.94607" lon="4.42997">
        <ele>507.811950684</ele>
        <time>2016-01-28T10:55:38.148Z</time>
      </trkpt>
      <trkpt lat="45.94607" lon="4.42996">
        <ele>507.992279053</ele>
        <time>2016-01-28T10:55:39.126Z</time>
      </trkpt>
      <trkpt lat="45.94613" lon="4.42987">
        <ele>509.107177734</ele>
        <time>2016-01-28T10:55:46.159Z</time>
      </trkpt>
      <trkpt lat="45.94614" lon="4.42986">
        <ele>509.195159912</ele>
        <time>2016-01-28T10:55:47.122Z</time>
      </trkpt>
      <trkpt lat="45.9462" lon="4.42981">
        <ele>510.334777832</ele>
        <time>2016-01-28T10:55:55.147Z</time>
      </trkpt>
      <trkpt lat="45.94622" lon="4.42978">
        <ele>510.362487793</ele>
        <time>2016-01-28T10:55:56.114Z</time>
      </trkpt>
      <trkpt lat="45.94627" lon="4.4297">
        <ele>510.311401367</ele>
        <time>2016-01-28T10:56:00.148Z</time>
      </trkpt>
      <trkpt lat="45.94628" lon="4.42968">
        <ele>510.285644531</ele>
        <time>2016-01-28T10:56:01.112Z</time>
      </trkpt>
      <trkpt lat="45.94635" lon="4.42962">
        <ele>510.166809082</ele>
        <time>2016-01-28T10:56:06.144Z</time>
      </trkpt>
      <trkpt lat="45.94636" lon="4.42961">
        <ele>510.18270874</ele>
        <time>2016-01-28T10:56:07.122Z</time>
      </trkpt>
      <trkpt lat="45.94643" lon="4.42956">
        <ele>510.463134766</ele>
        <time>2016-01-28T10:56:13.134Z</time>
      </trkpt>
      <trkpt lat="45.94645" lon="4.42955">
        <ele>510.510070801</ele>
        <time>2016-01-28T10:56:14.112Z</time>
      </trkpt>
      <trkpt lat="45.94653" lon="4.42951">
        <ele>511.141784668</ele>
        <time>2016-01-28T10:56:21.143Z</time>
      </trkpt>
      <trkpt lat="45.94654" lon="4.42952">
        <ele>511.263183594</ele>
        <time>2016-01-28T10:56:22.099Z</time>
      </trkpt>
      <trkpt lat="45.94662" lon="4.42954">
        <ele>512.750183105</ele>
        <time>2016-01-28T10:56:30.152Z</time>
      </trkpt>
      <trkpt lat="45.94664" lon="4.42953">
        <ele>512.909790039</ele>
        <time>2016-01-28T10:56:31.122Z</time>
      </trkpt>
      <trkpt lat="45.9467" lon="4.42956">
        <ele>513.572753906</ele>
        <time>2016-01-28T10:56:36.152Z</time>
      </trkpt>
      <trkpt lat="45.94673" lon="4.42954">
        <ele>513.623901367</ele>
        <time>2016-01-28T10:56:37.113Z</time>
      </trkpt>
      <trkpt lat="45.94681" lon="4.42951">
        <ele>514.057922363</ele>
        <time>2016-01-28T10:56:43.156Z</time>
      </trkpt>
      <trkpt lat="45.94682" lon="4.42951">
        <ele>514.130126953</ele>
        <time>2016-01-28T10:56:44.131Z</time>
      </trkpt>
      <trkpt lat="45.9469" lon="4.42955">
        <ele>514.760253906</ele>
        <time>2016-01-28T10:56:53.154Z</time>
      </trkpt>
      <trkpt lat="45.94691" lon="4.42956">
        <ele>514.917785645</ele>
        <time>2016-01-28T10:56:54.125Z</time>
      </trkpt>
      <trkpt lat="45.94697" lon="4.42957">
        <ele>515.645874023</ele>
        <time>2016-01-28T10:56:59.152Z</time>
      </trkpt>
      <trkpt lat="45.94702" lon="4.42954">
        <ele>515.623779297</ele>
        <time>2016-01-28T10:57:00.126Z</time>
      </trkpt>
      <trkpt lat="45.94708" lon="4.42946">
        <ele>515.313415527</ele>
        <time>2016-01-28T10:57:03.156Z</time>
      </trkpt>
      <trkpt lat="45.94709" lon="4.42944">
        <ele>515.158935547</ele>
        <time>2016-01-28T10:57:04.127Z</time>
      </trkpt>
      <trkpt lat="45.94716" lon="4.42936">
        <ele>514.613525391</ele>
        <time>2016-01-28T10:57:10.143Z</time>
      </trkpt>
      <trkpt lat="45.94717" lon="4.42935">
        <ele>514.534851074</ele>
        <time>2016-01-28T10:57:11.126Z</time>
      </trkpt>
      <trkpt lat="45.94723" lon="4.42927">
        <ele>514.80871582</ele>
        <time>2016-01-28T10:57:21.153Z</time>
      </trkpt>
      <trkpt lat="45.94724" lon="4.42926">
        <ele>514.848754883</ele>
        <time>2016-01-28T10:57:22.129Z</time>
      </trkpt>
      <trkpt lat="45.9473" lon="4.42916">
        <ele>514.551513672</ele>
        <time>2016-01-28T10:57:49.151Z</time>
      </trkpt>
      <trkpt lat="45.9473" lon="4.42916">
        <ele>514.55682373</ele>
        <time>2016-01-28T10:57:50.13Z</time>
      </trkpt>
      <trkpt lat="45.94725" lon="4.42927">
        <ele>515.114562988</ele>
        <time>2016-01-28T10:59:21.162Z</time>
      </trkpt>
      <trkpt lat="45.94724" lon="4.42927">
        <ele>515.129455566</ele>
        <time>2016-01-28T10:59:22.14Z</time>
      </trkpt>
      <trkpt lat="45.94731" lon="4.42919">
        <ele>514.99810791</ele>
        <time>2016-01-28T10:59:37.141Z</time>
      </trkpt>
      <trkpt lat="45.94731" lon="4.42917">
        <ele>514.98223877</ele>
        <time>2016-01-28T10:59:38.115Z</time>
      </trkpt>
      <trkpt lat="45.94735" lon="4.42928">
        <ele>519.911010742</ele>
        <time>2016-01-28T11:05:42.148Z</time>
      </trkpt>
      <trkpt lat="45.94736" lon="4.42928">
        <ele>519.825927734</ele>
        <time>2016-01-28T11:05:43.105Z</time>
      </trkpt>
      <trkpt lat="45.94744" lon="4.42932">
        <ele>519.242553711</ele>
        <time>2016-01-28T11:05:53.149Z</time>
      </trkpt>
      <trkpt lat="45.94745" lon="4.42934">
        <ele>519.350769043</ele>
        <time>2016-01-28T11:05:54.116Z</time>
      </trkpt>
      <trkpt lat="45.94751" lon="4.42941">
        <ele>519.436828613</ele>
        <time>2016-01-28T11:06:02.138Z</time>
      </trkpt>
      <trkpt lat="45.94752" lon="4.42942">
        <ele>519.324523926</ele>
        <time>2016-01-28T11:06:03.113Z</time>
      </trkpt>
      <trkpt lat="45.9476" lon="4.42949">
        <ele>518.990966797</ele>
        <time>2016-01-28T11:06:11.293Z</time>
      </trkpt>
      <trkpt lat="45.94761" lon="4.4295">
        <ele>519.011230469</ele>
        <time>2016-01-28T11:06:12.108Z</time>
      </trkpt>
      <trkpt lat="45.94768" lon="4.42955">
        <ele>520.006164551</ele>
        <time>2016-01-28T11:06:19.161Z</time>
      </trkpt>
      <trkpt lat="45.94769" lon="4.42956">
        <ele>520.144470215</ele>
        <time>2016-01-28T11:06:20.115Z</time>
      </trkpt>
      <trkpt lat="45.94774" lon="4.42967">
        <ele>520.392883301</ele>
        <time>2016-01-28T11:06:26.147Z</time>
      </trkpt>
      <trkpt lat="45.94774" lon="4.42968">
        <ele>520.421020508</ele>
        <time>2016-01-28T11:06:27.118Z</time>
      </trkpt>
      <trkpt lat="45.94778" lon="4.42979">
        <ele>520.519165039</ele>
        <time>2016-01-28T11:06:34.142Z</time>
      </trkpt>
      <trkpt lat="45.94779" lon="4.4298">
        <ele>520.503723145</ele>
        <time>2016-01-28T11:06:35.121Z</time>
      </trkpt>
      <trkpt lat="45.94785" lon="4.42989">
        <ele>520.270202637</ele>
        <time>2016-01-28T11:06:41.149Z</time>
      </trkpt>
      <trkpt lat="45.94785" lon="4.42991">
        <ele>520.295043945</ele>
        <time>2016-01-28T11:06:42.12Z</time>
      </trkpt>
      <trkpt lat="45.94791" lon="4.42999">
        <ele>520.472473145</ele>
        <time>2016-01-28T11:06:49.144Z</time>
      </trkpt>
      <trkpt lat="45.94792" lon="4.43">
        <ele>520.47052002</ele>
        <time>2016-01-28T11:06:50.121Z</time>
      </trkpt>
      <trkpt lat="45.94798" lon="4.43009">
        <ele>520.567871094</ele>
        <time>2016-01-28T11:06:57.168Z</time>
      </trkpt>
      <trkpt lat="45.94799" lon="4.4301">
        <ele>520.558776855</ele>
        <time>2016-01-28T11:06:58.121Z</time>
      </trkpt>
      <trkpt lat="45.94804" lon="4.43021">
        <ele>521.103027344</ele>
        <time>2016-01-28T11:07:08.149Z</time>
      </trkpt>
      <trkpt lat="45.94804" lon="4.43021">
        <ele>521.433898926</ele>
        <time>2016-01-28T11:07:09.124Z</time>
      </trkpt>
      <trkpt lat="45.9481" lon="4.43029">
        <ele>523.658691406</ele>
        <time>2016-01-28T11:07:15.168Z</time>
      </trkpt>
      <trkpt lat="45.94811" lon="4.43031">
        <ele>524.006958008</ele>
        <time>2016-01-28T11:07:16.121Z</time>
      </trkpt>
      <trkpt lat="45.94802" lon="4.43035">
        <ele>525.971374512</ele>
        <time>2016-01-28T11:07:22.167Z</time>
      </trkpt>
      <trkpt lat="45.948" lon="4.43035">
        <ele>526.182861328</ele>
        <time>2016-01-28T11:07:23.123Z</time>
      </trkpt>
      <trkpt lat="45.94793" lon="4.43034">
        <ele>527.023193359</ele>
        <time>2016-01-28T11:07:29.149Z</time>
      </trkpt>
      <trkpt lat="45.94791" lon="4.43033">
        <ele>527.127746582</ele>
        <time>2016-01-28T11:07:30.125Z</time>
      </trkpt>
      <trkpt lat="45.94783" lon="4.4303">
        <ele>527.218688965</ele>
        <time>2016-01-28T11:07:33.15Z</time>
      </trkpt>
      <trkpt lat="45.9478" lon="4.4303">
        <ele>527.222961426</ele>
        <time>2016-01-28T11:07:34.125Z</time>
      </trkpt>
      <trkpt lat="45.94772" lon="4.4303">
        <ele>527.910400391</ele>
        <time>2016-01-28T11:07:38.244Z</time>
      </trkpt>
      <trkpt lat="45.94769" lon="4.43031">
        <ele>528.184631348</ele>
        <time>2016-01-28T11:07:39.126Z</time>
      </trkpt>
      <trkpt lat="45.94761" lon="4.43032">
        <ele>528.678771973</ele>
        <time>2016-01-28T11:07:42.157Z</time>
      </trkpt>
      <trkpt lat="45.94759" lon="4.43031">
        <ele>528.629333496</ele>
        <time>2016-01-28T11:07:43.126Z</time>
      </trkpt>
      <trkpt lat="45.94754" lon="4.43022">
        <ele>527.746765137</ele>
        <time>2016-01-28T11:07:47.113Z</time>
      </trkpt>
      <trkpt lat="45.94754" lon="4.4302">
        <ele>527.539489746</ele>
        <time>2016-01-28T11:07:48.124Z</time>
      </trkpt>
      <trkpt lat="45.94752" lon="4.43008">
        <ele>526.665344238</ele>
        <time>2016-01-28T11:07:55.155Z</time>
      </trkpt>
      <trkpt lat="45.94752" lon="4.43007">
        <ele>526.636169434</ele>
        <time>2016-01-28T11:07:56.117Z</time>
      </trkpt>
      <trkpt lat="45.94746" lon="4.42998">
        <ele>529.006530762</ele>
        <time>2016-01-28T11:08:12.165Z</time>
      </trkpt>
      <trkpt lat="45.94745" lon="4.42997">
        <ele>529.284973145</ele>
        <time>2016-01-28T11:08:13.136Z</time>
      </trkpt>
      <trkpt lat="45.94737" lon="4.42994">
        <ele>531.325256348</ele>
        <time>2016-01-28T11:08:22.154Z</time>
      </trkpt>
      <trkpt lat="45.94736" lon="4.42994">
        <ele>531.602172852</ele>
        <time>2016-01-28T11:08:23.13Z</time>
      </trkpt>
      <trkpt lat="45.94729" lon="4.42993">
        <ele>532.411682129</ele>
        <time>2016-01-28T11:08:27.136Z</time>
      </trkpt>
      <trkpt lat="45.94726" lon="4.42993">
        <ele>532.509460449</ele>
        <time>2016-01-28T11:08:28.128Z</time>
      </trkpt>
      <trkpt lat="45.94718" lon="4.42996">
        <ele>532.458496094</ele>
        <time>2016-01-28T11:08:31.152Z</time>
      </trkpt>
      <trkpt lat="45.94716" lon="4.42997">
        <ele>532.405334473</ele>
        <time>2016-01-28T11:08:32.129Z</time>
      </trkpt>
      <trkpt lat="45.9471" lon="4.43003">
        <ele>532.288635254</ele>
        <time>2016-01-28T11:08:37.156Z</time>
      </trkpt>
      <trkpt lat="45.94708" lon="4.43004">
        <ele>532.282592773</ele>
        <time>2016-01-28T11:08:38.139Z</time>
      </trkpt>
      <trkpt lat="45.94702" lon="4.43011">
        <ele>532.677978516</ele>
        <time>2016-01-28T11:08:45.153Z</time>
      </trkpt>
      <trkpt lat="45.94701" lon="4.43011">
        <ele>532.701904297</ele>
        <time>2016-01-28T11:08:46.129Z</time>
      </trkpt>
      <trkpt lat="45.94697" lon="4.43021">
        <ele>533.181274414</ele>
        <time>2016-01-28T11:08:53.154Z</time>
      </trkpt>
      <trkpt lat="45.94696" lon="4.43023">
        <ele>533.154846191</ele>
        <time>2016-01-28T11:08:54.132Z</time>
      </trkpt>
      <trkpt lat="45.94695" lon="4.43035">
        <ele>532.925415039</ele>
        <time>2016-01-28T11:09:00.185Z</time>
      </trkpt>
      <trkpt lat="45.94695" lon="4.43037">
        <ele>532.867797852</ele>
        <time>2016-01-28T11:09:01.132Z</time>
      </trkpt>
      <trkpt lat="45.94696" lon="4.43049">
        <ele>533.010498047</ele>
        <time>2016-01-28T11:09:08.181Z</time>
      </trkpt>
      <trkpt lat="45.94696" lon="4.4305">
        <ele>533.075622559</ele>
        <time>2016-01-28T11:09:09.159Z</time>
      </trkpt>
      <trkpt lat="45.94698" lon="4.43063">
        <ele>533.892089844</ele>
        <time>2016-01-28T11:09:20.158Z</time>
      </trkpt>
      <trkpt lat="45.94698" lon="4.43064">
        <ele>533.945678711</ele>
        <time>2016-01-28T11:09:21.111Z</time>
      </trkpt>
      <trkpt lat="45.94697" lon="4.43075">
        <ele>535.096191406</ele>
        <time>2016-01-28T11:09:31.165Z</time>
      </trkpt>
      <trkpt lat="45.94697" lon="4.43077">
        <ele>535.191589355</ele>
        <time>2016-01-28T11:09:32.134Z</time>
      </trkpt>
      <trkpt lat="45.94695" lon="4.43089">
        <ele>536.18939209</ele>
        <time>2016-01-28T11:09:47.163Z</time>
      </trkpt>
      <trkpt lat="45.94695" lon="4.43092">
        <ele>536.275878906</ele>
        <time>2016-01-28T11:09:48.132Z</time>
      </trkpt>
      <trkpt lat="45.94695" lon="4.43102">
        <ele>536.404052734</ele>
        <time>2016-01-28T11:09:50.162Z</time>
      </trkpt>
      <trkpt lat="45.94696" lon="4.43105">
        <ele>536.434020996</ele>
        <time>2016-01-28T11:09:51.131Z</time>
      </trkpt>
      <trkpt lat="45.94697" lon="4.43117">
        <ele>536.699951172</ele>
        <time>2016-01-28T11:10:01.201Z</time>
      </trkpt>
      <trkpt lat="45.94697" lon="4.43118">
        <ele>536.767150879</ele>
        <time>2016-01-28T11:10:02.091Z</time>
      </trkpt>
      <trkpt lat="45.94699" lon="4.43129">
        <ele>537.676635742</ele>
        <time>2016-01-28T11:10:08.135Z</time>
      </trkpt>
      <trkpt lat="45.94699" lon="4.43131">
        <ele>537.841247559</ele>
        <time>2016-01-28T11:10:09.109Z</time>
      </trkpt>
      <trkpt lat="45.94703" lon="4.43142">
        <ele>539.142211914</ele>
        <time>2016-01-28T11:10:18.124Z</time>
      </trkpt>
      <trkpt lat="45.94704" lon="4.43143">
        <ele>539.30078125</ele>
        <time>2016-01-28T11:10:19.114Z</time>
      </trkpt>
      <trkpt lat="45.94707" lon="4.43155">
        <ele>540.792419434</ele>
        <time>2016-01-28T11:10:30.155Z</time>
      </trkpt>
      <trkpt lat="45.94708" lon="4.43156">
        <ele>540.94354248</ele>
        <time>2016-01-28T11:10:31.11Z</time>
      </trkpt>
      <trkpt lat="45.9471" lon="4.43168">
        <ele>542.729736328</ele>
        <time>2016-01-28T11:10:42.141Z</time>
      </trkpt>
      <trkpt lat="45.94711" lon="4.4317">
        <ele>542.956176758</ele>
        <time>2016-01-28T11:10:43.118Z</time>
      </trkpt>
      <trkpt lat="45.94714" lon="4.43181">
        <ele>544.686401367</ele>
        <time>2016-01-28T11:10:53.149Z</time>
      </trkpt>
      <trkpt lat="45.94714" lon="4.43181">
        <ele>544.854492188</ele>
        <time>2016-01-28T11:10:54.107Z</time>
      </trkpt>
      <trkpt lat="45.94717" lon="4.43193">
        <ele>546.472961426</ele>
        <time>2016-01-28T11:11:05.254Z</time>
      </trkpt>
      <trkpt lat="45.94717" lon="4.43195">
        <ele>546.587341309</ele>
        <time>2016-01-28T11:11:06.113Z</time>
      </trkpt>
      <trkpt lat="45.94721" lon="4.43205">
        <ele>547.911621094</ele>
        <time>2016-01-28T11:11:16.147Z</time>
      </trkpt>
      <trkpt lat="45.94722" lon="4.43206">
        <ele>548.093933105</ele>
        <time>2016-01-28T11:11:17.117Z</time>
      </trkpt>
      <trkpt lat="45.94727" lon="4.43215">
        <ele>549.299072266</ele>
        <time>2016-01-28T11:11:26.143Z</time>
      </trkpt>
      <trkpt lat="45.94727" lon="4.43216">
        <ele>549.42388916</ele>
        <time>2016-01-28T11:11:27.113Z</time>
      </trkpt>
      <trkpt lat="45.94734" lon="4.43224">
        <ele>550.74230957</ele>
        <time>2016-01-28T11:11:38.139Z</time>
      </trkpt>
      <trkpt lat="45.94735" lon="4.43225">
        <ele>550.866943359</ele>
        <time>2016-01-28T11:11:39.109Z</time>
      </trkpt>
      <trkpt lat="45.94742" lon="4.43232">
        <ele>552.195800781</ele>
        <time>2016-01-28T11:11:49.133Z</time>
      </trkpt>
      <trkpt lat="45.94742" lon="4.43232">
        <ele>552.310852051</ele>
        <time>2016-01-28T11:11:50.119Z</time>
      </trkpt>
      <trkpt lat="45.94749" lon="4.43239">
        <ele>553.152160645</ele>
        <time>2016-01-28T11:11:58.148Z</time>
      </trkpt>
      <trkpt lat="45.9475" lon="4.4324">
        <ele>553.257019043</ele>
        <time>2016-01-28T11:11:59.112Z</time>
      </trkpt>
      <trkpt lat="45.94758" lon="4.43246">
        <ele>554.406982422</ele>
        <time>2016-01-28T11:12:07.161Z</time>
      </trkpt>
      <trkpt lat="45.94758" lon="4.43247">
        <ele>554.551940918</ele>
        <time>2016-01-28T11:12:08.113Z</time>
      </trkpt>
      <trkpt lat="45.94765" lon="4.43253">
        <ele>555.532104492</ele>
        <time>2016-01-28T11:12:16.122Z</time>
      </trkpt>
      <trkpt lat="45.94766" lon="4.43253">
        <ele>555.677185059</ele>
        <time>2016-01-28T11:12:17.097Z</time>
      </trkpt>
      <trkpt lat="45.94773" lon="4.43259">
        <ele>556.660461426</ele>
        <time>2016-01-28T11:12:24.131Z</time>
      </trkpt>
      <trkpt lat="45.94774" lon="4.4326">
        <ele>556.815002441</ele>
        <time>2016-01-28T11:12:25.119Z</time>
      </trkpt>
      <trkpt lat="45.94781" lon="4.43266">
        <ele>558.007019043</ele>
        <time>2016-01-28T11:12:31.149Z</time>
      </trkpt>
      <trkpt lat="45.94782" lon="4.43267">
        <ele>558.162414551</ele>
        <time>2016-01-28T11:12:32.113Z</time>
      </trkpt>
      <trkpt lat="45.94789" lon="4.43274">
        <ele>559.539123535</ele>
        <time>2016-01-28T11:12:40.146Z</time>
      </trkpt>
      <trkpt lat="45.9479" lon="4.43274">
        <ele>559.71484375</ele>
        <time>2016-01-28T11:12:41.113Z</time>
      </trkpt>
      <trkpt lat="45.94798" lon="4.4328">
        <ele>561.649658203</ele>
        <time>2016-01-28T11:12:50.149Z</time>
      </trkpt>
      <trkpt lat="45.94799" lon="4.4328">
        <ele>561.836120605</ele>
        <time>2016-01-28T11:12:51.121Z</time>
      </trkpt>
      <trkpt lat="45.94805" lon="4.43286">
        <ele>562.688415527</ele>
        <time>2016-01-28T11:12:58.147Z</time>
      </trkpt>
      <trkpt lat="45.94807" lon="4.43287">
        <ele>562.832763672</ele>
        <time>2016-01-28T11:12:59.126Z</time>
      </trkpt>
      <trkpt lat="45.94814" lon="4.43292">
        <ele>564.326904297</ele>
        <time>2016-01-28T11:13:08.156Z</time>
      </trkpt>
      <trkpt lat="45.94815" lon="4.43292">
        <ele>564.486022949</ele>
        <time>2016-01-28T11:13:09.125Z</time>
      </trkpt>
      <trkpt lat="45.94823" lon="4.43298">
        <ele>565.319274902</ele>
        <time>2016-01-28T11:13:15.123Z</time>
      </trkpt>
      <trkpt lat="45.94823" lon="4.43298">
        <ele>565.509033203</ele>
        <time>2016-01-28T11:13:16.168Z</time>
      </trkpt>
      <trkpt lat="45.9483" lon="4.43301">
        <ele>566.960449219</ele>
        <time>2016-01-28T11:13:25.149Z</time>
      </trkpt>
      <trkpt lat="45.94832" lon="4.43301">
        <ele>567.124328613</ele>
        <time>2016-01-28T11:13:26.12Z</time>
      </trkpt>
      <trkpt lat="45.9484" lon="4.43305">
        <ele>567.959716797</ele>
        <time>2016-01-28T11:13:32.196Z</time>
      </trkpt>
      <trkpt lat="45.94841" lon="4.43306">
        <ele>568.0859375</ele>
        <time>2016-01-28T11:13:33.131Z</time>
      </trkpt>
      <trkpt lat="45.94848" lon="4.4331">
        <ele>568.648742676</ele>
        <time>2016-01-28T11:13:39.144Z</time>
      </trkpt>
      <trkpt lat="45.94849" lon="4.43311">
        <ele>568.704467773</ele>
        <time>2016-01-28T11:13:40.128Z</time>
      </trkpt>
      <trkpt lat="45.94857" lon="4.43317">
        <ele>569.53918457</ele>
        <time>2016-01-28T11:13:48.154Z</time>
      </trkpt>
      <trkpt lat="45.94857" lon="4.43317">
        <ele>569.655212402</ele>
        <time>2016-01-28T11:13:49.129Z</time>
      </trkpt>
      <trkpt lat="45.94865" lon="4.43323">
        <ele>570.491271973</ele>
        <time>2016-01-28T11:13:57.143Z</time>
      </trkpt>
      <trkpt lat="45.94867" lon="4.43324">
        <ele>570.650390625</ele>
        <time>2016-01-28T11:13:58.122Z</time>
      </trkpt>
      <trkpt lat="45.94875" lon="4.43327">
        <ele>571.269165039</ele>
        <time>2016-01-28T11:14:05.158Z</time>
      </trkpt>
      <trkpt lat="45.94876" lon="4.43328">
        <ele>571.376281738</ele>
        <time>2016-01-28T11:14:06.143Z</time>
      </trkpt>
      <trkpt lat="45.94883" lon="4.43336">
        <ele>572.695739746</ele>
        <time>2016-01-28T11:14:14.133Z</time>
      </trkpt>
      <trkpt lat="45.94884" lon="4.43336">
        <ele>572.823791504</ele>
        <time>2016-01-28T11:14:15.148Z</time>
      </trkpt>
      <trkpt lat="45.94891" lon="4.43342">
        <ele>573.717529297</ele>
        <time>2016-01-28T11:14:22.156Z</time>
      </trkpt>
      <trkpt lat="45.94892" lon="4.43342">
        <ele>573.838745117</ele>
        <time>2016-01-28T11:14:23.132Z</time>
      </trkpt>
      <trkpt lat="45.949" lon="4.43346">
        <ele>573.889526367</ele>
        <time>2016-01-28T11:14:30.158Z</time>
      </trkpt>
      <trkpt lat="45.94901" lon="4.43347">
        <ele>573.929626465</ele>
        <time>2016-01-28T11:14:31.132Z</time>
      </trkpt>
      <trkpt lat="45.94908" lon="4.43355">
        <ele>575.240539551</ele>
        <time>2016-01-28T11:14:39.158Z</time>
      </trkpt>
      <trkpt lat="45.94908" lon="4.43356">
        <ele>575.379943848</ele>
        <time>2016-01-28T11:14:40.133Z</time>
      </trkpt>
      <trkpt lat="45.94913" lon="4.43366">
        <ele>576.762878418</ele>
        <time>2016-01-28T11:14:49.166Z</time>
      </trkpt>
      <trkpt lat="45.94915" lon="4.43367">
        <ele>576.985839844</ele>
        <time>2016-01-28T11:14:50.135Z</time>
      </trkpt>
      <trkpt lat="45.94922" lon="4.43372">
        <ele>578.330810547</ele>
        <time>2016-01-28T11:14:57.158Z</time>
      </trkpt>
      <trkpt lat="45.94923" lon="4.43373">
        <ele>578.51184082</ele>
        <time>2016-01-28T11:14:58.123Z</time>
      </trkpt>
      <trkpt lat="45.9493" lon="4.43375">
        <ele>579.029907227</ele>
        <time>2016-01-28T11:15:03.16Z</time>
      </trkpt>
      <trkpt lat="45.94932" lon="4.43375">
        <ele>579.091186523</ele>
        <time>2016-01-28T11:15:04.129Z</time>
      </trkpt>
      <trkpt lat="45.9494" lon="4.43377">
        <ele>579.676391602</ele>
        <time>2016-01-28T11:15:11.159Z</time>
      </trkpt>
      <trkpt lat="45.94941" lon="4.43378">
        <ele>579.790405273</ele>
        <time>2016-01-28T11:15:12.139Z</time>
      </trkpt>
      <trkpt lat="45.94949" lon="4.4338">
        <ele>580.166259766</ele>
        <time>2016-01-28T11:15:18.127Z</time>
      </trkpt>
      <trkpt lat="45.9495" lon="4.4338">
        <ele>580.22088623</ele>
        <time>2016-01-28T11:15:19.111Z</time>
      </trkpt>
      <trkpt lat="45.94959" lon="4.43382">
        <ele>580.478149414</ele>
        <time>2016-01-28T11:15:26.12Z</time>
      </trkpt>
      <trkpt lat="45.9496" lon="4.43382">
        <ele>580.537414551</ele>
        <time>2016-01-28T11:15:27.107Z</time>
      </trkpt>
      <trkpt lat="45.94967" lon="4.43385">
        <ele>581.085510254</ele>
        <time>2016-01-28T11:15:33.124Z</time>
      </trkpt>
      <trkpt lat="45.94969" lon="4.43385">
        <ele>581.184997559</ele>
        <time>2016-01-28T11:15:34.109Z</time>
      </trkpt>
      <trkpt lat="45.94976" lon="4.43388">
        <ele>581.696228027</ele>
        <time>2016-01-28T11:15:41.139Z</time>
      </trkpt>
      <trkpt lat="45.94977" lon="4.43389">
        <ele>581.770263672</ele>
        <time>2016-01-28T11:15:42.104Z</time>
      </trkpt>
      <trkpt lat="45.94986" lon="4.43391">
        <ele>582.505493164</ele>
        <time>2016-01-28T11:15:49.129Z</time>
      </trkpt>
      <trkpt lat="45.94987" lon="4.43392">
        <ele>582.561218262</ele>
        <time>2016-01-28T11:15:50.105Z</time>
      </trkpt>
      <trkpt lat="45.94994" lon="4.43397">
        <ele>583.131835938</ele>
        <time>2016-01-28T11:15:56.135Z</time>
      </trkpt>
      <trkpt lat="45.94996" lon="4.43397">
        <ele>583.199279785</ele>
        <time>2016-01-28T11:15:57.117Z</time>
      </trkpt>
      <trkpt lat="45.95003" lon="4.434">
        <ele>583.392272949</ele>
        <time>2016-01-28T11:16:02.137Z</time>
      </trkpt>
      <trkpt lat="45.95004" lon="4.43401">
        <ele>583.441467285</ele>
        <time>2016-01-28T11:16:03.111Z</time>
      </trkpt>
      <trkpt lat="45.95013" lon="4.43405">
        <ele>583.889404297</ele>
        <time>2016-01-28T11:16:10.142Z</time>
      </trkpt>
      <trkpt lat="45.95014" lon="4.43406">
        <ele>583.969909668</ele>
        <time>2016-01-28T11:16:11.122Z</time>
      </trkpt>
      <trkpt lat="45.95021" lon="4.43409">
        <ele>584.125610352</ele>
        <time>2016-01-28T11:16:16.141Z</time>
      </trkpt>
      <trkpt lat="45.95023" lon="4.43409">
        <ele>584.129150391</ele>
        <time>2016-01-28T11:16:17.113Z</time>
      </trkpt>
      <trkpt lat="45.95029" lon="4.43412">
        <ele>584.230957031</ele>
        <time>2016-01-28T11:16:23.163Z</time>
      </trkpt>
      <trkpt lat="45.95031" lon="4.43413">
        <ele>584.185241699</ele>
        <time>2016-01-28T11:16:24.117Z</time>
      </trkpt>
      <trkpt lat="45.95038" lon="4.43417">
        <ele>583.975097656</ele>
        <time>2016-01-28T11:16:30.148Z</time>
      </trkpt>
      <trkpt lat="45.9504" lon="4.43418">
        <ele>583.945129395</ele>
        <time>2016-01-28T11:16:31.107Z</time>
      </trkpt>
      <trkpt lat="45.95048" lon="4.43422">
        <ele>583.929260254</ele>
        <time>2016-01-28T11:16:37.24Z</time>
      </trkpt>
      <trkpt lat="45.95049" lon="4.43422">
        <ele>583.908691406</ele>
        <time>2016-01-28T11:16:38.126Z</time>
      </trkpt>
      <trkpt lat="45.95057" lon="4.43426">
        <ele>584.245056152</ele>
        <time>2016-01-28T11:16:47.148Z</time>
      </trkpt>
      <trkpt lat="45.95059" lon="4.43428">
        <ele>584.3359375</ele>
        <time>2016-01-28T11:16:48.117Z</time>
      </trkpt>
      <trkpt lat="45.95066" lon="4.43434">
        <ele>584.835327148</ele>
        <time>2016-01-28T11:16:54.203Z</time>
      </trkpt>
      <trkpt lat="45.95068" lon="4.43435">
        <ele>584.905334473</ele>
        <time>2016-01-28T11:16:55.12Z</time>
      </trkpt>
      <trkpt lat="45.95075" lon="4.43442">
        <ele>584.958618164</ele>
        <time>2016-01-28T11:17:00.147Z</time>
      </trkpt>
      <trkpt lat="45.95076" lon="4.43443">
        <ele>585.001647949</ele>
        <time>2016-01-28T11:17:01.115Z</time>
      </trkpt>
      <trkpt lat="45.95084" lon="4.43446">
        <ele>585.188110352</ele>
        <time>2016-01-28T11:17:08.159Z</time>
      </trkpt>
      <trkpt lat="45.95085" lon="4.43447">
        <ele>585.153564453</ele>
        <time>2016-01-28T11:17:09.115Z</time>
      </trkpt>
      <trkpt lat="45.95093" lon="4.4345">
        <ele>584.747192383</ele>
        <time>2016-01-28T11:17:15.155Z</time>
      </trkpt>
      <trkpt lat="45.95094" lon="4.4345">
        <ele>584.654602051</ele>
        <time>2016-01-28T11:17:16.114Z</time>
      </trkpt>
      <trkpt lat="45.95103" lon="4.43453">
        <ele>584.271240234</ele>
        <time>2016-01-28T11:17:23.171Z</time>
      </trkpt>
      <trkpt lat="45.95104" lon="4.43454">
        <ele>584.218017578</ele>
        <time>2016-01-28T11:17:24.121Z</time>
      </trkpt>
      <trkpt lat="45.95112" lon="4.43457">
        <ele>583.821655273</ele>
        <time>2016-01-28T11:17:30.152Z</time>
      </trkpt>
      <trkpt lat="45.95114" lon="4.43457">
        <ele>583.743103027</ele>
        <time>2016-01-28T11:17:31.12Z</time>
      </trkpt>
      <trkpt lat="45.95121" lon="4.43462">
        <ele>583.684387207</ele>
        <time>2016-01-28T11:17:40.147Z</time>
      </trkpt>
      <trkpt lat="45.95123" lon="4.43463">
        <ele>583.695617676</ele>
        <time>2016-01-28T11:17:41.121Z</time>
      </trkpt>
      <trkpt lat="45.95129" lon="4.43471">
        <ele>583.844909668</ele>
        <time>2016-01-28T11:17:47.114Z</time>
      </trkpt>
      <trkpt lat="45.9513" lon="4.43473">
        <ele>583.896850586</ele>
        <time>2016-01-28T11:17:48.113Z</time>
      </trkpt>
      <trkpt lat="45.95135" lon="4.43482">
        <ele>584.161315918</ele>
        <time>2016-01-28T11:17:54.151Z</time>
      </trkpt>
      <trkpt lat="45.95136" lon="4.43484">
        <ele>584.209899902</ele>
        <time>2016-01-28T11:17:55.108Z</time>
      </trkpt>
      <trkpt lat="45.95138" lon="4.43495">
        <ele>584.713684082</ele>
        <time>2016-01-28T11:18:03.142Z</time>
      </trkpt>
      <trkpt lat="45.95138" lon="4.43496">
        <ele>584.793457031</ele>
        <time>2016-01-28T11:18:04.127Z</time>
      </trkpt>
      <trkpt lat="45.95141" lon="4.43508">
        <ele>585.172485352</ele>
        <time>2016-01-28T11:18:11.149Z</time>
      </trkpt>
      <trkpt lat="45.95141" lon="4.4351">
        <ele>585.247375488</ele>
        <time>2016-01-28T11:18:12.111Z</time>
      </trkpt>
      <trkpt lat="45.95142" lon="4.43522">
        <ele>585.664978027</ele>
        <time>2016-01-28T11:18:20.147Z</time>
      </trkpt>
      <trkpt lat="45.95143" lon="4.43524">
        <ele>585.725646973</ele>
        <time>2016-01-28T11:18:21.113Z</time>
      </trkpt>
      <trkpt lat="45.95145" lon="4.43535">
        <ele>586.309448242</ele>
        <time>2016-01-28T11:18:28.141Z</time>
      </trkpt>
      <trkpt lat="45.95146" lon="4.43537">
        <ele>586.361328125</ele>
        <time>2016-01-28T11:18:29.125Z</time>
      </trkpt>
      <trkpt lat="45.95146" lon="4.43549">
        <ele>586.647094727</ele>
        <time>2016-01-28T11:18:36.155Z</time>
      </trkpt>
      <trkpt lat="45.95147" lon="4.43551">
        <ele>586.667358398</ele>
        <time>2016-01-28T11:18:37.132Z</time>
      </trkpt>
      <trkpt lat="45.95149" lon="4.43563">
        <ele>587.062072754</ele>
        <time>2016-01-28T11:18:44.151Z</time>
      </trkpt>
      <trkpt lat="45.9515" lon="4.43565">
        <ele>587.19934082</ele>
        <time>2016-01-28T11:18:45.127Z</time>
      </trkpt>
      <trkpt lat="45.95151" lon="4.43575">
        <ele>588.015014648</ele>
        <time>2016-01-28T11:18:52.159Z</time>
      </trkpt>
      <trkpt lat="45.95152" lon="4.43578">
        <ele>588.104614258</ele>
        <time>2016-01-28T11:18:53.144Z</time>
      </trkpt>
      <trkpt lat="45.95154" lon="4.4359">
        <ele>588.534240723</ele>
        <time>2016-01-28T11:18:59.152Z</time>
      </trkpt>
      <trkpt lat="45.95154" lon="4.43592">
        <ele>588.598510742</ele>
        <time>2016-01-28T11:19:00.127Z</time>
      </trkpt>
      <trkpt lat="45.95158" lon="4.43604">
        <ele>589.287231445</ele>
        <time>2016-01-28T11:19:08.143Z</time>
      </trkpt>
      <trkpt lat="45.95158" lon="4.43605">
        <ele>589.372436523</ele>
        <time>2016-01-28T11:19:09.128Z</time>
      </trkpt>
      <trkpt lat="45.95163" lon="4.43614">
        <ele>590.09588623</ele>
        <time>2016-01-28T11:19:16.159Z</time>
      </trkpt>
      <trkpt lat="45.95164" lon="4.43615">
        <ele>590.226745605</ele>
        <time>2016-01-28T11:19:17.116Z</time>
      </trkpt>
      <trkpt lat="45.95169" lon="4.43625">
        <ele>590.938598633</ele>
        <time>2016-01-28T11:19:24.159Z</time>
      </trkpt>
      <trkpt lat="45.95169" lon="4.43626">
        <ele>590.996459961</ele>
        <time>2016-01-28T11:19:25.128Z</time>
      </trkpt>
      <trkpt lat="45.95175" lon="4.43636">
        <ele>591.532958984</ele>
        <time>2016-01-28T11:19:32.138Z</time>
      </trkpt>
      <trkpt lat="45.95176" lon="4.43637">
        <ele>591.614135742</ele>
        <time>2016-01-28T11:19:33.131Z</time>
      </trkpt>
      <trkpt lat="45.95182" lon="4.43645">
        <ele>592.137451172</ele>
        <time>2016-01-28T11:19:39.176Z</time>
      </trkpt>
      <trkpt lat="45.95183" lon="4.43647">
        <ele>592.217529297</ele>
        <time>2016-01-28T11:19:40.129Z</time>
      </trkpt>
      <trkpt lat="45.95189" lon="4.43652">
        <ele>592.984802246</ele>
        <time>2016-01-28T11:19:46.168Z</time>
      </trkpt>
      <trkpt lat="45.95191" lon="4.43654">
        <ele>593.168273926</ele>
        <time>2016-01-28T11:19:47.152Z</time>
      </trkpt>
      <trkpt lat="45.95198" lon="4.43661">
        <ele>594.220947266</ele>
        <time>2016-01-28T11:19:54.246Z</time>
      </trkpt>
      <trkpt lat="45.95198" lon="4.43662">
        <ele>594.435852051</ele>
        <time>2016-01-28T11:19:55.133Z</time>
      </trkpt>
      <trkpt lat="45.95205" lon="4.43668">
        <ele>596.30065918</ele>
        <time>2016-01-28T11:20:03.185Z</time>
      </trkpt>
      <trkpt lat="45.95207" lon="4.43669">
        <ele>596.517028809</ele>
        <time>2016-01-28T11:20:04.132Z</time>
      </trkpt>
      <trkpt lat="45.95213" lon="4.43676">
        <ele>596.707580566</ele>
        <time>2016-01-28T11:20:12.166Z</time>
      </trkpt>
      <trkpt lat="45.95214" lon="4.43677">
        <ele>596.810119629</ele>
        <time>2016-01-28T11:20:13.133Z</time>
      </trkpt>
      <trkpt lat="45.95222" lon="4.43682">
        <ele>597.936523438</ele>
        <time>2016-01-28T11:20:21.156Z</time>
      </trkpt>
      <trkpt lat="45.95223" lon="4.43683">
        <ele>598.100891113</ele>
        <time>2016-01-28T11:20:22.134Z</time>
      </trkpt>
      <trkpt lat="45.9523" lon="4.43688">
        <ele>599.640808105</ele>
        <time>2016-01-28T11:20:31.162Z</time>
      </trkpt>
      <trkpt lat="45.95231" lon="4.43688">
        <ele>599.805236816</ele>
        <time>2016-01-28T11:20:32.109Z</time>
      </trkpt>
      <trkpt lat="45.95239" lon="4.43691">
        <ele>601.023498535</ele>
        <time>2016-01-28T11:20:39.136Z</time>
      </trkpt>
      <trkpt lat="45.9524" lon="4.43692">
        <ele>601.208068848</ele>
        <time>2016-01-28T11:20:40.101Z</time>
      </trkpt>
      <trkpt lat="45.95248" lon="4.43693">
        <ele>602.261230469</ele>
        <time>2016-01-28T11:20:46.134Z</time>
      </trkpt>
      <trkpt lat="45.95249" lon="4.43694">
        <ele>602.340515137</ele>
        <time>2016-01-28T11:20:47.111Z</time>
      </trkpt>
      <trkpt lat="45.95257" lon="4.43694">
        <ele>602.446105957</ele>
        <time>2016-01-28T11:20:52.14Z</time>
      </trkpt>
      <trkpt lat="45.95259" lon="4.43694">
        <ele>602.420288086</ele>
        <time>2016-01-28T11:20:53.111Z</time>
      </trkpt>
      <trkpt lat="45.95267" lon="4.43697">
        <ele>602.306091309</ele>
        <time>2016-01-28T11:20:59.131Z</time>
      </trkpt>
      <trkpt lat="45.95268" lon="4.43697">
        <ele>602.364379883</ele>
        <time>2016-01-28T11:21:00.102Z</time>
      </trkpt>
      <trkpt lat="45.95275" lon="4.43703">
        <ele>603.132385254</ele>
        <time>2016-01-28T11:21:08.146Z</time>
      </trkpt>
      <trkpt lat="45.95276" lon="4.43704">
        <ele>603.207458496</ele>
        <time>2016-01-28T11:21:09.112Z</time>
      </trkpt>
      <trkpt lat="45.95284" lon="4.4371">
        <ele>603.319641113</ele>
        <time>2016-01-28T11:21:15.142Z</time>
      </trkpt>
      <trkpt lat="45.95285" lon="4.43711">
        <ele>603.396789551</ele>
        <time>2016-01-28T11:21:16.112Z</time>
      </trkpt>
      <trkpt lat="45.9529" lon="4.4372">
        <ele>604.710998535</ele>
        <time>2016-01-28T11:21:23.25Z</time>
      </trkpt>
      <trkpt lat="45.95291" lon="4.43722">
        <ele>604.887817383</ele>
        <time>2016-01-28T11:21:24.115Z</time>
      </trkpt>
      <trkpt lat="45.95295" lon="4.43732">
        <ele>605.380004883</ele>
        <time>2016-01-28T11:21:31.141Z</time>
      </trkpt>
      <trkpt lat="45.95296" lon="4.43734">
        <ele>605.534790039</ele>
        <time>2016-01-28T11:21:32.104Z</time>
      </trkpt>
      <trkpt lat="45.95301" lon="4.43743">
        <ele>606.68737793</ele>
        <time>2016-01-28T11:21:39.147Z</time>
      </trkpt>
      <trkpt lat="45.95302" lon="4.43745">
        <ele>606.861572266</ele>
        <time>2016-01-28T11:21:40.105Z</time>
      </trkpt>
      <trkpt lat="45.95308" lon="4.43753">
        <ele>607.790710449</ele>
        <time>2016-01-28T11:21:48.136Z</time>
      </trkpt>
      <trkpt lat="45.95309" lon="4.43755">
        <ele>607.858337402</ele>
        <time>2016-01-28T11:21:49.117Z</time>
      </trkpt>
      <trkpt lat="45.95316" lon="4.43763">
        <ele>608.918029785</ele>
        <time>2016-01-28T11:21:57.17Z</time>
      </trkpt>
      <trkpt lat="45.95317" lon="4.43764">
        <ele>609.08770752</ele>
        <time>2016-01-28T11:21:58.109Z</time>
      </trkpt>
      <trkpt lat="45.95322" lon="4.43773">
        <ele>609.860229492</ele>
        <time>2016-01-28T11:22:05.107Z</time>
      </trkpt>
      <trkpt lat="45.95323" lon="4.43774">
        <ele>609.924926758</ele>
        <time>2016-01-28T11:22:06.113Z</time>
      </trkpt>
      <trkpt lat="45.95329" lon="4.43782">
        <ele>610.332275391</ele>
        <time>2016-01-28T11:22:11.143Z</time>
      </trkpt>
      <trkpt lat="45.9533" lon="4.43783">
        <ele>610.341308594</ele>
        <time>2016-01-28T11:22:12.102Z</time>
      </trkpt>
      <trkpt lat="45.95335" lon="4.43791">
        <ele>610.413085938</ele>
        <time>2016-01-28T11:22:19.146Z</time>
      </trkpt>
      <trkpt lat="45.95336" lon="4.43792">
        <ele>610.48449707</ele>
        <time>2016-01-28T11:22:20.119Z</time>
      </trkpt>
      <trkpt lat="45.95342" lon="4.438">
        <ele>610.644714355</ele>
        <time>2016-01-28T11:22:26.159Z</time>
      </trkpt>
      <trkpt lat="45.95343" lon="4.43801">
        <ele>610.620300293</ele>
        <time>2016-01-28T11:22:27.116Z</time>
      </trkpt>
      <trkpt lat="45.95349" lon="4.4381">
        <ele>611.238891602</ele>
        <time>2016-01-28T11:22:34.148Z</time>
      </trkpt>
      <trkpt lat="45.9535" lon="4.43812">
        <ele>611.355041504</ele>
        <time>2016-01-28T11:22:35.119Z</time>
      </trkpt>
      <trkpt lat="45.95355" lon="4.4382">
        <ele>612.153564453</ele>
        <time>2016-01-28T11:22:42.142Z</time>
      </trkpt>
      <trkpt lat="45.95356" lon="4.43821">
        <ele>612.334106445</ele>
        <time>2016-01-28T11:22:43.121Z</time>
      </trkpt>
      <trkpt lat="45.9536" lon="4.43832">
        <ele>613.65802002</ele>
        <time>2016-01-28T11:22:49.168Z</time>
      </trkpt>
      <trkpt lat="45.95361" lon="4.43833">
        <ele>613.841247559</ele>
        <time>2016-01-28T11:22:50.125Z</time>
      </trkpt>
      <trkpt lat="45.95366" lon="4.43843">
        <ele>614.944702148</ele>
        <time>2016-01-28T11:22:58.148Z</time>
      </trkpt>
      <trkpt lat="45.95367" lon="4.43845">
        <ele>615.094970703</ele>
        <time>2016-01-28T11:22:59.104Z</time>
      </trkpt>
      <trkpt lat="45.95371" lon="4.43855">
        <ele>615.963012695</ele>
        <time>2016-01-28T11:23:06.148Z</time>
      </trkpt>
      <trkpt lat="45.95372" lon="4.43857">
        <ele>615.997619629</ele>
        <time>2016-01-28T11:23:07.122Z</time>
      </trkpt>
      <trkpt lat="45.95377" lon="4.43867">
        <ele>616.510437012</ele>
        <time>2016-01-28T11:23:15.162Z</time>
      </trkpt>
      <trkpt lat="45.95377" lon="4.43868">
        <ele>616.610290527</ele>
        <time>2016-01-28T11:23:16.135Z</time>
      </trkpt>
      <trkpt lat="45.95379" lon="4.43878">
        <ele>616.955871582</ele>
        <time>2016-01-28T11:23:22.144Z</time>
      </trkpt>
      <trkpt lat="45.9538" lon="4.4388">
        <ele>616.987304688</ele>
        <time>2016-01-28T11:23:23.115Z</time>
      </trkpt>
      <trkpt lat="45.95385" lon="4.43891">
        <ele>617.409423828</ele>
        <time>2016-01-28T11:23:31.138Z</time>
      </trkpt>
      <trkpt lat="45.95385" lon="4.43892">
        <ele>617.472595215</ele>
        <time>2016-01-28T11:23:32.126Z</time>
      </trkpt>
      <trkpt lat="45.95383" lon="4.43904">
        <ele>618.48815918</ele>
        <time>2016-01-28T11:23:44.153Z</time>
      </trkpt>
      <trkpt lat="45.95383" lon="4.43905">
        <ele>618.608947754</ele>
        <time>2016-01-28T11:23:45.123Z</time>
      </trkpt>
      <trkpt lat="45.95376" lon="4.43914">
        <ele>621.686401367</ele>
        <time>2016-01-28T11:23:57.168Z</time>
      </trkpt>
      <trkpt lat="45.95376" lon="4.43914">
        <ele>621.674865723</ele>
        <time>2016-01-28T11:23:58.133Z</time>
      </trkpt>
      <trkpt lat="45.95368" lon="4.4392">
        <ele>621.433532715</ele>
        <time>2016-01-28T11:24:09.164Z</time>
      </trkpt>
      <trkpt lat="45.95367" lon="4.4392">
        <ele>621.496032715</ele>
        <time>2016-01-28T11:24:10.125Z</time>
      </trkpt>
      <trkpt lat="45.95358" lon="4.43921">
        <ele>621.520690918</ele>
        <time>2016-01-28T11:24:16.155Z</time>
      </trkpt>
      <trkpt lat="45.95356" lon="4.43921">
        <ele>621.53326416</ele>
        <time>2016-01-28T11:24:17.115Z</time>
      </trkpt>
      <trkpt lat="45.95348" lon="4.43923">
        <ele>621.47454834</ele>
        <time>2016-01-28T11:24:21.162Z</time>
      </trkpt>
      <trkpt lat="45.95346" lon="4.43922">
        <ele>621.547485352</ele>
        <time>2016-01-28T11:24:22.145Z</time>
      </trkpt>
      <trkpt lat="45.95339" lon="4.43923">
        <ele>621.731628418</ele>
        <time>2016-01-28T11:24:27.165Z</time>
      </trkpt>
      <trkpt lat="45.95337" lon="4.43922">
        <ele>621.865661621</ele>
        <time>2016-01-28T11:24:28.128Z</time>
      </trkpt>
      <trkpt lat="45.9533" lon="4.43922">
        <ele>622.41192627</ele>
        <time>2016-01-28T11:24:33.158Z</time>
      </trkpt>
      <trkpt lat="45.95328" lon="4.43923">
        <ele>622.460083008</ele>
        <time>2016-01-28T11:24:34.128Z</time>
      </trkpt>
      <trkpt lat="45.9532" lon="4.43924">
        <ele>623.093994141</ele>
        <time>2016-01-28T11:24:40.146Z</time>
      </trkpt>
      <trkpt lat="45.95319" lon="4.43924">
        <ele>623.183166504</ele>
        <time>2016-01-28T11:24:41.132Z</time>
      </trkpt>
      <trkpt lat="45.9531" lon="4.43927">
        <ele>623.530822754</ele>
        <time>2016-01-28T11:24:49.149Z</time>
      </trkpt>
      <trkpt lat="45.95309" lon="4.43927">
        <ele>623.517883301</ele>
        <time>2016-01-28T11:24:50.132Z</time>
      </trkpt>
      <trkpt lat="45.95301" lon="4.43931">
        <ele>623.395935059</ele>
        <time>2016-01-28T11:24:56.153Z</time>
      </trkpt>
      <trkpt lat="45.953" lon="4.43931">
        <ele>623.418945312</ele>
        <time>2016-01-28T11:24:57.129Z</time>
      </trkpt>
      <trkpt lat="45.95292" lon="4.43934">
        <ele>623.96496582</ele>
        <time>2016-01-28T11:25:03.176Z</time>
      </trkpt>
      <trkpt lat="45.95291" lon="4.43935">
        <ele>624.059997559</ele>
        <time>2016-01-28T11:25:04.168Z</time>
      </trkpt>
      <trkpt lat="45.95283" lon="4.43937">
        <ele>624.225524902</ele>
        <time>2016-01-28T11:25:09.166Z</time>
      </trkpt>
      <trkpt lat="45.95282" lon="4.43938">
        <ele>624.302185059</ele>
        <time>2016-01-28T11:25:10.136Z</time>
      </trkpt>
      <trkpt lat="45.95275" lon="4.43942">
        <ele>624.684387207</ele>
        <time>2016-01-28T11:25:16.171Z</time>
      </trkpt>
      <trkpt lat="45.95274" lon="4.43943">
        <ele>624.770202637</ele>
        <time>2016-01-28T11:25:17.133Z</time>
      </trkpt>
      <trkpt lat="45.95267" lon="4.4395">
        <ele>625.499206543</ele>
        <time>2016-01-28T11:25:24.131Z</time>
      </trkpt>
      <trkpt lat="45.95267" lon="4.43951">
        <ele>625.566040039</ele>
        <time>2016-01-28T11:25:25.137Z</time>
      </trkpt>
      <trkpt lat="45.95261" lon="4.43961">
        <ele>625.660217285</ele>
        <time>2016-01-28T11:25:31.158Z</time>
      </trkpt>
      <trkpt lat="45.9526" lon="4.43962">
        <ele>625.677612305</ele>
        <time>2016-01-28T11:25:32.132Z</time>
      </trkpt>
      <trkpt lat="45.95255" lon="4.4397">
        <ele>625.846679688</ele>
        <time>2016-01-28T11:25:39.148Z</time>
      </trkpt>
      <trkpt lat="45.95254" lon="4.43972">
        <ele>625.874328613</ele>
        <time>2016-01-28T11:25:40.132Z</time>
      </trkpt>
      <trkpt lat="45.95249" lon="4.43982">
        <ele>626.343933105</ele>
        <time>2016-01-28T11:25:48.119Z</time>
      </trkpt>
      <trkpt lat="45.95249" lon="4.43984">
        <ele>626.377868652</ele>
        <time>2016-01-28T11:25:49.098Z</time>
      </trkpt>
      <trkpt lat="45.95247" lon="4.43997">
        <ele>626.562255859</ele>
        <time>2016-01-28T11:25:56.122Z</time>
      </trkpt>
      <trkpt lat="45.95247" lon="4.43999">
        <ele>626.573120117</ele>
        <time>2016-01-28T11:25:57.102Z</time>
      </trkpt>
      <trkpt lat="45.95247" lon="4.44011">
        <ele>626.734313965</ele>
        <time>2016-01-28T11:26:04.239Z</time>
      </trkpt>
      <trkpt lat="45.95247" lon="4.44013">
        <ele>626.759521484</ele>
        <time>2016-01-28T11:26:05.111Z</time>
      </trkpt>
      <trkpt lat="45.95248" lon="4.44025">
        <ele>626.940002441</ele>
        <time>2016-01-28T11:26:12.139Z</time>
      </trkpt>
      <trkpt lat="45.95248" lon="4.44028">
        <ele>626.933410645</ele>
        <time>2016-01-28T11:26:13.117Z</time>
      </trkpt>
      <trkpt lat="45.95252" lon="4.44037">
        <ele>627.302978516</ele>
        <time>2016-01-28T11:26:21.141Z</time>
      </trkpt>
      <trkpt lat="45.95253" lon="4.44039">
        <ele>627.386047363</ele>
        <time>2016-01-28T11:26:22.104Z</time>
      </trkpt>
      <trkpt lat="45.95259" lon="4.44048">
        <ele>628.651000977</ele>
        <time>2016-01-28T11:26:30.137Z</time>
      </trkpt>
      <trkpt lat="45.95259" lon="4.4405">
        <ele>628.885437012</ele>
        <time>2016-01-28T11:26:31.104Z</time>
      </trkpt>
      <trkpt lat="45.95263" lon="4.4406">
        <ele>630.436889648</ele>
        <time>2016-01-28T11:26:38.141Z</time>
      </trkpt>
      <trkpt lat="45.95264" lon="4.44061">
        <ele>630.652709961</ele>
        <time>2016-01-28T11:26:39.104Z</time>
      </trkpt>
      <trkpt lat="45.95268" lon="4.44071">
        <ele>632.028259277</ele>
        <time>2016-01-28T11:26:45.115Z</time>
      </trkpt>
      <trkpt lat="45.95269" lon="4.44072">
        <ele>632.250976562</ele>
        <time>2016-01-28T11:26:46.105Z</time>
      </trkpt>
      <trkpt lat="45.95274" lon="4.44081">
        <ele>633.587402344</ele>
        <time>2016-01-28T11:26:53.14Z</time>
      </trkpt>
      <trkpt lat="45.95275" lon="4.44082">
        <ele>633.777770996</ele>
        <time>2016-01-28T11:26:54.112Z</time>
      </trkpt>
      <trkpt lat="45.9528" lon="4.44091">
        <ele>635.101989746</ele>
        <time>2016-01-28T11:27:00.144Z</time>
      </trkpt>
      <trkpt lat="45.9528" lon="4.44093">
        <ele>635.403686523</ele>
        <time>2016-01-28T11:27:01.107Z</time>
      </trkpt>
      <trkpt lat="45.95285" lon="4.44104">
        <ele>637.525756836</ele>
        <time>2016-01-28T11:27:08.147Z</time>
      </trkpt>
      <trkpt lat="45.95286" lon="4.44106">
        <ele>637.802490234</ele>
        <time>2016-01-28T11:27:09.117Z</time>
      </trkpt>
      <trkpt lat="45.9529" lon="4.44117">
        <ele>639.781738281</ele>
        <time>2016-01-28T11:27:17.135Z</time>
      </trkpt>
      <trkpt lat="45.95291" lon="4.44119">
        <ele>640.096557617</ele>
        <time>2016-01-28T11:27:18.113Z</time>
      </trkpt>
      <trkpt lat="45.95296" lon="4.44129">
        <ele>641.695251465</ele>
        <time>2016-01-28T11:27:25.144Z</time>
      </trkpt>
      <trkpt lat="45.95296" lon="4.4413">
        <ele>641.919372559</ele>
        <time>2016-01-28T11:27:26.117Z</time>
      </trkpt>
      <trkpt lat="45.95301" lon="4.4414">
        <ele>644.18347168</ele>
        <time>2016-01-28T11:27:35.135Z</time>
      </trkpt>
      <trkpt lat="45.95302" lon="4.44142">
        <ele>644.363037109</ele>
        <time>2016-01-28T11:27:36.118Z</time>
      </trkpt>
      <trkpt lat="45.95306" lon="4.44154">
        <ele>645.349304199</ele>
        <time>2016-01-28T11:27:44.147Z</time>
      </trkpt>
      <trkpt lat="45.95306" lon="4.44155">
        <ele>645.434143066</ele>
        <time>2016-01-28T11:27:45.114Z</time>
      </trkpt>
      <trkpt lat="45.9531" lon="4.44164">
        <ele>645.900878906</ele>
        <time>2016-01-28T11:27:51.146Z</time>
      </trkpt>
      <trkpt lat="45.9531" lon="4.44167">
        <ele>645.968139648</ele>
        <time>2016-01-28T11:27:52.115Z</time>
      </trkpt>
      <trkpt lat="45.95315" lon="4.44176">
        <ele>646.632263184</ele>
        <time>2016-01-28T11:27:58.108Z</time>
      </trkpt>
      <trkpt lat="45.95316" lon="4.44178">
        <ele>646.678649902</ele>
        <time>2016-01-28T11:27:59.128Z</time>
      </trkpt>
      <trkpt lat="45.9532" lon="4.44189">
        <ele>646.850463867</ele>
        <time>2016-01-28T11:28:05.138Z</time>
      </trkpt>
      <trkpt lat="45.95321" lon="4.44191">
        <ele>646.840515137</ele>
        <time>2016-01-28T11:28:06.119Z</time>
      </trkpt>
      <trkpt lat="45.95325" lon="4.44201">
        <ele>646.534057617</ele>
        <time>2016-01-28T11:28:12.229Z</time>
      </trkpt>
      <trkpt lat="45.95326" lon="4.44203">
        <ele>646.500976562</ele>
        <time>2016-01-28T11:28:13.119Z</time>
      </trkpt>
      <trkpt lat="45.95329" lon="4.44214">
        <ele>646.443054199</ele>
        <time>2016-01-28T11:28:21.145Z</time>
      </trkpt>
      <trkpt lat="45.9533" lon="4.44216">
        <ele>646.434631348</ele>
        <time>2016-01-28T11:28:22.121Z</time>
      </trkpt>
      <trkpt lat="45.95332" lon="4.44228">
        <ele>646.248535156</ele>
        <time>2016-01-28T11:28:29.147Z</time>
      </trkpt>
      <trkpt lat="45.95332" lon="4.44229">
        <ele>646.249816895</ele>
        <time>2016-01-28T11:28:30.121Z</time>
      </trkpt>
      <trkpt lat="45.95331" lon="4.44242">
        <ele>646.860107422</ele>
        <time>2016-01-28T11:28:39.317Z</time>
      </trkpt>
      <trkpt lat="45.95331" lon="4.44243">
        <ele>646.961608887</ele>
        <time>2016-01-28T11:28:40.111Z</time>
      </trkpt>
      <trkpt lat="45.95327" lon="4.44255">
        <ele>648.329040527</ele>
        <time>2016-01-28T11:28:49.147Z</time>
      </trkpt>
      <trkpt lat="45.95326" lon="4.44256">
        <ele>648.508056641</ele>
        <time>2016-01-28T11:28:50.115Z</time>
      </trkpt>
      <trkpt lat="45.9532" lon="4.44266">
        <ele>650.63092041</ele>
        <time>2016-01-28T11:28:58.152Z</time>
      </trkpt>
      <trkpt lat="45.95319" lon="4.44267">
        <ele>650.904296875</ele>
        <time>2016-01-28T11:28:59.115Z</time>
      </trkpt>
      <trkpt lat="45.95313" lon="4.44276">
        <ele>651.972961426</ele>
        <time>2016-01-28T11:29:07.156Z</time>
      </trkpt>
      <trkpt lat="45.95312" lon="4.44277">
        <ele>652.031921387</ele>
        <time>2016-01-28T11:29:08.134Z</time>
      </trkpt>
      <trkpt lat="45.95306" lon="4.44283">
        <ele>652.06036377</ele>
        <time>2016-01-28T11:29:13.144Z</time>
      </trkpt>
      <trkpt lat="45.95304" lon="4.44285">
        <ele>652.041503906</ele>
        <time>2016-01-28T11:29:14.125Z</time>
      </trkpt>
      <trkpt lat="45.95298" lon="4.44292">
        <ele>651.219360352</ele>
        <time>2016-01-28T11:29:20.152Z</time>
      </trkpt>
      <trkpt lat="45.95297" lon="4.44294">
        <ele>651.041625977</ele>
        <time>2016-01-28T11:29:21.135Z</time>
      </trkpt>
      <trkpt lat="45.9529" lon="4.443">
        <ele>650.524658203</ele>
        <time>2016-01-28T11:29:28.174Z</time>
      </trkpt>
      <trkpt lat="45.95289" lon="4.44301">
        <ele>650.52722168</ele>
        <time>2016-01-28T11:29:29.127Z</time>
      </trkpt>
      <trkpt lat="45.95282" lon="4.44309">
        <ele>650.559326172</ele>
        <time>2016-01-28T11:29:36.146Z</time>
      </trkpt>
      <trkpt lat="45.95281" lon="4.44311">
        <ele>650.532714844</ele>
        <time>2016-01-28T11:29:37.137Z</time>
      </trkpt>
      <trkpt lat="45.95275" lon="4.44317">
        <ele>650.604187012</ele>
        <time>2016-01-28T11:29:43.147Z</time>
      </trkpt>
      <trkpt lat="45.95274" lon="4.44318">
        <ele>650.658081055</ele>
        <time>2016-01-28T11:29:44.135Z</time>
      </trkpt>
      <trkpt lat="45.95267" lon="4.44325">
        <ele>651.18347168</ele>
        <time>2016-01-28T11:29:50.151Z</time>
      </trkpt>
      <trkpt lat="45.95266" lon="4.44325">
        <ele>651.326049805</ele>
        <time>2016-01-28T11:29:51.131Z</time>
      </trkpt>
      <trkpt lat="45.95258" lon="4.44325">
        <ele>652.168457031</ele>
        <time>2016-01-28T11:29:59.156Z</time>
      </trkpt>
      <trkpt lat="45.95256" lon="4.44324">
        <ele>652.256896973</ele>
        <time>2016-01-28T11:30:00.112Z</time>
      </trkpt>
      <trkpt lat="45.95248" lon="4.44321">
        <ele>652.556640625</ele>
        <time>2016-01-28T11:30:06.169Z</time>
      </trkpt>
      <trkpt lat="45.95247" lon="4.4432">
        <ele>652.555175781</ele>
        <time>2016-01-28T11:30:07.12Z</time>
      </trkpt>
      <trkpt lat="45.95239" lon="4.44315">
        <ele>652.486938477</ele>
        <time>2016-01-28T11:30:14.152Z</time>
      </trkpt>
      <trkpt lat="45.95238" lon="4.44315">
        <ele>652.474731445</ele>
        <time>2016-01-28T11:30:15.13Z</time>
      </trkpt>
      <trkpt lat="45.95229" lon="4.44312">
        <ele>652.081298828</ele>
        <time>2016-01-28T11:30:22.156Z</time>
      </trkpt>
      <trkpt lat="45.95228" lon="4.44312">
        <ele>652.044677734</ele>
        <time>2016-01-28T11:30:23.128Z</time>
      </trkpt>
      <trkpt lat="45.95221" lon="4.44309">
        <ele>651.797912598</ele>
        <time>2016-01-28T11:30:30.152Z</time>
      </trkpt>
      <trkpt lat="45.95219" lon="4.44309">
        <ele>651.779724121</ele>
        <time>2016-01-28T11:30:31.136Z</time>
      </trkpt>
      <trkpt lat="45.95211" lon="4.44309">
        <ele>652.00982666</ele>
        <time>2016-01-28T11:30:38.152Z</time>
      </trkpt>
      <trkpt lat="45.9521" lon="4.44309">
        <ele>652.152526855</ele>
        <time>2016-01-28T11:30:39.131Z</time>
      </trkpt>
      <trkpt lat="45.95203" lon="4.44309">
        <ele>653.02545166</ele>
        <time>2016-01-28T11:30:44.183Z</time>
      </trkpt>
      <trkpt lat="45.95201" lon="4.4431">
        <ele>653.186340332</ele>
        <time>2016-01-28T11:30:45.135Z</time>
      </trkpt>
      <trkpt lat="45.95194" lon="4.44315">
        <ele>653.685180664</ele>
        <time>2016-01-28T11:30:51.154Z</time>
      </trkpt>
      <trkpt lat="45.95193" lon="4.44316">
        <ele>653.69329834</ele>
        <time>2016-01-28T11:30:52.133Z</time>
      </trkpt>
      <trkpt lat="45.95186" lon="4.44322">
        <ele>654.183105469</ele>
        <time>2016-01-28T11:31:00.149Z</time>
      </trkpt>
      <trkpt lat="45.95185" lon="4.44323">
        <ele>654.327880859</ele>
        <time>2016-01-28T11:31:01.138Z</time>
      </trkpt>
      <trkpt lat="45.95178" lon="4.4433">
        <ele>655.712463379</ele>
        <time>2016-01-28T11:31:09.133Z</time>
      </trkpt>
      <trkpt lat="45.95177" lon="4.44332">
        <ele>655.875976562</ele>
        <time>2016-01-28T11:31:10.103Z</time>
      </trkpt>
      <trkpt lat="45.95171" lon="4.44342">
        <ele>657.06060791</ele>
        <time>2016-01-28T11:31:18.136Z</time>
      </trkpt>
      <trkpt lat="45.9517" lon="4.44343">
        <ele>657.24987793</ele>
        <time>2016-01-28T11:31:19.108Z</time>
      </trkpt>
      <trkpt lat="45.95165" lon="4.44352">
        <ele>657.834533691</ele>
        <time>2016-01-28T11:31:25.119Z</time>
      </trkpt>
      <trkpt lat="45.95164" lon="4.44353">
        <ele>657.938781738</ele>
        <time>2016-01-28T11:31:26.119Z</time>
      </trkpt>
      <trkpt lat="45.95157" lon="4.44362">
        <ele>658.535888672</ele>
        <time>2016-01-28T11:31:33.125Z</time>
      </trkpt>
      <trkpt lat="45.95156" lon="4.44362">
        <ele>658.628540039</ele>
        <time>2016-01-28T11:31:34.103Z</time>
      </trkpt>
      <trkpt lat="45.9515" lon="4.44369">
        <ele>659.604797363</ele>
        <time>2016-01-28T11:31:40.129Z</time>
      </trkpt>
      <trkpt lat="45.95149" lon="4.44371">
        <ele>659.69909668</ele>
        <time>2016-01-28T11:31:41.105Z</time>
      </trkpt>
      <trkpt lat="45.95144" lon="4.44379">
        <ele>660.142700195</ele>
        <time>2016-01-28T11:31:47.127Z</time>
      </trkpt>
      <trkpt lat="45.95142" lon="4.44381">
        <ele>660.23059082</ele>
        <time>2016-01-28T11:31:48.1Z</time>
      </trkpt>
      <trkpt lat="45.95137" lon="4.44389">
        <ele>661.23248291</ele>
        <time>2016-01-28T11:31:55.134Z</time>
      </trkpt>
      <trkpt lat="45.95136" lon="4.44391">
        <ele>661.323242188</ele>
        <time>2016-01-28T11:31:56.105Z</time>
      </trkpt>
      <trkpt lat="45.95131" lon="4.444">
        <ele>661.936340332</ele>
        <time>2016-01-28T11:32:04.118Z</time>
      </trkpt>
      <trkpt lat="45.9513" lon="4.44402">
        <ele>661.984375</ele>
        <time>2016-01-28T11:32:05.116Z</time>
      </trkpt>
      <trkpt lat="45.95124" lon="4.44409">
        <ele>662.28704834</ele>
        <time>2016-01-28T11:32:11.136Z</time>
      </trkpt>
      <trkpt lat="45.95123" lon="4.4441">
        <ele>662.334228516</ele>
        <time>2016-01-28T11:32:12.108Z</time>
      </trkpt>
      <trkpt lat="45.95118" lon="4.4442">
        <ele>662.85333252</ele>
        <time>2016-01-28T11:32:18.134Z</time>
      </trkpt>
      <trkpt lat="45.95117" lon="4.44421">
        <ele>662.969360352</ele>
        <time>2016-01-28T11:32:19.114Z</time>
      </trkpt>
      <trkpt lat="45.95112" lon="4.4443">
        <ele>663.092956543</ele>
        <time>2016-01-28T11:32:26.144Z</time>
      </trkpt>
      <trkpt lat="45.95111" lon="4.44432">
        <ele>663.086730957</ele>
        <time>2016-01-28T11:32:27.105Z</time>
      </trkpt>
      <trkpt lat="45.95106" lon="4.44441">
        <ele>663.229553223</ele>
        <time>2016-01-28T11:32:34.145Z</time>
      </trkpt>
      <trkpt lat="45.95105" lon="4.44442">
        <ele>663.25012207</ele>
        <time>2016-01-28T11:32:35.104Z</time>
      </trkpt>
      <trkpt lat="45.95101" lon="4.44453">
        <ele>663.37677002</ele>
        <time>2016-01-28T11:32:42.139Z</time>
      </trkpt>
      <trkpt lat="45.951" lon="4.44454">
        <ele>663.397399902</ele>
        <time>2016-01-28T11:32:43.116Z</time>
      </trkpt>
      <trkpt lat="45.95095" lon="4.44465">
        <ele>663.605163574</ele>
        <time>2016-01-28T11:32:49.15Z</time>
      </trkpt>
      <trkpt lat="45.95094" lon="4.44466">
        <ele>663.677734375</ele>
        <time>2016-01-28T11:32:50.116Z</time>
      </trkpt>
      <trkpt lat="45.95089" lon="4.44476">
        <ele>664.048400879</ele>
        <time>2016-01-28T11:32:57.128Z</time>
      </trkpt>
      <trkpt lat="45.95088" lon="4.44477">
        <ele>664.143859863</ele>
        <time>2016-01-28T11:32:58.107Z</time>
      </trkpt>
      <trkpt lat="45.95081" lon="4.44484">
        <ele>665.183776855</ele>
        <time>2016-01-28T11:33:06.149Z</time>
      </trkpt>
      <trkpt lat="45.9508" lon="4.44485">
        <ele>665.298095703</ele>
        <time>2016-01-28T11:33:07.114Z</time>
      </trkpt>
      <trkpt lat="45.95073" lon="4.44492">
        <ele>666.289916992</ele>
        <time>2016-01-28T11:33:15.162Z</time>
      </trkpt>
      <trkpt lat="45.95072" lon="4.44493">
        <ele>666.405090332</ele>
        <time>2016-01-28T11:33:16.119Z</time>
      </trkpt>
      <trkpt lat="45.95064" lon="4.44499">
        <ele>667.479492188</ele>
        <time>2016-01-28T11:33:24.162Z</time>
      </trkpt>
      <trkpt lat="45.95063" lon="4.445">
        <ele>667.594238281</ele>
        <time>2016-01-28T11:33:25.109Z</time>
      </trkpt>
      <trkpt lat="45.95057" lon="4.44508">
        <ele>668.578735352</ele>
        <time>2016-01-28T11:33:33.216Z</time>
      </trkpt>
      <trkpt lat="45.95056" lon="4.44509">
        <ele>668.698059082</ele>
        <time>2016-01-28T11:33:34.119Z</time>
      </trkpt>
      <trkpt lat="45.95059" lon="4.44521">
        <ele>669.900085449</ele>
        <time>2016-01-28T11:33:44.149Z</time>
      </trkpt>
      <trkpt lat="45.9506" lon="4.44522">
        <ele>669.957519531</ele>
        <time>2016-01-28T11:33:45.121Z</time>
      </trkpt>
      <trkpt lat="45.95068" lon="4.44527">
        <ele>670.730224609</ele>
        <time>2016-01-28T11:33:53.146Z</time>
      </trkpt>
      <trkpt lat="45.95068" lon="4.44527">
        <ele>670.862121582</ele>
        <time>2016-01-28T11:33:54.12Z</time>
      </trkpt>
      <trkpt lat="45.95077" lon="4.44526">
        <ele>672.081848145</ele>
        <time>2016-01-28T11:34:18.148Z</time>
      </trkpt>
      <trkpt lat="45.95078" lon="4.44526">
        <ele>672.107666016</ele>
        <time>2016-01-28T11:34:19.124Z</time>
      </trkpt>
      <trkpt lat="45.95074" lon="4.44537">
        <ele>673.125854492</ele>
        <time>2016-01-28T11:34:37.148Z</time>
      </trkpt>
      <trkpt lat="45.95073" lon="4.44538">
        <ele>673.321960449</ele>
        <time>2016-01-28T11:34:38.124Z</time>
      </trkpt>
      <trkpt lat="45.95065" lon="4.44542">
        <ele>674.295166016</ele>
        <time>2016-01-28T11:34:47.149Z</time>
      </trkpt>
      <trkpt lat="45.95064" lon="4.44543">
        <ele>674.421936035</ele>
        <time>2016-01-28T11:34:48.125Z</time>
      </trkpt>
      <trkpt lat="45.95056" lon="4.44545">
        <ele>675.003051758</ele>
        <time>2016-01-28T11:34:55.164Z</time>
      </trkpt>
      <trkpt lat="45.95055" lon="4.44546">
        <ele>675.11932373</ele>
        <time>2016-01-28T11:34:56.126Z</time>
      </trkpt>
      <trkpt lat="45.95047" lon="4.44549">
        <ele>676.113708496</ele>
        <time>2016-01-28T11:35:05.162Z</time>
      </trkpt>
      <trkpt lat="45.95046" lon="4.44549">
        <ele>676.22442627</ele>
        <time>2016-01-28T11:35:06.128Z</time>
      </trkpt>
      <trkpt lat="45.95039" lon="4.44554">
        <ele>677.354858398</ele>
        <time>2016-01-28T11:35:13.147Z</time>
      </trkpt>
      <trkpt lat="45.95037" lon="4.44555">
        <ele>677.564147949</ele>
        <time>2016-01-28T11:35:14.132Z</time>
      </trkpt>
      <trkpt lat="45.9503" lon="4.44562">
        <ele>678.548583984</ele>
        <time>2016-01-28T11:35:21.151Z</time>
      </trkpt>
      <trkpt lat="45.95029" lon="4.44563">
        <ele>678.64855957</ele>
        <time>2016-01-28T11:35:22.117Z</time>
      </trkpt>
      <trkpt lat="45.95023" lon="4.44571">
        <ele>678.963928223</ele>
        <time>2016-01-28T11:35:29.146Z</time>
      </trkpt>
      <trkpt lat="45.95022" lon="4.44572">
        <ele>679.024047852</ele>
        <time>2016-01-28T11:35:30.129Z</time>
      </trkpt>
      <trkpt lat="45.95014" lon="4.44579">
        <ele>679.62689209</ele>
        <time>2016-01-28T11:35:37.161Z</time>
      </trkpt>
      <trkpt lat="45.95013" lon="4.44579">
        <ele>679.721557617</ele>
        <time>2016-01-28T11:35:38.117Z</time>
      </trkpt>
      <trkpt lat="45.95007" lon="4.4459">
        <ele>680.295837402</ele>
        <time>2016-01-28T11:35:48.158Z</time>
      </trkpt>
      <trkpt lat="45.95007" lon="4.44591">
        <ele>680.41998291</ele>
        <time>2016-01-28T11:35:49.133Z</time>
      </trkpt>
      <trkpt lat="45.95002" lon="4.446">
        <ele>681.185241699</ele>
        <time>2016-01-28T11:35:55.254Z</time>
      </trkpt>
      <trkpt lat="45.95002" lon="4.44602">
        <ele>681.332641602</ele>
        <time>2016-01-28T11:35:56.132Z</time>
      </trkpt>
      <trkpt lat="45.94998" lon="4.44612">
        <ele>682.213256836</ele>
        <time>2016-01-28T11:36:03.158Z</time>
      </trkpt>
      <trkpt lat="45.94997" lon="4.44614">
        <ele>682.296875</ele>
        <time>2016-01-28T11:36:04.132Z</time>
      </trkpt>
      <trkpt lat="45.94993" lon="4.44624">
        <ele>683.240661621</ele>
        <time>2016-01-28T11:36:11.158Z</time>
      </trkpt>
      <trkpt lat="45.94993" lon="4.44626">
        <ele>683.349731445</ele>
        <time>2016-01-28T11:36:12.13Z</time>
      </trkpt>
      <trkpt lat="45.9499" lon="4.44638">
        <ele>684.004150391</ele>
        <time>2016-01-28T11:36:19.121Z</time>
      </trkpt>
      <trkpt lat="45.9499" lon="4.44639">
        <ele>684.103149414</ele>
        <time>2016-01-28T11:36:20.101Z</time>
      </trkpt>
      <trkpt lat="45.94989" lon="4.4465">
        <ele>684.42010498</ele>
        <time>2016-01-28T11:36:26.124Z</time>
      </trkpt>
      <trkpt lat="45.94988" lon="4.44652">
        <ele>684.449035645</ele>
        <time>2016-01-28T11:36:27.101Z</time>
      </trkpt>
      <trkpt lat="45.94985" lon="4.44663">
        <ele>684.826904297</ele>
        <time>2016-01-28T11:36:34.122Z</time>
      </trkpt>
      <trkpt lat="45.94984" lon="4.44664">
        <ele>684.926940918</ele>
        <time>2016-01-28T11:36:35.108Z</time>
      </trkpt>
      <trkpt lat="45.94981" lon="4.44675">
        <ele>685.446350098</ele>
        <time>2016-01-28T11:36:42.121Z</time>
      </trkpt>
      <trkpt lat="45.9498" lon="4.44676">
        <ele>685.488647461</ele>
        <time>2016-01-28T11:36:43.111Z</time>
      </trkpt>
      <trkpt lat="45.94975" lon="4.44686">
        <ele>685.569519043</ele>
        <time>2016-01-28T11:36:50.122Z</time>
      </trkpt>
      <trkpt lat="45.94975" lon="4.44687">
        <ele>685.578918457</ele>
        <time>2016-01-28T11:36:51.108Z</time>
      </trkpt>
      <trkpt lat="45.94969" lon="4.44696">
        <ele>685.772888184</ele>
        <time>2016-01-28T11:36:58.224Z</time>
      </trkpt>
      <trkpt lat="45.94968" lon="4.44697">
        <ele>685.804199219</ele>
        <time>2016-01-28T11:36:59.113Z</time>
      </trkpt>
      <trkpt lat="45.94961" lon="4.44704">
        <ele>685.964294434</ele>
        <time>2016-01-28T11:37:05.144Z</time>
      </trkpt>
      <trkpt lat="45.9496" lon="4.44705">
        <ele>685.981567383</ele>
        <time>2016-01-28T11:37:06.119Z</time>
      </trkpt>
      <trkpt lat="45.94953" lon="4.44713">
        <ele>685.827941895</ele>
        <time>2016-01-28T11:37:13.142Z</time>
      </trkpt>
      <trkpt lat="45.94952" lon="4.44714">
        <ele>685.786987305</ele>
        <time>2016-01-28T11:37:14.112Z</time>
      </trkpt>
      <trkpt lat="45.94945" lon="4.4472">
        <ele>685.573181152</ele>
        <time>2016-01-28T11:37:21.12Z</time>
      </trkpt>
      <trkpt lat="45.94944" lon="4.44721">
        <ele>685.584289551</ele>
        <time>2016-01-28T11:37:22.109Z</time>
      </trkpt>
      <trkpt lat="45.94936" lon="4.44727">
        <ele>685.859924316</ele>
        <time>2016-01-28T11:37:29.121Z</time>
      </trkpt>
      <trkpt lat="45.94935" lon="4.44728">
        <ele>685.899230957</ele>
        <time>2016-01-28T11:37:30.105Z</time>
      </trkpt>
      <trkpt lat="45.94928" lon="4.44733">
        <ele>685.994262695</ele>
        <time>2016-01-28T11:37:36.126Z</time>
      </trkpt>
      <trkpt lat="45.94927" lon="4.44734">
        <ele>686.080444336</ele>
        <time>2016-01-28T11:37:37.113Z</time>
      </trkpt>
      <trkpt lat="45.94919" lon="4.4474">
        <ele>686.912475586</ele>
        <time>2016-01-28T11:37:45.123Z</time>
      </trkpt>
      <trkpt lat="45.94918" lon="4.4474">
        <ele>686.983276367</ele>
        <time>2016-01-28T11:37:46.107Z</time>
      </trkpt>
      <trkpt lat="45.94911" lon="4.44744">
        <ele>687.318603516</ele>
        <time>2016-01-28T11:37:53.14Z</time>
      </trkpt>
      <trkpt lat="45.94909" lon="4.44745">
        <ele>687.358337402</ele>
        <time>2016-01-28T11:37:54.116Z</time>
      </trkpt>
      <trkpt lat="45.94901" lon="4.44748">
        <ele>687.706420898</ele>
        <time>2016-01-28T11:38:01.191Z</time>
      </trkpt>
      <trkpt lat="45.949" lon="4.44749">
        <ele>687.741516113</ele>
        <time>2016-01-28T11:38:02.115Z</time>
      </trkpt>
      <trkpt lat="45.94892" lon="4.4475">
        <ele>687.910827637</ele>
        <time>2016-01-28T11:38:08.145Z</time>
      </trkpt>
      <trkpt lat="45.9489" lon="4.4475">
        <ele>687.945495605</ele>
        <time>2016-01-28T11:38:09.105Z</time>
      </trkpt>
      <trkpt lat="45.94881" lon="4.44751">
        <ele>687.557922363</ele>
        <time>2016-01-28T11:38:16.131Z</time>
      </trkpt>
      <trkpt lat="45.9488" lon="4.44751">
        <ele>687.486083984</ele>
        <time>2016-01-28T11:38:17.128Z</time>
      </trkpt>
      <trkpt lat="45.94871" lon="4.44752">
        <ele>687.455993652</ele>
        <time>2016-01-28T11:38:23.126Z</time>
      </trkpt>
      <trkpt lat="45.94869" lon="4.44753">
        <ele>687.471740723</ele>
        <time>2016-01-28T11:38:24.112Z</time>
      </trkpt>
      <trkpt lat="45.9486" lon="4.44751">
        <ele>687.15411377</ele>
        <time>2016-01-28T11:38:33.131Z</time>
      </trkpt>
      <trkpt lat="45.9486" lon="4.44751">
        <ele>687.085205078</ele>
        <time>2016-01-28T11:38:34.116Z</time>
      </trkpt>
      <trkpt lat="45.94853" lon="4.44748">
        <ele>686.832519531</ele>
        <time>2016-01-28T11:38:39.128Z</time>
      </trkpt>
      <trkpt lat="45.94851" lon="4.44747">
        <ele>686.814697266</ele>
        <time>2016-01-28T11:38:40.115Z</time>
      </trkpt>
      <trkpt lat="45.94842" lon="4.44746">
        <ele>686.70300293</ele>
        <time>2016-01-28T11:38:48.129Z</time>
      </trkpt>
      <trkpt lat="45.9484" lon="4.44746">
        <ele>686.723632812</ele>
        <time>2016-01-28T11:38:49.121Z</time>
      </trkpt>
      <trkpt lat="45.94832" lon="4.44745">
        <ele>687.043029785</ele>
        <time>2016-01-28T11:38:57.134Z</time>
      </trkpt>
      <trkpt lat="45.9483" lon="4.44745">
        <ele>687.096923828</ele>
        <time>2016-01-28T11:38:58.13Z</time>
      </trkpt>
      <trkpt lat="45.94822" lon="4.44746">
        <ele>687.580993652</ele>
        <time>2016-01-28T11:39:03.136Z</time>
      </trkpt>
      <trkpt lat="45.9482" lon="4.44746">
        <ele>687.65045166</ele>
        <time>2016-01-28T11:39:04.126Z</time>
      </trkpt>
      <trkpt lat="45.94812" lon="4.44752">
        <ele>688.072143555</ele>
        <time>2016-01-28T11:39:09.147Z</time>
      </trkpt>
      <trkpt lat="45.94811" lon="4.44753">
        <ele>688.173522949</ele>
        <time>2016-01-28T11:39:10.12Z</time>
      </trkpt>
      <trkpt lat="45.94804" lon="4.44759">
        <ele>688.766662598</ele>
        <time>2016-01-28T11:39:16.162Z</time>
      </trkpt>
      <trkpt lat="45.94802" lon="4.44761">
        <ele>688.8125</ele>
        <time>2016-01-28T11:39:17.122Z</time>
      </trkpt>
      <trkpt lat="45.94794" lon="4.44766">
        <ele>688.710388184</ele>
        <time>2016-01-28T11:39:22.148Z</time>
      </trkpt>
      <trkpt lat="45.94792" lon="4.44767">
        <ele>688.618713379</ele>
        <time>2016-01-28T11:39:23.131Z</time>
      </trkpt>
      <trkpt lat="45.94784" lon="4.44768">
        <ele>687.743591309</ele>
        <time>2016-01-28T11:39:30.149Z</time>
      </trkpt>
      <trkpt lat="45.94783" lon="4.44768">
        <ele>687.680053711</ele>
        <time>2016-01-28T11:39:31.124Z</time>
      </trkpt>
      <trkpt lat="45.94776" lon="4.44773">
        <ele>687.137084961</ele>
        <time>2016-01-28T11:39:38.149Z</time>
      </trkpt>
      <trkpt lat="45.94775" lon="4.44774">
        <ele>687.055847168</ele>
        <time>2016-01-28T11:39:39.123Z</time>
      </trkpt>
      <trkpt lat="45.94769" lon="4.44782">
        <ele>686.93371582</ele>
        <time>2016-01-28T11:39:45.145Z</time>
      </trkpt>
      <trkpt lat="45.94768" lon="4.44784">
        <ele>686.862182617</ele>
        <time>2016-01-28T11:39:46.113Z</time>
      </trkpt>
      <trkpt lat="45.94762" lon="4.44792">
        <ele>686.147094727</ele>
        <time>2016-01-28T11:39:55.114Z</time>
      </trkpt>
      <trkpt lat="45.94761" lon="4.44793">
        <ele>686.216064453</ele>
        <time>2016-01-28T11:39:56.127Z</time>
      </trkpt>
      <trkpt lat="45.94755" lon="4.448">
        <ele>686.677490234</ele>
        <time>2016-01-28T11:40:02.15Z</time>
      </trkpt>
      <trkpt lat="45.94754" lon="4.44801">
        <ele>686.695800781</ele>
        <time>2016-01-28T11:40:03.111Z</time>
      </trkpt>
      <trkpt lat="45.94748" lon="4.4481">
        <ele>686.820495605</ele>
        <time>2016-01-28T11:40:08.143Z</time>
      </trkpt>
      <trkpt lat="45.94747" lon="4.44811">
        <ele>686.833312988</ele>
        <time>2016-01-28T11:40:09.12Z</time>
      </trkpt>
      <trkpt lat="45.9474" lon="4.44817">
        <ele>686.701965332</ele>
        <time>2016-01-28T11:40:14.151Z</time>
      </trkpt>
      <trkpt lat="45.94739" lon="4.44818">
        <ele>686.65814209</ele>
        <time>2016-01-28T11:40:15.117Z</time>
      </trkpt>
      <trkpt lat="45.94734" lon="4.44827">
        <ele>686.75982666</ele>
        <time>2016-01-28T11:40:20.156Z</time>
      </trkpt>
      <trkpt lat="45.94733" lon="4.44829">
        <ele>686.817077637</ele>
        <time>2016-01-28T11:40:21.136Z</time>
      </trkpt>
      <trkpt lat="45.94726" lon="4.44837">
        <ele>686.822021484</ele>
        <time>2016-01-28T11:40:27.143Z</time>
      </trkpt>
      <trkpt lat="45.94725" lon="4.44837">
        <ele>686.74432373</ele>
        <time>2016-01-28T11:40:28.124Z</time>
      </trkpt>
      <trkpt lat="45.94717" lon="4.44842">
        <ele>685.841064453</ele>
        <time>2016-01-28T11:40:36.155Z</time>
      </trkpt>
      <trkpt lat="45.94715" lon="4.44843">
        <ele>685.733398438</ele>
        <time>2016-01-28T11:40:37.13Z</time>
      </trkpt>
      <trkpt lat="45.94708" lon="4.4485">
        <ele>685.192810059</ele>
        <time>2016-01-28T11:40:43.16Z</time>
      </trkpt>
      <trkpt lat="45.94707" lon="4.44851">
        <ele>685.085205078</ele>
        <time>2016-01-28T11:40:44.136Z</time>
      </trkpt>
      <trkpt lat="45.94699" lon="4.44857">
        <ele>684.485351562</ele>
        <time>2016-01-28T11:40:50.179Z</time>
      </trkpt>
      <trkpt lat="45.94698" lon="4.44857">
        <ele>684.375793457</ele>
        <time>2016-01-28T11:40:51.133Z</time>
      </trkpt>
      <trkpt lat="45.9469" lon="4.44861">
        <ele>683.561157227</ele>
        <time>2016-01-28T11:40:58.162Z</time>
      </trkpt>
      <trkpt lat="45.94689" lon="4.4486">
        <ele>683.392700195</ele>
        <time>2016-01-28T11:40:59.133Z</time>
      </trkpt>
      <trkpt lat="45.94681" lon="4.44864">
        <ele>682.28704834</ele>
        <time>2016-01-28T11:41:05.157Z</time>
      </trkpt>
      <trkpt lat="45.9468" lon="4.44865">
        <ele>682.161254883</ele>
        <time>2016-01-28T11:41:06.148Z</time>
      </trkpt>
      <trkpt lat="45.94674" lon="4.44872">
        <ele>681.35748291</ele>
        <time>2016-01-28T11:41:12.157Z</time>
      </trkpt>
      <trkpt lat="45.94673" lon="4.44873">
        <ele>681.246398926</ele>
        <time>2016-01-28T11:41:13.142Z</time>
      </trkpt>
      <trkpt lat="45.94667" lon="4.44881">
        <ele>680.670410156</ele>
        <time>2016-01-28T11:41:19.158Z</time>
      </trkpt>
      <trkpt lat="45.94666" lon="4.44883">
        <ele>680.631896973</ele>
        <time>2016-01-28T11:41:20.138Z</time>
      </trkpt>
      <trkpt lat="45.94668" lon="4.44894">
        <ele>680.5625</ele>
        <time>2016-01-28T11:41:29.16Z</time>
      </trkpt>
      <trkpt lat="45.94668" lon="4.44896">
        <ele>680.701538086</ele>
        <time>2016-01-28T11:41:30.132Z</time>
      </trkpt>
      <trkpt lat="45.94672" lon="4.44906">
        <ele>681.907897949</ele>
        <time>2016-01-28T11:41:37.139Z</time>
      </trkpt>
      <trkpt lat="45.94673" lon="4.44908">
        <ele>681.95489502</ele>
        <time>2016-01-28T11:41:38.101Z</time>
      </trkpt>
      <trkpt lat="45.9468" lon="4.44915">
        <ele>681.756530762</ele>
        <time>2016-01-28T11:41:43.122Z</time>
      </trkpt>
      <trkpt lat="45.94681" lon="4.44916">
        <ele>681.688537598</ele>
        <time>2016-01-28T11:41:44.102Z</time>
      </trkpt>
      <trkpt lat="45.9469" lon="4.44919">
        <ele>681.831848145</ele>
        <time>2016-01-28T11:41:51.105Z</time>
      </trkpt>
      <trkpt lat="45.94691" lon="4.44919">
        <ele>681.825500488</ele>
        <time>2016-01-28T11:41:52.098Z</time>
      </trkpt>
      <trkpt lat="45.94698" lon="4.4492">
        <ele>681.43927002</ele>
        <time>2016-01-28T11:41:57.119Z</time>
      </trkpt>
      <trkpt lat="45.947" lon="4.4492">
        <ele>681.360717773</ele>
        <time>2016-01-28T11:41:58.102Z</time>
      </trkpt>
      <trkpt lat="45.94708" lon="4.44919">
        <ele>680.571411133</ele>
        <time>2016-01-28T11:42:04.14Z</time>
      </trkpt>
      <trkpt lat="45.9471" lon="4.4492">
        <ele>680.434875488</ele>
        <time>2016-01-28T11:42:05.111Z</time>
      </trkpt>
      <trkpt lat="45.94719" lon="4.44919">
        <ele>679.299560547</ele>
        <time>2016-01-28T11:42:11.125Z</time>
      </trkpt>
      <trkpt lat="45.9472" lon="4.44919">
        <ele>679.043029785</ele>
        <time>2016-01-28T11:42:12.107Z</time>
      </trkpt>
      <trkpt lat="45.94729" lon="4.44918">
        <ele>678.003967285</ele>
        <time>2016-01-28T11:42:18.12Z</time>
      </trkpt>
      <trkpt lat="45.9473" lon="4.44918">
        <ele>677.890869141</ele>
        <time>2016-01-28T11:42:19.102Z</time>
      </trkpt>
      <trkpt lat="45.94737" lon="4.44914">
        <ele>676.694458008</ele>
        <time>2016-01-28T11:42:25.126Z</time>
      </trkpt>
      <trkpt lat="45.94738" lon="4.44912">
        <ele>676.468688965</ele>
        <time>2016-01-28T11:42:26.107Z</time>
      </trkpt>
      <trkpt lat="45.94745" lon="4.44907">
        <ele>674.873840332</ele>
        <time>2016-01-28T11:42:32.155Z</time>
      </trkpt>
      <trkpt lat="45.94747" lon="4.44906">
        <ele>674.622558594</ele>
        <time>2016-01-28T11:42:33.115Z</time>
      </trkpt>
      <trkpt lat="45.94755" lon="4.44903">
        <ele>673.10559082</ele>
        <time>2016-01-28T11:42:40.147Z</time>
      </trkpt>
      <trkpt lat="45.94756" lon="4.44903">
        <ele>672.987976074</ele>
        <time>2016-01-28T11:42:41.106Z</time>
      </trkpt>
      <trkpt lat="45.94764" lon="4.44898">
        <ele>672.030883789</ele>
        <time>2016-01-28T11:42:48.136Z</time>
      </trkpt>
      <trkpt lat="45.94766" lon="4.44897">
        <ele>671.94354248</ele>
        <time>2016-01-28T11:42:49.1Z</time>
      </trkpt>
      <trkpt lat="45.94773" lon="4.44892">
        <ele>671.061523438</ele>
        <time>2016-01-28T11:42:55.163Z</time>
      </trkpt>
      <trkpt lat="45.94774" lon="4.44891">
        <ele>670.926879883</ele>
        <time>2016-01-28T11:42:56.114Z</time>
      </trkpt>
      <trkpt lat="45.94782" lon="4.44887">
        <ele>670.148803711</ele>
        <time>2016-01-28T11:43:02.131Z</time>
      </trkpt>
      <trkpt lat="45.94783" lon="4.44887">
        <ele>669.90802002</ele>
        <time>2016-01-28T11:43:03.108Z</time>
      </trkpt>
      <trkpt lat="45.94791" lon="4.44883">
        <ele>668.811157227</ele>
        <time>2016-01-28T11:43:09.139Z</time>
      </trkpt>
      <trkpt lat="45.94793" lon="4.44882">
        <ele>668.656982422</ele>
        <time>2016-01-28T11:43:10.108Z</time>
      </trkpt>
      <trkpt lat="45.948" lon="4.44877">
        <ele>667.985595703</ele>
        <time>2016-01-28T11:43:15.171Z</time>
      </trkpt>
      <trkpt lat="45.94801" lon="4.44876">
        <ele>667.866455078</ele>
        <time>2016-01-28T11:43:16.116Z</time>
      </trkpt>
      <trkpt lat="45.94808" lon="4.44872">
        <ele>667.090576172</ele>
        <time>2016-01-28T11:43:22.134Z</time>
      </trkpt>
      <trkpt lat="45.9481" lon="4.44871">
        <ele>667.01751709</ele>
        <time>2016-01-28T11:43:23.106Z</time>
      </trkpt>
      <trkpt lat="45.94817" lon="4.44866">
        <ele>666.631896973</ele>
        <time>2016-01-28T11:43:30.139Z</time>
      </trkpt>
      <trkpt lat="45.94818" lon="4.44866">
        <ele>666.462158203</ele>
        <time>2016-01-28T11:43:31.111Z</time>
      </trkpt>
      <trkpt lat="45.94825" lon="4.4486">
        <ele>664.960449219</ele>
        <time>2016-01-28T11:43:39.131Z</time>
      </trkpt>
      <trkpt lat="45.94826" lon="4.44859">
        <ele>664.780944824</ele>
        <time>2016-01-28T11:43:40.106Z</time>
      </trkpt>
      <trkpt lat="45.94834" lon="4.44854">
        <ele>664.223022461</ele>
        <time>2016-01-28T11:43:48.129Z</time>
      </trkpt>
      <trkpt lat="45.94836" lon="4.44853">
        <ele>664.18951416</ele>
        <time>2016-01-28T11:43:49.119Z</time>
      </trkpt>
      <trkpt lat="45.94844" lon="4.44851">
        <ele>663.404968262</ele>
        <time>2016-01-28T11:43:56.143Z</time>
      </trkpt>
      <trkpt lat="45.94845" lon="4.44851">
        <ele>663.311706543</ele>
        <time>2016-01-28T11:43:57.107Z</time>
      </trkpt>
      <trkpt lat="45.94854" lon="4.4485">
        <ele>662.591369629</ele>
        <time>2016-01-28T11:44:05.139Z</time>
      </trkpt>
      <trkpt lat="45.94855" lon="4.4485">
        <ele>662.542907715</ele>
        <time>2016-01-28T11:44:06.106Z</time>
      </trkpt>
      <trkpt lat="45.94862" lon="4.44849">
        <ele>662.286132812</ele>
        <time>2016-01-28T11:44:12.139Z</time>
      </trkpt>
      <trkpt lat="45.94864" lon="4.44849">
        <ele>662.191345215</ele>
        <time>2016-01-28T11:44:13.111Z</time>
      </trkpt>
      <trkpt lat="45.94871" lon="4.44846">
        <ele>661.861999512</ele>
        <time>2016-01-28T11:44:18.148Z</time>
      </trkpt>
      <trkpt lat="45.94873" lon="4.44845">
        <ele>661.790222168</ele>
        <time>2016-01-28T11:44:19.117Z</time>
      </trkpt>
      <trkpt lat="45.9488" lon="4.44843">
        <ele>661.415222168</ele>
        <time>2016-01-28T11:44:23.124Z</time>
      </trkpt>
      <trkpt lat="45.94882" lon="4.44843">
        <ele>661.306518555</ele>
        <time>2016-01-28T11:44:24.114Z</time>
      </trkpt>
      <trkpt lat="45.9489" lon="4.44844">
        <ele>661.991271973</ele>
        <time>2016-01-28T11:44:33.147Z</time>
      </trkpt>
      <trkpt lat="45.94891" lon="4.44845">
        <ele>662.245239258</ele>
        <time>2016-01-28T11:44:34.115Z</time>
      </trkpt>
      <trkpt lat="45.94899" lon="4.44851">
        <ele>663.70324707</ele>
        <time>2016-01-28T11:44:40.151Z</time>
      </trkpt>
      <trkpt lat="45.94899" lon="4.44853">
        <ele>663.83013916</ele>
        <time>2016-01-28T11:44:41.108Z</time>
      </trkpt>
      <trkpt lat="45.94905" lon="4.44861">
        <ele>664.240966797</ele>
        <time>2016-01-28T11:44:46.146Z</time>
      </trkpt>
      <trkpt lat="45.94906" lon="4.44863">
        <ele>664.238891602</ele>
        <time>2016-01-28T11:44:47.11Z</time>
      </trkpt>
      <trkpt lat="45.94912" lon="4.44872">
        <ele>663.832519531</ele>
        <time>2016-01-28T11:44:54.154Z</time>
      </trkpt>
      <trkpt lat="45.94912" lon="4.44872">
        <ele>663.816345215</ele>
        <time>2016-01-28T11:44:55.123Z</time>
      </trkpt>
      <trkpt lat="45.94919" lon="4.44876">
        <ele>663.522399902</ele>
        <time>2016-01-28T11:45:00.157Z</time>
      </trkpt>
      <trkpt lat="45.94922" lon="4.44877">
        <ele>663.392333984</ele>
        <time>2016-01-28T11:45:01.127Z</time>
      </trkpt>
      <trkpt lat="45.94928" lon="4.4488">
        <ele>662.452270508</ele>
        <time>2016-01-28T11:45:07.147Z</time>
      </trkpt>
      <trkpt lat="45.9493" lon="4.4488">
        <ele>662.28527832</ele>
        <time>2016-01-28T11:45:08.128Z</time>
      </trkpt>
      <trkpt lat="45.94939" lon="4.44884">
        <ele>661.079772949</ele>
        <time>2016-01-28T11:45:14.175Z</time>
      </trkpt>
      <trkpt lat="45.9494" lon="4.44884">
        <ele>660.84765625</ele>
        <time>2016-01-28T11:45:15.124Z</time>
      </trkpt>
      <trkpt lat="45.94948" lon="4.44886">
        <ele>659.804382324</ele>
        <time>2016-01-28T11:45:20.149Z</time>
      </trkpt>
      <trkpt lat="45.94948" lon="4.44886">
        <ele>659.562744141</ele>
        <time>2016-01-28T11:45:21.138Z</time>
      </trkpt>
      <trkpt lat="45.94956" lon="4.44889">
        <ele>658.533447266</ele>
        <time>2016-01-28T11:45:27.151Z</time>
      </trkpt>
      <trkpt lat="45.94958" lon="4.44889">
        <ele>658.346679688</ele>
        <time>2016-01-28T11:45:28.132Z</time>
      </trkpt>
      <trkpt lat="45.94966" lon="4.44892">
        <ele>657.249511719</ele>
        <time>2016-01-28T11:45:33.155Z</time>
      </trkpt>
      <trkpt lat="45.94967" lon="4.44892">
        <ele>657.04864502</ele>
        <time>2016-01-28T11:45:34.124Z</time>
      </trkpt>
      <trkpt lat="45.94974" lon="4.44897">
        <ele>655.815246582</ele>
        <time>2016-01-28T11:45:41.151Z</time>
      </trkpt>
      <trkpt lat="45.94976" lon="4.44897">
        <ele>655.647216797</ele>
        <time>2016-01-28T11:45:42.125Z</time>
      </trkpt>
      <trkpt lat="45.94983" lon="4.44901">
        <ele>654.670593262</ele>
        <time>2016-01-28T11:45:47.169Z</time>
      </trkpt>
      <trkpt lat="45.94984" lon="4.44902">
        <ele>654.48449707</ele>
        <time>2016-01-28T11:45:48.126Z</time>
      </trkpt>
      <trkpt lat="45.94992" lon="4.44902">
        <ele>653.446105957</ele>
        <time>2016-01-28T11:45:54.155Z</time>
      </trkpt>
      <trkpt lat="45.94994" lon="4.44903">
        <ele>653.245178223</ele>
        <time>2016-01-28T11:45:55.115Z</time>
      </trkpt>
      <trkpt lat="45.95002" lon="4.449">
        <ele>652.094360352</ele>
        <time>2016-01-28T11:46:02.154Z</time>
      </trkpt>
      <trkpt lat="45.95003" lon="4.449">
        <ele>652.070251465</ele>
        <time>2016-01-28T11:46:03.117Z</time>
      </trkpt>
      <trkpt lat="45.9501" lon="4.44904">
        <ele>651.958740234</ele>
        <time>2016-01-28T11:46:09.269Z</time>
      </trkpt>
      <trkpt lat="45.95012" lon="4.44905">
        <ele>652.03503418</ele>
        <time>2016-01-28T11:46:10.128Z</time>
      </trkpt>
      <trkpt lat="45.95018" lon="4.44912">
        <ele>652.356323242</ele>
        <time>2016-01-28T11:46:15.159Z</time>
      </trkpt>
      <trkpt lat="45.95019" lon="4.44913">
        <ele>652.402770996</ele>
        <time>2016-01-28T11:46:16.122Z</time>
      </trkpt>
      <trkpt lat="45.95026" lon="4.44921">
        <ele>652.739379883</ele>
        <time>2016-01-28T11:46:23.155Z</time>
      </trkpt>
      <trkpt lat="45.95027" lon="4.44922">
        <ele>652.82824707</ele>
        <time>2016-01-28T11:46:24.118Z</time>
      </trkpt>
      <trkpt lat="45.95034" lon="4.44928">
        <ele>655.553283691</ele>
        <time>2016-01-28T11:46:33.164Z</time>
      </trkpt>
      <trkpt lat="45.95036" lon="4.44929">
        <ele>655.819335938</ele>
        <time>2016-01-28T11:46:34.125Z</time>
      </trkpt>
      <trkpt lat="45.95042" lon="4.44937">
        <ele>656.950866699</ele>
        <time>2016-01-28T11:46:40.151Z</time>
      </trkpt>
      <trkpt lat="45.95043" lon="4.44939">
        <ele>656.954284668</ele>
        <time>2016-01-28T11:46:41.132Z</time>
      </trkpt>
      <trkpt lat="45.9505" lon="4.44946">
        <ele>656.930541992</ele>
        <time>2016-01-28T11:46:46.164Z</time>
      </trkpt>
      <trkpt lat="45.95051" lon="4.44947">
        <ele>656.99206543</ele>
        <time>2016-01-28T11:46:47.13Z</time>
      </trkpt>
      <trkpt lat="45.95058" lon="4.44954">
        <ele>656.65045166</ele>
        <time>2016-01-28T11:46:54.137Z</time>
      </trkpt>
      <trkpt lat="45.95059" lon="4.44956">
        <ele>656.575012207</ele>
        <time>2016-01-28T11:46:55.108Z</time>
      </trkpt>
      <trkpt lat="45.95066" lon="4.44963">
        <ele>656.78112793</ele>
        <time>2016-01-28T11:47:03.147Z</time>
      </trkpt>
      <trkpt lat="45.95066" lon="4.44964">
        <ele>656.841430664</ele>
        <time>2016-01-28T11:47:04.107Z</time>
      </trkpt>
      <trkpt lat="45.95073" lon="4.44972">
        <ele>657.639831543</ele>
        <time>2016-01-28T11:47:11.12Z</time>
      </trkpt>
      <trkpt lat="45.95074" lon="4.44972">
        <ele>657.837463379</ele>
        <time>2016-01-28T11:47:12.1Z</time>
      </trkpt>
      <trkpt lat="45.95079" lon="4.44983">
        <ele>658.39630127</ele>
        <time>2016-01-28T11:47:19.134Z</time>
      </trkpt>
      <trkpt lat="45.9508" lon="4.44984">
        <ele>658.490478516</ele>
        <time>2016-01-28T11:47:20.111Z</time>
      </trkpt>
      <trkpt lat="45.95084" lon="4.44995">
        <ele>658.587768555</ele>
        <time>2016-01-28T11:47:27.137Z</time>
      </trkpt>
      <trkpt lat="45.95084" lon="4.44998">
        <ele>658.44342041</ele>
        <time>2016-01-28T11:47:28.107Z</time>
      </trkpt>
      <trkpt lat="45.95084" lon="4.4501">
        <ele>657.489868164</ele>
        <time>2016-01-28T11:47:36.128Z</time>
      </trkpt>
      <trkpt lat="45.95085" lon="4.45012">
        <ele>657.201538086</ele>
        <time>2016-01-28T11:47:37.1Z</time>
      </trkpt>
      <trkpt lat="45.95085" lon="4.45023">
        <ele>655.24786377</ele>
        <time>2016-01-28T11:47:43.224Z</time>
      </trkpt>
      <trkpt lat="45.95085" lon="4.45025">
        <ele>654.875488281</ele>
        <time>2016-01-28T11:47:44.111Z</time>
      </trkpt>
      <trkpt lat="45.95083" lon="4.45036">
        <ele>652.862182617</ele>
        <time>2016-01-28T11:47:50.262Z</time>
      </trkpt>
      <trkpt lat="45.95082" lon="4.45038">
        <ele>652.530700684</ele>
        <time>2016-01-28T11:47:51.11Z</time>
      </trkpt>
      <trkpt lat="45.95078" lon="4.45049">
        <ele>650.812438965</ele>
        <time>2016-01-28T11:47:57.136Z</time>
      </trkpt>
      <trkpt lat="45.95078" lon="4.4505">
        <ele>650.634521484</ele>
        <time>2016-01-28T11:47:58.101Z</time>
      </trkpt>
      <trkpt lat="45.95074" lon="4.45059">
        <ele>650.073730469</ele>
        <time>2016-01-28T11:48:06.137Z</time>
      </trkpt>
      <trkpt lat="45.95073" lon="4.45061">
        <ele>650.052246094</ele>
        <time>2016-01-28T11:48:07.132Z</time>
      </trkpt>
      <trkpt lat="45.95066" lon="4.45068">
        <ele>649.875671387</ele>
        <time>2016-01-28T11:48:13.139Z</time>
      </trkpt>
      <trkpt lat="45.95065" lon="4.45069">
        <ele>649.821655273</ele>
        <time>2016-01-28T11:48:14.105Z</time>
      </trkpt>
      <trkpt lat="45.9506" lon="4.45078">
        <ele>649.35534668</ele>
        <time>2016-01-28T11:48:20.136Z</time>
      </trkpt>
      <trkpt lat="45.95059" lon="4.45079">
        <ele>649.274658203</ele>
        <time>2016-01-28T11:48:21.115Z</time>
      </trkpt>
      <trkpt lat="45.95053" lon="4.45087">
        <ele>649.189758301</ele>
        <time>2016-01-28T11:48:29.139Z</time>
      </trkpt>
      <trkpt lat="45.95052" lon="4.45089">
        <ele>649.207641602</ele>
        <time>2016-01-28T11:48:30.113Z</time>
      </trkpt>
      <trkpt lat="45.95046" lon="4.45097">
        <ele>648.992614746</ele>
        <time>2016-01-28T11:48:35.15Z</time>
      </trkpt>
      <trkpt lat="45.95045" lon="4.45099">
        <ele>648.852294922</ele>
        <time>2016-01-28T11:48:36.131Z</time>
      </trkpt>
      <trkpt lat="45.95037" lon="4.45106">
        <ele>647.877929688</ele>
        <time>2016-01-28T11:48:42.331Z</time>
      </trkpt>
      <trkpt lat="45.95036" lon="4.45107">
        <ele>647.746032715</ele>
        <time>2016-01-28T11:48:43.095Z</time>
      </trkpt>
      <trkpt lat="45.9503" lon="4.45116">
        <ele>647.32208252</ele>
        <time>2016-01-28T11:48:50.163Z</time>
      </trkpt>
      <trkpt lat="45.9503" lon="4.45117">
        <ele>647.393188477</ele>
        <time>2016-01-28T11:48:51.106Z</time>
      </trkpt>
      <trkpt lat="45.95023" lon="4.45124">
        <ele>647.937805176</ele>
        <time>2016-01-28T11:48:58.147Z</time>
      </trkpt>
      <trkpt lat="45.95022" lon="4.45125">
        <ele>647.930847168</ele>
        <time>2016-01-28T11:48:59.103Z</time>
      </trkpt>
      <trkpt lat="45.95016" lon="4.45135">
        <ele>647.834960938</ele>
        <time>2016-01-28T11:49:04.123Z</time>
      </trkpt>
      <trkpt lat="45.95015" lon="4.45137">
        <ele>647.784912109</ele>
        <time>2016-01-28T11:49:05.121Z</time>
      </trkpt>
      <trkpt lat="45.95011" lon="4.45147">
        <ele>647.384216309</ele>
        <time>2016-01-28T11:49:10.144Z</time>
      </trkpt>
      <trkpt lat="45.95011" lon="4.45149">
        <ele>647.282775879</ele>
        <time>2016-01-28T11:49:11.115Z</time>
      </trkpt>
      <trkpt lat="45.95007" lon="4.4516">
        <ele>646.65032959</ele>
        <time>2016-01-28T11:49:18.155Z</time>
      </trkpt>
      <trkpt lat="45.95006" lon="4.45161">
        <ele>646.607421875</ele>
        <time>2016-01-28T11:49:19.118Z</time>
      </trkpt>
      <trkpt lat="45.95" lon="4.4517">
        <ele>646.063659668</ele>
        <time>2016-01-28T11:49:26.16Z</time>
      </trkpt>
      <trkpt lat="45.94999" lon="4.45171">
        <ele>645.980224609</ele>
        <time>2016-01-28T11:49:27.118Z</time>
      </trkpt>
      <trkpt lat="45.94994" lon="4.4518">
        <ele>645.423095703</ele>
        <time>2016-01-28T11:49:34.15Z</time>
      </trkpt>
      <trkpt lat="45.94993" lon="4.45181">
        <ele>645.409790039</ele>
        <time>2016-01-28T11:49:35.137Z</time>
      </trkpt>
      <trkpt lat="45.9499" lon="4.45193">
        <ele>645.17010498</ele>
        <time>2016-01-28T11:49:41.156Z</time>
      </trkpt>
      <trkpt lat="45.9499" lon="4.45195">
        <ele>645.191040039</ele>
        <time>2016-01-28T11:49:42.095Z</time>
      </trkpt>
      <trkpt lat="45.94987" lon="4.45206">
        <ele>645.45324707</ele>
        <time>2016-01-28T11:49:50.149Z</time>
      </trkpt>
      <trkpt lat="45.94986" lon="4.45208">
        <ele>645.451416016</ele>
        <time>2016-01-28T11:49:51.12Z</time>
      </trkpt>
      <trkpt lat="45.94983" lon="4.4522">
        <ele>645.34954834</ele>
        <time>2016-01-28T11:49:58.251Z</time>
      </trkpt>
      <trkpt lat="45.94982" lon="4.45222">
        <ele>645.334228516</ele>
        <time>2016-01-28T11:49:59.12Z</time>
      </trkpt>
      <trkpt lat="45.94979" lon="4.45233">
        <ele>645.262512207</ele>
        <time>2016-01-28T11:50:07.145Z</time>
      </trkpt>
      <trkpt lat="45.94979" lon="4.45235">
        <ele>645.298400879</ele>
        <time>2016-01-28T11:50:08.13Z</time>
      </trkpt>
      <trkpt lat="45.94977" lon="4.45246">
        <ele>645.976867676</ele>
        <time>2016-01-28T11:50:16.146Z</time>
      </trkpt>
      <trkpt lat="45.94977" lon="4.45248">
        <ele>646.093933105</ele>
        <time>2016-01-28T11:50:17.119Z</time>
      </trkpt>
      <trkpt lat="45.94975" lon="4.4526">
        <ele>646.663208008</ele>
        <time>2016-01-28T11:50:24.254Z</time>
      </trkpt>
      <trkpt lat="45.94975" lon="4.45262">
        <ele>646.730773926</ele>
        <time>2016-01-28T11:50:25.123Z</time>
      </trkpt>
      <trkpt lat="45.94973" lon="4.45273">
        <ele>647.075134277</ele>
        <time>2016-01-28T11:50:31.143Z</time>
      </trkpt>
      <trkpt lat="45.94972" lon="4.45275">
        <ele>647.13104248</ele>
        <time>2016-01-28T11:50:32.122Z</time>
      </trkpt>
      <trkpt lat="45.9497" lon="4.45287">
        <ele>647.833190918</ele>
        <time>2016-01-28T11:50:45.147Z</time>
      </trkpt>
      <trkpt lat="45.9497" lon="4.45289">
        <ele>647.954833984</ele>
        <time>2016-01-28T11:50:46.106Z</time>
      </trkpt>
      <trkpt lat="45.94969" lon="4.45301">
        <ele>647.723571777</ele>
        <time>2016-01-28T11:50:58.147Z</time>
      </trkpt>
      <trkpt lat="45.94969" lon="4.45302">
        <ele>647.684631348</ele>
        <time>2016-01-28T11:50:59.126Z</time>
      </trkpt>
      <trkpt lat="45.94968" lon="4.45314">
        <ele>647.563537598</ele>
        <time>2016-01-28T11:51:08.158Z</time>
      </trkpt>
      <trkpt lat="45.94968" lon="4.45315">
        <ele>647.597595215</ele>
        <time>2016-01-28T11:51:09.124Z</time>
      </trkpt>
      <trkpt lat="45.94967" lon="4.45327">
        <ele>648.188293457</ele>
        <time>2016-01-28T11:51:17.151Z</time>
      </trkpt>
      <trkpt lat="45.94967" lon="4.45328">
        <ele>648.351623535</ele>
        <time>2016-01-28T11:51:18.127Z</time>
      </trkpt>
      <trkpt lat="45.94966" lon="4.45341">
        <ele>649.797302246</ele>
        <time>2016-01-28T11:51:26.281Z</time>
      </trkpt>
      <trkpt lat="45.94966" lon="4.45342">
        <ele>649.959960938</ele>
        <time>2016-01-28T11:51:27.127Z</time>
      </trkpt>
      <trkpt lat="45.94964" lon="4.45354">
        <ele>650.969482422</ele>
        <time>2016-01-28T11:51:34.153Z</time>
      </trkpt>
      <trkpt lat="45.94964" lon="4.45356">
        <ele>651.123901367</ele>
        <time>2016-01-28T11:51:35.129Z</time>
      </trkpt>
      <trkpt lat="45.94962" lon="4.45367">
        <ele>652.703063965</ele>
        <time>2016-01-28T11:51:44.162Z</time>
      </trkpt>
      <trkpt lat="45.94961" lon="4.45368">
        <ele>652.809875488</ele>
        <time>2016-01-28T11:51:45.13Z</time>
      </trkpt>
      <trkpt lat="45.94957" lon="4.45379">
        <ele>653.956054688</ele>
        <time>2016-01-28T11:51:51.16Z</time>
      </trkpt>
      <trkpt lat="45.94957" lon="4.4538">
        <ele>654.208618164</ele>
        <time>2016-01-28T11:51:52.128Z</time>
      </trkpt>
      <trkpt lat="45.94957" lon="4.45392">
        <ele>656.817504883</ele>
        <time>2016-01-28T11:52:07.115Z</time>
      </trkpt>
      <trkpt lat="45.94956" lon="4.45394">
        <ele>656.958557129</ele>
        <time>2016-01-28T11:52:08.101Z</time>
      </trkpt>
      <trkpt lat="45.94952" lon="4.45406">
        <ele>657.329711914</ele>
        <time>2016-01-28T11:52:14.136Z</time>
      </trkpt>
      <trkpt lat="45.94952" lon="4.45407">
        <ele>657.481872559</ele>
        <time>2016-01-28T11:52:15.097Z</time>
      </trkpt>
      <trkpt lat="45.94949" lon="4.45418">
        <ele>658.527404785</ele>
        <time>2016-01-28T11:52:22.129Z</time>
      </trkpt>
      <trkpt lat="45.94949" lon="4.45419">
        <ele>658.597229004</ele>
        <time>2016-01-28T11:52:23.11Z</time>
      </trkpt>
      <trkpt lat="45.94945" lon="4.4543">
        <ele>658.89831543</ele>
        <time>2016-01-28T11:52:29.122Z</time>
      </trkpt>
      <trkpt lat="45.94945" lon="4.45432">
        <ele>658.924987793</ele>
        <time>2016-01-28T11:52:30.097Z</time>
      </trkpt>
      <trkpt lat="45.94942" lon="4.45443">
        <ele>659.663574219</ele>
        <time>2016-01-28T11:52:38.117Z</time>
      </trkpt>
      <trkpt lat="45.94942" lon="4.45445">
        <ele>659.72265625</ele>
        <time>2016-01-28T11:52:39.105Z</time>
      </trkpt>
      <trkpt lat="45.94938" lon="4.45457">
        <ele>659.606323242</ele>
        <time>2016-01-28T11:52:44.129Z</time>
      </trkpt>
      <trkpt lat="45.94937" lon="4.45459">
        <ele>659.501708984</ele>
        <time>2016-01-28T11:52:45.098Z</time>
      </trkpt>
      <trkpt lat="45.94935" lon="4.45471">
        <ele>659.33392334</ele>
        <time>2016-01-28T11:52:54.125Z</time>
      </trkpt>
      <trkpt lat="45.94935" lon="4.45472">
        <ele>659.364990234</ele>
        <time>2016-01-28T11:52:55.103Z</time>
      </trkpt>
      <trkpt lat="45.94933" lon="4.45484">
        <ele>659.6640625</ele>
        <time>2016-01-28T11:53:02.126Z</time>
      </trkpt>
      <trkpt lat="45.94933" lon="4.45486">
        <ele>659.722595215</ele>
        <time>2016-01-28T11:53:03.111Z</time>
      </trkpt>
      <trkpt lat="45.94933" lon="4.45498">
        <ele>660.169006348</ele>
        <time>2016-01-28T11:53:09.134Z</time>
      </trkpt>
      <trkpt lat="45.94933" lon="4.455">
        <ele>660.22265625</ele>
        <time>2016-01-28T11:53:10.104Z</time>
      </trkpt>
      <trkpt lat="45.94931" lon="4.45512">
        <ele>660.364074707</ele>
        <time>2016-01-28T11:53:17.138Z</time>
      </trkpt>
      <trkpt lat="45.94931" lon="4.45514">
        <ele>660.37890625</ele>
        <time>2016-01-28T11:53:18.101Z</time>
      </trkpt>
      <trkpt lat="45.9493" lon="4.45526">
        <ele>660.286987305</ele>
        <time>2016-01-28T11:53:25.137Z</time>
      </trkpt>
      <trkpt lat="45.9493" lon="4.45528">
        <ele>660.317504883</ele>
        <time>2016-01-28T11:53:26.11Z</time>
      </trkpt>
      <trkpt lat="45.94928" lon="4.4554">
        <ele>660.826477051</ele>
        <time>2016-01-28T11:53:34.13Z</time>
      </trkpt>
      <trkpt lat="45.94928" lon="4.45542">
        <ele>660.889953613</ele>
        <time>2016-01-28T11:53:35.114Z</time>
      </trkpt>
      <trkpt lat="45.94928" lon="4.45553">
        <ele>661.24432373</ele>
        <time>2016-01-28T11:53:41.12Z</time>
      </trkpt>
      <trkpt lat="45.94928" lon="4.45555">
        <ele>661.294799805</ele>
        <time>2016-01-28T11:53:42.102Z</time>
      </trkpt>
      <trkpt lat="45.94928" lon="4.45568">
        <ele>661.96673584</ele>
        <time>2016-01-28T11:53:49.137Z</time>
      </trkpt>
      <trkpt lat="45.94927" lon="4.45569">
        <ele>662.01953125</ele>
        <time>2016-01-28T11:53:50.106Z</time>
      </trkpt>
      <trkpt lat="45.94926" lon="4.45581">
        <ele>662.216918945</ele>
        <time>2016-01-28T11:53:56.122Z</time>
      </trkpt>
      <trkpt lat="45.94926" lon="4.45584">
        <ele>662.180847168</ele>
        <time>2016-01-28T11:53:57.117Z</time>
      </trkpt>
      <trkpt lat="45.94923" lon="4.45594">
        <ele>662.54864502</ele>
        <time>2016-01-28T11:54:05.138Z</time>
      </trkpt>
      <trkpt lat="45.94923" lon="4.45596">
        <ele>662.607177734</ele>
        <time>2016-01-28T11:54:06.117Z</time>
      </trkpt>
      <trkpt lat="45.94921" lon="4.45609">
        <ele>662.706298828</ele>
        <time>2016-01-28T11:54:12.131Z</time>
      </trkpt>
      <trkpt lat="45.94921" lon="4.45611">
        <ele>662.741455078</ele>
        <time>2016-01-28T11:54:13.107Z</time>
      </trkpt>
      <trkpt lat="45.94919" lon="4.45623">
        <ele>663.242858887</ele>
        <time>2016-01-28T11:54:21.152Z</time>
      </trkpt>
      <trkpt lat="45.94919" lon="4.45624">
        <ele>663.286437988</ele>
        <time>2016-01-28T11:54:22.105Z</time>
      </trkpt>
      <trkpt lat="45.94916" lon="4.45636">
        <ele>663.883361816</ele>
        <time>2016-01-28T11:54:30.138Z</time>
      </trkpt>
      <trkpt lat="45.94916" lon="4.45639">
        <ele>663.989379883</ele>
        <time>2016-01-28T11:54:31.107Z</time>
      </trkpt>
      <trkpt lat="45.94913" lon="4.45649">
        <ele>664.424072266</ele>
        <time>2016-01-28T11:54:36.157Z</time>
      </trkpt>
      <trkpt lat="45.94913" lon="4.45651">
        <ele>664.488525391</ele>
        <time>2016-01-28T11:54:37.112Z</time>
      </trkpt>
      <trkpt lat="45.94911" lon="4.45662">
        <ele>664.60925293</ele>
        <time>2016-01-28T11:54:43.149Z</time>
      </trkpt>
      <trkpt lat="45.94911" lon="4.45665">
        <ele>664.619750977</ele>
        <time>2016-01-28T11:54:44.12Z</time>
      </trkpt>
      <trkpt lat="45.94909" lon="4.45676">
        <ele>664.913085938</ele>
        <time>2016-01-28T11:54:51.152Z</time>
      </trkpt>
      <trkpt lat="45.94908" lon="4.45678">
        <ele>664.940429688</ele>
        <time>2016-01-28T11:54:52.119Z</time>
      </trkpt>
      <trkpt lat="45.94906" lon="4.4569">
        <ele>665.144714355</ele>
        <time>2016-01-28T11:54:59.16Z</time>
      </trkpt>
      <trkpt lat="45.94906" lon="4.45692">
        <ele>665.171630859</ele>
        <time>2016-01-28T11:55:00.123Z</time>
      </trkpt>
      <trkpt lat="45.94903" lon="4.45704">
        <ele>665.451782227</ele>
        <time>2016-01-28T11:55:07.138Z</time>
      </trkpt>
      <trkpt lat="45.94903" lon="4.45705">
        <ele>665.512390137</ele>
        <time>2016-01-28T11:55:08.121Z</time>
      </trkpt>
      <trkpt lat="45.94901" lon="4.45716">
        <ele>665.847167969</ele>
        <time>2016-01-28T11:55:14.132Z</time>
      </trkpt>
      <trkpt lat="45.94901" lon="4.45718">
        <ele>665.906616211</ele>
        <time>2016-01-28T11:55:15.113Z</time>
      </trkpt>
      <trkpt lat="45.94899" lon="4.45729">
        <ele>666.176086426</ele>
        <time>2016-01-28T11:55:20.192Z</time>
      </trkpt>
      <trkpt lat="45.94899" lon="4.45731">
        <ele>666.200561523</ele>
        <time>2016-01-28T11:55:21.123Z</time>
      </trkpt>
      <trkpt lat="45.94895" lon="4.45743">
        <ele>667.093444824</ele>
        <time>2016-01-28T11:55:32.142Z</time>
      </trkpt>
      <trkpt lat="45.94895" lon="4.45744">
        <ele>667.077331543</ele>
        <time>2016-01-28T11:55:33.112Z</time>
      </trkpt>
      <trkpt lat="45.94904" lon="4.45746">
        <ele>668.325134277</ele>
        <time>2016-01-28T11:55:55.177Z</time>
      </trkpt>
      <trkpt lat="45.94905" lon="4.45745">
        <ele>668.315063477</ele>
        <time>2016-01-28T11:55:56.124Z</time>
      </trkpt>
      <trkpt lat="45.94912" lon="4.4574">
        <ele>668.636352539</ele>
        <time>2016-01-28T11:56:02.165Z</time>
      </trkpt>
      <trkpt lat="45.94913" lon="4.4574">
        <ele>668.715454102</ele>
        <time>2016-01-28T11:56:03.121Z</time>
      </trkpt>
      <trkpt lat="45.94921" lon="4.45734">
        <ele>669.32421875</ele>
        <time>2016-01-28T11:56:11.163Z</time>
      </trkpt>
      <trkpt lat="45.94921" lon="4.45734">
        <ele>669.462280273</ele>
        <time>2016-01-28T11:56:12.126Z</time>
      </trkpt>
      <trkpt lat="45.94929" lon="4.45729">
        <ele>669.931091309</ele>
        <time>2016-01-28T11:56:19.152Z</time>
      </trkpt>
      <trkpt lat="45.9493" lon="4.45727">
        <ele>669.967468262</ele>
        <time>2016-01-28T11:56:20.125Z</time>
      </trkpt>
      <trkpt lat="45.94937" lon="4.45721">
        <ele>670.677368164</ele>
        <time>2016-01-28T11:56:27.163Z</time>
      </trkpt>
      <trkpt lat="45.94938" lon="4.4572">
        <ele>670.802429199</ele>
        <time>2016-01-28T11:56:28.128Z</time>
      </trkpt>
      <trkpt lat="45.94945" lon="4.45713">
        <ele>671.36730957</ele>
        <time>2016-01-28T11:56:33.149Z</time>
      </trkpt>
      <trkpt lat="45.94946" lon="4.45711">
        <ele>671.386291504</ele>
        <time>2016-01-28T11:56:34.112Z</time>
      </trkpt>
      <trkpt lat="45.94954" lon="4.45704">
        <ele>672.390380859</ele>
        <time>2016-01-28T11:56:43.151Z</time>
      </trkpt>
      <trkpt lat="45.94954" lon="4.45704">
        <ele>672.547912598</ele>
        <time>2016-01-28T11:56:44.129Z</time>
      </trkpt>
      <trkpt lat="45.9496" lon="4.45695">
        <ele>673.340148926</ele>
        <time>2016-01-28T11:56:50.158Z</time>
      </trkpt>
      <trkpt lat="45.94961" lon="4.45694">
        <ele>673.426696777</ele>
        <time>2016-01-28T11:56:51.128Z</time>
      </trkpt>
      <trkpt lat="45.94965" lon="4.45684">
        <ele>674.522094727</ele>
        <time>2016-01-28T11:56:58.155Z</time>
      </trkpt>
      <trkpt lat="45.94966" lon="4.45682">
        <ele>674.697692871</ele>
        <time>2016-01-28T11:56:59.13Z</time>
      </trkpt>
      <trkpt lat="45.94971" lon="4.45673">
        <ele>676.181213379</ele>
        <time>2016-01-28T11:57:07.155Z</time>
      </trkpt>
      <trkpt lat="45.94971" lon="4.45672">
        <ele>676.386169434</ele>
        <time>2016-01-28T11:57:08.118Z</time>
      </trkpt>
      <trkpt lat="45.94976" lon="4.45661">
        <ele>677.890869141</ele>
        <time>2016-01-28T11:57:16.149Z</time>
      </trkpt>
      <trkpt lat="45.94976" lon="4.4566">
        <ele>677.966796875</ele>
        <time>2016-01-28T11:57:17.115Z</time>
      </trkpt>
      <trkpt lat="45.9498" lon="4.45649">
        <ele>678.490966797</ele>
        <time>2016-01-28T11:57:26.121Z</time>
      </trkpt>
      <trkpt lat="45.94981" lon="4.45648">
        <ele>678.663208008</ele>
        <time>2016-01-28T11:57:27.102Z</time>
      </trkpt>
      <trkpt lat="45.94986" lon="4.45638">
        <ele>679.519592285</ele>
        <time>2016-01-28T11:57:35.142Z</time>
      </trkpt>
      <trkpt lat="45.94986" lon="4.45638">
        <ele>679.606872559</ele>
        <time>2016-01-28T11:57:36.105Z</time>
      </trkpt>
      <trkpt lat="45.94992" lon="4.45628">
        <ele>680.666137695</ele>
        <time>2016-01-28T11:57:47.153Z</time>
      </trkpt>
      <trkpt lat="45.94992" lon="4.45627">
        <ele>680.806762695</ele>
        <time>2016-01-28T11:57:48.107Z</time>
      </trkpt>
      <trkpt lat="45.94999" lon="4.45621">
        <ele>681.610656738</ele>
        <time>2016-01-28T11:57:57.123Z</time>
      </trkpt>
      <trkpt lat="45.95" lon="4.45619">
        <ele>681.612731934</ele>
        <time>2016-01-28T11:57:58.107Z</time>
      </trkpt>
      <trkpt lat="45.95007" lon="4.45615">
        <ele>681.839538574</ele>
        <time>2016-01-28T11:58:05.262Z</time>
      </trkpt>
      <trkpt lat="45.95008" lon="4.45614">
        <ele>681.907836914</ele>
        <time>2016-01-28T11:58:06.108Z</time>
      </trkpt>
      <trkpt lat="45.95016" lon="4.45608">
        <ele>682.77355957</ele>
        <time>2016-01-28T11:58:15.125Z</time>
      </trkpt>
      <trkpt lat="45.95017" lon="4.45608">
        <ele>682.839355469</ele>
        <time>2016-01-28T11:58:16.102Z</time>
      </trkpt>
      <trkpt lat="45.95025" lon="4.45602">
        <ele>683.407287598</ele>
        <time>2016-01-28T11:58:25.139Z</time>
      </trkpt>
      <trkpt lat="45.95026" lon="4.45601">
        <ele>683.473937988</ele>
        <time>2016-01-28T11:58:26.118Z</time>
      </trkpt>
      <trkpt lat="45.95034" lon="4.45596">
        <ele>684.046691895</ele>
        <time>2016-01-28T11:58:33.144Z</time>
      </trkpt>
      <trkpt lat="45.95036" lon="4.45595">
        <ele>684.187194824</ele>
        <time>2016-01-28T11:58:34.11Z</time>
      </trkpt>
      <trkpt lat="45.95043" lon="4.45589">
        <ele>686.18157959</ele>
        <time>2016-01-28T11:58:46.157Z</time>
      </trkpt>
      <trkpt lat="45.95044" lon="4.45589">
        <ele>686.342102051</ele>
        <time>2016-01-28T11:58:47.112Z</time>
      </trkpt>
      <trkpt lat="45.95049" lon="4.45579">
        <ele>688.592041016</ele>
        <time>2016-01-28T11:58:57.14Z</time>
      </trkpt>
      <trkpt lat="45.9505" lon="4.45579">
        <ele>688.722412109</ele>
        <time>2016-01-28T11:58:58.108Z</time>
      </trkpt>
      <trkpt lat="45.95057" lon="4.45572">
        <ele>689.63848877</ele>
        <time>2016-01-28T11:59:07.138Z</time>
      </trkpt>
      <trkpt lat="45.95058" lon="4.4557">
        <ele>689.840820312</ele>
        <time>2016-01-28T11:59:08.11Z</time>
      </trkpt>
      <trkpt lat="45.95063" lon="4.45561">
        <ele>691.353210449</ele>
        <time>2016-01-28T11:59:17.149Z</time>
      </trkpt>
      <trkpt lat="45.95063" lon="4.4556">
        <ele>691.498168945</ele>
        <time>2016-01-28T11:59:18.109Z</time>
      </trkpt>
      <trkpt lat="45.95069" lon="4.4555">
        <ele>692.460632324</ele>
        <time>2016-01-28T11:59:26.137Z</time>
      </trkpt>
      <trkpt lat="45.95069" lon="4.45549">
        <ele>692.633178711</ele>
        <time>2016-01-28T11:59:27.105Z</time>
      </trkpt>
      <trkpt lat="45.95075" lon="4.45538">
        <ele>694.219421387</ele>
        <time>2016-01-28T11:59:35.159Z</time>
      </trkpt>
      <trkpt lat="45.95075" lon="4.45537">
        <ele>694.39251709</ele>
        <time>2016-01-28T11:59:36.13Z</time>
      </trkpt>
      <trkpt lat="45.95081" lon="4.45527">
        <ele>695.59967041</ele>
        <time>2016-01-28T11:59:45.14Z</time>
      </trkpt>
      <trkpt lat="45.95081" lon="4.45526">
        <ele>695.785888672</ele>
        <time>2016-01-28T11:59:46.116Z</time>
      </trkpt>
      <trkpt lat="45.95084" lon="4.45514">
        <ele>697.735290527</ele>
        <time>2016-01-28T11:59:56.117Z</time>
      </trkpt>
      <trkpt lat="45.95084" lon="4.45513">
        <ele>698.077697754</ele>
        <time>2016-01-28T11:59:57.121Z</time>
      </trkpt>
      <trkpt lat="45.95088" lon="4.45501">
        <ele>700.301818848</ele>
        <time>2016-01-28T12:00:09.138Z</time>
      </trkpt>
      <trkpt lat="45.95088" lon="4.455">
        <ele>700.387878418</ele>
        <time>2016-01-28T12:00:10.108Z</time>
      </trkpt>
      <trkpt lat="45.95089" lon="4.45488">
        <ele>701.278747559</ele>
        <time>2016-01-28T12:00:20.146Z</time>
      </trkpt>
      <trkpt lat="45.95089" lon="4.45487">
        <ele>701.359313965</ele>
        <time>2016-01-28T12:00:21.127Z</time>
      </trkpt>
      <trkpt lat="45.95091" lon="4.45474">
        <ele>702.390930176</ele>
        <time>2016-01-28T12:00:29.142Z</time>
      </trkpt>
      <trkpt lat="45.95091" lon="4.45473">
        <ele>702.502502441</ele>
        <time>2016-01-28T12:00:30.124Z</time>
      </trkpt>
      <trkpt lat="45.95093" lon="4.4546">
        <ele>703.895446777</ele>
        <time>2016-01-28T12:00:41.213Z</time>
      </trkpt>
      <trkpt lat="45.95093" lon="4.4546">
        <ele>704.144104004</ele>
        <time>2016-01-28T12:00:42.12Z</time>
      </trkpt>
      <trkpt lat="45.95097" lon="4.45449">
        <ele>706.353820801</ele>
        <time>2016-01-28T12:00:52.195Z</time>
      </trkpt>
      <trkpt lat="45.95098" lon="4.45448">
        <ele>706.640197754</ele>
        <time>2016-01-28T12:00:53.126Z</time>
      </trkpt>
      <trkpt lat="45.95104" lon="4.4544">
        <ele>708.243103027</ele>
        <time>2016-01-28T12:01:02.146Z</time>
      </trkpt>
      <trkpt lat="45.95105" lon="4.45439">
        <ele>708.34197998</ele>
        <time>2016-01-28T12:01:03.122Z</time>
      </trkpt>
      <trkpt lat="45.9511" lon="4.4543">
        <ele>709.133361816</ele>
        <time>2016-01-28T12:01:25.148Z</time>
      </trkpt>
      <trkpt lat="45.95111" lon="4.45429">
        <ele>709.186767578</ele>
        <time>2016-01-28T12:01:26.134Z</time>
      </trkpt>
      <trkpt lat="45.95117" lon="4.45421">
        <ele>710.655700684</ele>
        <time>2016-01-28T12:01:35.154Z</time>
      </trkpt>
      <trkpt lat="45.95118" lon="4.4542">
        <ele>710.854797363</ele>
        <time>2016-01-28T12:01:36.125Z</time>
      </trkpt>
      <trkpt lat="45.95125" lon="4.45417">
        <ele>712.699157715</ele>
        <time>2016-01-28T12:01:45.125Z</time>
      </trkpt>
      <trkpt lat="45.95126" lon="4.45416">
        <ele>712.776977539</ele>
        <time>2016-01-28T12:01:46.114Z</time>
      </trkpt>
      <trkpt lat="45.95134" lon="4.4541">
        <ele>713.649963379</ele>
        <time>2016-01-28T12:01:56.152Z</time>
      </trkpt>
      <trkpt lat="45.95135" lon="4.45409">
        <ele>713.79864502</ele>
        <time>2016-01-28T12:01:57.124Z</time>
      </trkpt>
      <trkpt lat="45.95141" lon="4.45408">
        <ele>714.726501465</ele>
        <time>2016-01-28T12:02:05.123Z</time>
      </trkpt>
      <trkpt lat="45.95143" lon="4.45403">
        <ele>714.925842285</ele>
        <time>2016-01-28T12:02:06.122Z</time>
      </trkpt>
      <trkpt lat="45.95151" lon="4.45399">
        <ele>715.752258301</ele>
        <time>2016-01-28T12:02:12.149Z</time>
      </trkpt>
      <trkpt lat="45.95152" lon="4.45398">
        <ele>715.814941406</ele>
        <time>2016-01-28T12:02:13.125Z</time>
      </trkpt>
      <trkpt lat="45.9516" lon="4.45393">
        <ele>715.899597168</ele>
        <time>2016-01-28T12:02:22.146Z</time>
      </trkpt>
      <trkpt lat="45.95164" lon="4.45389">
        <ele>716.020507812</ele>
        <time>2016-01-28T12:02:23.131Z</time>
      </trkpt>
      <trkpt lat="45.95171" lon="4.45384">
        <ele>717.817565918</ele>
        <time>2016-01-28T12:02:35.125Z</time>
      </trkpt>
      <trkpt lat="45.95173" lon="4.45381">
        <ele>717.91204834</ele>
        <time>2016-01-28T12:02:36.105Z</time>
      </trkpt>
      <trkpt lat="45.9518" lon="4.45373">
        <ele>717.884521484</ele>
        <time>2016-01-28T12:02:42.117Z</time>
      </trkpt>
      <trkpt lat="45.95182" lon="4.45372">
        <ele>717.822937012</ele>
        <time>2016-01-28T12:02:43.096Z</time>
      </trkpt>
      <trkpt lat="45.95189" lon="4.45366">
        <ele>717.033203125</ele>
        <time>2016-01-28T12:02:51.122Z</time>
      </trkpt>
      <trkpt lat="45.9519" lon="4.45366">
        <ele>716.940917969</ele>
        <time>2016-01-28T12:02:52.099Z</time>
      </trkpt>
      <trkpt lat="45.95196" lon="4.45358">
        <ele>716.801147461</ele>
        <time>2016-01-28T12:02:59.157Z</time>
      </trkpt>
      <trkpt lat="45.95197" lon="4.45357">
        <ele>716.832580566</ele>
        <time>2016-01-28T12:03:00.105Z</time>
      </trkpt>
      <trkpt lat="45.95204" lon="4.45351">
        <ele>717.165893555</ele>
        <time>2016-01-28T12:03:09.13Z</time>
      </trkpt>
      <trkpt lat="45.95205" lon="4.45349">
        <ele>717.16809082</ele>
        <time>2016-01-28T12:03:10.097Z</time>
      </trkpt>
      <trkpt lat="45.95211" lon="4.45342">
        <ele>717.250732422</ele>
        <time>2016-01-28T12:03:13.126Z</time>
      </trkpt>
      <trkpt lat="45.95213" lon="4.4534">
        <ele>717.264831543</ele>
        <time>2016-01-28T12:03:14.103Z</time>
      </trkpt>
      <trkpt lat="45.9522" lon="4.45333">
        <ele>717.546020508</ele>
        <time>2016-01-28T12:03:23.138Z</time>
      </trkpt>
      <trkpt lat="45.95221" lon="4.45333">
        <ele>717.51385498</ele>
        <time>2016-01-28T12:03:24.107Z</time>
      </trkpt>
      <trkpt lat="45.95229" lon="4.45326">
        <ele>718.920349121</ele>
        <time>2016-01-28T12:03:40.132Z</time>
      </trkpt>
      <trkpt lat="45.9523" lon="4.45325">
        <ele>719.055419922</ele>
        <time>2016-01-28T12:03:41.109Z</time>
      </trkpt>
      <trkpt lat="45.95238" lon="4.45325">
        <ele>719.230895996</ele>
        <time>2016-01-28T12:03:46.129Z</time>
      </trkpt>
      <trkpt lat="45.9524" lon="4.45324">
        <ele>719.254699707</ele>
        <time>2016-01-28T12:03:47.103Z</time>
      </trkpt>
      <trkpt lat="45.95249" lon="4.45324">
        <ele>719.298706055</ele>
        <time>2016-01-28T12:03:54.131Z</time>
      </trkpt>
      <trkpt lat="45.9525" lon="4.45325">
        <ele>719.300170898</ele>
        <time>2016-01-28T12:03:55.109Z</time>
      </trkpt>
      <trkpt lat="45.95257" lon="4.45323">
        <ele>719.05480957</ele>
        <time>2016-01-28T12:03:59.138Z</time>
      </trkpt>
      <trkpt lat="45.9526" lon="4.45321">
        <ele>718.91607666</ele>
        <time>2016-01-28T12:04:00.091Z</time>
      </trkpt>
      <trkpt lat="45.95268" lon="4.45316">
        <ele>718.714599609</ele>
        <time>2016-01-28T12:04:03.137Z</time>
      </trkpt>
      <trkpt lat="45.9527" lon="4.45314">
        <ele>718.726623535</ele>
        <time>2016-01-28T12:04:04.111Z</time>
      </trkpt>
      <trkpt lat="45.95276" lon="4.45309">
        <ele>718.758911133</ele>
        <time>2016-01-28T12:04:08.132Z</time>
      </trkpt>
      <trkpt lat="45.95277" lon="4.45307">
        <ele>718.790527344</ele>
        <time>2016-01-28T12:04:09.103Z</time>
      </trkpt>
      <trkpt lat="45.95285" lon="4.45305">
        <ele>718.95690918</ele>
        <time>2016-01-28T12:04:16.136Z</time>
      </trkpt>
      <trkpt lat="45.95287" lon="4.45305">
        <ele>718.980041504</ele>
        <time>2016-01-28T12:04:17.108Z</time>
      </trkpt>
      <trkpt lat="45.95294" lon="4.45305">
        <ele>718.90423584</ele>
        <time>2016-01-28T12:04:25.161Z</time>
      </trkpt>
      <trkpt lat="45.95297" lon="4.45305">
        <ele>718.922058105</ele>
        <time>2016-01-28T12:04:26.111Z</time>
      </trkpt>
      <trkpt lat="45.95305" lon="4.45303">
        <ele>719.02746582</ele>
        <time>2016-01-28T12:04:33.148Z</time>
      </trkpt>
      <trkpt lat="45.95306" lon="4.45302">
        <ele>718.977111816</ele>
        <time>2016-01-28T12:04:34.116Z</time>
      </trkpt>
      <trkpt lat="45.95314" lon="4.45297">
        <ele>718.953430176</ele>
        <time>2016-01-28T12:04:41.139Z</time>
      </trkpt>
      <trkpt lat="45.95315" lon="4.45297">
        <ele>718.984436035</ele>
        <time>2016-01-28T12:04:42.116Z</time>
      </trkpt>
      <trkpt lat="45.95321" lon="4.45288">
        <ele>718.836914062</ele>
        <time>2016-01-28T12:04:49.117Z</time>
      </trkpt>
      <trkpt lat="45.95322" lon="4.45288">
        <ele>718.793884277</ele>
        <time>2016-01-28T12:04:50.106Z</time>
      </trkpt>
      <trkpt lat="45.95328" lon="4.45279">
        <ele>718.884521484</ele>
        <time>2016-01-28T12:04:54.139Z</time>
      </trkpt>
      <trkpt lat="45.95328" lon="4.45279">
        <ele>718.874572754</ele>
        <time>2016-01-28T12:04:55.104Z</time>
      </trkpt>
      <trkpt lat="45.95334" lon="4.4527">
        <ele>718.536682129</ele>
        <time>2016-01-28T12:05:08.13Z</time>
      </trkpt>
      <trkpt lat="45.95335" lon="4.45268">
        <ele>718.478271484</ele>
        <time>2016-01-28T12:05:09.106Z</time>
      </trkpt>
      <trkpt lat="45.95342" lon="4.45263">
        <ele>718.20916748</ele>
        <time>2016-01-28T12:05:15.142Z</time>
      </trkpt>
      <trkpt lat="45.95343" lon="4.45262">
        <ele>718.143127441</ele>
        <time>2016-01-28T12:05:16.108Z</time>
      </trkpt>
      <trkpt lat="45.95349" lon="4.45255">
        <ele>717.120422363</ele>
        <time>2016-01-28T12:05:29.142Z</time>
      </trkpt>
      <trkpt lat="45.95351" lon="4.45254">
        <ele>717.089111328</ele>
        <time>2016-01-28T12:05:30.117Z</time>
      </trkpt>
      <trkpt lat="45.95359" lon="4.45251">
        <ele>716.128173828</ele>
        <time>2016-01-28T12:05:42.143Z</time>
      </trkpt>
      <trkpt lat="45.95359" lon="4.4525">
        <ele>715.953186035</ele>
        <time>2016-01-28T12:05:43.114Z</time>
      </trkpt>
      <trkpt lat="45.95364" lon="4.4526">
        <ele>714.529785156</ele>
        <time>2016-01-28T12:07:07.137Z</time>
      </trkpt>
      <trkpt lat="45.95365" lon="4.45261">
        <ele>714.511901855</ele>
        <time>2016-01-28T12:07:08.129Z</time>
      </trkpt>
      <trkpt lat="45.95366" lon="4.45248">
        <ele>713.870605469</ele>
        <time>2016-01-28T12:07:40.162Z</time>
      </trkpt>
      <trkpt lat="45.95366" lon="4.45248">
        <ele>713.864746094</ele>
        <time>2016-01-28T12:07:41.128Z</time>
      </trkpt>
      <trkpt lat="45.95364" lon="4.45236">
        <ele>711.624389648</ele>
        <time>2016-01-28T12:40:01.117Z</time>
      </trkpt>
      <trkpt lat="45.95364" lon="4.45235">
        <ele>711.647155762</ele>
        <time>2016-01-28T12:40:02.093Z</time>
      </trkpt>
      <trkpt lat="45.95365" lon="4.45223">
        <ele>711.943969727</ele>
        <time>2016-01-28T12:40:11.11Z</time>
      </trkpt>
      <trkpt lat="45.95365" lon="4.45222">
        <ele>711.988098145</ele>
        <time>2016-01-28T12:40:12.097Z</time>
      </trkpt>
      <trkpt lat="45.95368" lon="4.45209">
        <ele>711.76159668</ele>
        <time>2016-01-28T12:40:33.122Z</time>
      </trkpt>
      <trkpt lat="45.95368" lon="4.45209">
        <ele>711.706665039</ele>
        <time>2016-01-28T12:40:34.105Z</time>
      </trkpt>
      <trkpt lat="45.95373" lon="4.45199">
        <ele>711.203796387</ele>
        <time>2016-01-28T12:40:44.139Z</time>
      </trkpt>
      <trkpt lat="45.95373" lon="4.45198">
        <ele>711.160461426</ele>
        <time>2016-01-28T12:40:45.104Z</time>
      </trkpt>
      <trkpt lat="45.95378" lon="4.45188">
        <ele>710.681884766</ele>
        <time>2016-01-28T12:40:56.121Z</time>
      </trkpt>
      <trkpt lat="45.95378" lon="4.45187">
        <ele>710.603393555</ele>
        <time>2016-01-28T12:40:57.102Z</time>
      </trkpt>
      <trkpt lat="45.95383" lon="4.45179">
        <ele>710.105651855</ele>
        <time>2016-01-28T12:41:03.198Z</time>
      </trkpt>
      <trkpt lat="45.95384" lon="4.45177">
        <ele>710.022766113</ele>
        <time>2016-01-28T12:41:04.11Z</time>
      </trkpt>
      <trkpt lat="45.95388" lon="4.45166">
        <ele>709.343078613</ele>
        <time>2016-01-28T12:41:10.131Z</time>
      </trkpt>
      <trkpt lat="45.95389" lon="4.45165">
        <ele>709.240234375</ele>
        <time>2016-01-28T12:41:11.119Z</time>
      </trkpt>
      <trkpt lat="45.95393" lon="4.45154">
        <ele>708.63885498</ele>
        <time>2016-01-28T12:41:25.144Z</time>
      </trkpt>
      <trkpt lat="45.95393" lon="4.45151">
        <ele>708.597839355</ele>
        <time>2016-01-28T12:41:26.109Z</time>
      </trkpt>
      <trkpt lat="45.95398" lon="4.45141">
        <ele>708.262207031</ele>
        <time>2016-01-28T12:41:33.133Z</time>
      </trkpt>
      <trkpt lat="45.95399" lon="4.45139">
        <ele>708.224853516</ele>
        <time>2016-01-28T12:41:34.117Z</time>
      </trkpt>
      <trkpt lat="45.95403" lon="4.45129">
        <ele>707.904907227</ele>
        <time>2016-01-28T12:41:40.124Z</time>
      </trkpt>
      <trkpt lat="45.95404" lon="4.45128">
        <ele>707.856323242</ele>
        <time>2016-01-28T12:41:41.11Z</time>
      </trkpt>
      <trkpt lat="45.95408" lon="4.45118">
        <ele>707.555603027</ele>
        <time>2016-01-28T12:41:47.104Z</time>
      </trkpt>
      <trkpt lat="45.95409" lon="4.45115">
        <ele>707.494384766</ele>
        <time>2016-01-28T12:41:48.091Z</time>
      </trkpt>
      <trkpt lat="45.95413" lon="4.45104">
        <ele>707.101074219</ele>
        <time>2016-01-28T12:41:56.147Z</time>
      </trkpt>
      <trkpt lat="45.95414" lon="4.45104">
        <ele>707.070678711</ele>
        <time>2016-01-28T12:41:57.099Z</time>
      </trkpt>
      <trkpt lat="45.95417" lon="4.45093">
        <ele>706.953979492</ele>
        <time>2016-01-28T12:42:08.139Z</time>
      </trkpt>
      <trkpt lat="45.95418" lon="4.45091">
        <ele>706.949279785</ele>
        <time>2016-01-28T12:42:09.115Z</time>
      </trkpt>
      <trkpt lat="45.95423" lon="4.45082">
        <ele>706.800415039</ele>
        <time>2016-01-28T12:42:15.139Z</time>
      </trkpt>
      <trkpt lat="45.95424" lon="4.4508">
        <ele>706.756469727</ele>
        <time>2016-01-28T12:42:16.133Z</time>
      </trkpt>
      <trkpt lat="45.95429" lon="4.45071">
        <ele>706.545471191</ele>
        <time>2016-01-28T12:42:23.1Z</time>
      </trkpt>
      <trkpt lat="45.9543" lon="4.45069">
        <ele>706.518432617</ele>
        <time>2016-01-28T12:42:24.081Z</time>
      </trkpt>
      <trkpt lat="45.95436" lon="4.4506">
        <ele>706.3125</ele>
        <time>2016-01-28T12:42:31.105Z</time>
      </trkpt>
      <trkpt lat="45.95438" lon="4.45058">
        <ele>706.282714844</ele>
        <time>2016-01-28T12:42:32.078Z</time>
      </trkpt>
      <trkpt lat="45.95444" lon="4.4505">
        <ele>706.025146484</ele>
        <time>2016-01-28T12:42:38.18Z</time>
      </trkpt>
      <trkpt lat="45.95445" lon="4.45049">
        <ele>705.972351074</ele>
        <time>2016-01-28T12:42:39.082Z</time>
      </trkpt>
      <trkpt lat="45.95451" lon="4.45042">
        <ele>705.711669922</ele>
        <time>2016-01-28T12:42:46.101Z</time>
      </trkpt>
      <trkpt lat="45.95452" lon="4.4504">
        <ele>705.690124512</ele>
        <time>2016-01-28T12:42:47.082Z</time>
      </trkpt>
      <trkpt lat="45.95459" lon="4.45031">
        <ele>705.455627441</ele>
        <time>2016-01-28T12:42:55.099Z</time>
      </trkpt>
      <trkpt lat="45.9546" lon="4.4503">
        <ele>705.429931641</ele>
        <time>2016-01-28T12:42:56.095Z</time>
      </trkpt>
      <trkpt lat="45.95465" lon="4.45023">
        <ele>705.283325195</ele>
        <time>2016-01-28T12:43:03.114Z</time>
      </trkpt>
      <trkpt lat="45.95466" lon="4.45021">
        <ele>705.27130127</ele>
        <time>2016-01-28T12:43:04.089Z</time>
      </trkpt>
      <trkpt lat="45.95473" lon="4.45014">
        <ele>705.267089844</ele>
        <time>2016-01-28T12:43:11.102Z</time>
      </trkpt>
      <trkpt lat="45.95475" lon="4.45013">
        <ele>705.275268555</ele>
        <time>2016-01-28T12:43:12.083Z</time>
      </trkpt>
      <trkpt lat="45.95482" lon="4.45007">
        <ele>705.655578613</ele>
        <time>2016-01-28T12:43:19.103Z</time>
      </trkpt>
      <trkpt lat="45.95483" lon="4.45005">
        <ele>705.708068848</ele>
        <time>2016-01-28T12:43:20.087Z</time>
      </trkpt>
      <trkpt lat="45.9549" lon="4.45">
        <ele>705.94519043</ele>
        <time>2016-01-28T12:43:26.121Z</time>
      </trkpt>
      <trkpt lat="45.95492" lon="4.44999">
        <ele>705.959106445</ele>
        <time>2016-01-28T12:43:27.126Z</time>
      </trkpt>
      <trkpt lat="45.955" lon="4.45002">
        <ele>706.143066406</ele>
        <time>2016-01-28T12:43:35.117Z</time>
      </trkpt>
      <trkpt lat="45.95501" lon="4.45002">
        <ele>706.130615234</ele>
        <time>2016-01-28T12:43:36.084Z</time>
      </trkpt>
      <trkpt lat="45.95509" lon="4.45006">
        <ele>706.11505127</ele>
        <time>2016-01-28T12:43:43.117Z</time>
      </trkpt>
      <trkpt lat="45.9551" lon="4.45006">
        <ele>706.122375488</ele>
        <time>2016-01-28T12:43:44.101Z</time>
      </trkpt>
      <trkpt lat="45.95518" lon="4.45009">
        <ele>706.164672852</ele>
        <time>2016-01-28T12:43:51.104Z</time>
      </trkpt>
      <trkpt lat="45.95519" lon="4.45009">
        <ele>706.151306152</ele>
        <time>2016-01-28T12:43:52.085Z</time>
      </trkpt>
      <trkpt lat="45.95527" lon="4.45011">
        <ele>706.150939941</ele>
        <time>2016-01-28T12:43:59.209Z</time>
      </trkpt>
      <trkpt lat="45.95529" lon="4.45012">
        <ele>706.148620605</ele>
        <time>2016-01-28T12:44:00.097Z</time>
      </trkpt>
      <trkpt lat="45.95537" lon="4.45014">
        <ele>706.098388672</ele>
        <time>2016-01-28T12:44:07.109Z</time>
      </trkpt>
      <trkpt lat="45.95538" lon="4.45015">
        <ele>706.089355469</ele>
        <time>2016-01-28T12:44:08.097Z</time>
      </trkpt>
      <trkpt lat="45.95546" lon="4.45017">
        <ele>705.898864746</ele>
        <time>2016-01-28T12:44:16.106Z</time>
      </trkpt>
      <trkpt lat="45.95548" lon="4.45017">
        <ele>705.875</ele>
        <time>2016-01-28T12:44:17.087Z</time>
      </trkpt>
      <trkpt lat="45.95556" lon="4.45018">
        <ele>705.725402832</ele>
        <time>2016-01-28T12:44:23.111Z</time>
      </trkpt>
      <trkpt lat="45.95557" lon="4.45018">
        <ele>705.698974609</ele>
        <time>2016-01-28T12:44:24.087Z</time>
      </trkpt>
      <trkpt lat="45.95566" lon="4.45018">
        <ele>705.273498535</ele>
        <time>2016-01-28T12:44:32.111Z</time>
      </trkpt>
      <trkpt lat="45.95567" lon="4.45018">
        <ele>705.217163086</ele>
        <time>2016-01-28T12:44:33.089Z</time>
      </trkpt>
      <trkpt lat="45.95575" lon="4.45017">
        <ele>704.884155273</ele>
        <time>2016-01-28T12:44:39.133Z</time>
      </trkpt>
      <trkpt lat="45.95577" lon="4.45017">
        <ele>704.85168457</ele>
        <time>2016-01-28T12:44:40.1Z</time>
      </trkpt>
      <trkpt lat="45.95585" lon="4.45015">
        <ele>704.902587891</ele>
        <time>2016-01-28T12:44:44.114Z</time>
      </trkpt>
      <trkpt lat="45.95586" lon="4.45015">
        <ele>704.90222168</ele>
        <time>2016-01-28T12:44:45.088Z</time>
      </trkpt>
      <trkpt lat="45.95595" lon="4.45012">
        <ele>704.864562988</ele>
        <time>2016-01-28T12:44:53.108Z</time>
      </trkpt>
      <trkpt lat="45.95596" lon="4.45011">
        <ele>704.854980469</ele>
        <time>2016-01-28T12:44:54.089Z</time>
      </trkpt>
      <trkpt lat="45.95604" lon="4.4501">
        <ele>706.039672852</ele>
        <time>2016-01-28T12:45:11.125Z</time>
      </trkpt>
      <trkpt lat="45.95605" lon="4.4501">
        <ele>706.13848877</ele>
        <time>2016-01-28T12:45:12.078Z</time>
      </trkpt>
      <trkpt lat="45.95612" lon="4.45006">
        <ele>706.615478516</ele>
        <time>2016-01-28T12:45:25.127Z</time>
      </trkpt>
      <trkpt lat="45.95614" lon="4.45005">
        <ele>706.762145996</ele>
        <time>2016-01-28T12:45:26.093Z</time>
      </trkpt>
      <trkpt lat="45.95621" lon="4.44999">
        <ele>707.252624512</ele>
        <time>2016-01-28T12:45:34.217Z</time>
      </trkpt>
      <trkpt lat="45.95622" lon="4.44999">
        <ele>707.263000488</ele>
        <time>2016-01-28T12:45:35.098Z</time>
      </trkpt>
      <trkpt lat="45.9563" lon="4.44996">
        <ele>707.889648438</ele>
        <time>2016-01-28T12:45:44.113Z</time>
      </trkpt>
      <trkpt lat="45.95631" lon="4.44996">
        <ele>707.944396973</ele>
        <time>2016-01-28T12:45:45.095Z</time>
      </trkpt>
      <trkpt lat="45.95639" lon="4.44994">
        <ele>706.874694824</ele>
        <time>2016-01-28T12:45:56.133Z</time>
      </trkpt>
      <trkpt lat="45.9564" lon="4.44993">
        <ele>706.884643555</ele>
        <time>2016-01-28T12:45:57.096Z</time>
      </trkpt>
      <trkpt lat="45.95649" lon="4.44992">
        <ele>707.011535645</ele>
        <time>2016-01-28T12:46:03.124Z</time>
      </trkpt>
      <trkpt lat="45.9565" lon="4.44991">
        <ele>706.960632324</ele>
        <time>2016-01-28T12:46:04.102Z</time>
      </trkpt>
      <trkpt lat="45.95658" lon="4.44987">
        <ele>706.692871094</ele>
        <time>2016-01-28T12:46:09.119Z</time>
      </trkpt>
      <trkpt lat="45.95659" lon="4.44986">
        <ele>706.604797363</ele>
        <time>2016-01-28T12:46:10.096Z</time>
      </trkpt>
      <trkpt lat="45.95667" lon="4.44979">
        <ele>706.215820312</ele>
        <time>2016-01-28T12:46:17.124Z</time>
      </trkpt>
      <trkpt lat="45.95667" lon="4.44978">
        <ele>706.025024414</ele>
        <time>2016-01-28T12:46:18.095Z</time>
      </trkpt>
      <trkpt lat="45.95675" lon="4.44972">
        <ele>705.489135742</ele>
        <time>2016-01-28T12:46:26.126Z</time>
      </trkpt>
      <trkpt lat="45.95676" lon="4.44972">
        <ele>705.47869873</ele>
        <time>2016-01-28T12:46:27.096Z</time>
      </trkpt>
      <trkpt lat="45.95683" lon="4.44966">
        <ele>705.506958008</ele>
        <time>2016-01-28T12:46:36.119Z</time>
      </trkpt>
      <trkpt lat="45.95684" lon="4.44964">
        <ele>705.423217773</ele>
        <time>2016-01-28T12:46:37.098Z</time>
      </trkpt>
      <trkpt lat="45.9569" lon="4.44957">
        <ele>704.745300293</ele>
        <time>2016-01-28T12:46:42.132Z</time>
      </trkpt>
      <trkpt lat="45.95692" lon="4.44955">
        <ele>704.643737793</ele>
        <time>2016-01-28T12:46:43.098Z</time>
      </trkpt>
      <trkpt lat="45.95698" lon="4.44946">
        <ele>704.205505371</ele>
        <time>2016-01-28T12:46:49.114Z</time>
      </trkpt>
      <trkpt lat="45.95699" lon="4.44945">
        <ele>704.269958496</ele>
        <time>2016-01-28T12:46:50.101Z</time>
      </trkpt>
      <trkpt lat="45.95706" lon="4.44937">
        <ele>704.392822266</ele>
        <time>2016-01-28T12:46:55.138Z</time>
      </trkpt>
      <trkpt lat="45.95707" lon="4.44934">
        <ele>704.478210449</ele>
        <time>2016-01-28T12:46:56.103Z</time>
      </trkpt>
      <trkpt lat="45.95713" lon="4.44926">
        <ele>704.450744629</ele>
        <time>2016-01-28T12:47:05.099Z</time>
      </trkpt>
      <trkpt lat="45.95714" lon="4.44923">
        <ele>704.532165527</ele>
        <time>2016-01-28T12:47:06.098Z</time>
      </trkpt>
      <trkpt lat="45.95718" lon="4.44915">
        <ele>704.971618652</ele>
        <time>2016-01-28T12:47:11.153Z</time>
      </trkpt>
      <trkpt lat="45.95719" lon="4.44913">
        <ele>705.054077148</ele>
        <time>2016-01-28T12:47:12.102Z</time>
      </trkpt>
      <trkpt lat="45.95724" lon="4.44903">
        <ele>705.356384277</ele>
        <time>2016-01-28T12:47:17.132Z</time>
      </trkpt>
      <trkpt lat="45.95725" lon="4.449">
        <ele>705.431152344</ele>
        <time>2016-01-28T12:47:18.104Z</time>
      </trkpt>
      <trkpt lat="45.9573" lon="4.44892">
        <ele>705.77520752</ele>
        <time>2016-01-28T12:47:23.251Z</time>
      </trkpt>
      <trkpt lat="45.95731" lon="4.4489">
        <ele>705.823425293</ele>
        <time>2016-01-28T12:47:24.107Z</time>
      </trkpt>
      <trkpt lat="45.95734" lon="4.4488">
        <ele>706.08416748</ele>
        <time>2016-01-28T12:47:30.142Z</time>
      </trkpt>
      <trkpt lat="45.95735" lon="4.44878">
        <ele>706.25189209</ele>
        <time>2016-01-28T12:47:31.114Z</time>
      </trkpt>
      <trkpt lat="45.9574" lon="4.44868">
        <ele>706.825317383</ele>
        <time>2016-01-28T12:47:38.11Z</time>
      </trkpt>
      <trkpt lat="45.9574" lon="4.44866">
        <ele>706.885192871</ele>
        <time>2016-01-28T12:47:39.087Z</time>
      </trkpt>
      <trkpt lat="45.95744" lon="4.44858">
        <ele>707.249328613</ele>
        <time>2016-01-28T12:47:43.104Z</time>
      </trkpt>
      <trkpt lat="45.95746" lon="4.44852">
        <ele>707.302185059</ele>
        <time>2016-01-28T12:47:44.082Z</time>
      </trkpt>
      <trkpt lat="45.95749" lon="4.44843">
        <ele>707.584777832</ele>
        <time>2016-01-28T12:47:47.198Z</time>
      </trkpt>
      <trkpt lat="45.95751" lon="4.44839">
        <ele>707.689147949</ele>
        <time>2016-01-28T12:47:48.082Z</time>
      </trkpt>
      <trkpt lat="45.95756" lon="4.44829">
        <ele>708.486816406</ele>
        <time>2016-01-28T12:47:55.098Z</time>
      </trkpt>
      <trkpt lat="45.95756" lon="4.44828">
        <ele>708.694885254</ele>
        <time>2016-01-28T12:47:56.088Z</time>
      </trkpt>
      <trkpt lat="45.95758" lon="4.44816">
        <ele>710.888244629</ele>
        <time>2016-01-28T12:48:09.105Z</time>
      </trkpt>
      <trkpt lat="45.95758" lon="4.44814">
        <ele>710.936706543</ele>
        <time>2016-01-28T12:48:10.111Z</time>
      </trkpt>
      <trkpt lat="45.95759" lon="4.44802">
        <ele>711.088745117</ele>
        <time>2016-01-28T12:48:15.11Z</time>
      </trkpt>
      <trkpt lat="45.95759" lon="4.448">
        <ele>711.120117188</ele>
        <time>2016-01-28T12:48:16.082Z</time>
      </trkpt>
      <trkpt lat="45.95762" lon="4.44788">
        <ele>711.147216797</ele>
        <time>2016-01-28T12:48:19.121Z</time>
      </trkpt>
      <trkpt lat="45.95762" lon="4.44786">
        <ele>711.147827148</ele>
        <time>2016-01-28T12:48:20.098Z</time>
      </trkpt>
      <trkpt lat="45.95764" lon="4.44775">
        <ele>711.401000977</ele>
        <time>2016-01-28T12:48:26.103Z</time>
      </trkpt>
      <trkpt lat="45.95764" lon="4.44773">
        <ele>711.440246582</ele>
        <time>2016-01-28T12:48:27.083Z</time>
      </trkpt>
      <trkpt lat="45.95762" lon="4.44761">
        <ele>711.666931152</ele>
        <time>2016-01-28T12:48:35.111Z</time>
      </trkpt>
      <trkpt lat="45.95762" lon="4.44759">
        <ele>711.680786133</ele>
        <time>2016-01-28T12:48:36.091Z</time>
      </trkpt>
      <trkpt lat="45.95764" lon="4.44746">
        <ele>711.568237305</ele>
        <time>2016-01-28T12:48:44.096Z</time>
      </trkpt>
      <trkpt lat="45.95764" lon="4.44745">
        <ele>711.609924316</ele>
        <time>2016-01-28T12:48:45.068Z</time>
      </trkpt>
      <trkpt lat="45.95768" lon="4.44734">
        <ele>711.764404297</ele>
        <time>2016-01-28T12:48:55.13Z</time>
      </trkpt>
      <trkpt lat="45.95769" lon="4.44732">
        <ele>711.741027832</ele>
        <time>2016-01-28T12:48:56.09Z</time>
      </trkpt>
      <trkpt lat="45.95777" lon="4.44728">
        <ele>710.935241699</ele>
        <time>2016-01-28T12:49:09.114Z</time>
      </trkpt>
      <trkpt lat="45.95778" lon="4.44728">
        <ele>711.065246582</ele>
        <time>2016-01-28T12:49:10.101Z</time>
      </trkpt>
      <trkpt lat="45.95785" lon="4.4473">
        <ele>711.684204102</ele>
        <time>2016-01-28T12:49:18.105Z</time>
      </trkpt>
      <trkpt lat="45.95787" lon="4.44729">
        <ele>711.76763916</ele>
        <time>2016-01-28T12:49:19.102Z</time>
      </trkpt>
      <trkpt lat="45.95794" lon="4.44723">
        <ele>711.244689941</ele>
        <time>2016-01-28T12:49:26.115Z</time>
      </trkpt>
      <trkpt lat="45.95794" lon="4.44722">
        <ele>711.127685547</ele>
        <time>2016-01-28T12:49:27.114Z</time>
      </trkpt>
      <trkpt lat="45.95801" lon="4.44714">
        <ele>710.135986328</ele>
        <time>2016-01-28T12:49:35.117Z</time>
      </trkpt>
      <trkpt lat="45.95802" lon="4.44713">
        <ele>709.988708496</ele>
        <time>2016-01-28T12:49:36.085Z</time>
      </trkpt>
      <trkpt lat="45.95809" lon="4.44709">
        <ele>709.453125</ele>
        <time>2016-01-28T12:49:41.108Z</time>
      </trkpt>
      <trkpt lat="45.95811" lon="4.44708">
        <ele>709.343566895</ele>
        <time>2016-01-28T12:49:42.098Z</time>
      </trkpt>
      <trkpt lat="45.95818" lon="4.44703">
        <ele>708.868164062</ele>
        <time>2016-01-28T12:49:47.117Z</time>
      </trkpt>
      <trkpt lat="45.9582" lon="4.44702">
        <ele>708.782836914</ele>
        <time>2016-01-28T12:49:48.092Z</time>
      </trkpt>
      <trkpt lat="45.95828" lon="4.44699">
        <ele>708.697692871</ele>
        <time>2016-01-28T12:49:53.112Z</time>
      </trkpt>
      <trkpt lat="45.9583" lon="4.44698">
        <ele>708.737121582</ele>
        <time>2016-01-28T12:49:54.096Z</time>
      </trkpt>
      <trkpt lat="45.95838" lon="4.44696">
        <ele>709.123535156</ele>
        <time>2016-01-28T12:49:59.125Z</time>
      </trkpt>
      <trkpt lat="45.9584" lon="4.44696">
        <ele>709.209106445</ele>
        <time>2016-01-28T12:50:00.093Z</time>
      </trkpt>
      <trkpt lat="45.95848" lon="4.44698">
        <ele>709.589355469</ele>
        <time>2016-01-28T12:50:06.11Z</time>
      </trkpt>
      <trkpt lat="45.9585" lon="4.44698">
        <ele>709.684020996</ele>
        <time>2016-01-28T12:50:07.087Z</time>
      </trkpt>
      <trkpt lat="45.95858" lon="4.447">
        <ele>710.026184082</ele>
        <time>2016-01-28T12:50:13.124Z</time>
      </trkpt>
      <trkpt lat="45.95859" lon="4.44701">
        <ele>710.05847168</ele>
        <time>2016-01-28T12:50:14.088Z</time>
      </trkpt>
      <trkpt lat="45.95866" lon="4.44706">
        <ele>710.284179688</ele>
        <time>2016-01-28T12:50:21.114Z</time>
      </trkpt>
      <trkpt lat="45.95867" lon="4.44707">
        <ele>710.311218262</ele>
        <time>2016-01-28T12:50:22.089Z</time>
      </trkpt>
      <trkpt lat="45.95875" lon="4.44711">
        <ele>710.816223145</ele>
        <time>2016-01-28T12:50:30.13Z</time>
      </trkpt>
      <trkpt lat="45.95876" lon="4.44711">
        <ele>710.92364502</ele>
        <time>2016-01-28T12:50:31.1Z</time>
      </trkpt>
      <trkpt lat="45.95884" lon="4.44709">
        <ele>711.479431152</ele>
        <time>2016-01-28T12:50:40.127Z</time>
      </trkpt>
      <trkpt lat="45.95886" lon="4.44708">
        <ele>711.557189941</ele>
        <time>2016-01-28T12:50:41.103Z</time>
      </trkpt>
      <trkpt lat="45.95894" lon="4.44705">
        <ele>712.245910645</ele>
        <time>2016-01-28T12:50:47.12Z</time>
      </trkpt>
      <trkpt lat="45.95895" lon="4.44704">
        <ele>712.371337891</ele>
        <time>2016-01-28T12:50:48.09Z</time>
      </trkpt>
      <trkpt lat="45.95903" lon="4.44699">
        <ele>712.760192871</ele>
        <time>2016-01-28T12:50:55.114Z</time>
      </trkpt>
      <trkpt lat="45.95904" lon="4.44699">
        <ele>712.766662598</ele>
        <time>2016-01-28T12:50:56.094Z</time>
      </trkpt>
      <trkpt lat="45.95912" lon="4.44693">
        <ele>713.181396484</ele>
        <time>2016-01-28T12:51:06.113Z</time>
      </trkpt>
      <trkpt lat="45.95913" lon="4.44693">
        <ele>713.288024902</ele>
        <time>2016-01-28T12:51:07.103Z</time>
      </trkpt>
      <trkpt lat="45.9592" lon="4.44685">
        <ele>713.008605957</ele>
        <time>2016-01-28T12:51:16.132Z</time>
      </trkpt>
      <trkpt lat="45.95921" lon="4.44685">
        <ele>712.995300293</ele>
        <time>2016-01-28T12:51:17.099Z</time>
      </trkpt>
      <trkpt lat="45.95929" lon="4.44679">
        <ele>713.201171875</ele>
        <time>2016-01-28T12:51:24.126Z</time>
      </trkpt>
      <trkpt lat="45.9593" lon="4.44678">
        <ele>713.284423828</ele>
        <time>2016-01-28T12:51:25.089Z</time>
      </trkpt>
      <trkpt lat="45.95937" lon="4.44677">
        <ele>713.881652832</ele>
        <time>2016-01-28T12:51:29.129Z</time>
      </trkpt>
      <trkpt lat="45.95939" lon="4.44676">
        <ele>714.019836426</ele>
        <time>2016-01-28T12:51:30.103Z</time>
      </trkpt>
      <trkpt lat="45.95947" lon="4.44672">
        <ele>714.46270752</ele>
        <time>2016-01-28T12:51:38.131Z</time>
      </trkpt>
      <trkpt lat="45.95949" lon="4.44671">
        <ele>714.50201416</ele>
        <time>2016-01-28T12:51:39.091Z</time>
      </trkpt>
      <trkpt lat="45.95958" lon="4.44669">
        <ele>714.781188965</ele>
        <time>2016-01-28T12:51:45.129Z</time>
      </trkpt>
      <trkpt lat="45.95958" lon="4.44669">
        <ele>714.814941406</ele>
        <time>2016-01-28T12:51:46.097Z</time>
      </trkpt>
      <trkpt lat="45.95967" lon="4.44666">
        <ele>715.699890137</ele>
        <time>2016-01-28T12:51:55.127Z</time>
      </trkpt>
      <trkpt lat="45.95967" lon="4.44666">
        <ele>715.797424316</ele>
        <time>2016-01-28T12:51:56.091Z</time>
      </trkpt>
      <trkpt lat="45.95975" lon="4.44662">
        <ele>716.154968262</ele>
        <time>2016-01-28T12:52:03.127Z</time>
      </trkpt>
      <trkpt lat="45.95976" lon="4.44661">
        <ele>716.21875</ele>
        <time>2016-01-28T12:52:04.102Z</time>
      </trkpt>
      <trkpt lat="45.95983" lon="4.44657">
        <ele>716.969482422</ele>
        <time>2016-01-28T12:52:10.132Z</time>
      </trkpt>
      <trkpt lat="45.95984" lon="4.44656">
        <ele>717.026672363</ele>
        <time>2016-01-28T12:52:11.11Z</time>
      </trkpt>
      <trkpt lat="45.95992" lon="4.44649">
        <ele>717.834228516</ele>
        <time>2016-01-28T12:52:18.134Z</time>
      </trkpt>
      <trkpt lat="45.95992" lon="4.44648">
        <ele>717.931335449</ele>
        <time>2016-01-28T12:52:19.097Z</time>
      </trkpt>
      <trkpt lat="45.95999" lon="4.44641">
        <ele>718.710876465</ele>
        <time>2016-01-28T12:52:26.121Z</time>
      </trkpt>
      <trkpt lat="45.96" lon="4.4464">
        <ele>718.842041016</ele>
        <time>2016-01-28T12:52:27.108Z</time>
      </trkpt>
      <trkpt lat="45.96007" lon="4.44632">
        <ele>719.738098145</ele>
        <time>2016-01-28T12:52:33.138Z</time>
      </trkpt>
      <trkpt lat="45.96008" lon="4.44631">
        <ele>719.824523926</ele>
        <time>2016-01-28T12:52:34.112Z</time>
      </trkpt>
      <trkpt lat="45.96015" lon="4.44626">
        <ele>720.599731445</ele>
        <time>2016-01-28T12:52:41.135Z</time>
      </trkpt>
      <trkpt lat="45.96016" lon="4.44625">
        <ele>720.641662598</ele>
        <time>2016-01-28T12:52:42.111Z</time>
      </trkpt>
      <trkpt lat="45.96024" lon="4.44627">
        <ele>720.946533203</ele>
        <time>2016-01-28T12:52:48.133Z</time>
      </trkpt>
      <trkpt lat="45.96026" lon="4.44627">
        <ele>721.018432617</ele>
        <time>2016-01-28T12:52:49.074Z</time>
      </trkpt>
      <trkpt lat="45.96033" lon="4.44634">
        <ele>721.412597656</ele>
        <time>2016-01-28T12:52:57.12Z</time>
      </trkpt>
      <trkpt lat="45.96033" lon="4.44636">
        <ele>721.524780273</ele>
        <time>2016-01-28T12:52:58.144Z</time>
      </trkpt>
      <trkpt lat="45.96038" lon="4.44645">
        <ele>722.824951172</ele>
        <time>2016-01-28T12:53:08.144Z</time>
      </trkpt>
      <trkpt lat="45.9604" lon="4.44647">
        <ele>722.85546875</ele>
        <time>2016-01-28T12:53:09.088Z</time>
      </trkpt>
      <trkpt lat="45.96046" lon="4.44655">
        <ele>723.697753906</ele>
        <time>2016-01-28T12:53:17.126Z</time>
      </trkpt>
      <trkpt lat="45.96047" lon="4.44656">
        <ele>723.919311523</ele>
        <time>2016-01-28T12:53:18.082Z</time>
      </trkpt>
      <trkpt lat="45.96052" lon="4.44666">
        <ele>725.121887207</ele>
        <time>2016-01-28T12:53:24.085Z</time>
      </trkpt>
      <trkpt lat="45.96053" lon="4.44668">
        <ele>725.273010254</ele>
        <time>2016-01-28T12:53:25.081Z</time>
      </trkpt>
      <trkpt lat="45.96059" lon="4.44677">
        <ele>726.115234375</ele>
        <time>2016-01-28T12:53:31.121Z</time>
      </trkpt>
      <trkpt lat="45.9606" lon="4.44678">
        <ele>726.185668945</ele>
        <time>2016-01-28T12:53:32.091Z</time>
      </trkpt>
      <trkpt lat="45.96065" lon="4.44687">
        <ele>727.909606934</ele>
        <time>2016-01-28T12:53:42.164Z</time>
      </trkpt>
      <trkpt lat="45.96066" lon="4.44688">
        <ele>728.085998535</ele>
        <time>2016-01-28T12:53:43.09Z</time>
      </trkpt>
      <trkpt lat="45.96072" lon="4.44695">
        <ele>728.259460449</ele>
        <time>2016-01-28T12:53:47.108Z</time>
      </trkpt>
      <trkpt lat="45.96073" lon="4.44697">
        <ele>728.324584961</ele>
        <time>2016-01-28T12:53:48.081Z</time>
      </trkpt>
      <trkpt lat="45.96077" lon="4.44707">
        <ele>729.455200195</ele>
        <time>2016-01-28T12:53:55.115Z</time>
      </trkpt>
      <trkpt lat="45.96078" lon="4.44708">
        <ele>729.614501953</ele>
        <time>2016-01-28T12:53:56.082Z</time>
      </trkpt>
      <trkpt lat="45.96084" lon="4.44717">
        <ele>730.507019043</ele>
        <time>2016-01-28T12:54:03.099Z</time>
      </trkpt>
      <trkpt lat="45.96085" lon="4.44718">
        <ele>730.604736328</ele>
        <time>2016-01-28T12:54:04.083Z</time>
      </trkpt>
      <trkpt lat="45.96092" lon="4.44724">
        <ele>731.387512207</ele>
        <time>2016-01-28T12:54:11.117Z</time>
      </trkpt>
      <trkpt lat="45.96093" lon="4.44725">
        <ele>731.498168945</ele>
        <time>2016-01-28T12:54:12.083Z</time>
      </trkpt>
      <trkpt lat="45.96098" lon="4.44734">
        <ele>732.288879395</ele>
        <time>2016-01-28T12:54:19.106Z</time>
      </trkpt>
      <trkpt lat="45.96098" lon="4.44736">
        <ele>732.359008789</ele>
        <time>2016-01-28T12:54:20.09Z</time>
      </trkpt>
      <trkpt lat="45.96103" lon="4.44745">
        <ele>733.072937012</ele>
        <time>2016-01-28T12:54:27.12Z</time>
      </trkpt>
      <trkpt lat="45.96104" lon="4.44746">
        <ele>733.145080566</ele>
        <time>2016-01-28T12:54:28.078Z</time>
      </trkpt>
      <trkpt lat="45.96106" lon="4.44758">
        <ele>733.982116699</ele>
        <time>2016-01-28T12:54:35.089Z</time>
      </trkpt>
      <trkpt lat="45.96107" lon="4.44759">
        <ele>734.148071289</ele>
        <time>2016-01-28T12:54:36.086Z</time>
      </trkpt>
      <trkpt lat="45.96111" lon="4.4477">
        <ele>735.332641602</ele>
        <time>2016-01-28T12:54:44.118Z</time>
      </trkpt>
      <trkpt lat="45.96111" lon="4.44771">
        <ele>735.455566406</ele>
        <time>2016-01-28T12:54:45.085Z</time>
      </trkpt>
      <trkpt lat="45.96116" lon="4.44781">
        <ele>736.112731934</ele>
        <time>2016-01-28T12:54:51.124Z</time>
      </trkpt>
      <trkpt lat="45.96117" lon="4.44783">
        <ele>736.281066895</ele>
        <time>2016-01-28T12:54:52.086Z</time>
      </trkpt>
      <trkpt lat="45.96121" lon="4.44793">
        <ele>737.145874023</ele>
        <time>2016-01-28T12:54:59.108Z</time>
      </trkpt>
      <trkpt lat="45.96121" lon="4.44794">
        <ele>737.195556641</ele>
        <time>2016-01-28T12:55:00.096Z</time>
      </trkpt>
      <trkpt lat="45.96125" lon="4.44806">
        <ele>738.30279541</ele>
        <time>2016-01-28T12:55:08.113Z</time>
      </trkpt>
      <trkpt lat="45.96126" lon="4.44808">
        <ele>738.445678711</ele>
        <time>2016-01-28T12:55:09.085Z</time>
      </trkpt>
      <trkpt lat="45.96131" lon="4.44818">
        <ele>739.483520508</ele>
        <time>2016-01-28T12:55:17.125Z</time>
      </trkpt>
      <trkpt lat="45.96132" lon="4.4482">
        <ele>739.579101562</ele>
        <time>2016-01-28T12:55:18.106Z</time>
      </trkpt>
      <trkpt lat="45.96137" lon="4.44829">
        <ele>740.105712891</ele>
        <time>2016-01-28T12:55:24.111Z</time>
      </trkpt>
      <trkpt lat="45.96138" lon="4.4483">
        <ele>740.204772949</ele>
        <time>2016-01-28T12:55:25.094Z</time>
      </trkpt>
      <trkpt lat="45.96142" lon="4.44841">
        <ele>741.087280273</ele>
        <time>2016-01-28T12:55:33.116Z</time>
      </trkpt>
      <trkpt lat="45.96142" lon="4.44842">
        <ele>741.184265137</ele>
        <time>2016-01-28T12:55:34.079Z</time>
      </trkpt>
      <trkpt lat="45.96148" lon="4.44851">
        <ele>741.963928223</ele>
        <time>2016-01-28T12:55:40.119Z</time>
      </trkpt>
      <trkpt lat="45.96148" lon="4.44852">
        <ele>742.065429688</ele>
        <time>2016-01-28T12:55:41.088Z</time>
      </trkpt>
      <trkpt lat="45.96153" lon="4.44862">
        <ele>742.47857666</ele>
        <time>2016-01-28T12:55:47.129Z</time>
      </trkpt>
      <trkpt lat="45.96154" lon="4.44864">
        <ele>742.557250977</ele>
        <time>2016-01-28T12:55:48.101Z</time>
      </trkpt>
      <trkpt lat="45.96159" lon="4.44874">
        <ele>743.057250977</ele>
        <time>2016-01-28T12:55:56.113Z</time>
      </trkpt>
      <trkpt lat="45.9616" lon="4.44876">
        <ele>743.134887695</ele>
        <time>2016-01-28T12:55:57.092Z</time>
      </trkpt>
      <trkpt lat="45.96165" lon="4.44886">
        <ele>743.490234375</ele>
        <time>2016-01-28T12:56:03.131Z</time>
      </trkpt>
      <trkpt lat="45.96165" lon="4.44888">
        <ele>743.55255127</ele>
        <time>2016-01-28T12:56:04.094Z</time>
      </trkpt>
      <trkpt lat="45.96171" lon="4.44896">
        <ele>743.914306641</ele>
        <time>2016-01-28T12:56:10.134Z</time>
      </trkpt>
      <trkpt lat="45.96172" lon="4.44898">
        <ele>743.972961426</ele>
        <time>2016-01-28T12:56:11.093Z</time>
      </trkpt>
      <trkpt lat="45.96179" lon="4.44904">
        <ele>744.181030273</ele>
        <time>2016-01-28T12:56:17.141Z</time>
      </trkpt>
      <trkpt lat="45.9618" lon="4.44905">
        <ele>744.200439453</ele>
        <time>2016-01-28T12:56:18.102Z</time>
      </trkpt>
      <trkpt lat="45.96189" lon="4.44907">
        <ele>744.286193848</ele>
        <time>2016-01-28T12:56:25.127Z</time>
      </trkpt>
      <trkpt lat="45.9619" lon="4.44908">
        <ele>744.290222168</ele>
        <time>2016-01-28T12:56:26.094Z</time>
      </trkpt>
      <trkpt lat="45.96199" lon="4.44907">
        <ele>744.547851562</ele>
        <time>2016-01-28T12:56:46.259Z</time>
      </trkpt>
      <trkpt lat="45.96199" lon="4.44906">
        <ele>744.601257324</ele>
        <time>2016-01-28T12:56:47.098Z</time>
      </trkpt>
      <trkpt lat="45.96206" lon="4.44897">
        <ele>745.521240234</ele>
        <time>2016-01-28T12:56:59.147Z</time>
      </trkpt>
      <trkpt lat="45.96206" lon="4.44896">
        <ele>745.607971191</ele>
        <time>2016-01-28T12:57:00.102Z</time>
      </trkpt>
      <trkpt lat="45.96211" lon="4.44887">
        <ele>746.49597168</ele>
        <time>2016-01-28T12:57:08.128Z</time>
      </trkpt>
      <trkpt lat="45.96212" lon="4.44885">
        <ele>746.624694824</ele>
        <time>2016-01-28T12:57:09.1Z</time>
      </trkpt>
      <trkpt lat="45.96216" lon="4.44875">
        <ele>747.461425781</ele>
        <time>2016-01-28T12:57:18.127Z</time>
      </trkpt>
      <trkpt lat="45.96217" lon="4.44874">
        <ele>747.534606934</ele>
        <time>2016-01-28T12:57:19.096Z</time>
      </trkpt>
      <trkpt lat="45.96221" lon="4.44863">
        <ele>751.408447266</ele>
        <time>2016-01-28T12:57:38.332Z</time>
      </trkpt>
      <trkpt lat="45.96221" lon="4.44862">
        <ele>751.640930176</ele>
        <time>2016-01-28T12:57:39.096Z</time>
      </trkpt>
      <trkpt lat="45.96225" lon="4.44852">
        <ele>752.921875</ele>
        <time>2016-01-28T12:57:44.138Z</time>
      </trkpt>
      <trkpt lat="45.96225" lon="4.4485">
        <ele>753.169677734</ele>
        <time>2016-01-28T12:57:45.103Z</time>
      </trkpt>
      <trkpt lat="45.9623" lon="4.44839">
        <ele>755.024841309</ele>
        <time>2016-01-28T12:57:52.138Z</time>
      </trkpt>
      <trkpt lat="45.9623" lon="4.44837">
        <ele>755.370300293</ele>
        <time>2016-01-28T12:57:53.109Z</time>
      </trkpt>
      <trkpt lat="45.96234" lon="4.44825">
        <ele>756.643493652</ele>
        <time>2016-01-28T12:57:58.14Z</time>
      </trkpt>
      <trkpt lat="45.96234" lon="4.44821">
        <ele>756.777587891</ele>
        <time>2016-01-28T12:57:59.102Z</time>
      </trkpt>
      <trkpt lat="45.96237" lon="4.4481">
        <ele>756.899414062</ele>
        <time>2016-01-28T12:58:02.126Z</time>
      </trkpt>
      <trkpt lat="45.96238" lon="4.44807">
        <ele>756.927490234</ele>
        <time>2016-01-28T12:58:03.103Z</time>
      </trkpt>
      <trkpt lat="45.9624" lon="4.44796">
        <ele>756.966552734</ele>
        <time>2016-01-28T12:58:08.113Z</time>
      </trkpt>
      <trkpt lat="45.9624" lon="4.44795">
        <ele>756.98449707</ele>
        <time>2016-01-28T12:58:09.085Z</time>
      </trkpt>
      <trkpt lat="45.96245" lon="4.44786">
        <ele>757.316589355</ele>
        <time>2016-01-28T12:58:14.099Z</time>
      </trkpt>
      <trkpt lat="45.96246" lon="4.44784">
        <ele>757.282897949</ele>
        <time>2016-01-28T12:58:15.087Z</time>
      </trkpt>
      <trkpt lat="45.96251" lon="4.44775">
        <ele>757.08795166</ele>
        <time>2016-01-28T12:58:18.096Z</time>
      </trkpt>
      <trkpt lat="45.96252" lon="4.44773">
        <ele>757.020629883</ele>
        <time>2016-01-28T12:58:19.079Z</time>
      </trkpt>
      <trkpt lat="45.96257" lon="4.44763">
        <ele>757.072937012</ele>
        <time>2016-01-28T12:58:25.102Z</time>
      </trkpt>
      <trkpt lat="45.96257" lon="4.44762">
        <ele>757.141052246</ele>
        <time>2016-01-28T12:58:26.085Z</time>
      </trkpt>
      <trkpt lat="45.96261" lon="4.4475">
        <ele>757.519348145</ele>
        <time>2016-01-28T12:58:32.123Z</time>
      </trkpt>
      <trkpt lat="45.96262" lon="4.44747">
        <ele>757.640380859</ele>
        <time>2016-01-28T12:58:33.078Z</time>
      </trkpt>
      <trkpt lat="45.96264" lon="4.44735">
        <ele>758.320678711</ele>
        <time>2016-01-28T12:58:39.107Z</time>
      </trkpt>
      <trkpt lat="45.96264" lon="4.44733">
        <ele>758.425231934</ele>
        <time>2016-01-28T12:58:40.089Z</time>
      </trkpt>
      <trkpt lat="45.96268" lon="4.44722">
        <ele>758.597412109</ele>
        <time>2016-01-28T12:58:45.101Z</time>
      </trkpt>
      <trkpt lat="45.96268" lon="4.4472">
        <ele>758.612548828</ele>
        <time>2016-01-28T12:58:46.089Z</time>
      </trkpt>
      <trkpt lat="45.96271" lon="4.44709">
        <ele>758.78137207</ele>
        <time>2016-01-28T12:58:53.103Z</time>
      </trkpt>
      <trkpt lat="45.96272" lon="4.44707">
        <ele>758.800109863</ele>
        <time>2016-01-28T12:58:54.089Z</time>
      </trkpt>
      <trkpt lat="45.96274" lon="4.44698">
        <ele>759.106994629</ele>
        <time>2016-01-28T12:59:00.138Z</time>
      </trkpt>
      <trkpt lat="45.96275" lon="4.44695">
        <ele>759.124267578</ele>
        <time>2016-01-28T12:59:01.088Z</time>
      </trkpt>
      <trkpt lat="45.96277" lon="4.44683">
        <ele>759.081726074</ele>
        <time>2016-01-28T12:59:07.228Z</time>
      </trkpt>
      <trkpt lat="45.96277" lon="4.44682">
        <ele>759.11138916</ele>
        <time>2016-01-28T12:59:08.09Z</time>
      </trkpt>
      <trkpt lat="45.9628" lon="4.4467">
        <ele>759.794250488</ele>
        <time>2016-01-28T12:59:18.105Z</time>
      </trkpt>
      <trkpt lat="45.96281" lon="4.44667">
        <ele>759.689758301</ele>
        <time>2016-01-28T12:59:19.099Z</time>
      </trkpt>
      <trkpt lat="45.96285" lon="4.44656">
        <ele>759.159667969</ele>
        <time>2016-01-28T12:59:25.105Z</time>
      </trkpt>
      <trkpt lat="45.96286" lon="4.44654">
        <ele>759.073791504</ele>
        <time>2016-01-28T12:59:26.082Z</time>
      </trkpt>
      <trkpt lat="45.96289" lon="4.44643">
        <ele>759.530944824</ele>
        <time>2016-01-28T12:59:35.1Z</time>
      </trkpt>
      <trkpt lat="45.9629" lon="4.44641">
        <ele>759.60357666</ele>
        <time>2016-01-28T12:59:36.087Z</time>
      </trkpt>
      <trkpt lat="45.96295" lon="4.44631">
        <ele>760.494384766</ele>
        <time>2016-01-28T12:59:45.118Z</time>
      </trkpt>
      <trkpt lat="45.96296" lon="4.44629">
        <ele>760.663879395</ele>
        <time>2016-01-28T12:59:46.068Z</time>
      </trkpt>
      <trkpt lat="45.963" lon="4.44619">
        <ele>760.651306152</ele>
        <time>2016-01-28T12:59:52.121Z</time>
      </trkpt>
      <trkpt lat="45.96301" lon="4.44616">
        <ele>760.36315918</ele>
        <time>2016-01-28T12:59:53.086Z</time>
      </trkpt>
      <trkpt lat="45.96305" lon="4.44606">
        <ele>760.151916504</ele>
        <time>2016-01-28T13:00:01.124Z</time>
      </trkpt>
      <trkpt lat="45.96306" lon="4.44605">
        <ele>760.23223877</ele>
        <time>2016-01-28T13:00:02.099Z</time>
      </trkpt>
      <trkpt lat="45.96312" lon="4.44597">
        <ele>760.747741699</ele>
        <time>2016-01-28T13:00:07.111Z</time>
      </trkpt>
      <trkpt lat="45.96313" lon="4.44594">
        <ele>760.960876465</ele>
        <time>2016-01-28T13:00:08.089Z</time>
      </trkpt>
      <trkpt lat="45.96318" lon="4.44584">
        <ele>760.999328613</ele>
        <time>2016-01-28T13:00:15.118Z</time>
      </trkpt>
      <trkpt lat="45.96318" lon="4.44581">
        <ele>760.953857422</ele>
        <time>2016-01-28T13:00:16.084Z</time>
      </trkpt>
      <trkpt lat="45.96321" lon="4.44572">
        <ele>760.378295898</ele>
        <time>2016-01-28T13:00:20.115Z</time>
      </trkpt>
      <trkpt lat="45.96323" lon="4.44569">
        <ele>760.088439941</ele>
        <time>2016-01-28T13:00:21.086Z</time>
      </trkpt>
      <trkpt lat="45.96328" lon="4.44561">
        <ele>759.399047852</ele>
        <time>2016-01-28T13:00:24.105Z</time>
      </trkpt>
      <trkpt lat="45.96329" lon="4.44558">
        <ele>759.192932129</ele>
        <time>2016-01-28T13:00:25.086Z</time>
      </trkpt>
      <trkpt lat="45.96334" lon="4.44549">
        <ele>758.61895752</ele>
        <time>2016-01-28T13:00:28.106Z</time>
      </trkpt>
      <trkpt lat="45.96335" lon="4.44546">
        <ele>758.432434082</ele>
        <time>2016-01-28T13:00:29.086Z</time>
      </trkpt>
      <trkpt lat="45.96339" lon="4.44537">
        <ele>757.808349609</ele>
        <time>2016-01-28T13:00:33.108Z</time>
      </trkpt>
      <trkpt lat="45.9634" lon="4.44535">
        <ele>757.626159668</ele>
        <time>2016-01-28T13:00:34.088Z</time>
      </trkpt>
      <trkpt lat="45.96345" lon="4.44526">
        <ele>757.092407227</ele>
        <time>2016-01-28T13:00:39.124Z</time>
      </trkpt>
      <trkpt lat="45.96346" lon="4.44525">
        <ele>756.995239258</ele>
        <time>2016-01-28T13:00:40.092Z</time>
      </trkpt>
      <trkpt lat="45.96349" lon="4.44513">
        <ele>756.383239746</ele>
        <time>2016-01-28T13:00:48.131Z</time>
      </trkpt>
      <trkpt lat="45.96348" lon="4.44512">
        <ele>756.355163574</ele>
        <time>2016-01-28T13:00:49.087Z</time>
      </trkpt>
      <trkpt lat="45.96343" lon="4.44502">
        <ele>755.176574707</ele>
        <time>2016-01-28T13:01:03.126Z</time>
      </trkpt>
      <trkpt lat="45.96344" lon="4.445">
        <ele>755.014953613</ele>
        <time>2016-01-28T13:01:04.103Z</time>
      </trkpt>
      <trkpt lat="45.96349" lon="4.44489">
        <ele>752.269775391</ele>
        <time>2016-01-28T13:01:20.125Z</time>
      </trkpt>
      <trkpt lat="45.9635" lon="4.44489">
        <ele>751.999389648</ele>
        <time>2016-01-28T13:01:21.098Z</time>
      </trkpt>
      <trkpt lat="45.96357" lon="4.44484">
        <ele>750.670227051</ele>
        <time>2016-01-28T13:01:29.126Z</time>
      </trkpt>
      <trkpt lat="45.96358" lon="4.44483">
        <ele>750.523925781</ele>
        <time>2016-01-28T13:01:30.099Z</time>
      </trkpt>
      <trkpt lat="45.96363" lon="4.4448">
        <ele>750.319946289</ele>
        <time>2016-01-28T13:01:33.122Z</time>
      </trkpt>
      <trkpt lat="45.96366" lon="4.44478">
        <ele>750.202392578</ele>
        <time>2016-01-28T13:01:34.105Z</time>
      </trkpt>
      <trkpt lat="45.96374" lon="4.44474">
        <ele>749.778991699</ele>
        <time>2016-01-28T13:01:40.123Z</time>
      </trkpt>
      <trkpt lat="45.96375" lon="4.44473">
        <ele>749.750854492</ele>
        <time>2016-01-28T13:01:41.101Z</time>
      </trkpt>
      <trkpt lat="45.96382" lon="4.44468">
        <ele>748.891235352</ele>
        <time>2016-01-28T13:01:48.132Z</time>
      </trkpt>
      <trkpt lat="45.96384" lon="4.44466">
        <ele>748.766235352</ele>
        <time>2016-01-28T13:01:49.102Z</time>
      </trkpt>
      <trkpt lat="45.96391" lon="4.44462">
        <ele>747.445556641</ele>
        <time>2016-01-28T13:01:56.14Z</time>
      </trkpt>
      <trkpt lat="45.96393" lon="4.44461">
        <ele>747.08605957</ele>
        <time>2016-01-28T13:01:57.09Z</time>
      </trkpt>
      <trkpt lat="45.96399" lon="4.44452">
        <ele>746.808959961</ele>
        <time>2016-01-28T13:02:15.123Z</time>
      </trkpt>
      <trkpt lat="45.96399" lon="4.44451">
        <ele>747.106506348</ele>
        <time>2016-01-28T13:02:16.092Z</time>
      </trkpt>
      <trkpt lat="45.96404" lon="4.44441">
        <ele>749.262207031</ele>
        <time>2016-01-28T13:02:27.119Z</time>
      </trkpt>
      <trkpt lat="45.96404" lon="4.44439">
        <ele>749.505737305</ele>
        <time>2016-01-28T13:02:28.109Z</time>
      </trkpt>
      <trkpt lat="45.96406" lon="4.44428">
        <ele>751.584228516</ele>
        <time>2016-01-28T13:02:38.176Z</time>
      </trkpt>
      <trkpt lat="45.96414" lon="4.44419">
        <ele>751.684814453</ele>
        <time>2016-01-28T13:02:39.106Z</time>
      </trkpt>
      <trkpt lat="45.96419" lon="4.4441">
        <ele>753.683166504</ele>
        <time>2016-01-28T13:02:54.156Z</time>
      </trkpt>
      <trkpt lat="45.9642" lon="4.44409">
        <ele>753.875061035</ele>
        <time>2016-01-28T13:02:55.109Z</time>
      </trkpt>
      <trkpt lat="45.96423" lon="4.44401">
        <ele>754.93939209</ele>
        <time>2016-01-28T13:03:02.129Z</time>
      </trkpt>
      <trkpt lat="45.9643" lon="4.44394">
        <ele>754.924316406</ele>
        <time>2016-01-28T13:03:03.108Z</time>
      </trkpt>
      <trkpt lat="45.96436" lon="4.44384">
        <ele>754.405334473</ele>
        <time>2016-01-28T13:03:09.125Z</time>
      </trkpt>
      <trkpt lat="45.96436" lon="4.44384">
        <ele>754.421386719</ele>
        <time>2016-01-28T13:03:10.19Z</time>
      </trkpt>
      <trkpt lat="45.96436" lon="4.44383">
        <ele>754.508056641</ele>
        <time>2016-01-28T13:03:12.131Z</time>
      </trkpt>
      <trkpt lat="45.96443" lon="4.44376">
        <ele>754.631286621</ele>
        <time>2016-01-28T13:03:13.118Z</time>
      </trkpt>
      <trkpt lat="45.9645" lon="4.44368">
        <ele>755.047607422</ele>
        <time>2016-01-28T13:03:21.085Z</time>
      </trkpt>
      <trkpt lat="45.9645" lon="4.44367">
        <ele>755.208374023</ele>
        <time>2016-01-28T13:03:22.077Z</time>
      </trkpt>
      <trkpt lat="45.96451" lon="4.44357">
        <ele>758.556335449</ele>
        <time>2016-01-28T13:03:33.118Z</time>
      </trkpt>
      <trkpt lat="45.96456" lon="4.4435">
        <ele>758.838684082</ele>
        <time>2016-01-28T13:03:34.088Z</time>
      </trkpt>
      <trkpt lat="45.96459" lon="4.44339">
        <ele>759.998168945</ele>
        <time>2016-01-28T13:03:51.103Z</time>
      </trkpt>
      <trkpt lat="45.9646" lon="4.44338">
        <ele>759.93939209</ele>
        <time>2016-01-28T13:03:52.081Z</time>
      </trkpt>
      <trkpt lat="45.96467" lon="4.44331">
        <ele>759.355957031</ele>
        <time>2016-01-28T13:04:04.137Z</time>
      </trkpt>
      <trkpt lat="45.96468" lon="4.44331">
        <ele>759.194030762</ele>
        <time>2016-01-28T13:04:05.088Z</time>
      </trkpt>
      <trkpt lat="45.96475" lon="4.44326">
        <ele>758.994812012</ele>
        <time>2016-01-28T13:04:11.113Z</time>
      </trkpt>
      <trkpt lat="45.96477" lon="4.44325">
        <ele>759.032226562</ele>
        <time>2016-01-28T13:04:12.084Z</time>
      </trkpt>
      <trkpt lat="45.96484" lon="4.44323">
        <ele>759.238769531</ele>
        <time>2016-01-28T13:04:15.101Z</time>
      </trkpt>
      <trkpt lat="45.96487" lon="4.44322">
        <ele>759.364990234</ele>
        <time>2016-01-28T13:04:16.079Z</time>
      </trkpt>
      <trkpt lat="45.96495" lon="4.44322">
        <ele>760.192810059</ele>
        <time>2016-01-28T13:04:21.098Z</time>
      </trkpt>
      <trkpt lat="45.96497" lon="4.44321">
        <ele>760.311218262</ele>
        <time>2016-01-28T13:04:22.084Z</time>
      </trkpt>
      <trkpt lat="45.96505" lon="4.44324">
        <ele>761.458007812</ele>
        <time>2016-01-28T13:04:29.107Z</time>
      </trkpt>
      <trkpt lat="45.96506" lon="4.44325">
        <ele>761.606689453</ele>
        <time>2016-01-28T13:04:30.091Z</time>
      </trkpt>
      <trkpt lat="45.96514" lon="4.44328">
        <ele>762.523864746</ele>
        <time>2016-01-28T13:04:38.126Z</time>
      </trkpt>
      <trkpt lat="45.96515" lon="4.44329">
        <ele>762.697631836</ele>
        <time>2016-01-28T13:04:39.083Z</time>
      </trkpt>
      <trkpt lat="45.96521" lon="4.44337">
        <ele>764.702087402</ele>
        <time>2016-01-28T13:04:47.092Z</time>
      </trkpt>
      <trkpt lat="45.96521" lon="4.44338">
        <ele>765.015380859</ele>
        <time>2016-01-28T13:04:48.082Z</time>
      </trkpt>
      <trkpt lat="45.96529" lon="4.4434">
        <ele>770.150390625</ele>
        <time>2016-01-28T13:05:04.108Z</time>
      </trkpt>
      <trkpt lat="45.96532" lon="4.44342">
        <ele>770.413757324</ele>
        <time>2016-01-28T13:05:05.084Z</time>
      </trkpt>
      <trkpt lat="45.9654" lon="4.44348">
        <ele>770.797302246</ele>
        <time>2016-01-28T13:05:08.116Z</time>
      </trkpt>
      <trkpt lat="45.96541" lon="4.44349">
        <ele>770.856079102</ele>
        <time>2016-01-28T13:05:09.093Z</time>
      </trkpt>
      <trkpt lat="45.96548" lon="4.44356">
        <ele>771.659301758</ele>
        <time>2016-01-28T13:05:15.114Z</time>
      </trkpt>
      <trkpt lat="45.96549" lon="4.44357">
        <ele>771.703857422</ele>
        <time>2016-01-28T13:05:16.101Z</time>
      </trkpt>
      <trkpt lat="45.96556" lon="4.44361">
        <ele>771.938232422</ele>
        <time>2016-01-28T13:05:19.119Z</time>
      </trkpt>
      <trkpt lat="45.96558" lon="4.44363">
        <ele>772.031921387</ele>
        <time>2016-01-28T13:05:20.079Z</time>
      </trkpt>
      <trkpt lat="45.96564" lon="4.44368">
        <ele>772.601501465</ele>
        <time>2016-01-28T13:05:25.115Z</time>
      </trkpt>
      <trkpt lat="45.96566" lon="4.4437">
        <ele>772.627075195</ele>
        <time>2016-01-28T13:05:26.088Z</time>
      </trkpt>
      <trkpt lat="45.96573" lon="4.44377">
        <ele>773.142089844</ele>
        <time>2016-01-28T13:05:35.134Z</time>
      </trkpt>
      <trkpt lat="45.96574" lon="4.44378">
        <ele>773.258666992</ele>
        <time>2016-01-28T13:05:36.094Z</time>
      </trkpt>
      <trkpt lat="45.9658" lon="4.44387">
        <ele>773.872131348</ele>
        <time>2016-01-28T13:05:43.124Z</time>
      </trkpt>
      <trkpt lat="45.96581" lon="4.44388">
        <ele>774.026550293</ele>
        <time>2016-01-28T13:05:44.096Z</time>
      </trkpt>
      <trkpt lat="45.96586" lon="4.44395">
        <ele>775.696350098</ele>
        <time>2016-01-28T13:05:53.113Z</time>
      </trkpt>
      <trkpt lat="45.96588" lon="4.44397">
        <ele>775.867492676</ele>
        <time>2016-01-28T13:05:54.073Z</time>
      </trkpt>
      <trkpt lat="45.96594" lon="4.44406">
        <ele>777.309265137</ele>
        <time>2016-01-28T13:06:01.133Z</time>
      </trkpt>
      <trkpt lat="45.96595" lon="4.44408">
        <ele>777.472595215</ele>
        <time>2016-01-28T13:06:02.097Z</time>
      </trkpt>
      <trkpt lat="45.96601" lon="4.44417">
        <ele>778.690063477</ele>
        <time>2016-01-28T13:06:10.158Z</time>
      </trkpt>
      <trkpt lat="45.96601" lon="4.44418">
        <ele>778.815124512</ele>
        <time>2016-01-28T13:06:11.098Z</time>
      </trkpt>
      <trkpt lat="45.96608" lon="4.44425">
        <ele>779.438415527</ele>
        <time>2016-01-28T13:06:18.124Z</time>
      </trkpt>
      <trkpt lat="45.96609" lon="4.44426">
        <ele>779.524597168</ele>
        <time>2016-01-28T13:06:19.077Z</time>
      </trkpt>
      <trkpt lat="45.96616" lon="4.44432">
        <ele>780.300415039</ele>
        <time>2016-01-28T13:06:27.141Z</time>
      </trkpt>
      <trkpt lat="45.96616" lon="4.44433">
        <ele>780.398132324</ele>
        <time>2016-01-28T13:06:28.089Z</time>
      </trkpt>
      <trkpt lat="45.9662" lon="4.44443">
        <ele>781.060424805</ele>
        <time>2016-01-28T13:06:36.103Z</time>
      </trkpt>
      <trkpt lat="45.96621" lon="4.44445">
        <ele>781.123168945</ele>
        <time>2016-01-28T13:06:37.099Z</time>
      </trkpt>
      <trkpt lat="45.96624" lon="4.44456">
        <ele>782.800720215</ele>
        <time>2016-01-28T13:06:49.128Z</time>
      </trkpt>
      <trkpt lat="45.96625" lon="4.44457">
        <ele>783.022399902</ele>
        <time>2016-01-28T13:06:50.109Z</time>
      </trkpt>
      <trkpt lat="45.96628" lon="4.44468">
        <ele>783.921203613</ele>
        <time>2016-01-28T13:06:57.122Z</time>
      </trkpt>
      <trkpt lat="45.96629" lon="4.4447">
        <ele>784.057250977</ele>
        <time>2016-01-28T13:06:58.093Z</time>
      </trkpt>
      <trkpt lat="45.96632" lon="4.44481">
        <ele>785.106079102</ele>
        <time>2016-01-28T13:07:07.125Z</time>
      </trkpt>
      <trkpt lat="45.96633" lon="4.44484">
        <ele>785.261169434</ele>
        <time>2016-01-28T13:07:08.094Z</time>
      </trkpt>
      <trkpt lat="45.96637" lon="4.44493">
        <ele>786.162597656</ele>
        <time>2016-01-28T13:07:16.128Z</time>
      </trkpt>
      <trkpt lat="45.96638" lon="4.44495">
        <ele>786.260986328</ele>
        <time>2016-01-28T13:07:17.104Z</time>
      </trkpt>
      <trkpt lat="45.96644" lon="4.44504">
        <ele>787.625488281</ele>
        <time>2016-01-28T13:07:25.142Z</time>
      </trkpt>
      <trkpt lat="45.96645" lon="4.44505">
        <ele>787.785766602</ele>
        <time>2016-01-28T13:07:26.094Z</time>
      </trkpt>
      <trkpt lat="45.9665" lon="4.44514">
        <ele>788.541503906</ele>
        <time>2016-01-28T13:07:32.123Z</time>
      </trkpt>
      <trkpt lat="45.96651" lon="4.44514">
        <ele>788.654846191</ele>
        <time>2016-01-28T13:07:33.098Z</time>
      </trkpt>
      <trkpt lat="45.96659" lon="4.4452">
        <ele>789.340087891</ele>
        <time>2016-01-28T13:07:41.122Z</time>
      </trkpt>
      <trkpt lat="45.9666" lon="4.44521">
        <ele>789.437316895</ele>
        <time>2016-01-28T13:07:42.101Z</time>
      </trkpt>
      <trkpt lat="45.96667" lon="4.44526">
        <ele>790.065979004</ele>
        <time>2016-01-28T13:07:49.131Z</time>
      </trkpt>
      <trkpt lat="45.96668" lon="4.44526">
        <ele>790.155761719</ele>
        <time>2016-01-28T13:07:50.106Z</time>
      </trkpt>
      <trkpt lat="45.96676" lon="4.44529">
        <ele>790.742553711</ele>
        <time>2016-01-28T13:07:58.136Z</time>
      </trkpt>
      <trkpt lat="45.96677" lon="4.44529">
        <ele>790.833496094</ele>
        <time>2016-01-28T13:07:59.114Z</time>
      </trkpt>
      <trkpt lat="45.96685" lon="4.44526">
        <ele>791.781616211</ele>
        <time>2016-01-28T13:08:07.127Z</time>
      </trkpt>
      <trkpt lat="45.96686" lon="4.44525">
        <ele>791.898620605</ele>
        <time>2016-01-28T13:08:08.118Z</time>
      </trkpt>
      <trkpt lat="45.96693" lon="4.44519">
        <ele>792.387207031</ele>
        <time>2016-01-28T13:10:17.117Z</time>
      </trkpt>
      <trkpt lat="45.96694" lon="4.44518">
        <ele>792.450439453</ele>
        <time>2016-01-28T13:10:18.084Z</time>
      </trkpt>
      <trkpt lat="45.96703" lon="4.44513">
        <ele>793.588623047</ele>
        <time>2016-01-28T13:10:28.255Z</time>
      </trkpt>
      <trkpt lat="45.96704" lon="4.44512">
        <ele>793.730102539</ele>
        <time>2016-01-28T13:10:29.088Z</time>
      </trkpt>
      <trkpt lat="45.96712" lon="4.44507">
        <ele>794.534423828</ele>
        <time>2016-01-28T13:10:35.129Z</time>
      </trkpt>
      <trkpt lat="45.96713" lon="4.44506">
        <ele>794.623535156</ele>
        <time>2016-01-28T13:10:36.09Z</time>
      </trkpt>
      <trkpt lat="45.96721" lon="4.44501">
        <ele>795.13470459</ele>
        <time>2016-01-28T13:10:42.114Z</time>
      </trkpt>
      <trkpt lat="45.96722" lon="4.445">
        <ele>795.209228516</ele>
        <time>2016-01-28T13:10:43.09Z</time>
      </trkpt>
      <trkpt lat="45.96729" lon="4.44496">
        <ele>795.81829834</ele>
        <time>2016-01-28T13:10:49.101Z</time>
      </trkpt>
      <trkpt lat="45.9673" lon="4.44495">
        <ele>795.952514648</ele>
        <time>2016-01-28T13:10:50.084Z</time>
      </trkpt>
      <trkpt lat="45.96739" lon="4.44491">
        <ele>796.738220215</ele>
        <time>2016-01-28T13:10:58.118Z</time>
      </trkpt>
      <trkpt lat="45.96739" lon="4.44491">
        <ele>796.85333252</ele>
        <time>2016-01-28T13:10:59.098Z</time>
      </trkpt>
      <trkpt lat="45.96747" lon="4.44486">
        <ele>797.383605957</ele>
        <time>2016-01-28T13:11:05.125Z</time>
      </trkpt>
      <trkpt lat="45.96748" lon="4.44486">
        <ele>797.461242676</ele>
        <time>2016-01-28T13:11:06.08Z</time>
      </trkpt>
      <trkpt lat="45.96756" lon="4.44481">
        <ele>798.047363281</ele>
        <time>2016-01-28T13:11:12.127Z</time>
      </trkpt>
      <trkpt lat="45.96757" lon="4.44481">
        <ele>798.143859863</ele>
        <time>2016-01-28T13:11:13.087Z</time>
      </trkpt>
      <trkpt lat="45.96765" lon="4.44476">
        <ele>799.208068848</ele>
        <time>2016-01-28T13:11:22.116Z</time>
      </trkpt>
      <trkpt lat="45.96765" lon="4.44476">
        <ele>799.329589844</ele>
        <time>2016-01-28T13:11:23.095Z</time>
      </trkpt>
      <trkpt lat="45.96773" lon="4.4447">
        <ele>800.252197266</ele>
        <time>2016-01-28T13:11:31.107Z</time>
      </trkpt>
      <trkpt lat="45.96774" lon="4.4447">
        <ele>800.364379883</ele>
        <time>2016-01-28T13:11:32.098Z</time>
      </trkpt>
      <trkpt lat="45.96782" lon="4.44465">
        <ele>801.245849609</ele>
        <time>2016-01-28T13:11:40.141Z</time>
      </trkpt>
      <trkpt lat="45.96783" lon="4.44465">
        <ele>801.370544434</ele>
        <time>2016-01-28T13:11:41.093Z</time>
      </trkpt>
      <trkpt lat="45.96791" lon="4.44461">
        <ele>802.495056152</ele>
        <time>2016-01-28T13:11:50.137Z</time>
      </trkpt>
      <trkpt lat="45.96792" lon="4.4446">
        <ele>802.636352539</ele>
        <time>2016-01-28T13:11:51.098Z</time>
      </trkpt>
      <trkpt lat="45.96799" lon="4.44454">
        <ele>803.938720703</ele>
        <time>2016-01-28T13:11:59.114Z</time>
      </trkpt>
      <trkpt lat="45.968" lon="4.44454">
        <ele>804.092346191</ele>
        <time>2016-01-28T13:12:00.099Z</time>
      </trkpt>
      <trkpt lat="45.96806" lon="4.44445">
        <ele>805.780944824</ele>
        <time>2016-01-28T13:12:09.126Z</time>
      </trkpt>
      <trkpt lat="45.96806" lon="4.44444">
        <ele>806.015197754</ele>
        <time>2016-01-28T13:12:10.107Z</time>
      </trkpt>
      <trkpt lat="45.9681" lon="4.44434">
        <ele>810.425964355</ele>
        <time>2016-01-28T13:12:24.14Z</time>
      </trkpt>
      <trkpt lat="45.96811" lon="4.44433">
        <ele>810.586975098</ele>
        <time>2016-01-28T13:12:25.106Z</time>
      </trkpt>
      <trkpt lat="45.96816" lon="4.44425">
        <ele>813.899169922</ele>
        <time>2016-01-28T13:12:34.142Z</time>
      </trkpt>
      <trkpt lat="45.96817" lon="4.44424">
        <ele>814.386352539</ele>
        <time>2016-01-28T13:12:35.089Z</time>
      </trkpt>
      <trkpt lat="45.96825" lon="4.44418">
        <ele>821.484924316</ele>
        <time>2016-01-28T13:12:59.094Z</time>
      </trkpt>
      <trkpt lat="45.96825" lon="4.44418">
        <ele>821.498474121</ele>
        <time>2016-01-28T13:13:00.095Z</time>
      </trkpt>
      <trkpt lat="45.96833" lon="4.44414">
        <ele>823.678283691</ele>
        <time>2016-01-28T13:13:08.136Z</time>
      </trkpt>
      <trkpt lat="45.96834" lon="4.44414">
        <ele>824.053344727</ele>
        <time>2016-01-28T13:13:09.093Z</time>
      </trkpt>
      <trkpt lat="45.96842" lon="4.44413">
        <ele>825.468078613</ele>
        <time>2016-01-28T13:13:14.126Z</time>
      </trkpt>
      <trkpt lat="45.96844" lon="4.44412">
        <ele>825.650878906</ele>
        <time>2016-01-28T13:13:15.104Z</time>
      </trkpt>
      <trkpt lat="45.96852" lon="4.44409">
        <ele>826.933532715</ele>
        <time>2016-01-28T13:13:26.135Z</time>
      </trkpt>
      <trkpt lat="45.96853" lon="4.44408">
        <ele>827.218200684</ele>
        <time>2016-01-28T13:13:27.11Z</time>
      </trkpt>
      <trkpt lat="45.96861" lon="4.44404">
        <ele>829.706176758</ele>
        <time>2016-01-28T13:13:35.136Z</time>
      </trkpt>
      <trkpt lat="45.96862" lon="4.44403">
        <ele>830.023132324</ele>
        <time>2016-01-28T13:13:36.118Z</time>
      </trkpt>
      <trkpt lat="45.96871" lon="4.44401">
        <ele>832.027954102</ele>
        <time>2016-01-28T13:13:43.131Z</time>
      </trkpt>
      <trkpt lat="45.96872" lon="4.44401">
        <ele>832.304504395</ele>
        <time>2016-01-28T13:13:44.114Z</time>
      </trkpt>
      <trkpt lat="45.9688" lon="4.44398">
        <ele>834.865539551</ele>
        <time>2016-01-28T13:13:54.097Z</time>
      </trkpt>
      <trkpt lat="45.96881" lon="4.44397">
        <ele>835.255065918</ele>
        <time>2016-01-28T13:13:55.076Z</time>
      </trkpt>
      <trkpt lat="45.9689" lon="4.44393">
        <ele>837.084411621</ele>
        <time>2016-01-28T13:14:06.222Z</time>
      </trkpt>
      <trkpt lat="45.9689" lon="4.44392">
        <ele>837.137329102</ele>
        <time>2016-01-28T13:14:07.074Z</time>
      </trkpt>
      <trkpt lat="45.96898" lon="4.44389">
        <ele>840.339416504</ele>
        <time>2016-01-28T13:14:26.119Z</time>
      </trkpt>
      <trkpt lat="45.96899" lon="4.44389">
        <ele>840.582214355</ele>
        <time>2016-01-28T13:14:27.077Z</time>
      </trkpt>
      <trkpt lat="45.96907" lon="4.44384">
        <ele>842.932434082</ele>
        <time>2016-01-28T13:14:41.104Z</time>
      </trkpt>
      <trkpt lat="45.96907" lon="4.44384">
        <ele>842.947021484</ele>
        <time>2016-01-28T13:14:42.077Z</time>
      </trkpt>
      <trkpt lat="45.96914" lon="4.44376">
        <ele>845.24407959</ele>
        <time>2016-01-28T13:14:58.113Z</time>
      </trkpt>
      <trkpt lat="45.96915" lon="4.44376">
        <ele>845.529907227</ele>
        <time>2016-01-28T13:14:59.079Z</time>
      </trkpt>
      <trkpt lat="45.96922" lon="4.4437">
        <ele>846.066101074</ele>
        <time>2016-01-28T13:15:16.113Z</time>
      </trkpt>
      <trkpt lat="45.96923" lon="4.4437">
        <ele>846.088562012</ele>
        <time>2016-01-28T13:15:17.084Z</time>
      </trkpt>
      <trkpt lat="45.96931" lon="4.44368">
        <ele>847.707641602</ele>
        <time>2016-01-28T13:15:37.114Z</time>
      </trkpt>
      <trkpt lat="45.96932" lon="4.44367">
        <ele>847.87902832</ele>
        <time>2016-01-28T13:15:38.089Z</time>
      </trkpt>
      <trkpt lat="45.9694" lon="4.44367">
        <ele>849.881835938</ele>
        <time>2016-01-28T13:15:47.104Z</time>
      </trkpt>
      <trkpt lat="45.96942" lon="4.44366">
        <ele>850.194641113</ele>
        <time>2016-01-28T13:15:48.085Z</time>
      </trkpt>
      <trkpt lat="45.9695" lon="4.44368">
        <ele>853.85559082</ele>
        <time>2016-01-28T13:16:10.133Z</time>
      </trkpt>
      <trkpt lat="45.96951" lon="4.44368">
        <ele>853.870483398</ele>
        <time>2016-01-28T13:16:11.09Z</time>
      </trkpt>
      <trkpt lat="45.96959" lon="4.44369">
        <ele>853.672302246</ele>
        <time>2016-01-28T13:16:17.152Z</time>
      </trkpt>
      <trkpt lat="45.96961" lon="4.4437">
        <ele>853.661254883</ele>
        <time>2016-01-28T13:16:18.096Z</time>
      </trkpt>
      <trkpt lat="45.96968" lon="4.44371">
        <ele>853.50958252</ele>
        <time>2016-01-28T13:16:23.121Z</time>
      </trkpt>
      <trkpt lat="45.9697" lon="4.44371">
        <ele>853.52355957</ele>
        <time>2016-01-28T13:16:24.095Z</time>
      </trkpt>
      <trkpt lat="45.96978" lon="4.44371">
        <ele>854.941955566</ele>
        <time>2016-01-28T13:16:37.108Z</time>
      </trkpt>
      <trkpt lat="45.96979" lon="4.44371">
        <ele>855.154541016</ele>
        <time>2016-01-28T13:16:38.091Z</time>
      </trkpt>
      <trkpt lat="45.96986" lon="4.44372">
        <ele>856.032348633</ele>
        <time>2016-01-28T13:16:43.131Z</time>
      </trkpt>
      <trkpt lat="45.96992" lon="4.44373">
        <ele>856.227355957</ele>
        <time>2016-01-28T13:16:44.126Z</time>
      </trkpt>
      <trkpt lat="45.96999" lon="4.44375">
        <ele>856.529663086</ele>
        <time>2016-01-28T13:16:46.118Z</time>
      </trkpt>
      <trkpt lat="45.97002" lon="4.44376">
        <ele>856.682678223</ele>
        <time>2016-01-28T13:16:47.105Z</time>
      </trkpt>
      <trkpt lat="45.97009" lon="4.44377">
        <ele>857.559387207</ele>
        <time>2016-01-28T13:16:51.12Z</time>
      </trkpt>
      <trkpt lat="45.97011" lon="4.44377">
        <ele>857.829650879</ele>
        <time>2016-01-28T13:16:52.088Z</time>
      </trkpt>
      <trkpt lat="45.9702" lon="4.44373">
        <ele>858.88293457</ele>
        <time>2016-01-28T13:17:00.133Z</time>
      </trkpt>
      <trkpt lat="45.9702" lon="4.44372">
        <ele>859.040893555</ele>
        <time>2016-01-28T13:17:01.099Z</time>
      </trkpt>
      <trkpt lat="45.97028" lon="4.44373">
        <ele>859.589233398</ele>
        <time>2016-01-28T13:17:07.131Z</time>
      </trkpt>
      <trkpt lat="45.97029" lon="4.44373">
        <ele>859.580993652</ele>
        <time>2016-01-28T13:17:08.098Z</time>
      </trkpt>
      <trkpt lat="45.97038" lon="4.44376">
        <ele>859.47253418</ele>
        <time>2016-01-28T13:17:14.128Z</time>
      </trkpt>
      <trkpt lat="45.97039" lon="4.44376">
        <ele>859.38885498</ele>
        <time>2016-01-28T13:17:15.101Z</time>
      </trkpt>
      <trkpt lat="45.97048" lon="4.44379">
        <ele>859.465026855</ele>
        <time>2016-01-28T13:17:24.126Z</time>
      </trkpt>
      <trkpt lat="45.97049" lon="4.44379">
        <ele>859.518188477</ele>
        <time>2016-01-28T13:17:25.088Z</time>
      </trkpt>
      <trkpt lat="45.97056" lon="4.4438">
        <ele>861.53314209</ele>
        <time>2016-01-28T13:17:35.129Z</time>
      </trkpt>
      <trkpt lat="45.97058" lon="4.44381">
        <ele>861.705505371</ele>
        <time>2016-01-28T13:17:36.087Z</time>
      </trkpt>
      <trkpt lat="45.97066" lon="4.44383">
        <ele>861.008300781</ele>
        <time>2016-01-28T13:17:47.126Z</time>
      </trkpt>
      <trkpt lat="45.97066" lon="4.44384">
        <ele>860.838928223</ele>
        <time>2016-01-28T13:17:48.09Z</time>
      </trkpt>
      <trkpt lat="45.97074" lon="4.4439">
        <ele>860.811218262</ele>
        <time>2016-01-28T13:17:54.15Z</time>
      </trkpt>
      <trkpt lat="45.97075" lon="4.4439">
        <ele>860.85534668</ele>
        <time>2016-01-28T13:17:55.106Z</time>
      </trkpt>
      <trkpt lat="45.97083" lon="4.44395">
        <ele>861.625915527</ele>
        <time>2016-01-28T13:18:01.126Z</time>
      </trkpt>
      <trkpt lat="45.97085" lon="4.44397">
        <ele>861.879455566</ele>
        <time>2016-01-28T13:18:02.097Z</time>
      </trkpt>
      <trkpt lat="45.97091" lon="4.44403">
        <ele>862.47454834</ele>
        <time>2016-01-28T13:18:04.128Z</time>
      </trkpt>
      <trkpt lat="45.97095" lon="4.44406">
        <ele>862.753356934</ele>
        <time>2016-01-28T13:18:05.107Z</time>
      </trkpt>
      <trkpt lat="45.971" lon="4.44409">
        <ele>863.115112305</ele>
        <time>2016-01-28T13:18:07.159Z</time>
      </trkpt>
      <trkpt lat="45.97103" lon="4.4441">
        <ele>863.276062012</ele>
        <time>2016-01-28T13:18:08.102Z</time>
      </trkpt>
      <trkpt lat="45.97111" lon="4.44413">
        <ele>863.669494629</ele>
        <time>2016-01-28T13:18:11.131Z</time>
      </trkpt>
      <trkpt lat="45.97116" lon="4.44415">
        <ele>863.793395996</ele>
        <time>2016-01-28T13:18:12.103Z</time>
      </trkpt>
      <trkpt lat="45.97124" lon="4.4442">
        <ele>864.098022461</ele>
        <time>2016-01-28T13:18:25.16Z</time>
      </trkpt>
      <trkpt lat="45.97124" lon="4.4442">
        <ele>864.033508301</ele>
        <time>2016-01-28T13:18:26.101Z</time>
      </trkpt>
      <trkpt lat="45.97129" lon="4.44423">
        <ele>864.065979004</ele>
        <time>2016-01-28T13:18:28.133Z</time>
      </trkpt>
      <trkpt lat="45.97133" lon="4.44424">
        <ele>864.152770996</ele>
        <time>2016-01-28T13:18:29.104Z</time>
      </trkpt>
      <trkpt lat="45.97142" lon="4.44426">
        <ele>864.357299805</ele>
        <time>2016-01-28T13:18:35.131Z</time>
      </trkpt>
      <trkpt lat="45.97142" lon="4.44426">
        <ele>864.381103516</ele>
        <time>2016-01-28T13:18:36.105Z</time>
      </trkpt>
      <trkpt lat="45.97148" lon="4.44428">
        <ele>863.826049805</ele>
        <time>2016-01-28T13:18:43.131Z</time>
      </trkpt>
      <trkpt lat="45.97153" lon="4.44429">
        <ele>863.818054199</ele>
        <time>2016-01-28T13:18:44.107Z</time>
      </trkpt>
      <trkpt lat="45.97161" lon="4.44429">
        <ele>863.86505127</ele>
        <time>2016-01-28T13:18:48.146Z</time>
      </trkpt>
      <trkpt lat="45.97162" lon="4.44429">
        <ele>863.79296875</ele>
        <time>2016-01-28T13:18:49.107Z</time>
      </trkpt>
      <trkpt lat="45.9717" lon="4.44428">
        <ele>863.63873291</ele>
        <time>2016-01-28T13:18:53.144Z</time>
      </trkpt>
      <trkpt lat="45.97171" lon="4.44428">
        <ele>863.629272461</ele>
        <time>2016-01-28T13:18:54.105Z</time>
      </trkpt>
      <trkpt lat="45.97179" lon="4.44429">
        <ele>863.642089844</ele>
        <time>2016-01-28T13:18:59.136Z</time>
      </trkpt>
      <trkpt lat="45.97181" lon="4.44428">
        <ele>863.5859375</ele>
        <time>2016-01-28T13:19:00.094Z</time>
      </trkpt>
      <trkpt lat="45.9719" lon="4.44429">
        <ele>863.396362305</ele>
        <time>2016-01-28T13:19:06.098Z</time>
      </trkpt>
      <trkpt lat="45.97191" lon="4.4443">
        <ele>863.34387207</ele>
        <time>2016-01-28T13:19:07.067Z</time>
      </trkpt>
      <trkpt lat="45.972" lon="4.44433">
        <ele>863.149353027</ele>
        <time>2016-01-28T13:19:40.091Z</time>
      </trkpt>
      <trkpt lat="45.97201" lon="4.44434">
        <ele>862.978088379</ele>
        <time>2016-01-28T13:19:41.075Z</time>
      </trkpt>
      <trkpt lat="45.97209" lon="4.44437">
        <ele>862.495239258</ele>
        <time>2016-01-28T13:19:49.105Z</time>
      </trkpt>
      <trkpt lat="45.9721" lon="4.44437">
        <ele>862.493225098</ele>
        <time>2016-01-28T13:19:50.076Z</time>
      </trkpt>
      <trkpt lat="45.97218" lon="4.44442">
        <ele>863.020202637</ele>
        <time>2016-01-28T13:19:57.108Z</time>
      </trkpt>
      <trkpt lat="45.97219" lon="4.44442">
        <ele>863.061889648</ele>
        <time>2016-01-28T13:19:58.077Z</time>
      </trkpt>
      <trkpt lat="45.97228" lon="4.44444">
        <ele>862.879516602</ele>
        <time>2016-01-28T13:20:05.092Z</time>
      </trkpt>
      <trkpt lat="45.97229" lon="4.44445">
        <ele>862.817199707</ele>
        <time>2016-01-28T13:20:06.076Z</time>
      </trkpt>
      <trkpt lat="45.97236" lon="4.4445">
        <ele>863.768493652</ele>
        <time>2016-01-28T13:20:14.101Z</time>
      </trkpt>
      <trkpt lat="45.97237" lon="4.4445">
        <ele>863.917663574</ele>
        <time>2016-01-28T13:20:15.077Z</time>
      </trkpt>
      <trkpt lat="45.97245" lon="4.44451">
        <ele>864.481872559</ele>
        <time>2016-01-28T13:20:24.107Z</time>
      </trkpt>
      <trkpt lat="45.97246" lon="4.44451">
        <ele>864.44152832</ele>
        <time>2016-01-28T13:20:25.08Z</time>
      </trkpt>
      <trkpt lat="45.97253" lon="4.44454">
        <ele>864.495727539</ele>
        <time>2016-01-28T13:20:31.087Z</time>
      </trkpt>
      <trkpt lat="45.97255" lon="4.44454">
        <ele>864.537719727</ele>
        <time>2016-01-28T13:20:32.081Z</time>
      </trkpt>
      <trkpt lat="45.97264" lon="4.44455">
        <ele>864.863647461</ele>
        <time>2016-01-28T13:20:37.154Z</time>
      </trkpt>
      <trkpt lat="45.97265" lon="4.44455">
        <ele>864.81628418</ele>
        <time>2016-01-28T13:20:38.09Z</time>
      </trkpt>
      <trkpt lat="45.97273" lon="4.44455">
        <ele>864.569946289</ele>
        <time>2016-01-28T13:20:44.119Z</time>
      </trkpt>
      <trkpt lat="45.97274" lon="4.44454">
        <ele>864.55480957</ele>
        <time>2016-01-28T13:20:45.073Z</time>
      </trkpt>
      <trkpt lat="45.9728" lon="4.44448">
        <ele>869.924133301</ele>
        <time>2016-01-28T13:21:25.108Z</time>
      </trkpt>
      <trkpt lat="45.97281" lon="4.44445">
        <ele>870.228271484</ele>
        <time>2016-01-28T13:21:26.084Z</time>
      </trkpt>
      <trkpt lat="45.97282" lon="4.44436">
        <ele>871.762084961</ele>
        <time>2016-01-28T13:21:36.123Z</time>
      </trkpt>
      <trkpt lat="45.97282" lon="4.4443">
        <ele>871.858032227</ele>
        <time>2016-01-28T13:21:37.088Z</time>
      </trkpt>
      <trkpt lat="45.97285" lon="4.44419">
        <ele>874.203613281</ele>
        <time>2016-01-28T13:21:51.122Z</time>
      </trkpt>
      <trkpt lat="45.97287" lon="4.44415">
        <ele>874.38458252</ele>
        <time>2016-01-28T13:21:52.086Z</time>
      </trkpt>
      <trkpt lat="45.97291" lon="4.44405">
        <ele>878.016113281</ele>
        <time>2016-01-28T13:22:52.111Z</time>
      </trkpt>
      <trkpt lat="45.97294" lon="4.44397">
        <ele>877.976623535</ele>
        <time>2016-01-28T13:22:53.101Z</time>
      </trkpt>
      <trkpt lat="45.97299" lon="4.44391">
        <ele>877.930847168</ele>
        <time>2016-01-28T13:22:54.113Z</time>
      </trkpt>
      <trkpt lat="45.97306" lon="4.44377">
        <ele>877.885437012</ele>
        <time>2016-01-28T13:22:55.101Z</time>
      </trkpt>
      <trkpt lat="45.97312" lon="4.44369">
        <ele>877.838439941</ele>
        <time>2016-01-28T13:22:56.122Z</time>
      </trkpt>
      <trkpt lat="45.97319" lon="4.44364">
        <ele>877.785644531</ele>
        <time>2016-01-28T13:22:57.101Z</time>
      </trkpt>
      <trkpt lat="45.97324" lon="4.44357">
        <ele>877.66796875</ele>
        <time>2016-01-28T13:22:59.135Z</time>
      </trkpt>
      <trkpt lat="45.97326" lon="4.44353">
        <ele>877.606811523</ele>
        <time>2016-01-28T13:23:00.093Z</time>
      </trkpt>
      <trkpt lat="45.97332" lon="4.44348">
        <ele>877.543945312</ele>
        <time>2016-01-28T13:23:01.116Z</time>
      </trkpt>
      <trkpt lat="45.97339" lon="4.44341">
        <ele>877.504211426</ele>
        <time>2016-01-28T13:23:02.089Z</time>
      </trkpt>
      <trkpt lat="45.97345" lon="4.44338">
        <ele>877.476379395</ele>
        <time>2016-01-28T13:23:03.127Z</time>
      </trkpt>
      <trkpt lat="45.97349" lon="4.44336">
        <ele>877.45703125</ele>
        <time>2016-01-28T13:23:04.101Z</time>
      </trkpt>
      <trkpt lat="45.97356" lon="4.44331">
        <ele>877.424804688</ele>
        <time>2016-01-28T13:23:06.131Z</time>
      </trkpt>
      <trkpt lat="45.97358" lon="4.44328">
        <ele>877.411560059</ele>
        <time>2016-01-28T13:23:07.076Z</time>
      </trkpt>
      <trkpt lat="45.97359" lon="4.44316">
        <ele>870.443115234</ele>
        <time>2016-01-28T13:25:41.11Z</time>
      </trkpt>
      <trkpt lat="45.97357" lon="4.44314">
        <ele>870.468933105</ele>
        <time>2016-01-28T13:25:42.084Z</time>
      </trkpt>
      <trkpt lat="45.97351" lon="4.44311">
        <ele>870.575744629</ele>
        <time>2016-01-28T13:25:44.1Z</time>
      </trkpt>
      <trkpt lat="45.97347" lon="4.4431">
        <ele>870.677368164</ele>
        <time>2016-01-28T13:25:45.083Z</time>
      </trkpt>
      <trkpt lat="45.9734" lon="4.44305">
        <ele>870.976196289</ele>
        <time>2016-01-28T13:25:49.107Z</time>
      </trkpt>
      <trkpt lat="45.97337" lon="4.44304">
        <ele>871.091125488</ele>
        <time>2016-01-28T13:25:50.088Z</time>
      </trkpt>
      <trkpt lat="45.97329" lon="4.443">
        <ele>871.411987305</ele>
        <time>2016-01-28T13:25:53.107Z</time>
      </trkpt>
      <trkpt lat="45.97327" lon="4.44299">
        <ele>871.536987305</ele>
        <time>2016-01-28T13:25:54.072Z</time>
      </trkpt>
      <trkpt lat="45.97319" lon="4.44295">
        <ele>871.89465332</ele>
        <time>2016-01-28T13:25:58.091Z</time>
      </trkpt>
      <trkpt lat="45.97317" lon="4.44295">
        <ele>872.017456055</ele>
        <time>2016-01-28T13:25:59.092Z</time>
      </trkpt>
      <trkpt lat="45.9731" lon="4.44295">
        <ele>872.629821777</ele>
        <time>2016-01-28T13:26:06.105Z</time>
      </trkpt>
      <trkpt lat="45.97308" lon="4.44294">
        <ele>872.711975098</ele>
        <time>2016-01-28T13:26:07.093Z</time>
      </trkpt>
      <trkpt lat="45.97301" lon="4.44294">
        <ele>873.13470459</ele>
        <time>2016-01-28T13:26:12.096Z</time>
      </trkpt>
      <trkpt lat="45.97299" lon="4.44294">
        <ele>873.102172852</ele>
        <time>2016-01-28T13:26:13.078Z</time>
      </trkpt>
      <trkpt lat="45.9729" lon="4.44292">
        <ele>872.909362793</ele>
        <time>2016-01-28T13:26:19.133Z</time>
      </trkpt>
      <trkpt lat="45.97289" lon="4.44292">
        <ele>872.929077148</ele>
        <time>2016-01-28T13:26:20.089Z</time>
      </trkpt>
      <trkpt lat="45.97281" lon="4.44289">
        <ele>873.620422363</ele>
        <time>2016-01-28T13:26:29.113Z</time>
      </trkpt>
      <trkpt lat="45.9728" lon="4.44288">
        <ele>873.706481934</ele>
        <time>2016-01-28T13:26:30.089Z</time>
      </trkpt>
      <trkpt lat="45.97271" lon="4.44287">
        <ele>874.600097656</ele>
        <time>2016-01-28T13:26:37.12Z</time>
      </trkpt>
      <trkpt lat="45.9727" lon="4.44287">
        <ele>874.666381836</ele>
        <time>2016-01-28T13:26:38.084Z</time>
      </trkpt>
      <trkpt lat="45.97263" lon="4.44286">
        <ele>874.966674805</ele>
        <time>2016-01-28T13:26:44.111Z</time>
      </trkpt>
      <trkpt lat="45.97261" lon="4.44286">
        <ele>874.987670898</ele>
        <time>2016-01-28T13:26:45.092Z</time>
      </trkpt>
      <trkpt lat="45.97252" lon="4.44285">
        <ele>875.001953125</ele>
        <time>2016-01-28T13:26:52.104Z</time>
      </trkpt>
      <trkpt lat="45.97252" lon="4.44284">
        <ele>875.015380859</ele>
        <time>2016-01-28T13:26:53.092Z</time>
      </trkpt>
      <trkpt lat="45.97243" lon="4.44282">
        <ele>875.345397949</ele>
        <time>2016-01-28T13:27:02.115Z</time>
      </trkpt>
      <trkpt lat="45.97242" lon="4.44282">
        <ele>875.38885498</ele>
        <time>2016-01-28T13:27:03.084Z</time>
      </trkpt>
      <trkpt lat="45.97234" lon="4.44278">
        <ele>875.495849609</ele>
        <time>2016-01-28T13:27:11.12Z</time>
      </trkpt>
      <trkpt lat="45.97232" lon="4.44278">
        <ele>875.509277344</ele>
        <time>2016-01-28T13:27:12.085Z</time>
      </trkpt>
      <trkpt lat="45.97224" lon="4.44275">
        <ele>875.749694824</ele>
        <time>2016-01-28T13:27:21.115Z</time>
      </trkpt>
      <trkpt lat="45.97223" lon="4.44274">
        <ele>875.751464844</ele>
        <time>2016-01-28T13:27:22.08Z</time>
      </trkpt>
      <trkpt lat="45.97214" lon="4.44273">
        <ele>875.776916504</ele>
        <time>2016-01-28T13:27:33.115Z</time>
      </trkpt>
      <trkpt lat="45.97213" lon="4.44272">
        <ele>875.747497559</ele>
        <time>2016-01-28T13:27:34.098Z</time>
      </trkpt>
      <trkpt lat="45.97205" lon="4.4427">
        <ele>876.090942383</ele>
        <time>2016-01-28T13:27:38.125Z</time>
      </trkpt>
      <trkpt lat="45.97202" lon="4.4427">
        <ele>876.221374512</ele>
        <time>2016-01-28T13:27:39.102Z</time>
      </trkpt>
      <trkpt lat="45.97193" lon="4.44266">
        <ele>876.44329834</ele>
        <time>2016-01-28T13:27:42.126Z</time>
      </trkpt>
      <trkpt lat="45.97193" lon="4.44266">
        <ele>876.487243652</ele>
        <time>2016-01-28T13:27:43.109Z</time>
      </trkpt>
      <trkpt lat="45.97185" lon="4.4426">
        <ele>877.336242676</ele>
        <time>2016-01-28T13:27:52.191Z</time>
      </trkpt>
      <trkpt lat="45.97184" lon="4.44259">
        <ele>877.426391602</ele>
        <time>2016-01-28T13:27:53.1Z</time>
      </trkpt>
      <trkpt lat="45.97179" lon="4.44249">
        <ele>877.858642578</ele>
        <time>2016-01-28T13:28:09.119Z</time>
      </trkpt>
      <trkpt lat="45.97178" lon="4.44249">
        <ele>877.799682617</ele>
        <time>2016-01-28T13:28:10.088Z</time>
      </trkpt>
      <trkpt lat="45.97172" lon="4.44242">
        <ele>876.747741699</ele>
        <time>2016-01-28T13:28:20.128Z</time>
      </trkpt>
      <trkpt lat="45.97169" lon="4.44239">
        <ele>876.645202637</ele>
        <time>2016-01-28T13:28:21.093Z</time>
      </trkpt>
      <trkpt lat="45.97161" lon="4.44235">
        <ele>877.919372559</ele>
        <time>2016-01-28T13:28:33.153Z</time>
      </trkpt>
      <trkpt lat="45.97159" lon="4.44233">
        <ele>878.129089355</ele>
        <time>2016-01-28T13:28:34.105Z</time>
      </trkpt>
      <trkpt lat="45.97153" lon="4.44227">
        <ele>879.036132812</ele>
        <time>2016-01-28T13:28:40.133Z</time>
      </trkpt>
      <trkpt lat="45.97151" lon="4.44225">
        <ele>879.058166504</ele>
        <time>2016-01-28T13:28:41.101Z</time>
      </trkpt>
      <trkpt lat="45.97145" lon="4.4422">
        <ele>879.223815918</ele>
        <time>2016-01-28T13:28:46.129Z</time>
      </trkpt>
      <trkpt lat="45.97143" lon="4.44218">
        <ele>879.184997559</ele>
        <time>2016-01-28T13:28:47.105Z</time>
      </trkpt>
      <trkpt lat="45.97139" lon="4.44215">
        <ele>878.446655273</ele>
        <time>2016-01-28T13:29:21.094Z</time>
      </trkpt>
      <trkpt lat="45.97132" lon="4.44212">
        <ele>878.643920898</ele>
        <time>2016-01-28T13:29:22.105Z</time>
      </trkpt>
      <trkpt lat="45.97124" lon="4.44206">
        <ele>879.00958252</ele>
        <time>2016-01-28T13:29:27.127Z</time>
      </trkpt>
      <trkpt lat="45.97122" lon="4.44204">
        <ele>879.024230957</ele>
        <time>2016-01-28T13:29:28.105Z</time>
      </trkpt>
      <trkpt lat="45.97115" lon="4.44196">
        <ele>879.101196289</ele>
        <time>2016-01-28T13:29:31.129Z</time>
      </trkpt>
      <trkpt lat="45.97113" lon="4.44194">
        <ele>879.151672363</ele>
        <time>2016-01-28T13:29:32.109Z</time>
      </trkpt>
      <trkpt lat="45.97107" lon="4.44187">
        <ele>880.174926758</ele>
        <time>2016-01-28T13:29:40.106Z</time>
      </trkpt>
      <trkpt lat="45.97106" lon="4.44186">
        <ele>880.239074707</ele>
        <time>2016-01-28T13:29:41.074Z</time>
      </trkpt>
      <trkpt lat="45.97101" lon="4.44178">
        <ele>880.539245605</ele>
        <time>2016-01-28T13:29:48.103Z</time>
      </trkpt>
      <trkpt lat="45.971" lon="4.44176">
        <ele>880.550842285</ele>
        <time>2016-01-28T13:29:49.072Z</time>
      </trkpt>
      <trkpt lat="45.97094" lon="4.44168">
        <ele>880.847412109</ele>
        <time>2016-01-28T13:29:57.108Z</time>
      </trkpt>
      <trkpt lat="45.97092" lon="4.44165">
        <ele>880.89074707</ele>
        <time>2016-01-28T13:29:58.074Z</time>
      </trkpt>
      <trkpt lat="45.97085" lon="4.44161">
        <ele>880.904968262</ele>
        <time>2016-01-28T13:30:01.091Z</time>
      </trkpt>
      <trkpt lat="45.97083" lon="4.44159">
        <ele>880.913818359</ele>
        <time>2016-01-28T13:30:02.074Z</time>
      </trkpt>
      <trkpt lat="45.97075" lon="4.44156">
        <ele>880.973999023</ele>
        <time>2016-01-28T13:30:06.104Z</time>
      </trkpt>
      <trkpt lat="45.97074" lon="4.44155">
        <ele>880.990722656</ele>
        <time>2016-01-28T13:30:07.075Z</time>
      </trkpt>
      <trkpt lat="45.97067" lon="4.44148">
        <ele>880.829650879</ele>
        <time>2016-01-28T13:30:15.107Z</time>
      </trkpt>
      <trkpt lat="45.97065" lon="4.44147">
        <ele>880.735534668</ele>
        <time>2016-01-28T13:30:16.063Z</time>
      </trkpt>
      <trkpt lat="45.97058" lon="4.44142">
        <ele>879.982666016</ele>
        <time>2016-01-28T13:30:23.11Z</time>
      </trkpt>
      <trkpt lat="45.97057" lon="4.44141">
        <ele>879.87097168</ele>
        <time>2016-01-28T13:30:24.072Z</time>
      </trkpt>
      <trkpt lat="45.97049" lon="4.44138">
        <ele>878.664489746</ele>
        <time>2016-01-28T13:30:38.112Z</time>
      </trkpt>
      <trkpt lat="45.97048" lon="4.44137">
        <ele>878.658203125</ele>
        <time>2016-01-28T13:30:39.088Z</time>
      </trkpt>
      <trkpt lat="45.9704" lon="4.44133">
        <ele>878.570861816</ele>
        <time>2016-01-28T13:30:43.111Z</time>
      </trkpt>
      <trkpt lat="45.97038" lon="4.44132">
        <ele>878.598022461</ele>
        <time>2016-01-28T13:30:44.08Z</time>
      </trkpt>
      <trkpt lat="45.97029" lon="4.44128">
        <ele>878.630615234</ele>
        <time>2016-01-28T13:30:49.109Z</time>
      </trkpt>
      <trkpt lat="45.97027" lon="4.44128">
        <ele>878.51739502</ele>
        <time>2016-01-28T13:30:50.084Z</time>
      </trkpt>
      <trkpt lat="45.97019" lon="4.44122">
        <ele>878.08984375</ele>
        <time>2016-01-28T13:30:59.108Z</time>
      </trkpt>
      <trkpt lat="45.97018" lon="4.44122">
        <ele>878.161010742</ele>
        <time>2016-01-28T13:31:00.089Z</time>
      </trkpt>
      <trkpt lat="45.9701" lon="4.44118">
        <ele>877.865783691</ele>
        <time>2016-01-28T13:31:05.107Z</time>
      </trkpt>
      <trkpt lat="45.97009" lon="4.44117">
        <ele>877.732177734</ele>
        <time>2016-01-28T13:31:06.08Z</time>
      </trkpt>
      <trkpt lat="45.97001" lon="4.44112">
        <ele>877.128051758</ele>
        <time>2016-01-28T13:31:16.215Z</time>
      </trkpt>
      <trkpt lat="45.97" lon="4.44112">
        <ele>877.273010254</ele>
        <time>2016-01-28T13:31:17.088Z</time>
      </trkpt>
      <trkpt lat="45.96992" lon="4.44106">
        <ele>877.244506836</ele>
        <time>2016-01-28T13:31:24.132Z</time>
      </trkpt>
      <trkpt lat="45.96992" lon="4.44105">
        <ele>877.065124512</ele>
        <time>2016-01-28T13:31:25.087Z</time>
      </trkpt>
      <trkpt lat="45.96987" lon="4.44095">
        <ele>877.078491211</ele>
        <time>2016-01-28T13:31:42.112Z</time>
      </trkpt>
      <trkpt lat="45.96987" lon="4.44094">
        <ele>877.219116211</ele>
        <time>2016-01-28T13:31:43.09Z</time>
      </trkpt>
      <trkpt lat="45.96985" lon="4.44082">
        <ele>877.766601562</ele>
        <time>2016-01-28T13:31:52.117Z</time>
      </trkpt>
      <trkpt lat="45.96984" lon="4.44081">
        <ele>877.698486328</ele>
        <time>2016-01-28T13:31:53.093Z</time>
      </trkpt>
      <trkpt lat="45.96982" lon="4.44068">
        <ele>877.108642578</ele>
        <time>2016-01-28T13:32:00.115Z</time>
      </trkpt>
      <trkpt lat="45.96981" lon="4.44067">
        <ele>877.031005859</ele>
        <time>2016-01-28T13:32:01.096Z</time>
      </trkpt>
      <trkpt lat="45.96979" lon="4.44055">
        <ele>876.274597168</ele>
        <time>2016-01-28T13:32:07.138Z</time>
      </trkpt>
      <trkpt lat="45.96978" lon="4.44054">
        <ele>876.116943359</ele>
        <time>2016-01-28T13:32:08.091Z</time>
      </trkpt>
      <trkpt lat="45.9698" lon="4.44042">
        <ele>874.856079102</ele>
        <time>2016-01-28T13:32:15.122Z</time>
      </trkpt>
      <trkpt lat="45.9698" lon="4.4404">
        <ele>874.608398438</ele>
        <time>2016-01-28T13:32:16.103Z</time>
      </trkpt>
      <trkpt lat="45.96977" lon="4.44028">
        <ele>873.661376953</ele>
        <time>2016-01-28T13:32:20.118Z</time>
      </trkpt>
      <trkpt lat="45.96976" lon="4.44027">
        <ele>873.482055664</ele>
        <time>2016-01-28T13:32:21.1Z</time>
      </trkpt>
      <trkpt lat="45.96975" lon="4.44015">
        <ele>871.782409668</ele>
        <time>2016-01-28T13:32:31.117Z</time>
      </trkpt>
      <trkpt lat="45.96974" lon="4.44014">
        <ele>871.661865234</ele>
        <time>2016-01-28T13:32:32.101Z</time>
      </trkpt>
      <trkpt lat="45.96976" lon="4.44002">
        <ele>871.024719238</ele>
        <time>2016-01-28T13:32:43.119Z</time>
      </trkpt>
      <trkpt lat="45.96976" lon="4.43999">
        <ele>870.933532715</ele>
        <time>2016-01-28T13:32:44.095Z</time>
      </trkpt>
      <trkpt lat="45.96978" lon="4.43988">
        <ele>871.100280762</ele>
        <time>2016-01-28T13:32:55.139Z</time>
      </trkpt>
      <trkpt lat="45.9698" lon="4.43986">
        <ele>871.067687988</ele>
        <time>2016-01-28T13:32:56.094Z</time>
      </trkpt>
      <trkpt lat="45.96985" lon="4.43977">
        <ele>870.872802734</ele>
        <time>2016-01-28T13:33:01.125Z</time>
      </trkpt>
      <trkpt lat="45.96986" lon="4.43976">
        <ele>870.912902832</ele>
        <time>2016-01-28T13:33:02.086Z</time>
      </trkpt>
      <trkpt lat="45.96991" lon="4.43966">
        <ele>870.540649414</ele>
        <time>2016-01-28T13:33:11.133Z</time>
      </trkpt>
      <trkpt lat="45.96992" lon="4.43964">
        <ele>870.368286133</ele>
        <time>2016-01-28T13:33:12.098Z</time>
      </trkpt>
      <trkpt lat="45.96998" lon="4.43955">
        <ele>870.125061035</ele>
        <time>2016-01-28T13:33:17.124Z</time>
      </trkpt>
      <trkpt lat="45.97" lon="4.43953">
        <ele>870.135498047</ele>
        <time>2016-01-28T13:33:18.099Z</time>
      </trkpt>
      <trkpt lat="45.97007" lon="4.43948">
        <ele>869.811828613</ele>
        <time>2016-01-28T13:33:26.223Z</time>
      </trkpt>
      <trkpt lat="45.97008" lon="4.43947">
        <ele>869.701538086</ele>
        <time>2016-01-28T13:33:27.099Z</time>
      </trkpt>
      <trkpt lat="45.97015" lon="4.43943">
        <ele>868.817016602</ele>
        <time>2016-01-28T13:33:34.122Z</time>
      </trkpt>
      <trkpt lat="45.97016" lon="4.43942">
        <ele>868.76373291</ele>
        <time>2016-01-28T13:33:35.099Z</time>
      </trkpt>
      <trkpt lat="45.97023" lon="4.43937">
        <ele>868.555664062</ele>
        <time>2016-01-28T13:33:38.145Z</time>
      </trkpt>
      <trkpt lat="45.97025" lon="4.43934">
        <ele>868.476074219</ele>
        <time>2016-01-28T13:33:39.099Z</time>
      </trkpt>
      <trkpt lat="45.97031" lon="4.43924">
        <ele>867.946533203</ele>
        <time>2016-01-28T13:33:45.131Z</time>
      </trkpt>
      <trkpt lat="45.97031" lon="4.43923">
        <ele>867.797424316</ele>
        <time>2016-01-28T13:33:46.1Z</time>
      </trkpt>
      <trkpt lat="45.97034" lon="4.43912">
        <ele>866.274902344</ele>
        <time>2016-01-28T13:33:54.131Z</time>
      </trkpt>
      <trkpt lat="45.97034" lon="4.4391">
        <ele>866.096130371</ele>
        <time>2016-01-28T13:33:55.108Z</time>
      </trkpt>
      <trkpt lat="45.9703" lon="4.439">
        <ele>864.756835938</ele>
        <time>2016-01-28T13:34:02.123Z</time>
      </trkpt>
      <trkpt lat="45.9703" lon="4.43898">
        <ele>864.495544434</ele>
        <time>2016-01-28T13:34:03.104Z</time>
      </trkpt>
      <trkpt lat="45.97031" lon="4.43885">
        <ele>862.386291504</ele>
        <time>2016-01-28T13:34:10.131Z</time>
      </trkpt>
      <trkpt lat="45.97029" lon="4.43881">
        <ele>862.049194336</ele>
        <time>2016-01-28T13:34:11.113Z</time>
      </trkpt>
      <trkpt lat="45.97026" lon="4.4387">
        <ele>859.844848633</ele>
        <time>2016-01-28T13:34:17.148Z</time>
      </trkpt>
      <trkpt lat="45.97026" lon="4.43868">
        <ele>859.423950195</ele>
        <time>2016-01-28T13:34:18.1Z</time>
      </trkpt>
      <trkpt lat="45.97024" lon="4.43856">
        <ele>857.019470215</ele>
        <time>2016-01-28T13:34:25.123Z</time>
      </trkpt>
      <trkpt lat="45.97025" lon="4.43855">
        <ele>856.749511719</ele>
        <time>2016-01-28T13:34:26.1Z</time>
      </trkpt>
      <trkpt lat="45.97024" lon="4.43842">
        <ele>854.642211914</ele>
        <time>2016-01-28T13:34:34.13Z</time>
      </trkpt>
      <trkpt lat="45.97024" lon="4.4384">
        <ele>854.426757812</ele>
        <time>2016-01-28T13:34:35.103Z</time>
      </trkpt>
      <trkpt lat="45.97023" lon="4.43827">
        <ele>852.058349609</ele>
        <time>2016-01-28T13:34:46.125Z</time>
      </trkpt>
      <trkpt lat="45.97024" lon="4.43826">
        <ele>851.869262695</ele>
        <time>2016-01-28T13:34:47.105Z</time>
      </trkpt>
      <trkpt lat="45.97025" lon="4.43813">
        <ele>850.166503906</ele>
        <time>2016-01-28T13:34:55.107Z</time>
      </trkpt>
      <trkpt lat="45.97025" lon="4.43812">
        <ele>849.967956543</ele>
        <time>2016-01-28T13:34:56.071Z</time>
      </trkpt>
      <trkpt lat="45.97027" lon="4.438">
        <ele>848.473754883</ele>
        <time>2016-01-28T13:35:05.103Z</time>
      </trkpt>
      <trkpt lat="45.97027" lon="4.43798">
        <ele>848.296386719</ele>
        <time>2016-01-28T13:35:06.081Z</time>
      </trkpt>
      <trkpt lat="45.97031" lon="4.43787">
        <ele>847.357055664</ele>
        <time>2016-01-28T13:35:11.098Z</time>
      </trkpt>
      <trkpt lat="45.97031" lon="4.43785">
        <ele>847.096740723</ele>
        <time>2016-01-28T13:35:12.072Z</time>
      </trkpt>
      <trkpt lat="45.97033" lon="4.43773">
        <ele>844.938659668</ele>
        <time>2016-01-28T13:35:22.11Z</time>
      </trkpt>
      <trkpt lat="45.97033" lon="4.43771">
        <ele>844.764892578</ele>
        <time>2016-01-28T13:35:23.082Z</time>
      </trkpt>
      <trkpt lat="45.97034" lon="4.4376">
        <ele>843.69342041</ele>
        <time>2016-01-28T13:35:31.099Z</time>
      </trkpt>
      <trkpt lat="45.97034" lon="4.43758">
        <ele>843.57421875</ele>
        <time>2016-01-28T13:35:32.083Z</time>
      </trkpt>
      <trkpt lat="45.97035" lon="4.43746">
        <ele>842.700866699</ele>
        <time>2016-01-28T13:35:37.102Z</time>
      </trkpt>
      <trkpt lat="45.97035" lon="4.43744">
        <ele>842.485839844</ele>
        <time>2016-01-28T13:35:38.083Z</time>
      </trkpt>
      <trkpt lat="45.97036" lon="4.43733">
        <ele>840.790405273</ele>
        <time>2016-01-28T13:35:46.12Z</time>
      </trkpt>
      <trkpt lat="45.97036" lon="4.43731">
        <ele>840.490844727</ele>
        <time>2016-01-28T13:35:47.085Z</time>
      </trkpt>
      <trkpt lat="45.97036" lon="4.43719">
        <ele>838.791015625</ele>
        <time>2016-01-28T13:35:53.111Z</time>
      </trkpt>
      <trkpt lat="45.97037" lon="4.43717">
        <ele>838.466308594</ele>
        <time>2016-01-28T13:35:54.085Z</time>
      </trkpt>
      <trkpt lat="45.97038" lon="4.43704">
        <ele>836.491088867</ele>
        <time>2016-01-28T13:36:00.113Z</time>
      </trkpt>
      <trkpt lat="45.97038" lon="4.43702">
        <ele>836.204956055</ele>
        <time>2016-01-28T13:36:01.097Z</time>
      </trkpt>
      <trkpt lat="45.97041" lon="4.43691">
        <ele>834.126342773</ele>
        <time>2016-01-28T13:36:13.124Z</time>
      </trkpt>
      <trkpt lat="45.97042" lon="4.43691">
        <ele>834.060791016</ele>
        <time>2016-01-28T13:36:14.088Z</time>
      </trkpt>
      <trkpt lat="45.97049" lon="4.43686">
        <ele>832.867492676</ele>
        <time>2016-01-28T13:36:25.112Z</time>
      </trkpt>
      <trkpt lat="45.9705" lon="4.43685">
        <ele>832.75579834</ele>
        <time>2016-01-28T13:36:26.094Z</time>
      </trkpt>
      <trkpt lat="45.97057" lon="4.4368">
        <ele>831.655517578</ele>
        <time>2016-01-28T13:36:33.116Z</time>
      </trkpt>
      <trkpt lat="45.97058" lon="4.43679">
        <ele>831.408447266</ele>
        <time>2016-01-28T13:36:34.089Z</time>
      </trkpt>
      <trkpt lat="45.97065" lon="4.43672">
        <ele>827.463684082</ele>
        <time>2016-01-28T13:36:47.112Z</time>
      </trkpt>
      <trkpt lat="45.97066" lon="4.43672">
        <ele>827.096313477</ele>
        <time>2016-01-28T13:36:48.089Z</time>
      </trkpt>
      <trkpt lat="45.97074" lon="4.43672">
        <ele>825.056640625</ele>
        <time>2016-01-28T13:36:54.119Z</time>
      </trkpt>
      <trkpt lat="45.97076" lon="4.43671">
        <ele>824.749206543</ele>
        <time>2016-01-28T13:36:55.08Z</time>
      </trkpt>
      <trkpt lat="45.97084" lon="4.43669">
        <ele>823.023986816</ele>
        <time>2016-01-28T13:37:05.215Z</time>
      </trkpt>
      <trkpt lat="45.97085" lon="4.43668">
        <ele>822.794311523</ele>
        <time>2016-01-28T13:37:06.091Z</time>
      </trkpt>
      <trkpt lat="45.97089" lon="4.43658">
        <ele>821.140380859</ele>
        <time>2016-01-28T13:37:12.112Z</time>
      </trkpt>
      <trkpt lat="45.9709" lon="4.43657">
        <ele>820.938659668</ele>
        <time>2016-01-28T13:37:13.091Z</time>
      </trkpt>
      <trkpt lat="45.97092" lon="4.43645">
        <ele>819.514526367</ele>
        <time>2016-01-28T13:37:23.117Z</time>
      </trkpt>
      <trkpt lat="45.97092" lon="4.43643">
        <ele>819.300415039</ele>
        <time>2016-01-28T13:37:24.091Z</time>
      </trkpt>
      <trkpt lat="45.97096" lon="4.43632">
        <ele>818.17590332</ele>
        <time>2016-01-28T13:37:29.136Z</time>
      </trkpt>
      <trkpt lat="45.97096" lon="4.43631">
        <ele>817.992980957</ele>
        <time>2016-01-28T13:37:30.09Z</time>
      </trkpt>
      <trkpt lat="45.97098" lon="4.43619">
        <ele>816.720275879</ele>
        <time>2016-01-28T13:37:37.12Z</time>
      </trkpt>
      <trkpt lat="45.97098" lon="4.43617">
        <ele>816.557617188</ele>
        <time>2016-01-28T13:37:38.112Z</time>
      </trkpt>
      <trkpt lat="45.97099" lon="4.43605">
        <ele>815.432067871</ele>
        <time>2016-01-28T13:37:46.122Z</time>
      </trkpt>
      <trkpt lat="45.97099" lon="4.43603">
        <ele>815.283203125</ele>
        <time>2016-01-28T13:37:47.134Z</time>
      </trkpt>
      <trkpt lat="45.97099" lon="4.43591">
        <ele>814.138183594</ele>
        <time>2016-01-28T13:37:54.116Z</time>
      </trkpt>
      <trkpt lat="45.97099" lon="4.43589">
        <ele>814.001403809</ele>
        <time>2016-01-28T13:37:55.092Z</time>
      </trkpt>
      <trkpt lat="45.97105" lon="4.43581">
        <ele>813.345947266</ele>
        <time>2016-01-28T13:37:59.121Z</time>
      </trkpt>
      <trkpt lat="45.97106" lon="4.43579">
        <ele>813.211608887</ele>
        <time>2016-01-28T13:38:00.096Z</time>
      </trkpt>
      <trkpt lat="45.97108" lon="4.43567">
        <ele>811.667663574</ele>
        <time>2016-01-28T13:38:09.122Z</time>
      </trkpt>
      <trkpt lat="45.97109" lon="4.43565">
        <ele>811.566467285</ele>
        <time>2016-01-28T13:38:10.095Z</time>
      </trkpt>
      <trkpt lat="45.9711" lon="4.43554">
        <ele>811.047607422</ele>
        <time>2016-01-28T13:38:18.122Z</time>
      </trkpt>
      <trkpt lat="45.97111" lon="4.4355">
        <ele>810.971496582</ele>
        <time>2016-01-28T13:38:19.095Z</time>
      </trkpt>
      <trkpt lat="45.97111" lon="4.43539">
        <ele>810.180358887</ele>
        <time>2016-01-28T13:38:25.107Z</time>
      </trkpt>
      <trkpt lat="45.97111" lon="4.43537">
        <ele>810.072387695</ele>
        <time>2016-01-28T13:38:26.092Z</time>
      </trkpt>
      <trkpt lat="45.97107" lon="4.43528">
        <ele>810.106750488</ele>
        <time>2016-01-28T13:38:40.142Z</time>
      </trkpt>
      <trkpt lat="45.97105" lon="4.43525">
        <ele>810.103149414</ele>
        <time>2016-01-28T13:38:41.096Z</time>
      </trkpt>
      <trkpt lat="45.97102" lon="4.43514">
        <ele>810.195251465</ele>
        <time>2016-01-28T13:38:46.128Z</time>
      </trkpt>
      <trkpt lat="45.97102" lon="4.43512">
        <ele>810.140869141</ele>
        <time>2016-01-28T13:38:47.094Z</time>
      </trkpt>
      <trkpt lat="45.971" lon="4.43499">
        <ele>809.506896973</ele>
        <time>2016-01-28T13:38:54.252Z</time>
      </trkpt>
      <trkpt lat="45.971" lon="4.43499">
        <ele>809.504577637</ele>
        <time>2016-01-28T13:38:55.094Z</time>
      </trkpt>
      <trkpt lat="45.97097" lon="4.43487">
        <ele>810.628173828</ele>
        <time>2016-01-28T13:39:06.127Z</time>
      </trkpt>
      <trkpt lat="45.97097" lon="4.43486">
        <ele>810.731811523</ele>
        <time>2016-01-28T13:39:07.1Z</time>
      </trkpt>
      <trkpt lat="45.97094" lon="4.43474">
        <ele>812.837768555</ele>
        <time>2016-01-28T13:39:22.128Z</time>
      </trkpt>
      <trkpt lat="45.97094" lon="4.43474">
        <ele>813.050842285</ele>
        <time>2016-01-28T13:39:23.108Z</time>
      </trkpt>
      <trkpt lat="45.97088" lon="4.43466">
        <ele>815.248901367</ele>
        <time>2016-01-28T13:39:32.129Z</time>
      </trkpt>
      <trkpt lat="45.97087" lon="4.43464">
        <ele>815.533081055</ele>
        <time>2016-01-28T13:39:33.099Z</time>
      </trkpt>
      <trkpt lat="45.97083" lon="4.43452">
        <ele>817.32409668</ele>
        <time>2016-01-28T13:39:42.138Z</time>
      </trkpt>
      <trkpt lat="45.97082" lon="4.43451">
        <ele>817.432739258</ele>
        <time>2016-01-28T13:39:43.104Z</time>
      </trkpt>
      <trkpt lat="45.97077" lon="4.4344">
        <ele>820.780639648</ele>
        <time>2016-01-28T13:39:58.126Z</time>
      </trkpt>
      <trkpt lat="45.97076" lon="4.43439">
        <ele>821.071899414</ele>
        <time>2016-01-28T13:39:59.103Z</time>
      </trkpt>
      <trkpt lat="45.97076" lon="4.43426">
        <ele>822.376586914</ele>
        <time>2016-01-28T13:40:09.069Z</time>
      </trkpt>
      <trkpt lat="45.97076" lon="4.43426">
        <ele>822.62689209</ele>
        <time>2016-01-28T13:40:10.072Z</time>
      </trkpt>
      <trkpt lat="45.97081" lon="4.43415">
        <ele>824.397033691</ele>
        <time>2016-01-28T13:40:26.111Z</time>
      </trkpt>
      <trkpt lat="45.97081" lon="4.43413">
        <ele>824.65234375</ele>
        <time>2016-01-28T13:40:27.081Z</time>
      </trkpt>
      <trkpt lat="45.97083" lon="4.43402">
        <ele>825.902404785</ele>
        <time>2016-01-28T13:40:32.111Z</time>
      </trkpt>
      <trkpt lat="45.97083" lon="4.434">
        <ele>826.091918945</ele>
        <time>2016-01-28T13:40:33.073Z</time>
      </trkpt>
      <trkpt lat="45.97084" lon="4.43388">
        <ele>826.43371582</ele>
        <time>2016-01-28T13:40:44.107Z</time>
      </trkpt>
      <trkpt lat="45.97085" lon="4.43387">
        <ele>826.582763672</ele>
        <time>2016-01-28T13:40:45.083Z</time>
      </trkpt>
      <trkpt lat="45.97091" lon="4.43378">
        <ele>826.806335449</ele>
        <time>2016-01-28T13:40:53.127Z</time>
      </trkpt>
      <trkpt lat="45.97092" lon="4.43377">
        <ele>826.773925781</ele>
        <time>2016-01-28T13:40:54.094Z</time>
      </trkpt>
      <trkpt lat="45.97097" lon="4.43369">
        <ele>826.655151367</ele>
        <time>2016-01-28T13:41:02.114Z</time>
      </trkpt>
      <trkpt lat="45.97098" lon="4.43367">
        <ele>826.697570801</ele>
        <time>2016-01-28T13:41:03.084Z</time>
      </trkpt>
      <trkpt lat="45.97102" lon="4.43357">
        <ele>826.766235352</ele>
        <time>2016-01-28T13:41:08.084Z</time>
      </trkpt>
      <trkpt lat="45.97103" lon="4.43354">
        <ele>826.758972168</ele>
        <time>2016-01-28T13:41:09.074Z</time>
      </trkpt>
      <trkpt lat="45.97108" lon="4.43347">
        <ele>826.111877441</ele>
        <time>2016-01-28T13:41:13.109Z</time>
      </trkpt>
      <trkpt lat="45.97114" lon="4.43341">
        <ele>825.94317627</ele>
        <time>2016-01-28T13:41:14.086Z</time>
      </trkpt>
      <trkpt lat="45.9712" lon="4.43334">
        <ele>824.790588379</ele>
        <time>2016-01-28T13:41:20.12Z</time>
      </trkpt>
      <trkpt lat="45.97121" lon="4.43333">
        <ele>824.582397461</ele>
        <time>2016-01-28T13:41:21.065Z</time>
      </trkpt>
      <trkpt lat="45.97125" lon="4.43324">
        <ele>823.723999023</ele>
        <time>2016-01-28T13:41:26.136Z</time>
      </trkpt>
      <trkpt lat="45.97126" lon="4.43322">
        <ele>823.512084961</ele>
        <time>2016-01-28T13:41:27.088Z</time>
      </trkpt>
      <trkpt lat="45.97129" lon="4.4331">
        <ele>822.908325195</ele>
        <time>2016-01-28T13:41:32.112Z</time>
      </trkpt>
      <trkpt lat="45.97129" lon="4.43307">
        <ele>822.784667969</ele>
        <time>2016-01-28T13:41:33.098Z</time>
      </trkpt>
      <trkpt lat="45.97132" lon="4.43298">
        <ele>822.42175293</ele>
        <time>2016-01-28T13:41:37.12Z</time>
      </trkpt>
      <trkpt lat="45.97132" lon="4.43295">
        <ele>822.327270508</ele>
        <time>2016-01-28T13:41:38.092Z</time>
      </trkpt>
      <trkpt lat="45.97133" lon="4.43282">
        <ele>821.604309082</ele>
        <time>2016-01-28T13:41:44.113Z</time>
      </trkpt>
      <trkpt lat="45.97133" lon="4.4328">
        <ele>821.454406738</ele>
        <time>2016-01-28T13:41:45.093Z</time>
      </trkpt>
      <trkpt lat="45.97133" lon="4.43268">
        <ele>820.504943848</ele>
        <time>2016-01-28T13:41:53.112Z</time>
      </trkpt>
      <trkpt lat="45.97133" lon="4.43265">
        <ele>820.399108887</ele>
        <time>2016-01-28T13:41:54.077Z</time>
      </trkpt>
      <trkpt lat="45.97134" lon="4.43252">
        <ele>819.701538086</ele>
        <time>2016-01-28T13:42:02.11Z</time>
      </trkpt>
      <trkpt lat="45.97134" lon="4.43251">
        <ele>819.606262207</ele>
        <time>2016-01-28T13:42:03.093Z</time>
      </trkpt>
      <trkpt lat="45.9713" lon="4.4324">
        <ele>819.522033691</ele>
        <time>2016-01-28T13:42:10.115Z</time>
      </trkpt>
      <trkpt lat="45.97129" lon="4.43239">
        <ele>819.556396484</ele>
        <time>2016-01-28T13:42:11.089Z</time>
      </trkpt>
      <trkpt lat="45.97126" lon="4.43227">
        <ele>819.335998535</ele>
        <time>2016-01-28T13:42:18.222Z</time>
      </trkpt>
      <trkpt lat="45.97126" lon="4.43226">
        <ele>819.323852539</ele>
        <time>2016-01-28T13:42:19.089Z</time>
      </trkpt>
      <trkpt lat="45.97122" lon="4.43215">
        <ele>819.611877441</ele>
        <time>2016-01-28T13:42:26.107Z</time>
      </trkpt>
      <trkpt lat="45.97121" lon="4.43213">
        <ele>819.640808105</ele>
        <time>2016-01-28T13:42:27.089Z</time>
      </trkpt>
      <trkpt lat="45.97117" lon="4.43201">
        <ele>820.08392334</ele>
        <time>2016-01-28T13:42:38.118Z</time>
      </trkpt>
      <trkpt lat="45.97115" lon="4.43199">
        <ele>820.098388672</ele>
        <time>2016-01-28T13:42:39.096Z</time>
      </trkpt>
      <trkpt lat="45.97109" lon="4.43188">
        <ele>820.146972656</ele>
        <time>2016-01-28T13:42:45.136Z</time>
      </trkpt>
      <trkpt lat="45.97109" lon="4.43187">
        <ele>820.190307617</ele>
        <time>2016-01-28T13:42:46.094Z</time>
      </trkpt>
      <trkpt lat="45.97105" lon="4.43176">
        <ele>820.857421875</ele>
        <time>2016-01-28T13:42:54.11Z</time>
      </trkpt>
      <trkpt lat="45.97104" lon="4.43175">
        <ele>821.01965332</ele>
        <time>2016-01-28T13:42:55.092Z</time>
      </trkpt>
      <trkpt lat="45.97101" lon="4.43165">
        <ele>821.667480469</ele>
        <time>2016-01-28T13:43:03.114Z</time>
      </trkpt>
      <trkpt lat="45.971" lon="4.43163">
        <ele>821.61517334</ele>
        <time>2016-01-28T13:43:04.093Z</time>
      </trkpt>
      <trkpt lat="45.97096" lon="4.43153">
        <ele>822.008544922</ele>
        <time>2016-01-28T13:43:12.118Z</time>
      </trkpt>
      <trkpt lat="45.97095" lon="4.43151">
        <ele>822.082458496</ele>
        <time>2016-01-28T13:43:13.091Z</time>
      </trkpt>
      <trkpt lat="45.97091" lon="4.4314">
        <ele>823.128234863</ele>
        <time>2016-01-28T13:43:23.233Z</time>
      </trkpt>
      <trkpt lat="45.97089" lon="4.43138">
        <ele>823.26361084</ele>
        <time>2016-01-28T13:43:24.088Z</time>
      </trkpt>
      <trkpt lat="45.97083" lon="4.4313">
        <ele>824.385864258</ele>
        <time>2016-01-28T13:43:32.118Z</time>
      </trkpt>
      <trkpt lat="45.97083" lon="4.43129">
        <ele>824.571166992</ele>
        <time>2016-01-28T13:43:33.093Z</time>
      </trkpt>
      <trkpt lat="45.97078" lon="4.43121">
        <ele>825.554443359</ele>
        <time>2016-01-28T13:43:39.117Z</time>
      </trkpt>
      <trkpt lat="45.97075" lon="4.4312">
        <ele>825.639343262</ele>
        <time>2016-01-28T13:43:40.086Z</time>
      </trkpt>
      <trkpt lat="45.97068" lon="4.43113">
        <ele>825.883117676</ele>
        <time>2016-01-28T13:43:50.106Z</time>
      </trkpt>
      <trkpt lat="45.97066" lon="4.43112">
        <ele>825.814575195</ele>
        <time>2016-01-28T13:43:51.098Z</time>
      </trkpt>
      <trkpt lat="45.97059" lon="4.43107">
        <ele>825.964782715</ele>
        <time>2016-01-28T13:43:56.12Z</time>
      </trkpt>
      <trkpt lat="45.97057" lon="4.43107">
        <ele>826.028686523</ele>
        <time>2016-01-28T13:43:57.097Z</time>
      </trkpt>
      <trkpt lat="45.9705" lon="4.43105">
        <ele>826.365905762</ele>
        <time>2016-01-28T13:44:02.128Z</time>
      </trkpt>
      <trkpt lat="45.97048" lon="4.43105">
        <ele>826.516845703</ele>
        <time>2016-01-28T13:44:03.098Z</time>
      </trkpt>
      <trkpt lat="45.9704" lon="4.43107">
        <ele>825.811523438</ele>
        <time>2016-01-28T13:44:09.119Z</time>
      </trkpt>
      <trkpt lat="45.97038" lon="4.43108">
        <ele>825.744995117</ele>
        <time>2016-01-28T13:44:10.098Z</time>
      </trkpt>
      <trkpt lat="45.97029" lon="4.43111">
        <ele>824.998718262</ele>
        <time>2016-01-28T13:44:15.124Z</time>
      </trkpt>
      <trkpt lat="45.97028" lon="4.43112">
        <ele>824.855773926</ele>
        <time>2016-01-28T13:44:16.099Z</time>
      </trkpt>
      <trkpt lat="45.9702" lon="4.43112">
        <ele>824.564331055</ele>
        <time>2016-01-28T13:44:20.127Z</time>
      </trkpt>
      <trkpt lat="45.97019" lon="4.43112">
        <ele>824.528015137</ele>
        <time>2016-01-28T13:44:21.099Z</time>
      </trkpt>
      <trkpt lat="45.9701" lon="4.43112">
        <ele>824.242797852</ele>
        <time>2016-01-28T13:44:28.093Z</time>
      </trkpt>
      <trkpt lat="45.97008" lon="4.43113">
        <ele>824.065856934</ele>
        <time>2016-01-28T13:44:29.101Z</time>
      </trkpt>
      <trkpt lat="45.97001" lon="4.43114">
        <ele>822.98034668</ele>
        <time>2016-01-28T13:44:33.14Z</time>
      </trkpt>
      <trkpt lat="45.96998" lon="4.43115">
        <ele>822.799804688</ele>
        <time>2016-01-28T13:44:34.103Z</time>
      </trkpt>
      <trkpt lat="45.96989" lon="4.43117">
        <ele>822.080322266</ele>
        <time>2016-01-28T13:44:38.128Z</time>
      </trkpt>
      <trkpt lat="45.96988" lon="4.43118">
        <ele>821.992797852</ele>
        <time>2016-01-28T13:44:39.102Z</time>
      </trkpt>
      <trkpt lat="45.96981" lon="4.43124">
        <ele>822.465393066</ele>
        <time>2016-01-28T13:44:47.13Z</time>
      </trkpt>
      <trkpt lat="45.9698" lon="4.43124">
        <ele>822.409606934</ele>
        <time>2016-01-28T13:44:48.101Z</time>
      </trkpt>
      <trkpt lat="45.96971" lon="4.43128">
        <ele>820.553222656</ele>
        <time>2016-01-28T13:45:01.129Z</time>
      </trkpt>
      <trkpt lat="45.9697" lon="4.43129">
        <ele>820.466918945</ele>
        <time>2016-01-28T13:45:02.101Z</time>
      </trkpt>
      <trkpt lat="45.96962" lon="4.43133">
        <ele>819.304077148</ele>
        <time>2016-01-28T13:45:07.123Z</time>
      </trkpt>
      <trkpt lat="45.9696" lon="4.43135">
        <ele>819.048522949</ele>
        <time>2016-01-28T13:45:08.102Z</time>
      </trkpt>
      <trkpt lat="45.96954" lon="4.43141">
        <ele>818.825805664</ele>
        <time>2016-01-28T13:45:12.13Z</time>
      </trkpt>
      <trkpt lat="45.96952" lon="4.43143">
        <ele>818.809143066</ele>
        <time>2016-01-28T13:45:13.102Z</time>
      </trkpt>
      <trkpt lat="45.96946" lon="4.43149">
        <ele>818.271057129</ele>
        <time>2016-01-28T13:45:18.124Z</time>
      </trkpt>
      <trkpt lat="45.96945" lon="4.43151">
        <ele>818.09942627</ele>
        <time>2016-01-28T13:45:19.105Z</time>
      </trkpt>
      <trkpt lat="45.96938" lon="4.43159">
        <ele>816.734375</ele>
        <time>2016-01-28T13:45:29.104Z</time>
      </trkpt>
      <trkpt lat="45.96938" lon="4.4316">
        <ele>816.457336426</ele>
        <time>2016-01-28T13:45:30.069Z</time>
      </trkpt>
      <trkpt lat="45.9693" lon="4.43167">
        <ele>815.500854492</ele>
        <time>2016-01-28T13:45:37.093Z</time>
      </trkpt>
      <trkpt lat="45.96929" lon="4.43168">
        <ele>815.424377441</ele>
        <time>2016-01-28T13:45:38.078Z</time>
      </trkpt>
      <trkpt lat="45.96923" lon="4.43177">
        <ele>814.628356934</ele>
        <time>2016-01-28T13:45:45.107Z</time>
      </trkpt>
      <trkpt lat="45.96922" lon="4.43179">
        <ele>814.560791016</ele>
        <time>2016-01-28T13:45:46.081Z</time>
      </trkpt>
      <trkpt lat="45.96915" lon="4.43186">
        <ele>813.926513672</ele>
        <time>2016-01-28T13:45:55.109Z</time>
      </trkpt>
      <trkpt lat="45.96914" lon="4.43187">
        <ele>813.902404785</ele>
        <time>2016-01-28T13:45:56.073Z</time>
      </trkpt>
      <trkpt lat="45.96906" lon="4.4319">
        <ele>814.83581543</ele>
        <time>2016-01-28T13:46:07.104Z</time>
      </trkpt>
      <trkpt lat="45.96905" lon="4.4319">
        <ele>815.041992188</ele>
        <time>2016-01-28T13:46:08.081Z</time>
      </trkpt>
      <trkpt lat="45.96897" lon="4.43193">
        <ele>816.792602539</ele>
        <time>2016-01-28T13:46:15.103Z</time>
      </trkpt>
      <trkpt lat="45.96896" lon="4.43193">
        <ele>817.092773438</ele>
        <time>2016-01-28T13:46:16.075Z</time>
      </trkpt>
      <trkpt lat="45.96889" lon="4.43197">
        <ele>818.458251953</ele>
        <time>2016-01-28T13:46:23.098Z</time>
      </trkpt>
      <trkpt lat="45.96887" lon="4.43198">
        <ele>818.420715332</ele>
        <time>2016-01-28T13:46:24.075Z</time>
      </trkpt>
      <trkpt lat="45.96879" lon="4.43203">
        <ele>818.074829102</ele>
        <time>2016-01-28T13:46:29.132Z</time>
      </trkpt>
      <trkpt lat="45.96878" lon="4.43203">
        <ele>818.074890137</ele>
        <time>2016-01-28T13:46:30.091Z</time>
      </trkpt>
      <trkpt lat="45.96869" lon="4.43205">
        <ele>817.532531738</ele>
        <time>2016-01-28T13:46:38.11Z</time>
      </trkpt>
      <trkpt lat="45.96869" lon="4.43205">
        <ele>817.467529297</ele>
        <time>2016-01-28T13:46:39.061Z</time>
      </trkpt>
      <trkpt lat="45.9686" lon="4.43206">
        <ele>817.169189453</ele>
        <time>2016-01-28T13:46:45.108Z</time>
      </trkpt>
      <trkpt lat="45.96859" lon="4.43206">
        <ele>817.162719727</ele>
        <time>2016-01-28T13:46:46.11Z</time>
      </trkpt>
      <trkpt lat="45.96851" lon="4.43209">
        <ele>815.80456543</ele>
        <time>2016-01-28T13:46:56.121Z</time>
      </trkpt>
      <trkpt lat="45.9685" lon="4.43209">
        <ele>815.434326172</ele>
        <time>2016-01-28T13:46:57.076Z</time>
      </trkpt>
      <trkpt lat="45.96841" lon="4.43213">
        <ele>813.839172363</ele>
        <time>2016-01-28T13:47:03.117Z</time>
      </trkpt>
      <trkpt lat="45.9684" lon="4.43214">
        <ele>813.690673828</ele>
        <time>2016-01-28T13:47:04.083Z</time>
      </trkpt>
      <trkpt lat="45.96832" lon="4.43217">
        <ele>812.830322266</ele>
        <time>2016-01-28T13:47:11.123Z</time>
      </trkpt>
      <trkpt lat="45.96831" lon="4.43218">
        <ele>812.750305176</ele>
        <time>2016-01-28T13:47:12.088Z</time>
      </trkpt>
      <trkpt lat="45.96822" lon="4.43221">
        <ele>812.324645996</ele>
        <time>2016-01-28T13:47:19.117Z</time>
      </trkpt>
      <trkpt lat="45.96822" lon="4.43221">
        <ele>812.265380859</ele>
        <time>2016-01-28T13:47:20.088Z</time>
      </trkpt>
      <trkpt lat="45.96813" lon="4.43223">
        <ele>811.785766602</ele>
        <time>2016-01-28T13:47:36.251Z</time>
      </trkpt>
      <trkpt lat="45.96812" lon="4.43223">
        <ele>811.877624512</ele>
        <time>2016-01-28T13:47:37.086Z</time>
      </trkpt>
      <trkpt lat="45.96806" lon="4.43224">
        <ele>812.215820312</ele>
        <time>2016-01-28T13:47:42.117Z</time>
      </trkpt>
      <trkpt lat="45.96802" lon="4.43224">
        <ele>812.223632812</ele>
        <time>2016-01-28T13:47:43.1Z</time>
      </trkpt>
      <trkpt lat="45.96794" lon="4.43229">
        <ele>811.605957031</ele>
        <time>2016-01-28T13:47:47.105Z</time>
      </trkpt>
      <trkpt lat="45.96793" lon="4.43229">
        <ele>811.215698242</ele>
        <time>2016-01-28T13:47:48.089Z</time>
      </trkpt>
      <trkpt lat="45.96785" lon="4.43232">
        <ele>808.686462402</ele>
        <time>2016-01-28T13:47:55.083Z</time>
      </trkpt>
      <trkpt lat="45.96784" lon="4.43232">
        <ele>808.465759277</ele>
        <time>2016-01-28T13:47:56.079Z</time>
      </trkpt>
      <trkpt lat="45.96776" lon="4.43234">
        <ele>807.393371582</ele>
        <time>2016-01-28T13:48:02.117Z</time>
      </trkpt>
      <trkpt lat="45.96774" lon="4.43235">
        <ele>807.346984863</ele>
        <time>2016-01-28T13:48:03.09Z</time>
      </trkpt>
      <trkpt lat="45.96766" lon="4.43237">
        <ele>807.092041016</ele>
        <time>2016-01-28T13:48:11.126Z</time>
      </trkpt>
      <trkpt lat="45.96765" lon="4.43236">
        <ele>807.061462402</ele>
        <time>2016-01-28T13:48:12.092Z</time>
      </trkpt>
      <trkpt lat="45.96756" lon="4.43232">
        <ele>808.389282227</ele>
        <time>2016-01-28T13:48:28.108Z</time>
      </trkpt>
      <trkpt lat="45.96755" lon="4.43232">
        <ele>808.474853516</ele>
        <time>2016-01-28T13:48:29.093Z</time>
      </trkpt>
      <trkpt lat="45.96747" lon="4.43228">
        <ele>808.267883301</ele>
        <time>2016-01-28T13:48:40.124Z</time>
      </trkpt>
      <trkpt lat="45.96746" lon="4.43228">
        <ele>808.100463867</ele>
        <time>2016-01-28T13:48:41.099Z</time>
      </trkpt>
      <trkpt lat="45.9674" lon="4.43218">
        <ele>808.087158203</ele>
        <time>2016-01-28T13:48:52.147Z</time>
      </trkpt>
      <trkpt lat="45.96739" lon="4.43217">
        <ele>808.132080078</ele>
        <time>2016-01-28T13:48:53.093Z</time>
      </trkpt>
      <trkpt lat="45.96736" lon="4.43206">
        <ele>807.710754395</ele>
        <time>2016-01-28T13:49:00.12Z</time>
      </trkpt>
      <trkpt lat="45.96735" lon="4.43204">
        <ele>807.670654297</ele>
        <time>2016-01-28T13:49:01.097Z</time>
      </trkpt>
      <trkpt lat="45.9673" lon="4.43196">
        <ele>807.603393555</ele>
        <time>2016-01-28T13:49:08.119Z</time>
      </trkpt>
      <trkpt lat="45.96729" lon="4.43194">
        <ele>807.491027832</ele>
        <time>2016-01-28T13:49:09.096Z</time>
      </trkpt>
      <trkpt lat="45.96725" lon="4.43184">
        <ele>807.635986328</ele>
        <time>2016-01-28T13:49:15.12Z</time>
      </trkpt>
      <trkpt lat="45.96724" lon="4.43183">
        <ele>807.70501709</ele>
        <time>2016-01-28T13:49:16.098Z</time>
      </trkpt>
      <trkpt lat="45.96721" lon="4.43172">
        <ele>807.400512695</ele>
        <time>2016-01-28T13:49:24.129Z</time>
      </trkpt>
      <trkpt lat="45.96721" lon="4.4317">
        <ele>807.300720215</ele>
        <time>2016-01-28T13:49:25.081Z</time>
      </trkpt>
      <trkpt lat="45.96718" lon="4.43158">
        <ele>806.200683594</ele>
        <time>2016-01-28T13:49:33.121Z</time>
      </trkpt>
      <trkpt lat="45.96718" lon="4.43157">
        <ele>806.074890137</ele>
        <time>2016-01-28T13:49:34.099Z</time>
      </trkpt>
      <trkpt lat="45.96715" lon="4.43145">
        <ele>805.149658203</ele>
        <time>2016-01-28T13:49:41.128Z</time>
      </trkpt>
      <trkpt lat="45.96715" lon="4.43143">
        <ele>804.966552734</ele>
        <time>2016-01-28T13:49:42.102Z</time>
      </trkpt>
      <trkpt lat="45.96712" lon="4.43131">
        <ele>804.043945312</ele>
        <time>2016-01-28T13:49:49.114Z</time>
      </trkpt>
      <trkpt lat="45.96712" lon="4.4313">
        <ele>803.96081543</ele>
        <time>2016-01-28T13:49:50.092Z</time>
      </trkpt>
      <trkpt lat="45.96709" lon="4.43117">
        <ele>803.657714844</ele>
        <time>2016-01-28T13:49:57.139Z</time>
      </trkpt>
      <trkpt lat="45.96709" lon="4.43116">
        <ele>803.563110352</ele>
        <time>2016-01-28T13:49:58.099Z</time>
      </trkpt>
      <trkpt lat="45.96706" lon="4.43105">
        <ele>802.433227539</ele>
        <time>2016-01-28T13:50:06.13Z</time>
      </trkpt>
      <trkpt lat="45.96706" lon="4.43104">
        <ele>802.422851562</ele>
        <time>2016-01-28T13:50:07.089Z</time>
      </trkpt>
      <trkpt lat="45.96702" lon="4.43093">
        <ele>796.513549805</ele>
        <time>2016-01-28T13:51:02.105Z</time>
      </trkpt>
      <trkpt lat="45.96702" lon="4.43091">
        <ele>796.351379395</ele>
        <time>2016-01-28T13:51:03.082Z</time>
      </trkpt>
      <trkpt lat="45.96703" lon="4.43081">
        <ele>794.392272949</ele>
        <time>2016-01-28T13:52:02.116Z</time>
      </trkpt>
      <trkpt lat="45.96704" lon="4.43078">
        <ele>794.18170166</ele>
        <time>2016-01-28T13:52:03.075Z</time>
      </trkpt>
      <trkpt lat="45.96705" lon="4.43066">
        <ele>792.997619629</ele>
        <time>2016-01-28T13:52:09.094Z</time>
      </trkpt>
      <trkpt lat="45.96704" lon="4.43064">
        <ele>792.937011719</ele>
        <time>2016-01-28T13:52:10.076Z</time>
      </trkpt>
      <trkpt lat="45.967" lon="4.43053">
        <ele>794.208740234</ele>
        <time>2016-01-28T13:52:20.118Z</time>
      </trkpt>
      <trkpt lat="45.96699" lon="4.43052">
        <ele>794.252380371</ele>
        <time>2016-01-28T13:52:21.071Z</time>
      </trkpt>
      <trkpt lat="45.96694" lon="4.43042">
        <ele>792.392333984</ele>
        <time>2016-01-28T13:52:30.115Z</time>
      </trkpt>
      <trkpt lat="45.96694" lon="4.4304">
        <ele>792.209350586</ele>
        <time>2016-01-28T13:52:31.083Z</time>
      </trkpt>
      <trkpt lat="45.96692" lon="4.43028">
        <ele>791.557434082</ele>
        <time>2016-01-28T13:52:37.115Z</time>
      </trkpt>
      <trkpt lat="45.96691" lon="4.43026">
        <ele>791.452270508</ele>
        <time>2016-01-28T13:52:38.078Z</time>
      </trkpt>
      <trkpt lat="45.96689" lon="4.43014">
        <ele>791.322021484</ele>
        <time>2016-01-28T13:52:45.088Z</time>
      </trkpt>
      <trkpt lat="45.96689" lon="4.4301">
        <ele>791.085510254</ele>
        <time>2016-01-28T13:52:46.064Z</time>
      </trkpt>
      <trkpt lat="45.96687" lon="4.42998">
        <ele>789.888916016</ele>
        <time>2016-01-28T13:52:54.117Z</time>
      </trkpt>
      <trkpt lat="45.96686" lon="4.42996">
        <ele>790.006713867</ele>
        <time>2016-01-28T13:52:55.091Z</time>
      </trkpt>
      <trkpt lat="45.96683" lon="4.42987">
        <ele>789.904663086</ele>
        <time>2016-01-28T13:53:00.139Z</time>
      </trkpt>
      <trkpt lat="45.96684" lon="4.42983">
        <ele>789.855712891</ele>
        <time>2016-01-28T13:53:01.09Z</time>
      </trkpt>
      <trkpt lat="45.96682" lon="4.42971">
        <ele>790.060180664</ele>
        <time>2016-01-28T13:53:10.114Z</time>
      </trkpt>
      <trkpt lat="45.96682" lon="4.4297">
        <ele>790.181274414</ele>
        <time>2016-01-28T13:53:11.09Z</time>
      </trkpt>
      <trkpt lat="45.96681" lon="4.42958">
        <ele>789.932678223</ele>
        <time>2016-01-28T13:53:17.112Z</time>
      </trkpt>
      <trkpt lat="45.96682" lon="4.42957">
        <ele>789.862792969</ele>
        <time>2016-01-28T13:53:18.092Z</time>
      </trkpt>
      <trkpt lat="45.96686" lon="4.42947">
        <ele>789.458496094</ele>
        <time>2016-01-28T13:53:26.131Z</time>
      </trkpt>
      <trkpt lat="45.96686" lon="4.42944">
        <ele>789.356140137</ele>
        <time>2016-01-28T13:53:27.098Z</time>
      </trkpt>
      <trkpt lat="45.96688" lon="4.42934">
        <ele>787.78704834</ele>
        <time>2016-01-28T13:53:35.13Z</time>
      </trkpt>
      <trkpt lat="45.96688" lon="4.42931">
        <ele>787.737731934</ele>
        <time>2016-01-28T13:53:36.084Z</time>
      </trkpt>
      <trkpt lat="45.96687" lon="4.42919">
        <ele>788.387329102</ele>
        <time>2016-01-28T13:53:47.118Z</time>
      </trkpt>
      <trkpt lat="45.96688" lon="4.42915">
        <ele>788.316345215</ele>
        <time>2016-01-28T13:53:48.095Z</time>
      </trkpt>
      <trkpt lat="45.96689" lon="4.42903">
        <ele>787.219787598</ele>
        <time>2016-01-28T13:53:53.119Z</time>
      </trkpt>
      <trkpt lat="45.96689" lon="4.42902">
        <ele>786.945922852</ele>
        <time>2016-01-28T13:53:54.085Z</time>
      </trkpt>
      <trkpt lat="45.96689" lon="4.42892">
        <ele>784.820861816</ele>
        <time>2016-01-28T13:54:02.117Z</time>
      </trkpt>
      <trkpt lat="45.96688" lon="4.42889">
        <ele>784.578857422</ele>
        <time>2016-01-28T13:54:03.085Z</time>
      </trkpt>
      <trkpt lat="45.96688" lon="4.42876">
        <ele>782.919494629</ele>
        <time>2016-01-28T13:54:13.122Z</time>
      </trkpt>
      <trkpt lat="45.96688" lon="4.42874">
        <ele>782.69329834</ele>
        <time>2016-01-28T13:54:14.095Z</time>
      </trkpt>
      <trkpt lat="45.96687" lon="4.42862">
        <ele>781.418334961</ele>
        <time>2016-01-28T13:54:18.128Z</time>
      </trkpt>
      <trkpt lat="45.96686" lon="4.42859">
        <ele>781.159240723</ele>
        <time>2016-01-28T13:54:19.1Z</time>
      </trkpt>
      <trkpt lat="45.96685" lon="4.42848">
        <ele>779.56237793</ele>
        <time>2016-01-28T13:54:24.12Z</time>
      </trkpt>
      <trkpt lat="45.96685" lon="4.42846">
        <ele>779.23651123</ele>
        <time>2016-01-28T13:54:25.097Z</time>
      </trkpt>
      <trkpt lat="45.96684" lon="4.42834">
        <ele>777.182373047</ele>
        <time>2016-01-28T13:54:35.122Z</time>
      </trkpt>
      <trkpt lat="45.96684" lon="4.42833">
        <ele>777.027770996</ele>
        <time>2016-01-28T13:54:36.097Z</time>
      </trkpt>
      <trkpt lat="45.96685" lon="4.4282">
        <ele>775.741027832</ele>
        <time>2016-01-28T13:54:43.233Z</time>
      </trkpt>
      <trkpt lat="45.96686" lon="4.42819">
        <ele>775.530944824</ele>
        <time>2016-01-28T13:54:44.091Z</time>
      </trkpt>
      <trkpt lat="45.96689" lon="4.42807">
        <ele>774.257568359</ele>
        <time>2016-01-28T13:54:51.123Z</time>
      </trkpt>
      <trkpt lat="45.96689" lon="4.42805">
        <ele>773.916687012</ele>
        <time>2016-01-28T13:54:52.099Z</time>
      </trkpt>
      <trkpt lat="45.96691" lon="4.42793">
        <ele>771.393249512</ele>
        <time>2016-01-28T13:54:59.111Z</time>
      </trkpt>
      <trkpt lat="45.96692" lon="4.42792">
        <ele>771.104064941</ele>
        <time>2016-01-28T13:55:00.098Z</time>
      </trkpt>
      <trkpt lat="45.96695" lon="4.42781">
        <ele>768.741027832</ele>
        <time>2016-01-28T13:55:13.126Z</time>
      </trkpt>
      <trkpt lat="45.96696" lon="4.42779">
        <ele>768.563110352</ele>
        <time>2016-01-28T13:55:14.099Z</time>
      </trkpt>
      <trkpt lat="45.96697" lon="4.42768">
        <ele>766.548583984</ele>
        <time>2016-01-28T13:55:23.102Z</time>
      </trkpt>
      <trkpt lat="45.96698" lon="4.42765">
        <ele>766.368225098</ele>
        <time>2016-01-28T13:55:24.109Z</time>
      </trkpt>
      <trkpt lat="45.96702" lon="4.42754">
        <ele>765.374572754</ele>
        <time>2016-01-28T13:55:40.132Z</time>
      </trkpt>
      <trkpt lat="45.96702" lon="4.42752">
        <ele>765.334533691</ele>
        <time>2016-01-28T13:55:41.101Z</time>
      </trkpt>
      <trkpt lat="45.96707" lon="4.42743">
        <ele>765.8671875</ele>
        <time>2016-01-28T13:55:56.102Z</time>
      </trkpt>
      <trkpt lat="45.96709" lon="4.42742">
        <ele>765.91229248</ele>
        <time>2016-01-28T13:55:57.067Z</time>
      </trkpt>
      <trkpt lat="45.96715" lon="4.42736">
        <ele>765.977600098</ele>
        <time>2016-01-28T13:56:00.11Z</time>
      </trkpt>
      <trkpt lat="45.96717" lon="4.42734">
        <ele>765.967285156</ele>
        <time>2016-01-28T13:56:01.063Z</time>
      </trkpt>
      <trkpt lat="45.96723" lon="4.42727">
        <ele>765.743469238</ele>
        <time>2016-01-28T13:56:04.085Z</time>
      </trkpt>
      <trkpt lat="45.96723" lon="4.42725">
        <ele>765.74230957</ele>
        <time>2016-01-28T13:56:05.068Z</time>
      </trkpt>
      <trkpt lat="45.96725" lon="4.42713">
        <ele>765.768371582</ele>
        <time>2016-01-28T13:56:12.107Z</time>
      </trkpt>
      <trkpt lat="45.96725" lon="4.42712">
        <ele>765.764404297</ele>
        <time>2016-01-28T13:56:13.069Z</time>
      </trkpt>
      <trkpt lat="45.9673" lon="4.42703">
        <ele>765.500488281</ele>
        <time>2016-01-28T13:56:19.109Z</time>
      </trkpt>
      <trkpt lat="45.96731" lon="4.427">
        <ele>765.447692871</ele>
        <time>2016-01-28T13:56:20.068Z</time>
      </trkpt>
      <trkpt lat="45.96736" lon="4.4269">
        <ele>765.387084961</ele>
        <time>2016-01-28T13:56:26.095Z</time>
      </trkpt>
      <trkpt lat="45.96737" lon="4.42688">
        <ele>765.373657227</ele>
        <time>2016-01-28T13:56:27.068Z</time>
      </trkpt>
      <trkpt lat="45.96742" lon="4.42679">
        <ele>765.264465332</ele>
        <time>2016-01-28T13:56:34.106Z</time>
      </trkpt>
      <trkpt lat="45.96743" lon="4.42678">
        <ele>765.29699707</ele>
        <time>2016-01-28T13:56:35.075Z</time>
      </trkpt>
      <trkpt lat="45.96749" lon="4.4267">
        <ele>764.43951416</ele>
        <time>2016-01-28T13:56:44.104Z</time>
      </trkpt>
      <trkpt lat="45.96751" lon="4.42668">
        <ele>764.175476074</ele>
        <time>2016-01-28T13:56:45.074Z</time>
      </trkpt>
      <trkpt lat="45.96756" lon="4.42661">
        <ele>763.348327637</ele>
        <time>2016-01-28T13:56:48.129Z</time>
      </trkpt>
      <trkpt lat="45.96757" lon="4.42659">
        <ele>763.006713867</ele>
        <time>2016-01-28T13:56:49.083Z</time>
      </trkpt>
      <trkpt lat="45.96762" lon="4.4265">
        <ele>761.296813965</ele>
        <time>2016-01-28T13:56:54.203Z</time>
      </trkpt>
      <trkpt lat="45.96763" lon="4.42648">
        <ele>761.002868652</ele>
        <time>2016-01-28T13:56:55.076Z</time>
      </trkpt>
      <trkpt lat="45.96768" lon="4.42639">
        <ele>759.519836426</ele>
        <time>2016-01-28T13:57:01.084Z</time>
      </trkpt>
      <trkpt lat="45.96768" lon="4.42638">
        <ele>759.246398926</ele>
        <time>2016-01-28T13:57:02.074Z</time>
      </trkpt>
      <trkpt lat="45.96772" lon="4.42627">
        <ele>757.748046875</ele>
        <time>2016-01-28T13:57:09.109Z</time>
      </trkpt>
      <trkpt lat="45.96772" lon="4.42625">
        <ele>757.609802246</ele>
        <time>2016-01-28T13:57:10.076Z</time>
      </trkpt>
      <trkpt lat="45.96776" lon="4.42615">
        <ele>756.328796387</ele>
        <time>2016-01-28T13:57:18.102Z</time>
      </trkpt>
      <trkpt lat="45.96777" lon="4.42614">
        <ele>756.096435547</ele>
        <time>2016-01-28T13:57:19.075Z</time>
      </trkpt>
      <trkpt lat="45.96779" lon="4.42603">
        <ele>754.940795898</ele>
        <time>2016-01-28T13:57:25.111Z</time>
      </trkpt>
      <trkpt lat="45.9678" lon="4.426">
        <ele>754.753112793</ele>
        <time>2016-01-28T13:57:26.075Z</time>
      </trkpt>
      <trkpt lat="45.96786" lon="4.42592">
        <ele>753.654602051</ele>
        <time>2016-01-28T13:57:31.103Z</time>
      </trkpt>
      <trkpt lat="45.96786" lon="4.4259">
        <ele>753.558837891</ele>
        <time>2016-01-28T13:57:32.076Z</time>
      </trkpt>
      <trkpt lat="45.96792" lon="4.42582">
        <ele>752.274353027</ele>
        <time>2016-01-28T13:57:39.098Z</time>
      </trkpt>
      <trkpt lat="45.96792" lon="4.4258">
        <ele>752.001342773</ele>
        <time>2016-01-28T13:57:40.08Z</time>
      </trkpt>
      <trkpt lat="45.96797" lon="4.42571">
        <ele>750.32043457</ele>
        <time>2016-01-28T13:57:47.105Z</time>
      </trkpt>
      <trkpt lat="45.96798" lon="4.42569">
        <ele>750.106018066</ele>
        <time>2016-01-28T13:57:48.09Z</time>
      </trkpt>
      <trkpt lat="45.96801" lon="4.42558">
        <ele>748.228881836</ele>
        <time>2016-01-28T13:57:58.117Z</time>
      </trkpt>
      <trkpt lat="45.96802" lon="4.42556">
        <ele>747.977844238</ele>
        <time>2016-01-28T13:57:59.089Z</time>
      </trkpt>
      <trkpt lat="45.96805" lon="4.42547">
        <ele>746.446838379</ele>
        <time>2016-01-28T13:58:07.115Z</time>
      </trkpt>
      <trkpt lat="45.96806" lon="4.42545">
        <ele>746.280090332</ele>
        <time>2016-01-28T13:58:08.088Z</time>
      </trkpt>
      <trkpt lat="45.96811" lon="4.42536">
        <ele>744.65020752</ele>
        <time>2016-01-28T13:58:14.105Z</time>
      </trkpt>
      <trkpt lat="45.96812" lon="4.42534">
        <ele>744.339416504</ele>
        <time>2016-01-28T13:58:15.089Z</time>
      </trkpt>
      <trkpt lat="45.9682" lon="4.4253">
        <ele>740.184082031</ele>
        <time>2016-01-28T13:58:32.228Z</time>
      </trkpt>
      <trkpt lat="45.96821" lon="4.4253">
        <ele>740.064941406</ele>
        <time>2016-01-28T13:58:33.092Z</time>
      </trkpt>
      <trkpt lat="45.96822" lon="4.42543">
        <ele>739.774169922</ele>
        <time>2016-01-28T13:58:46.118Z</time>
      </trkpt>
      <trkpt lat="45.96822" lon="4.42548">
        <ele>739.81036377</ele>
        <time>2016-01-28T13:58:47.092Z</time>
      </trkpt>
      <trkpt lat="45.96822" lon="4.42559">
        <ele>740.25378418</ele>
        <time>2016-01-28T13:58:53.111Z</time>
      </trkpt>
      <trkpt lat="45.96822" lon="4.42561">
        <ele>740.190124512</ele>
        <time>2016-01-28T13:58:54.097Z</time>
      </trkpt>
      <trkpt lat="45.96818" lon="4.42572">
        <ele>739.194458008</ele>
        <time>2016-01-28T13:59:02.116Z</time>
      </trkpt>
      <trkpt lat="45.96817" lon="4.42574">
        <ele>739.124572754</ele>
        <time>2016-01-28T13:59:03.094Z</time>
      </trkpt>
      <trkpt lat="45.96813" lon="4.42585">
        <ele>738.414855957</ele>
        <time>2016-01-28T13:59:08.147Z</time>
      </trkpt>
      <trkpt lat="45.96813" lon="4.42588">
        <ele>738.29888916</ele>
        <time>2016-01-28T13:59:09.094Z</time>
      </trkpt>
      <trkpt lat="45.9681" lon="4.42598">
        <ele>737.478759766</ele>
        <time>2016-01-28T13:59:14.118Z</time>
      </trkpt>
      <trkpt lat="45.96809" lon="4.426">
        <ele>737.253173828</ele>
        <time>2016-01-28T13:59:15.094Z</time>
      </trkpt>
      <trkpt lat="45.96806" lon="4.42611">
        <ele>736.401000977</ele>
        <time>2016-01-28T13:59:21.116Z</time>
      </trkpt>
      <trkpt lat="45.96806" lon="4.42612">
        <ele>736.311096191</ele>
        <time>2016-01-28T13:59:22.102Z</time>
      </trkpt>
      <trkpt lat="45.96806" lon="4.42624">
        <ele>736.068603516</ele>
        <time>2016-01-28T13:59:30.119Z</time>
      </trkpt>
      <trkpt lat="45.96806" lon="4.42627">
        <ele>736.127624512</ele>
        <time>2016-01-28T13:59:31.097Z</time>
      </trkpt>
      <trkpt lat="45.96803" lon="4.42638">
        <ele>734.434082031</ele>
        <time>2016-01-28T13:59:44.116Z</time>
      </trkpt>
      <trkpt lat="45.96803" lon="4.4264">
        <ele>734.340332031</ele>
        <time>2016-01-28T13:59:45.103Z</time>
      </trkpt>
      <trkpt lat="45.96802" lon="4.42652">
        <ele>733.424743652</ele>
        <time>2016-01-28T13:59:53.12Z</time>
      </trkpt>
      <trkpt lat="45.96803" lon="4.42654">
        <ele>733.334960938</ele>
        <time>2016-01-28T13:59:54.097Z</time>
      </trkpt>
      <trkpt lat="45.96805" lon="4.42666">
        <ele>732.989868164</ele>
        <time>2016-01-28T13:59:59.118Z</time>
      </trkpt>
      <trkpt lat="45.96805" lon="4.42669">
        <ele>732.966674805</ele>
        <time>2016-01-28T14:00:00.097Z</time>
      </trkpt>
      <trkpt lat="45.96807" lon="4.42682">
        <ele>732.230957031</ele>
        <time>2016-01-28T14:00:06.128Z</time>
      </trkpt>
      <trkpt lat="45.96807" lon="4.42684">
        <ele>732.028076172</ele>
        <time>2016-01-28T14:00:07.1Z</time>
      </trkpt>
      <trkpt lat="45.9681" lon="4.42695">
        <ele>729.750915527</ele>
        <time>2016-01-28T14:00:13.131Z</time>
      </trkpt>
      <trkpt lat="45.96811" lon="4.42696">
        <ele>729.297424316</ele>
        <time>2016-01-28T14:00:14.1Z</time>
      </trkpt>
      <trkpt lat="45.96815" lon="4.42704">
        <ele>728.031738281</ele>
        <time>2016-01-28T14:00:19.138Z</time>
      </trkpt>
      <trkpt lat="45.96816" lon="4.42707">
        <ele>727.749450684</ele>
        <time>2016-01-28T14:00:20.084Z</time>
      </trkpt>
      <trkpt lat="45.96822" lon="4.42716">
        <ele>725.852416992</ele>
        <time>2016-01-28T14:00:26.13Z</time>
      </trkpt>
      <trkpt lat="45.96823" lon="4.42718">
        <ele>725.491699219</ele>
        <time>2016-01-28T14:00:27.102Z</time>
      </trkpt>
      <trkpt lat="45.96828" lon="4.42725">
        <ele>720.385620117</ele>
        <time>2016-01-28T14:00:53.232Z</time>
      </trkpt>
      <trkpt lat="45.9683" lon="4.42728">
        <ele>720.004821777</ele>
        <time>2016-01-28T14:00:54.104Z</time>
      </trkpt>
      <trkpt lat="45.96837" lon="4.42733">
        <ele>715.720397949</ele>
        <time>2016-01-28T14:03:23.116Z</time>
      </trkpt>
      <trkpt lat="45.96839" lon="4.42737">
        <ele>715.745910645</ele>
        <time>2016-01-28T14:03:24.092Z</time>
      </trkpt>
      <trkpt lat="45.96843" lon="4.42746">
        <ele>712.667907715</ele>
        <time>2016-01-28T14:03:56.127Z</time>
      </trkpt>
      <trkpt lat="45.96844" lon="4.42748">
        <ele>712.51739502</ele>
        <time>2016-01-28T14:03:57.09Z</time>
      </trkpt>
      <trkpt lat="45.96849" lon="4.42755">
        <ele>712.11529541</ele>
        <time>2016-01-28T14:04:04.111Z</time>
      </trkpt>
      <trkpt lat="45.9685" lon="4.42756">
        <ele>712.294677734</ele>
        <time>2016-01-28T14:04:05.089Z</time>
      </trkpt>
      <trkpt lat="45.96857" lon="4.42764">
        <ele>712.657775879</ele>
        <time>2016-01-28T14:04:09.122Z</time>
      </trkpt>
      <trkpt lat="45.96858" lon="4.42765">
        <ele>712.564086914</ele>
        <time>2016-01-28T14:04:10.089Z</time>
      </trkpt>
      <trkpt lat="45.96861" lon="4.42775">
        <ele>711.36114502</ele>
        <time>2016-01-28T14:04:17.145Z</time>
      </trkpt>
      <trkpt lat="45.96862" lon="4.42777">
        <ele>711.196533203</ele>
        <time>2016-01-28T14:04:18.09Z</time>
      </trkpt>
      <trkpt lat="45.96868" lon="4.42786">
        <ele>710.619628906</ele>
        <time>2016-01-28T14:04:23.116Z</time>
      </trkpt>
      <trkpt lat="45.9687" lon="4.42787">
        <ele>710.515197754</ele>
        <time>2016-01-28T14:04:24.08Z</time>
      </trkpt>
      <trkpt lat="45.96877" lon="4.42792">
        <ele>709.89666748</ele>
        <time>2016-01-28T14:04:29.109Z</time>
      </trkpt>
      <trkpt lat="45.96878" lon="4.42793">
        <ele>709.927612305</ele>
        <time>2016-01-28T14:04:30.09Z</time>
      </trkpt>
      <trkpt lat="45.96886" lon="4.42799">
        <ele>711.050537109</ele>
        <time>2016-01-28T14:04:42.119Z</time>
      </trkpt>
      <trkpt lat="45.96886" lon="4.42799">
        <ele>711.084228516</ele>
        <time>2016-01-28T14:04:43.099Z</time>
      </trkpt>
      <trkpt lat="45.96894" lon="4.42802">
        <ele>714.230041504</ele>
        <time>2016-01-28T14:04:55.133Z</time>
      </trkpt>
      <trkpt lat="45.96895" lon="4.42802">
        <ele>714.288208008</ele>
        <time>2016-01-28T14:04:56.099Z</time>
      </trkpt>
      <trkpt lat="45.96903" lon="4.42802">
        <ele>714.670654297</ele>
        <time>2016-01-28T14:05:01.127Z</time>
      </trkpt>
      <trkpt lat="45.96904" lon="4.42801">
        <ele>714.722412109</ele>
        <time>2016-01-28T14:05:02.097Z</time>
      </trkpt>
      <trkpt lat="45.96909" lon="4.42801">
        <ele>715.001098633</ele>
        <time>2016-01-28T14:05:06.141Z</time>
      </trkpt>
      <trkpt lat="45.96917" lon="4.42802">
        <ele>715.063293457</ele>
        <time>2016-01-28T14:05:07.099Z</time>
      </trkpt>
      <trkpt lat="45.96925" lon="4.42802">
        <ele>715.046020508</ele>
        <time>2016-01-28T14:05:13.109Z</time>
      </trkpt>
      <trkpt lat="45.96927" lon="4.42802">
        <ele>715.01550293</ele>
        <time>2016-01-28T14:05:14.1Z</time>
      </trkpt>
      <trkpt lat="45.96934" lon="4.428">
        <ele>714.785461426</ele>
        <time>2016-01-28T14:05:22.128Z</time>
      </trkpt>
      <trkpt lat="45.96936" lon="4.42799">
        <ele>714.763305664</ele>
        <time>2016-01-28T14:05:23.099Z</time>
      </trkpt>
      <trkpt lat="45.96943" lon="4.42793">
        <ele>714.292175293</ele>
        <time>2016-01-28T14:05:28.122Z</time>
      </trkpt>
      <trkpt lat="45.96944" lon="4.42792">
        <ele>714.248779297</ele>
        <time>2016-01-28T14:05:29.102Z</time>
      </trkpt>
      <trkpt lat="45.96953" lon="4.42791">
        <ele>713.663208008</ele>
        <time>2016-01-28T14:05:36.119Z</time>
      </trkpt>
      <trkpt lat="45.96954" lon="4.4279">
        <ele>713.663574219</ele>
        <time>2016-01-28T14:05:37.098Z</time>
      </trkpt>
      <trkpt lat="45.96962" lon="4.42788">
        <ele>713.800476074</ele>
        <time>2016-01-28T14:05:42.128Z</time>
      </trkpt>
      <trkpt lat="45.96963" lon="4.42787">
        <ele>713.923522949</ele>
        <time>2016-01-28T14:05:43.098Z</time>
      </trkpt>
      <trkpt lat="45.96972" lon="4.42784">
        <ele>714.127441406</ele>
        <time>2016-01-28T14:05:49.128Z</time>
      </trkpt>
      <trkpt lat="45.96973" lon="4.42785">
        <ele>714.097045898</ele>
        <time>2016-01-28T14:05:50.079Z</time>
      </trkpt>
      <trkpt lat="45.96981" lon="4.42783">
        <ele>713.853027344</ele>
        <time>2016-01-28T14:05:56.129Z</time>
      </trkpt>
      <trkpt lat="45.96988" lon="4.42783">
        <ele>713.813598633</ele>
        <time>2016-01-28T14:06:01.609Z</time>
      </trkpt>
      <trkpt lat="45.96996" lon="4.42783">
        <ele>712.306091309</ele>
        <time>2016-01-28T14:06:21.129Z</time>
      </trkpt>
      <trkpt lat="45.97007" lon="4.42782">
        <ele>712.274169922</ele>
        <time>2016-01-28T14:06:22.1Z</time>
      </trkpt>
      <trkpt lat="45.97013" lon="4.42779">
        <ele>712.316040039</ele>
        <time>2016-01-28T14:06:23.233Z</time>
      </trkpt>
      <trkpt lat="45.97016" lon="4.42778">
        <ele>712.484313965</ele>
        <time>2016-01-28T14:06:24.07Z</time>
      </trkpt>
      <trkpt lat="45.97024" lon="4.42775">
        <ele>713.801757812</ele>
        <time>2016-01-28T14:06:32.115Z</time>
      </trkpt>
      <trkpt lat="45.97025" lon="4.42774">
        <ele>713.868469238</ele>
        <time>2016-01-28T14:06:33.093Z</time>
      </trkpt>
      <trkpt lat="45.97033" lon="4.42773">
        <ele>714.342895508</ele>
        <time>2016-01-28T14:06:38.1Z</time>
      </trkpt>
      <trkpt lat="45.97034" lon="4.42773">
        <ele>714.490478516</ele>
        <time>2016-01-28T14:06:39.131Z</time>
      </trkpt>
      <trkpt lat="45.97042" lon="4.4277">
        <ele>715.104675293</ele>
        <time>2016-01-28T14:06:45.096Z</time>
      </trkpt>
      <trkpt lat="45.97044" lon="4.42769">
        <ele>715.162597656</ele>
        <time>2016-01-28T14:06:46.079Z</time>
      </trkpt>
      <trkpt lat="45.97052" lon="4.42765">
        <ele>715.467895508</ele>
        <time>2016-01-28T14:06:53.089Z</time>
      </trkpt>
      <trkpt lat="45.97053" lon="4.42765">
        <ele>715.499267578</ele>
        <time>2016-01-28T14:06:54.069Z</time>
      </trkpt>
      <trkpt lat="45.97062" lon="4.42765">
        <ele>716.425476074</ele>
        <time>2016-01-28T14:07:02.099Z</time>
      </trkpt>
      <trkpt lat="45.97063" lon="4.42765">
        <ele>716.566345215</ele>
        <time>2016-01-28T14:07:03.071Z</time>
      </trkpt>
      <trkpt lat="45.97072" lon="4.42763">
        <ele>717.465026855</ele>
        <time>2016-01-28T14:07:10.098Z</time>
      </trkpt>
      <trkpt lat="45.97073" lon="4.42763">
        <ele>717.531494141</ele>
        <time>2016-01-28T14:07:11.084Z</time>
      </trkpt>
      <trkpt lat="45.97081" lon="4.42758">
        <ele>717.828796387</ele>
        <time>2016-01-28T14:07:17.117Z</time>
      </trkpt>
      <trkpt lat="45.97082" lon="4.42758">
        <ele>717.916015625</ele>
        <time>2016-01-28T14:07:18.08Z</time>
      </trkpt>
      <trkpt lat="45.9709" lon="4.42755">
        <ele>717.690307617</ele>
        <time>2016-01-28T14:07:27.201Z</time>
      </trkpt>
      <trkpt lat="45.97091" lon="4.42755">
        <ele>717.602050781</ele>
        <time>2016-01-28T14:07:28.089Z</time>
      </trkpt>
      <trkpt lat="45.97098" lon="4.42757">
        <ele>716.922973633</ele>
        <time>2016-01-28T14:07:36.106Z</time>
      </trkpt>
      <trkpt lat="45.97101" lon="4.42759">
        <ele>716.786987305</ele>
        <time>2016-01-28T14:07:37.069Z</time>
      </trkpt>
      <trkpt lat="45.97108" lon="4.42762">
        <ele>716.29296875</ele>
        <time>2016-01-28T14:07:41.093Z</time>
      </trkpt>
      <trkpt lat="45.97109" lon="4.42762">
        <ele>716.211791992</ele>
        <time>2016-01-28T14:07:42.078Z</time>
      </trkpt>
      <trkpt lat="45.97117" lon="4.42766">
        <ele>715.648498535</ele>
        <time>2016-01-28T14:07:48.104Z</time>
      </trkpt>
      <trkpt lat="45.97118" lon="4.42767">
        <ele>715.603393555</ele>
        <time>2016-01-28T14:07:49.086Z</time>
      </trkpt>
      <trkpt lat="45.97127" lon="4.42769">
        <ele>715.25769043</ele>
        <time>2016-01-28T14:07:58.106Z</time>
      </trkpt>
      <trkpt lat="45.97128" lon="4.42769">
        <ele>715.296813965</ele>
        <time>2016-01-28T14:07:59.083Z</time>
      </trkpt>
      <trkpt lat="45.97136" lon="4.42772">
        <ele>715.414611816</ele>
        <time>2016-01-28T14:08:06.142Z</time>
      </trkpt>
      <trkpt lat="45.97137" lon="4.42773">
        <ele>715.452148438</ele>
        <time>2016-01-28T14:08:07.074Z</time>
      </trkpt>
      <trkpt lat="45.97145" lon="4.42775">
        <ele>715.661315918</ele>
        <time>2016-01-28T14:08:14.117Z</time>
      </trkpt>
      <trkpt lat="45.97146" lon="4.42775">
        <ele>715.682434082</ele>
        <time>2016-01-28T14:08:15.087Z</time>
      </trkpt>
      <trkpt lat="45.97154" lon="4.42779">
        <ele>715.540893555</ele>
        <time>2016-01-28T14:08:19.108Z</time>
      </trkpt>
      <trkpt lat="45.97155" lon="4.4278">
        <ele>715.51361084</ele>
        <time>2016-01-28T14:08:20.082Z</time>
      </trkpt>
      <trkpt lat="45.97164" lon="4.42783">
        <ele>714.967895508</ele>
        <time>2016-01-28T14:08:28.111Z</time>
      </trkpt>
      <trkpt lat="45.97165" lon="4.42783">
        <ele>714.915588379</ele>
        <time>2016-01-28T14:08:29.086Z</time>
      </trkpt>
      <trkpt lat="45.97173" lon="4.42786">
        <ele>714.029907227</ele>
        <time>2016-01-28T14:08:37.119Z</time>
      </trkpt>
      <trkpt lat="45.97175" lon="4.42787">
        <ele>713.971801758</ele>
        <time>2016-01-28T14:08:38.087Z</time>
      </trkpt>
      <trkpt lat="45.97183" lon="4.4279">
        <ele>713.041931152</ele>
        <time>2016-01-28T14:08:46.11Z</time>
      </trkpt>
      <trkpt lat="45.97184" lon="4.4279">
        <ele>712.933044434</ele>
        <time>2016-01-28T14:08:47.088Z</time>
      </trkpt>
      <trkpt lat="45.97192" lon="4.42795">
        <ele>712.32409668</ele>
        <time>2016-01-28T14:08:53.11Z</time>
      </trkpt>
      <trkpt lat="45.97193" lon="4.42795">
        <ele>712.14465332</ele>
        <time>2016-01-28T14:08:54.077Z</time>
      </trkpt>
      <trkpt lat="45.97202" lon="4.42798">
        <ele>710.899719238</ele>
        <time>2016-01-28T14:09:01.097Z</time>
      </trkpt>
      <trkpt lat="45.97203" lon="4.42799">
        <ele>710.774780273</ele>
        <time>2016-01-28T14:09:02.081Z</time>
      </trkpt>
      <trkpt lat="45.97209" lon="4.42808">
        <ele>710.621582031</ele>
        <time>2016-01-28T14:09:12.108Z</time>
      </trkpt>
      <trkpt lat="45.97209" lon="4.42809">
        <ele>710.707763672</ele>
        <time>2016-01-28T14:09:13.089Z</time>
      </trkpt>
      <trkpt lat="45.97212" lon="4.42819">
        <ele>711.072143555</ele>
        <time>2016-01-28T14:09:18.115Z</time>
      </trkpt>
      <trkpt lat="45.97212" lon="4.42821">
        <ele>711.056396484</ele>
        <time>2016-01-28T14:09:19.089Z</time>
      </trkpt>
      <trkpt lat="45.97215" lon="4.42832">
        <ele>712.223937988</ele>
        <time>2016-01-28T14:09:28.2Z</time>
      </trkpt>
      <trkpt lat="45.97216" lon="4.42834">
        <ele>712.407104492</ele>
        <time>2016-01-28T14:09:29.092Z</time>
      </trkpt>
      <trkpt lat="45.97217" lon="4.42846">
        <ele>714.105895996</ele>
        <time>2016-01-28T14:09:37.128Z</time>
      </trkpt>
      <trkpt lat="45.97218" lon="4.42848">
        <ele>714.304321289</ele>
        <time>2016-01-28T14:09:38.099Z</time>
      </trkpt>
      <trkpt lat="45.97221" lon="4.42858">
        <ele>715.192993164</ele>
        <time>2016-01-28T14:09:45.117Z</time>
      </trkpt>
      <trkpt lat="45.97222" lon="4.42859">
        <ele>715.389770508</ele>
        <time>2016-01-28T14:09:46.094Z</time>
      </trkpt>
      <trkpt lat="45.97227" lon="4.42869">
        <ele>715.764221191</ele>
        <time>2016-01-28T14:09:51.111Z</time>
      </trkpt>
      <trkpt lat="45.97227" lon="4.42871">
        <ele>715.81842041</ele>
        <time>2016-01-28T14:09:52.092Z</time>
      </trkpt>
      <trkpt lat="45.97231" lon="4.42883">
        <ele>716.105651855</ele>
        <time>2016-01-28T14:09:58.114Z</time>
      </trkpt>
      <trkpt lat="45.97232" lon="4.42884">
        <ele>716.163085938</ele>
        <time>2016-01-28T14:09:59.095Z</time>
      </trkpt>
      <trkpt lat="45.97236" lon="4.42893">
        <ele>716.408081055</ele>
        <time>2016-01-28T14:10:05.118Z</time>
      </trkpt>
      <trkpt lat="45.97237" lon="4.42894">
        <ele>716.406860352</ele>
        <time>2016-01-28T14:10:06.093Z</time>
      </trkpt>
      <trkpt lat="45.97243" lon="4.42903">
        <ele>715.936523438</ele>
        <time>2016-01-28T14:10:13.28Z</time>
      </trkpt>
      <trkpt lat="45.97245" lon="4.42906">
        <ele>715.816772461</ele>
        <time>2016-01-28T14:10:14.083Z</time>
      </trkpt>
      <trkpt lat="45.9725" lon="4.42915">
        <ele>715.006652832</ele>
        <time>2016-01-28T14:10:19.117Z</time>
      </trkpt>
      <trkpt lat="45.97251" lon="4.42916">
        <ele>714.817504883</ele>
        <time>2016-01-28T14:10:20.094Z</time>
      </trkpt>
      <trkpt lat="45.97255" lon="4.42926">
        <ele>714.207763672</ele>
        <time>2016-01-28T14:10:29.116Z</time>
      </trkpt>
      <trkpt lat="45.97256" lon="4.42929">
        <ele>714.103637695</ele>
        <time>2016-01-28T14:10:30.099Z</time>
      </trkpt>
      <trkpt lat="45.9726" lon="4.42938">
        <ele>713.647644043</ele>
        <time>2016-01-28T14:10:36.119Z</time>
      </trkpt>
      <trkpt lat="45.97261" lon="4.4294">
        <ele>713.518432617</ele>
        <time>2016-01-28T14:10:37.097Z</time>
      </trkpt>
      <trkpt lat="45.97266" lon="4.42949">
        <ele>712.363830566</ele>
        <time>2016-01-28T14:10:44.143Z</time>
      </trkpt>
      <trkpt lat="45.97267" lon="4.4295">
        <ele>712.169494629</ele>
        <time>2016-01-28T14:10:45.103Z</time>
      </trkpt>
      <trkpt lat="45.97272" lon="4.42961">
        <ele>709.956970215</ele>
        <time>2016-01-28T14:10:55.151Z</time>
      </trkpt>
      <trkpt lat="45.97273" lon="4.42963">
        <ele>709.775756836</ele>
        <time>2016-01-28T14:10:56.103Z</time>
      </trkpt>
      <trkpt lat="45.97278" lon="4.42973">
        <ele>708.442932129</ele>
        <time>2016-01-28T14:11:05.103Z</time>
      </trkpt>
      <trkpt lat="45.97278" lon="4.42975">
        <ele>708.137268066</ele>
        <time>2016-01-28T14:11:06.104Z</time>
      </trkpt>
      <trkpt lat="45.9728" lon="4.42986">
        <ele>704.732971191</ele>
        <time>2016-01-28T14:11:16.096Z</time>
      </trkpt>
      <trkpt lat="45.97277" lon="4.4299">
        <ele>704.206787109</ele>
        <time>2016-01-28T14:11:17.098Z</time>
      </trkpt>
      <trkpt lat="45.97274" lon="4.43001">
        <ele>703.563110352</ele>
        <time>2016-01-28T14:11:19.113Z</time>
      </trkpt>
      <trkpt lat="45.97274" lon="4.4301">
        <ele>703.266174316</ele>
        <time>2016-01-28T14:11:20.099Z</time>
      </trkpt>
      <trkpt lat="45.97277" lon="4.43002">
        <ele>701.12487793</ele>
        <time>2016-01-28T14:11:27.121Z</time>
      </trkpt>
      <trkpt lat="45.9728" lon="4.42997">
        <ele>700.762084961</ele>
        <time>2016-01-28T14:11:28.101Z</time>
      </trkpt>
      <trkpt lat="45.97282" lon="4.42987">
        <ele>699.379821777</ele>
        <time>2016-01-28T14:11:35.142Z</time>
      </trkpt>
      <trkpt lat="45.97283" lon="4.42984">
        <ele>699.301757812</ele>
        <time>2016-01-28T14:11:36.1Z</time>
      </trkpt>
      <trkpt lat="45.97287" lon="4.42976">
        <ele>699.09197998</ele>
        <time>2016-01-28T14:11:41.084Z</time>
      </trkpt>
      <trkpt lat="45.97289" lon="4.42973">
        <ele>698.980712891</ele>
        <time>2016-01-28T14:11:42.078Z</time>
      </trkpt>
      <trkpt lat="45.97294" lon="4.42964">
        <ele>698.164855957</ele>
        <time>2016-01-28T14:11:46.095Z</time>
      </trkpt>
      <trkpt lat="45.97296" lon="4.42963">
        <ele>698.029541016</ele>
        <time>2016-01-28T14:11:47.078Z</time>
      </trkpt>
      <trkpt lat="45.97301" lon="4.42955">
        <ele>697.611022949</ele>
        <time>2016-01-28T14:11:52.098Z</time>
      </trkpt>
      <trkpt lat="45.97303" lon="4.42954">
        <ele>697.574951172</ele>
        <time>2016-01-28T14:11:53.075Z</time>
      </trkpt>
      <trkpt lat="45.97306" lon="4.42945">
        <ele>697.239501953</ele>
        <time>2016-01-28T14:11:58.208Z</time>
      </trkpt>
      <trkpt lat="45.97307" lon="4.42942">
        <ele>697.11138916</ele>
        <time>2016-01-28T14:11:59.077Z</time>
      </trkpt>
      <trkpt lat="45.9731" lon="4.42931">
        <ele>696.081848145</ele>
        <time>2016-01-28T14:12:05.105Z</time>
      </trkpt>
      <trkpt lat="45.9731" lon="4.42929">
        <ele>695.931030273</ele>
        <time>2016-01-28T14:12:06.08Z</time>
      </trkpt>
      <trkpt lat="45.97312" lon="4.42918">
        <ele>694.479309082</ele>
        <time>2016-01-28T14:12:11.105Z</time>
      </trkpt>
      <trkpt lat="45.97312" lon="4.42916">
        <ele>694.15234375</ele>
        <time>2016-01-28T14:12:12.078Z</time>
      </trkpt>
      <trkpt lat="45.97315" lon="4.42906">
        <ele>692.641296387</ele>
        <time>2016-01-28T14:12:21.12Z</time>
      </trkpt>
      <trkpt lat="45.97315" lon="4.42904">
        <ele>692.514099121</ele>
        <time>2016-01-28T14:12:22.073Z</time>
      </trkpt>
      <trkpt lat="45.9732" lon="4.42895">
        <ele>691.75604248</ele>
        <time>2016-01-28T14:12:30.107Z</time>
      </trkpt>
      <trkpt lat="45.97321" lon="4.42893">
        <ele>691.643493652</ele>
        <time>2016-01-28T14:12:31.071Z</time>
      </trkpt>
      <trkpt lat="45.97326" lon="4.42884">
        <ele>690.895996094</ele>
        <time>2016-01-28T14:12:36.094Z</time>
      </trkpt>
      <trkpt lat="45.97327" lon="4.42883">
        <ele>690.688415527</ele>
        <time>2016-01-28T14:12:37.072Z</time>
      </trkpt>
      <trkpt lat="45.97333" lon="4.42874">
        <ele>689.612609863</ele>
        <time>2016-01-28T14:12:44.101Z</time>
      </trkpt>
      <trkpt lat="45.97334" lon="4.42872">
        <ele>689.442749023</ele>
        <time>2016-01-28T14:12:45.073Z</time>
      </trkpt>
      <trkpt lat="45.97341" lon="4.42864">
        <ele>688.800720215</ele>
        <time>2016-01-28T14:12:52.115Z</time>
      </trkpt>
      <trkpt lat="45.97342" lon="4.42864">
        <ele>688.750366211</ele>
        <time>2016-01-28T14:12:53.079Z</time>
      </trkpt>
      <trkpt lat="45.97349" lon="4.42858">
        <ele>688.441223145</ele>
        <time>2016-01-28T14:13:00.086Z</time>
      </trkpt>
      <trkpt lat="45.9735" lon="4.42856">
        <ele>688.38092041</ele>
        <time>2016-01-28T14:13:01.077Z</time>
      </trkpt>
      <trkpt lat="45.97357" lon="4.42852">
        <ele>688.606323242</ele>
        <time>2016-01-28T14:13:07.097Z</time>
      </trkpt>
      <trkpt lat="45.97359" lon="4.42851">
        <ele>688.647338867</ele>
        <time>2016-01-28T14:13:08.075Z</time>
      </trkpt>
      <trkpt lat="45.97367" lon="4.42847">
        <ele>689.011291504</ele>
        <time>2016-01-28T14:13:15.092Z</time>
      </trkpt>
      <trkpt lat="45.97368" lon="4.42847">
        <ele>688.976013184</ele>
        <time>2016-01-28T14:13:16.08Z</time>
      </trkpt>
      <trkpt lat="45.97375" lon="4.42841">
        <ele>688.496520996</ele>
        <time>2016-01-28T14:13:22.106Z</time>
      </trkpt>
      <trkpt lat="45.97377" lon="4.42841">
        <ele>688.415039062</ele>
        <time>2016-01-28T14:13:23.085Z</time>
      </trkpt>
      <trkpt lat="45.97384" lon="4.42834">
        <ele>687.565002441</ele>
        <time>2016-01-28T14:13:29.123Z</time>
      </trkpt>
      <trkpt lat="45.97385" lon="4.42833">
        <ele>687.407226562</ele>
        <time>2016-01-28T14:13:30.084Z</time>
      </trkpt>
      <trkpt lat="45.97393" lon="4.42831">
        <ele>685.934020996</ele>
        <time>2016-01-28T14:13:37.107Z</time>
      </trkpt>
      <trkpt lat="45.97395" lon="4.42831">
        <ele>685.677856445</ele>
        <time>2016-01-28T14:13:38.07Z</time>
      </trkpt>
      <trkpt lat="45.97403" lon="4.4283">
        <ele>683.844848633</ele>
        <time>2016-01-28T14:13:44.109Z</time>
      </trkpt>
      <trkpt lat="45.97404" lon="4.4283">
        <ele>683.47833252</ele>
        <time>2016-01-28T14:13:45.085Z</time>
      </trkpt>
      <trkpt lat="45.97412" lon="4.42827">
        <ele>681.757507324</ele>
        <time>2016-01-28T14:13:52.107Z</time>
      </trkpt>
      <trkpt lat="45.97413" lon="4.42827">
        <ele>681.598876953</ele>
        <time>2016-01-28T14:13:53.097Z</time>
      </trkpt>
      <trkpt lat="45.9742" lon="4.42824">
        <ele>679.399963379</ele>
        <time>2016-01-28T14:14:02.107Z</time>
      </trkpt>
      <trkpt lat="45.97422" lon="4.42823">
        <ele>679.08013916</ele>
        <time>2016-01-28T14:14:03.088Z</time>
      </trkpt>
      <trkpt lat="45.97428" lon="4.42819">
        <ele>677.080749512</ele>
        <time>2016-01-28T14:14:11.103Z</time>
      </trkpt>
      <trkpt lat="45.9743" lon="4.42817">
        <ele>676.75994873</ele>
        <time>2016-01-28T14:14:12.088Z</time>
      </trkpt>
      <trkpt lat="45.97438" lon="4.42812">
        <ele>676.231872559</ele>
        <time>2016-01-28T14:14:17.14Z</time>
      </trkpt>
      <trkpt lat="45.9744" lon="4.42811">
        <ele>676.026916504</ele>
        <time>2016-01-28T14:14:18.091Z</time>
      </trkpt>
      <trkpt lat="45.97446" lon="4.42806">
        <ele>674.387634277</ele>
        <time>2016-01-28T14:14:29.223Z</time>
      </trkpt>
      <trkpt lat="45.97449" lon="4.42804">
        <ele>674.402282715</ele>
        <time>2016-01-28T14:14:30.077Z</time>
      </trkpt>
      <trkpt lat="45.97456" lon="4.42799">
        <ele>673.870544434</ele>
        <time>2016-01-28T14:14:34.097Z</time>
      </trkpt>
      <trkpt lat="45.97458" lon="4.42797">
        <ele>673.590454102</ele>
        <time>2016-01-28T14:14:35.083Z</time>
      </trkpt>
      <trkpt lat="45.97465" lon="4.4279">
        <ele>672.572998047</ele>
        <time>2016-01-28T14:14:41.118Z</time>
      </trkpt>
      <trkpt lat="45.97466" lon="4.42788">
        <ele>672.325195312</ele>
        <time>2016-01-28T14:14:42.089Z</time>
      </trkpt>
      <trkpt lat="45.97472" lon="4.4278">
        <ele>671.410766602</ele>
        <time>2016-01-28T14:14:48.123Z</time>
      </trkpt>
      <trkpt lat="45.97473" lon="4.42779">
        <ele>671.352294922</ele>
        <time>2016-01-28T14:14:49.09Z</time>
      </trkpt>
      <trkpt lat="45.97478" lon="4.4277">
        <ele>671.132446289</ele>
        <time>2016-01-28T14:14:54.11Z</time>
      </trkpt>
      <trkpt lat="45.97479" lon="4.42768">
        <ele>671.112426758</ele>
        <time>2016-01-28T14:14:55.092Z</time>
      </trkpt>
      <trkpt lat="45.97478" lon="4.42756">
        <ele>671.773925781</ele>
        <time>2016-01-28T14:15:02.125Z</time>
      </trkpt>
      <trkpt lat="45.97478" lon="4.42752">
        <ele>671.855041504</ele>
        <time>2016-01-28T14:15:03.093Z</time>
      </trkpt>
      <trkpt lat="45.97474" lon="4.4274">
        <ele>672.172607422</ele>
        <time>2016-01-28T14:15:07.229Z</time>
      </trkpt>
      <trkpt lat="45.97473" lon="4.42739">
        <ele>672.123901367</ele>
        <time>2016-01-28T14:15:08.119Z</time>
      </trkpt>
      <trkpt lat="45.97465" lon="4.42741">
        <ele>676.137939453</ele>
        <time>2016-01-28T14:15:39.141Z</time>
      </trkpt>
      <trkpt lat="45.97463" lon="4.42743">
        <ele>676.248168945</ele>
        <time>2016-01-28T14:15:40.095Z</time>
      </trkpt>
      <trkpt lat="45.97455" lon="4.42745">
        <ele>676.14263916</ele>
        <time>2016-01-28T14:15:44.113Z</time>
      </trkpt>
      <trkpt lat="45.97451" lon="4.42746">
        <ele>676.067504883</ele>
        <time>2016-01-28T14:15:45.094Z</time>
      </trkpt>
      <trkpt lat="45.97442" lon="4.42746">
        <ele>675.994995117</ele>
        <time>2016-01-28T14:16:06.134Z</time>
      </trkpt>
      <trkpt lat="45.9744" lon="4.42745">
        <ele>676.082763672</ele>
        <time>2016-01-28T14:16:07.098Z</time>
      </trkpt>
      <trkpt lat="45.97432" lon="4.42744">
        <ele>676.00189209</ele>
        <time>2016-01-28T14:16:13.143Z</time>
      </trkpt>
      <trkpt lat="45.97429" lon="4.42744">
        <ele>675.93963623</ele>
        <time>2016-01-28T14:16:14.098Z</time>
      </trkpt>
      <trkpt lat="45.97421" lon="4.42744">
        <ele>673.439819336</ele>
        <time>2016-01-28T14:16:32.121Z</time>
      </trkpt>
      <trkpt lat="45.97418" lon="4.42744">
        <ele>673.352355957</ele>
        <time>2016-01-28T14:16:33.099Z</time>
      </trkpt>
      <trkpt lat="45.97411" lon="4.42742">
        <ele>672.051452637</ele>
        <time>2016-01-28T14:16:40.123Z</time>
      </trkpt>
      <trkpt lat="45.97407" lon="4.42743">
        <ele>671.864562988</ele>
        <time>2016-01-28T14:16:41.099Z</time>
      </trkpt>
      <trkpt lat="45.97399" lon="4.42742">
        <ele>670.722045898</ele>
        <time>2016-01-28T14:16:47.12Z</time>
      </trkpt>
      <trkpt lat="45.97397" lon="4.42742">
        <ele>670.593994141</ele>
        <time>2016-01-28T14:16:48.102Z</time>
      </trkpt>
      <trkpt lat="45.97389" lon="4.42741">
        <ele>670.855712891</ele>
        <time>2016-01-28T14:16:55.097Z</time>
      </trkpt>
      <trkpt lat="45.97386" lon="4.42741">
        <ele>670.981384277</ele>
        <time>2016-01-28T14:16:56.066Z</time>
      </trkpt>
      <trkpt lat="45.97378" lon="4.4274">
        <ele>671.2734375</ele>
        <time>2016-01-28T14:16:59.105Z</time>
      </trkpt>
      <trkpt lat="45.97375" lon="4.4274">
        <ele>671.411010742</ele>
        <time>2016-01-28T14:17:00.075Z</time>
      </trkpt>
      <trkpt lat="45.97367" lon="4.4274">
        <ele>673.251281738</ele>
        <time>2016-01-28T14:17:08.106Z</time>
      </trkpt>
      <trkpt lat="45.97366" lon="4.4274">
        <ele>673.479248047</ele>
        <time>2016-01-28T14:17:09.065Z</time>
      </trkpt>
      <trkpt lat="45.97357" lon="4.42737">
        <ele>674.529724121</ele>
        <time>2016-01-28T14:17:15.1Z</time>
      </trkpt>
      <trkpt lat="45.97356" lon="4.42736">
        <ele>674.743713379</ele>
        <time>2016-01-28T14:17:16.069Z</time>
      </trkpt>
      <trkpt lat="45.97348" lon="4.4273">
        <ele>677.037475586</ele>
        <time>2016-01-28T14:17:22.108Z</time>
      </trkpt>
      <trkpt lat="45.97347" lon="4.42728">
        <ele>677.496398926</ele>
        <time>2016-01-28T14:17:23.065Z</time>
      </trkpt>
      <trkpt lat="45.9734" lon="4.42722">
        <ele>679.866149902</ele>
        <time>2016-01-28T14:17:30.109Z</time>
      </trkpt>
      <trkpt lat="45.97338" lon="4.42721">
        <ele>679.956665039</ele>
        <time>2016-01-28T14:17:31.078Z</time>
      </trkpt>
      <trkpt lat="45.9733" lon="4.42717">
        <ele>678.949279785</ele>
        <time>2016-01-28T14:17:37.095Z</time>
      </trkpt>
      <trkpt lat="45.97328" lon="4.42717">
        <ele>678.809875488</ele>
        <time>2016-01-28T14:17:38.067Z</time>
      </trkpt>
      <trkpt lat="45.97322" lon="4.42708">
        <ele>678.008850098</ele>
        <time>2016-01-28T14:17:44.105Z</time>
      </trkpt>
      <trkpt lat="45.97322" lon="4.42707">
        <ele>677.975524902</ele>
        <time>2016-01-28T14:17:45.074Z</time>
      </trkpt>
      <trkpt lat="45.97317" lon="4.42698">
        <ele>678.933044434</ele>
        <time>2016-01-28T14:17:53.095Z</time>
      </trkpt>
      <trkpt lat="45.97316" lon="4.42696">
        <ele>679.073730469</ele>
        <time>2016-01-28T14:17:54.072Z</time>
      </trkpt>
      <trkpt lat="45.97311" lon="4.42688">
        <ele>680.672668457</ele>
        <time>2016-01-28T14:18:00.094Z</time>
      </trkpt>
      <trkpt lat="45.9731" lon="4.42686">
        <ele>681.065734863</ele>
        <time>2016-01-28T14:18:01.072Z</time>
      </trkpt>
      <trkpt lat="45.97304" lon="4.42678">
        <ele>684.989074707</ele>
        <time>2016-01-28T14:18:11.108Z</time>
      </trkpt>
      <trkpt lat="45.97303" lon="4.42678">
        <ele>685.167419434</ele>
        <time>2016-01-28T14:18:12.081Z</time>
      </trkpt>
      <trkpt lat="45.97294" lon="4.42675">
        <ele>684.373901367</ele>
        <time>2016-01-28T14:18:20.219Z</time>
      </trkpt>
      <trkpt lat="45.97292" lon="4.42674">
        <ele>684.155029297</ele>
        <time>2016-01-28T14:18:21.08Z</time>
      </trkpt>
      <trkpt lat="45.97286" lon="4.42668">
        <ele>682.962402344</ele>
        <time>2016-01-28T14:18:26.131Z</time>
      </trkpt>
      <trkpt lat="45.97285" lon="4.42666">
        <ele>682.799621582</ele>
        <time>2016-01-28T14:18:27.081Z</time>
      </trkpt>
      <trkpt lat="45.97279" lon="4.4266">
        <ele>682.288269043</ele>
        <time>2016-01-28T14:18:31.108Z</time>
      </trkpt>
      <trkpt lat="45.97276" lon="4.4266">
        <ele>681.946472168</ele>
        <time>2016-01-28T14:18:32.079Z</time>
      </trkpt>
      <trkpt lat="45.9727" lon="4.42658">
        <ele>681.062988281</ele>
        <time>2016-01-28T14:18:34.111Z</time>
      </trkpt>
      <trkpt lat="45.97267" lon="4.42657">
        <ele>680.586364746</ele>
        <time>2016-01-28T14:18:35.121Z</time>
      </trkpt>
      <trkpt lat="45.97259" lon="4.42653">
        <ele>678.342163086</ele>
        <time>2016-01-28T14:18:39.101Z</time>
      </trkpt>
      <trkpt lat="45.97258" lon="4.42651">
        <ele>677.715332031</ele>
        <time>2016-01-28T14:18:40.062Z</time>
      </trkpt>
      <trkpt lat="45.9725" lon="4.42647">
        <ele>675.499633789</ele>
        <time>2016-01-28T14:18:44.177Z</time>
      </trkpt>
      <trkpt lat="45.97248" lon="4.42646">
        <ele>674.987609863</ele>
        <time>2016-01-28T14:18:45.082Z</time>
      </trkpt>
      <trkpt lat="45.97241" lon="4.42638">
        <ele>671.886535645</ele>
        <time>2016-01-28T14:18:51.121Z</time>
      </trkpt>
      <trkpt lat="45.9724" lon="4.42637">
        <ele>671.399902344</ele>
        <time>2016-01-28T14:18:52.075Z</time>
      </trkpt>
      <trkpt lat="45.97233" lon="4.42628">
        <ele>667.867614746</ele>
        <time>2016-01-28T14:18:59.101Z</time>
      </trkpt>
      <trkpt lat="45.97232" lon="4.42626">
        <ele>667.380371094</ele>
        <time>2016-01-28T14:19:00.07Z</time>
      </trkpt>
      <trkpt lat="45.97226" lon="4.42618">
        <ele>663.380493164</ele>
        <time>2016-01-28T14:19:08.117Z</time>
      </trkpt>
      <trkpt lat="45.97226" lon="4.42616">
        <ele>662.905822754</ele>
        <time>2016-01-28T14:19:09.075Z</time>
      </trkpt>
      <trkpt lat="45.97226" lon="4.42603">
        <ele>661.241638184</ele>
        <time>2016-01-28T14:19:21.092Z</time>
      </trkpt>
      <trkpt lat="45.97226" lon="4.42602">
        <ele>661.302612305</ele>
        <time>2016-01-28T14:19:22.086Z</time>
      </trkpt>
      <trkpt lat="45.9722" lon="4.42593">
        <ele>660.942565918</ele>
        <time>2016-01-28T14:19:30.102Z</time>
      </trkpt>
      <trkpt lat="45.97219" lon="4.42591">
        <ele>660.773986816</ele>
        <time>2016-01-28T14:19:31.088Z</time>
      </trkpt>
      <trkpt lat="45.97213" lon="4.42583">
        <ele>659.783081055</ele>
        <time>2016-01-28T14:19:36.114Z</time>
      </trkpt>
      <trkpt lat="45.97212" lon="4.42582">
        <ele>659.680175781</ele>
        <time>2016-01-28T14:19:37.089Z</time>
      </trkpt>
      <trkpt lat="45.97207" lon="4.42573">
        <ele>659.140808105</ele>
        <time>2016-01-28T14:19:44.115Z</time>
      </trkpt>
      <trkpt lat="45.97206" lon="4.42572">
        <ele>659.051330566</ele>
        <time>2016-01-28T14:19:45.088Z</time>
      </trkpt>
      <trkpt lat="45.97199" lon="4.42568">
        <ele>658.399719238</ele>
        <time>2016-01-28T14:19:49.119Z</time>
      </trkpt>
      <trkpt lat="45.97196" lon="4.42568">
        <ele>658.080505371</ele>
        <time>2016-01-28T14:19:50.087Z</time>
      </trkpt>
      <trkpt lat="45.97189" lon="4.42566">
        <ele>657.307495117</ele>
        <time>2016-01-28T14:19:52.118Z</time>
      </trkpt>
      <trkpt lat="45.97186" lon="4.42565">
        <ele>656.838989258</ele>
        <time>2016-01-28T14:19:53.082Z</time>
      </trkpt>
      <trkpt lat="45.97178" lon="4.4256">
        <ele>655.302185059</ele>
        <time>2016-01-28T14:19:56.139Z</time>
      </trkpt>
      <trkpt lat="45.97176" lon="4.42559">
        <ele>654.790161133</ele>
        <time>2016-01-28T14:19:57.088Z</time>
      </trkpt>
      <trkpt lat="45.97168" lon="4.42552">
        <ele>652.249938965</ele>
        <time>2016-01-28T14:20:02.114Z</time>
      </trkpt>
      <trkpt lat="45.97167" lon="4.42551">
        <ele>651.788024902</ele>
        <time>2016-01-28T14:20:03.08Z</time>
      </trkpt>
      <trkpt lat="45.97162" lon="4.42543">
        <ele>649.442749023</ele>
        <time>2016-01-28T14:20:08.121Z</time>
      </trkpt>
      <trkpt lat="45.97161" lon="4.42542">
        <ele>649.053466797</ele>
        <time>2016-01-28T14:20:09.077Z</time>
      </trkpt>
      <trkpt lat="45.97156" lon="4.42532">
        <ele>646.511169434</ele>
        <time>2016-01-28T14:20:15.155Z</time>
      </trkpt>
      <trkpt lat="45.97154" lon="4.4253">
        <ele>646.106140137</ele>
        <time>2016-01-28T14:20:16.09Z</time>
      </trkpt>
      <trkpt lat="45.97148" lon="4.42522">
        <ele>643.810424805</ele>
        <time>2016-01-28T14:20:23.121Z</time>
      </trkpt>
      <trkpt lat="45.97147" lon="4.42521">
        <ele>643.606384277</ele>
        <time>2016-01-28T14:20:24.089Z</time>
      </trkpt>
      <trkpt lat="45.97141" lon="4.4251">
        <ele>641.901367188</ele>
        <time>2016-01-28T14:20:31.113Z</time>
      </trkpt>
      <trkpt lat="45.9714" lon="4.42509">
        <ele>641.662414551</ele>
        <time>2016-01-28T14:20:32.1Z</time>
      </trkpt>
      <trkpt lat="45.97135" lon="4.42501">
        <ele>640.330383301</ele>
        <time>2016-01-28T14:20:38.088Z</time>
      </trkpt>
      <trkpt lat="45.97134" lon="4.42499">
        <ele>640.123535156</ele>
        <time>2016-01-28T14:20:39.099Z</time>
      </trkpt>
      <trkpt lat="45.97129" lon="4.42489">
        <ele>638.584228516</ele>
        <time>2016-01-28T14:20:45.132Z</time>
      </trkpt>
      <trkpt lat="45.97128" lon="4.42488">
        <ele>638.261535645</ele>
        <time>2016-01-28T14:20:46.097Z</time>
      </trkpt>
      <trkpt lat="45.97123" lon="4.42478">
        <ele>636.494384766</ele>
        <time>2016-01-28T14:20:53.122Z</time>
      </trkpt>
      <trkpt lat="45.97123" lon="4.42477">
        <ele>636.252807617</ele>
        <time>2016-01-28T14:20:54.093Z</time>
      </trkpt>
      <trkpt lat="45.97118" lon="4.42467">
        <ele>634.99597168</ele>
        <time>2016-01-28T14:21:00.116Z</time>
      </trkpt>
      <trkpt lat="45.97118" lon="4.42465">
        <ele>634.846862793</ele>
        <time>2016-01-28T14:21:01.091Z</time>
      </trkpt>
      <trkpt lat="45.97114" lon="4.42454">
        <ele>634.18951416</ele>
        <time>2016-01-28T14:21:10.125Z</time>
      </trkpt>
      <trkpt lat="45.97113" lon="4.42452">
        <ele>634.089660645</ele>
        <time>2016-01-28T14:21:11.101Z</time>
      </trkpt>
      <trkpt lat="45.97107" lon="4.42445">
        <ele>634.015197754</ele>
        <time>2016-01-28T14:21:21.118Z</time>
      </trkpt>
      <trkpt lat="45.97106" lon="4.42442">
        <ele>633.913818359</ele>
        <time>2016-01-28T14:21:22.096Z</time>
      </trkpt>
      <trkpt lat="45.97111" lon="4.42451">
        <ele>633.028381348</ele>
        <time>2016-01-28T14:21:44.256Z</time>
      </trkpt>
      <trkpt lat="45.97112" lon="4.42451">
        <ele>633.30291748</ele>
        <time>2016-01-28T14:21:45.1Z</time>
      </trkpt>
      <trkpt lat="45.97119" lon="4.42447">
        <ele>633.475341797</ele>
        <time>2016-01-28T14:21:48.121Z</time>
      </trkpt>
      <trkpt lat="45.97121" lon="4.42445">
        <ele>633.387878418</ele>
        <time>2016-01-28T14:21:49.098Z</time>
      </trkpt>
      <trkpt lat="45.97128" lon="4.42438">
        <ele>632.682983398</ele>
        <time>2016-01-28T14:21:56.132Z</time>
      </trkpt>
      <trkpt lat="45.97129" lon="4.42437">
        <ele>632.650512695</ele>
        <time>2016-01-28T14:21:57.094Z</time>
      </trkpt>
      <trkpt lat="45.97132" lon="4.42426">
        <ele>631.536804199</ele>
        <time>2016-01-28T14:22:02.114Z</time>
      </trkpt>
      <trkpt lat="45.97132" lon="4.42424">
        <ele>631.318115234</ele>
        <time>2016-01-28T14:22:03.1Z</time>
      </trkpt>
      <trkpt lat="45.9714" lon="4.42417">
        <ele>634.230041504</ele>
        <time>2016-01-28T14:22:21.118Z</time>
      </trkpt>
      <trkpt lat="45.9714" lon="4.42417">
        <ele>634.510498047</ele>
        <time>2016-01-28T14:22:22.075Z</time>
      </trkpt>
      <trkpt lat="45.97148" lon="4.4241">
        <ele>636.447265625</ele>
        <time>2016-01-28T14:22:32.069Z</time>
      </trkpt>
      <trkpt lat="45.97149" lon="4.42409">
        <ele>636.564880371</ele>
        <time>2016-01-28T14:22:33.079Z</time>
      </trkpt>
      <trkpt lat="45.97154" lon="4.42399">
        <ele>637.29901123</ele>
        <time>2016-01-28T14:22:41.091Z</time>
      </trkpt>
      <trkpt lat="45.97154" lon="4.42397">
        <ele>637.231262207</ele>
        <time>2016-01-28T14:22:42.076Z</time>
      </trkpt>
      <trkpt lat="45.9716" lon="4.4239">
        <ele>636.714599609</ele>
        <time>2016-01-28T14:22:55.097Z</time>
      </trkpt>
      <trkpt lat="45.97161" lon="4.42389">
        <ele>636.84387207</ele>
        <time>2016-01-28T14:22:56.072Z</time>
      </trkpt>
      <trkpt lat="45.97167" lon="4.42379">
        <ele>637.38269043</ele>
        <time>2016-01-28T14:23:08.107Z</time>
      </trkpt>
      <trkpt lat="45.97167" lon="4.42379">
        <ele>637.351867676</ele>
        <time>2016-01-28T14:23:09.078Z</time>
      </trkpt>
      <trkpt lat="45.97173" lon="4.42369">
        <ele>637.476806641</ele>
        <time>2016-01-28T14:23:21.129Z</time>
      </trkpt>
      <trkpt lat="45.97174" lon="4.42368">
        <ele>637.476623535</ele>
        <time>2016-01-28T14:23:22.099Z</time>
      </trkpt>
      <trkpt lat="45.9718" lon="4.42362">
        <ele>639.670166016</ele>
        <time>2016-01-28T14:23:48.138Z</time>
      </trkpt>
      <trkpt lat="45.97181" lon="4.42361">
        <ele>639.761474609</ele>
        <time>2016-01-28T14:23:49.088Z</time>
      </trkpt>
      <trkpt lat="45.97189" lon="4.42355">
        <ele>641.664611816</ele>
        <time>2016-01-28T14:24:01.113Z</time>
      </trkpt>
      <trkpt lat="45.9719" lon="4.42355">
        <ele>641.984130859</ele>
        <time>2016-01-28T14:24:02.075Z</time>
      </trkpt>
      <trkpt lat="45.97197" lon="4.42349">
        <ele>646.562194824</ele>
        <time>2016-01-28T14:24:17.111Z</time>
      </trkpt>
      <trkpt lat="45.97198" lon="4.42349">
        <ele>646.859802246</ele>
        <time>2016-01-28T14:24:18.085Z</time>
      </trkpt>
      <trkpt lat="45.97206" lon="4.42345">
        <ele>648.621826172</ele>
        <time>2016-01-28T14:24:26.116Z</time>
      </trkpt>
      <trkpt lat="45.97207" lon="4.42345">
        <ele>648.731140137</ele>
        <time>2016-01-28T14:24:27.085Z</time>
      </trkpt>
      <trkpt lat="45.97214" lon="4.4234">
        <ele>650.610046387</ele>
        <time>2016-01-28T14:24:35.113Z</time>
      </trkpt>
      <trkpt lat="45.97215" lon="4.4234">
        <ele>650.83581543</ele>
        <time>2016-01-28T14:24:36.088Z</time>
      </trkpt>
      <trkpt lat="45.97222" lon="4.42333">
        <ele>655.05847168</ele>
        <time>2016-01-28T14:24:52.129Z</time>
      </trkpt>
      <trkpt lat="45.97223" lon="4.42333">
        <ele>655.42175293</ele>
        <time>2016-01-28T14:24:53.088Z</time>
      </trkpt>
      <trkpt lat="45.97231" lon="4.42328">
        <ele>657.979736328</ele>
        <time>2016-01-28T14:25:01.131Z</time>
      </trkpt>
      <trkpt lat="45.97231" lon="4.42328">
        <ele>658.485717773</ele>
        <time>2016-01-28T14:25:02.084Z</time>
      </trkpt>
      <trkpt lat="45.9724" lon="4.42325">
        <ele>663.849365234</ele>
        <time>2016-01-28T14:25:13.129Z</time>
      </trkpt>
      <trkpt lat="45.97241" lon="4.42324">
        <ele>664.315979004</ele>
        <time>2016-01-28T14:25:14.089Z</time>
      </trkpt>
      <trkpt lat="45.97249" lon="4.42321">
        <ele>666.120910645</ele>
        <time>2016-01-28T14:25:24.123Z</time>
      </trkpt>
      <trkpt lat="45.9725" lon="4.42321">
        <ele>666.295410156</ele>
        <time>2016-01-28T14:25:25.099Z</time>
      </trkpt>
      <trkpt lat="45.97258" lon="4.4232">
        <ele>671.136230469</ele>
        <time>2016-01-28T14:25:59.113Z</time>
      </trkpt>
      <trkpt lat="45.9726" lon="4.42319">
        <ele>671.282226562</ele>
        <time>2016-01-28T14:26:00.082Z</time>
      </trkpt>
      <trkpt lat="45.97269" lon="4.4232">
        <ele>671.676452637</ele>
        <time>2016-01-28T14:26:07.118Z</time>
      </trkpt>
      <trkpt lat="45.97271" lon="4.42319">
        <ele>671.768432617</ele>
        <time>2016-01-28T14:26:08.095Z</time>
      </trkpt>
      <trkpt lat="45.97278" lon="4.42318">
        <ele>672.145141602</ele>
        <time>2016-01-28T14:26:13.114Z</time>
      </trkpt>
      <trkpt lat="45.97281" lon="4.42316">
        <ele>672.265930176</ele>
        <time>2016-01-28T14:26:14.094Z</time>
      </trkpt>
      <trkpt lat="45.97288" lon="4.42316">
        <ele>672.346557617</ele>
        <time>2016-01-28T14:26:16.114Z</time>
      </trkpt>
      <trkpt lat="45.97291" lon="4.42315">
        <ele>672.391967773</ele>
        <time>2016-01-28T14:26:17.092Z</time>
      </trkpt>
      <trkpt lat="45.97298" lon="4.42311">
        <ele>674.54901123</ele>
        <time>2016-01-28T14:26:33.13Z</time>
      </trkpt>
      <trkpt lat="45.97301" lon="4.4231">
        <ele>674.556091309</ele>
        <time>2016-01-28T14:26:34.095Z</time>
      </trkpt>
      <trkpt lat="45.97309" lon="4.42304">
        <ele>674.952026367</ele>
        <time>2016-01-28T14:26:39.12Z</time>
      </trkpt>
      <trkpt lat="45.97312" lon="4.42303">
        <ele>674.986022949</ele>
        <time>2016-01-28T14:26:40.094Z</time>
      </trkpt>
      <trkpt lat="45.9732" lon="4.42298">
        <ele>675.864440918</ele>
        <time>2016-01-28T14:26:50.122Z</time>
      </trkpt>
      <trkpt lat="45.97321" lon="4.42297">
        <ele>675.805786133</ele>
        <time>2016-01-28T14:26:51.095Z</time>
      </trkpt>
      <trkpt lat="45.9733" lon="4.42296">
        <ele>677.434753418</ele>
        <time>2016-01-28T14:27:20.242Z</time>
      </trkpt>
      <trkpt lat="45.97332" lon="4.42297">
        <ele>677.630310059</ele>
        <time>2016-01-28T14:27:21.119Z</time>
      </trkpt>
      <trkpt lat="45.9734" lon="4.42297">
        <ele>678.162231445</ele>
        <time>2016-01-28T14:27:49.107Z</time>
      </trkpt>
      <trkpt lat="45.97341" lon="4.42297">
        <ele>678.304504395</ele>
        <time>2016-01-28T14:27:50.075Z</time>
      </trkpt>
      <trkpt lat="45.97347" lon="4.42289">
        <ele>678.950317383</ele>
        <time>2016-01-28T14:27:53.111Z</time>
      </trkpt>
      <trkpt lat="45.97349" lon="4.42288">
        <ele>679.07800293</ele>
        <time>2016-01-28T14:27:54.073Z</time>
      </trkpt>
      <trkpt lat="45.97356" lon="4.42292">
        <ele>679.030578613</ele>
        <time>2016-01-28T14:28:05.103Z</time>
      </trkpt>
      <trkpt lat="45.97357" lon="4.42292">
        <ele>678.982421875</ele>
        <time>2016-01-28T14:28:06.077Z</time>
      </trkpt>
      <trkpt lat="45.97356" lon="4.42304">
        <ele>677.653015137</ele>
        <time>2016-01-28T14:28:16.107Z</time>
      </trkpt>
      <trkpt lat="45.97356" lon="4.42306">
        <ele>677.399291992</ele>
        <time>2016-01-28T14:28:17.078Z</time>
      </trkpt>
      <trkpt lat="45.97353" lon="4.42317">
        <ele>676.694458008</ele>
        <time>2016-01-28T14:28:25.214Z</time>
      </trkpt>
      <trkpt lat="45.97352" lon="4.42318">
        <ele>676.579223633</ele>
        <time>2016-01-28T14:28:26.078Z</time>
      </trkpt>
      <trkpt lat="45.9735" lon="4.42329">
        <ele>676.860595703</ele>
        <time>2016-01-28T14:28:36.105Z</time>
      </trkpt>
      <trkpt lat="45.97349" lon="4.4233">
        <ele>677.066955566</ele>
        <time>2016-01-28T14:28:37.079Z</time>
      </trkpt>
      <trkpt lat="45.97345" lon="4.4234">
        <ele>678.585571289</ele>
        <time>2016-01-28T14:28:49.107Z</time>
      </trkpt>
      <trkpt lat="45.97344" lon="4.42342">
        <ele>678.645507812</ele>
        <time>2016-01-28T14:28:50.08Z</time>
      </trkpt>
      <trkpt lat="45.97339" lon="4.42352">
        <ele>679.346984863</ele>
        <time>2016-01-28T14:28:59.114Z</time>
      </trkpt>
      <trkpt lat="45.97338" lon="4.42353">
        <ele>679.592651367</ele>
        <time>2016-01-28T14:29:00.09Z</time>
      </trkpt>
      <trkpt lat="45.97333" lon="4.4236">
        <ele>681.806884766</ele>
        <time>2016-01-28T14:29:09.127Z</time>
      </trkpt>
      <trkpt lat="45.97331" lon="4.42361">
        <ele>682.167541504</ele>
        <time>2016-01-28T14:29:10.08Z</time>
      </trkpt>
      <trkpt lat="45.97324" lon="4.42368">
        <ele>684.399963379</ele>
        <time>2016-01-28T14:29:18.134Z</time>
      </trkpt>
      <trkpt lat="45.97324" lon="4.42369">
        <ele>684.713195801</ele>
        <time>2016-01-28T14:29:19.08Z</time>
      </trkpt>
      <trkpt lat="45.97317" lon="4.42377">
        <ele>687.021789551</ele>
        <time>2016-01-28T14:29:27.103Z</time>
      </trkpt>
      <trkpt lat="45.97316" lon="4.42378">
        <ele>687.285522461</ele>
        <time>2016-01-28T14:29:28.083Z</time>
      </trkpt>
      <trkpt lat="45.97309" lon="4.42384">
        <ele>688.914855957</ele>
        <time>2016-01-28T14:29:34.1Z</time>
      </trkpt>
      <trkpt lat="45.97308" lon="4.42385">
        <ele>689.051025391</ele>
        <time>2016-01-28T14:29:35.074Z</time>
      </trkpt>
      <trkpt lat="45.97303" lon="4.42395">
        <ele>690.470153809</ele>
        <time>2016-01-28T14:29:45.115Z</time>
      </trkpt>
      <trkpt lat="45.97302" lon="4.42397">
        <ele>690.38458252</ele>
        <time>2016-01-28T14:29:46.097Z</time>
      </trkpt>
      <trkpt lat="45.973" lon="4.42409">
        <ele>690.064147949</ele>
        <time>2016-01-28T14:29:52.106Z</time>
      </trkpt>
      <trkpt lat="45.973" lon="4.4241">
        <ele>690.083557129</ele>
        <time>2016-01-28T14:29:53.09Z</time>
      </trkpt>
      <trkpt lat="45.97304" lon="4.42421">
        <ele>688.798400879</ele>
        <time>2016-01-28T14:30:16.115Z</time>
      </trkpt>
      <trkpt lat="45.97305" lon="4.42422">
        <ele>688.77947998</ele>
        <time>2016-01-28T14:30:17.087Z</time>
      </trkpt>
      <trkpt lat="45.97312" lon="4.42428">
        <ele>688.176696777</ele>
        <time>2016-01-28T14:30:25.133Z</time>
      </trkpt>
      <trkpt lat="45.97313" lon="4.42428">
        <ele>688.151184082</ele>
        <time>2016-01-28T14:30:26.088Z</time>
      </trkpt>
      <trkpt lat="45.97321" lon="4.42433">
        <ele>687.02154541</ele>
        <time>2016-01-28T14:30:39.202Z</time>
      </trkpt>
      <trkpt lat="45.97321" lon="4.42433">
        <ele>686.988891602</ele>
        <time>2016-01-28T14:30:40.089Z</time>
      </trkpt>
      <trkpt lat="45.97327" lon="4.42439">
        <ele>686.397094727</ele>
        <time>2016-01-28T14:30:48.119Z</time>
      </trkpt>
      <trkpt lat="45.97329" lon="4.4244">
        <ele>686.397216797</ele>
        <time>2016-01-28T14:30:49.067Z</time>
      </trkpt>
      <trkpt lat="45.97337" lon="4.42442">
        <ele>687.215576172</ele>
        <time>2016-01-28T14:30:55.103Z</time>
      </trkpt>
      <trkpt lat="45.97339" lon="4.42443">
        <ele>687.433959961</ele>
        <time>2016-01-28T14:30:56.089Z</time>
      </trkpt>
      <trkpt lat="45.97347" lon="4.42447">
        <ele>688.712036133</ele>
        <time>2016-01-28T14:31:06.111Z</time>
      </trkpt>
      <trkpt lat="45.97348" lon="4.42449">
        <ele>688.707092285</ele>
        <time>2016-01-28T14:31:07.093Z</time>
      </trkpt>
      <trkpt lat="45.97355" lon="4.42451">
        <ele>689.031311035</ele>
        <time>2016-01-28T14:31:14.139Z</time>
      </trkpt>
      <trkpt lat="45.97357" lon="4.42452">
        <ele>689.147399902</ele>
        <time>2016-01-28T14:31:15.092Z</time>
      </trkpt>
      <trkpt lat="45.97366" lon="4.42454">
        <ele>691.513671875</ele>
        <time>2016-01-28T14:31:26.238Z</time>
      </trkpt>
      <trkpt lat="45.97366" lon="4.42453">
        <ele>691.788085938</ele>
        <time>2016-01-28T14:31:27.091Z</time>
      </trkpt>
      <trkpt lat="45.97375" lon="4.4245">
        <ele>693.124816895</ele>
        <time>2016-01-28T14:31:45.134Z</time>
      </trkpt>
      <trkpt lat="45.97375" lon="4.4245">
        <ele>693.110046387</ele>
        <time>2016-01-28T14:31:46.094Z</time>
      </trkpt>
      <trkpt lat="45.97384" lon="4.42452">
        <ele>693.040039062</ele>
        <time>2016-01-28T14:31:58.144Z</time>
      </trkpt>
      <trkpt lat="45.97385" lon="4.42452">
        <ele>693.135986328</ele>
        <time>2016-01-28T14:31:59.094Z</time>
      </trkpt>
      <trkpt lat="45.97393" lon="4.42455">
        <ele>694.070495605</ele>
        <time>2016-01-28T14:32:08.118Z</time>
      </trkpt>
      <trkpt lat="45.97394" lon="4.42455">
        <ele>694.312561035</ele>
        <time>2016-01-28T14:32:09.093Z</time>
      </trkpt>
      <trkpt lat="45.97402" lon="4.42456">
        <ele>695.645507812</ele>
        <time>2016-01-28T14:32:17.124Z</time>
      </trkpt>
      <trkpt lat="45.97403" lon="4.42457">
        <ele>695.824279785</ele>
        <time>2016-01-28T14:32:18.098Z</time>
      </trkpt>
      <trkpt lat="45.97411" lon="4.42458">
        <ele>696.978942871</ele>
        <time>2016-01-28T14:32:26.125Z</time>
      </trkpt>
      <trkpt lat="45.97412" lon="4.42458">
        <ele>697.149108887</ele>
        <time>2016-01-28T14:32:27.102Z</time>
      </trkpt>
      <trkpt lat="45.97421" lon="4.42458">
        <ele>699.244873047</ele>
        <time>2016-01-28T14:32:36.125Z</time>
      </trkpt>
      <trkpt lat="45.97421" lon="4.42459">
        <ele>699.604980469</ele>
        <time>2016-01-28T14:32:37.093Z</time>
      </trkpt>
      <trkpt lat="45.9743" lon="4.42459">
        <ele>702.476379395</ele>
        <time>2016-01-28T14:32:49.238Z</time>
      </trkpt>
      <trkpt lat="45.9743" lon="4.42459">
        <ele>702.620300293</ele>
        <time>2016-01-28T14:32:50.076Z</time>
      </trkpt>
      <trkpt lat="45.97438" lon="4.42459">
        <ele>704.970275879</ele>
        <time>2016-01-28T14:33:00.096Z</time>
      </trkpt>
      <trkpt lat="45.97439" lon="4.42459">
        <ele>705.238586426</ele>
        <time>2016-01-28T14:33:01.066Z</time>
      </trkpt>
      <trkpt lat="45.97448" lon="4.42458">
        <ele>708.165893555</ele>
        <time>2016-01-28T14:33:12.089Z</time>
      </trkpt>
      <trkpt lat="45.97449" lon="4.42458">
        <ele>708.400512695</ele>
        <time>2016-01-28T14:33:13.071Z</time>
      </trkpt>
      <trkpt lat="45.97457" lon="4.42456">
        <ele>711.285705566</ele>
        <time>2016-01-28T14:33:26.087Z</time>
      </trkpt>
      <trkpt lat="45.97458" lon="4.42456">
        <ele>711.602722168</ele>
        <time>2016-01-28T14:33:27.068Z</time>
      </trkpt>
      <trkpt lat="45.97466" lon="4.42455">
        <ele>714.290344238</ele>
        <time>2016-01-28T14:33:38.1Z</time>
      </trkpt>
      <trkpt lat="45.97467" lon="4.42455">
        <ele>714.423583984</ele>
        <time>2016-01-28T14:33:39.076Z</time>
      </trkpt>
      <trkpt lat="45.97475" lon="4.42452">
        <ele>717.059570312</ele>
        <time>2016-01-28T14:33:49.089Z</time>
      </trkpt>
      <trkpt lat="45.97476" lon="4.42452">
        <ele>717.326538086</ele>
        <time>2016-01-28T14:33:50.073Z</time>
      </trkpt>
      <trkpt lat="45.97485" lon="4.42449">
        <ele>720.440979004</ele>
        <time>2016-01-28T14:34:06.102Z</time>
      </trkpt>
      <trkpt lat="45.97486" lon="4.42449">
        <ele>720.688232422</ele>
        <time>2016-01-28T14:34:07.089Z</time>
      </trkpt>
      <trkpt lat="45.97494" lon="4.42447">
        <ele>723.163330078</ele>
        <time>2016-01-28T14:34:17.112Z</time>
      </trkpt>
      <trkpt lat="45.97495" lon="4.42447">
        <ele>723.45690918</ele>
        <time>2016-01-28T14:34:18.083Z</time>
      </trkpt>
      <trkpt lat="45.97504" lon="4.42445">
        <ele>726.683898926</ele>
        <time>2016-01-28T14:34:30.111Z</time>
      </trkpt>
      <trkpt lat="45.97505" lon="4.42444">
        <ele>726.874145508</ele>
        <time>2016-01-28T14:34:31.084Z</time>
      </trkpt>
      <trkpt lat="45.97513" lon="4.42441">
        <ele>728.246337891</ele>
        <time>2016-01-28T14:34:41.204Z</time>
      </trkpt>
      <trkpt lat="45.97514" lon="4.42441">
        <ele>728.316711426</ele>
        <time>2016-01-28T14:34:42.086Z</time>
      </trkpt>
      <trkpt lat="45.97522" lon="4.42438">
        <ele>730.377868652</ele>
        <time>2016-01-28T14:34:54.123Z</time>
      </trkpt>
      <trkpt lat="45.97523" lon="4.42438">
        <ele>730.570739746</ele>
        <time>2016-01-28T14:34:55.085Z</time>
      </trkpt>
      <trkpt lat="45.97531" lon="4.42434">
        <ele>731.202575684</ele>
        <time>2016-01-28T14:35:06.115Z</time>
      </trkpt>
      <trkpt lat="45.97532" lon="4.42433">
        <ele>731.206787109</ele>
        <time>2016-01-28T14:35:07.073Z</time>
      </trkpt>
      <trkpt lat="45.9754" lon="4.42431">
        <ele>731.402099609</ele>
        <time>2016-01-28T14:35:17.111Z</time>
      </trkpt>
      <trkpt lat="45.97541" lon="4.42431">
        <ele>731.481140137</ele>
        <time>2016-01-28T14:35:18.071Z</time>
      </trkpt>
      <trkpt lat="45.97549" lon="4.42429">
        <ele>732.391479492</ele>
        <time>2016-01-28T14:35:26.109Z</time>
      </trkpt>
      <trkpt lat="45.9755" lon="4.42429">
        <ele>732.593505859</ele>
        <time>2016-01-28T14:35:27.089Z</time>
      </trkpt>
      <trkpt lat="45.97559" lon="4.42429">
        <ele>734.029907227</ele>
        <time>2016-01-28T14:35:38.104Z</time>
      </trkpt>
      <trkpt lat="45.9756" lon="4.42429">
        <ele>734.213623047</ele>
        <time>2016-01-28T14:35:39.064Z</time>
      </trkpt>
      <trkpt lat="45.97568" lon="4.4243">
        <ele>735.627319336</ele>
        <time>2016-01-28T14:35:49.116Z</time>
      </trkpt>
      <trkpt lat="45.97569" lon="4.4243">
        <ele>735.797546387</ele>
        <time>2016-01-28T14:35:50.088Z</time>
      </trkpt>
      <trkpt lat="45.97577" lon="4.42431">
        <ele>737.886474609</ele>
        <time>2016-01-28T14:36:03.122Z</time>
      </trkpt>
      <trkpt lat="45.97578" lon="4.42431">
        <ele>737.971496582</ele>
        <time>2016-01-28T14:36:04.084Z</time>
      </trkpt>
      <trkpt lat="45.97586" lon="4.42431">
        <ele>738.866821289</ele>
        <time>2016-01-28T14:36:17.132Z</time>
      </trkpt>
      <trkpt lat="45.97587" lon="4.42431">
        <ele>738.972717285</ele>
        <time>2016-01-28T14:36:18.092Z</time>
      </trkpt>
      <trkpt lat="45.97595" lon="4.42429">
        <ele>740.18536377</ele>
        <time>2016-01-28T14:36:31.213Z</time>
      </trkpt>
      <trkpt lat="45.97597" lon="4.42429">
        <ele>740.320129395</ele>
        <time>2016-01-28T14:36:32.094Z</time>
      </trkpt>
      <trkpt lat="45.97605" lon="4.42426">
        <ele>741.256713867</ele>
        <time>2016-01-28T14:36:38.121Z</time>
      </trkpt>
      <trkpt lat="45.97605" lon="4.42425">
        <ele>741.353759766</ele>
        <time>2016-01-28T14:36:39.089Z</time>
      </trkpt>
      <trkpt lat="45.97614" lon="4.42425">
        <ele>743.155395508</ele>
        <time>2016-01-28T14:36:54.104Z</time>
      </trkpt>
      <trkpt lat="45.97615" lon="4.42426">
        <ele>743.348999023</ele>
        <time>2016-01-28T14:36:55.088Z</time>
      </trkpt>
      <trkpt lat="45.97624" lon="4.42424">
        <ele>744.913818359</ele>
        <time>2016-01-28T14:37:05.134Z</time>
      </trkpt>
      <trkpt lat="45.97624" lon="4.42423">
        <ele>744.99005127</ele>
        <time>2016-01-28T14:37:06.095Z</time>
      </trkpt>
      <trkpt lat="45.97626" lon="4.42411">
        <ele>745.16619873</ele>
        <time>2016-01-28T14:37:14.134Z</time>
      </trkpt>
      <trkpt lat="45.97626" lon="4.4241">
        <ele>745.185424805</ele>
        <time>2016-01-28T14:37:15.095Z</time>
      </trkpt>
      <trkpt lat="45.97624" lon="4.42405">
        <ele>744.867004395</ele>
        <time>2016-01-28T14:37:47.8Z</time>
      </trkpt>
    </trkseg>
  </trk>
</gpx>